<?xml version='1.0' encoding='UTF-8'?><gpx version="1.1" creator="JPX - https://github.com/jenetics/jpx" xmlns="http://www.topografix.com/GPX/1/1"><trk><trkseg><trkpt lat="47.24660460841585" lon="-1.5688718296602078"><ele>28.999999999999996</ele><time>2026-04-12T08:39:45.999Z</time></trkpt><trkpt lat="47.24668432031501" lon="-1.5688724163934298"><ele>29.0</ele><time>2026-04-12T08:39:47.999Z</time></trkpt><trkpt lat="47.24675950598646" lon="-1.5688733384027786"><ele>29.0</ele><time>2026-04-12T08:39:50Z</time></trkpt><trkpt lat="47.24684466612268" lon="-1.5688648726805754"><ele>29.0</ele><time>2026-04-12T08:39:52Z</time></trkpt><trkpt lat="47.24692618013103" lon="-1.5688494499787398"><ele>28.999999999999996</ele><time>2026-04-12T08:39:54Z</time></trkpt><trkpt lat="47.246979279487626" lon="-1.5687583386912651"><ele>29.0</ele><time>2026-04-12T08:39:56Z</time></trkpt><trkpt lat="47.247000820978776" lon="-1.5686497092261618"><ele>28.799999999999997</ele><time>2026-04-12T08:39:58Z</time></trkpt><trkpt lat="47.24699160088529" lon="-1.5685111563667362"><ele>28.599999999999998</ele><time>2026-04-12T08:40:00Z</time></trkpt><trkpt lat="47.24700304218312" lon="-1.5683836676194969"><ele>28.4</ele><time>2026-04-12T08:40:02Z</time></trkpt><trkpt lat="47.24702001553704" lon="-1.568233380095631"><ele>28.2</ele><time>2026-04-12T08:40:04Z</time></trkpt><trkpt lat="47.24705207631667" lon="-1.5680721122786105"><ele>28.0</ele><time>2026-04-12T08:40:06Z</time></trkpt><trkpt lat="47.247095117389456" lon="-1.5679095871761142"><ele>28.000000000000004</ele><time>2026-04-12T08:40:08Z</time></trkpt><trkpt lat="47.24714637272735" lon="-1.5677695255741175"><ele>28.0</ele><time>2026-04-12T08:40:10Z</time></trkpt><trkpt lat="47.247191760733024" lon="-1.5677038952722844"><ele>28.0</ele><time>2026-04-12T08:40:12Z</time></trkpt><trkpt lat="47.247219882018165" lon="-1.5676116105183657"><ele>28.0</ele><time>2026-04-12T08:40:17.001Z</time></trkpt><trkpt lat="47.247305335521" lon="-1.5675728861257132"><ele>28.000000000000004</ele><time>2026-04-12T08:40:20.001Z</time></trkpt><trkpt lat="47.2474052478068" lon="-1.567594176159769"><ele>28.0</ele><time>2026-04-12T08:40:22.001Z</time></trkpt><trkpt lat="47.24749120422383" lon="-1.5676365047707852"><ele>28.0</ele><time>2026-04-12T08:40:24.001Z</time></trkpt><trkpt lat="47.247578753202454" lon="-1.5677189826979931"><ele>27.999999999999996</ele><time>2026-04-12T08:40:26.001Z</time></trkpt><trkpt lat="47.24767195996572" lon="-1.5678057353958188"><ele>27.999999999999996</ele><time>2026-04-12T08:40:28.001Z</time></trkpt><trkpt lat="47.24773197439243" lon="-1.5678368322565852"><ele>28.0</ele><time>2026-04-12T08:40:29.001Z</time></trkpt><trkpt lat="47.24783347923984" lon="-1.5679106768235265"><ele>28.0</ele><time>2026-04-12T08:40:31.001Z</time></trkpt><trkpt lat="47.24792823665519" lon="-1.56795384362486"><ele>28.333333333333336</ele><time>2026-04-12T08:40:33.001Z</time></trkpt><trkpt lat="47.24795149643649" lon="-1.568044871093303"><ele>28.666666666666668</ele><time>2026-04-12T08:41:07.001Z</time></trkpt><trkpt lat="47.24800979257305" lon="-1.5680815000101627"><ele>29.0</ele><time>2026-04-12T08:41:10.001Z</time></trkpt><trkpt lat="47.248077057346" lon="-1.5681407600655854"><ele>29.333333333333336</ele><time>2026-04-12T08:41:12.001Z</time></trkpt><trkpt lat="47.2481513210081" lon="-1.5681931469604076"><ele>29.666666666666668</ele><time>2026-04-12T08:41:14.001Z</time></trkpt><trkpt lat="47.24826984111895" lon="-1.5681426040842832"><ele>30.0</ele><time>2026-04-12T08:41:15.001Z</time></trkpt><trkpt lat="47.248369208581046" lon="-1.5681898780181707"><ele>30.4</ele><time>2026-04-12T08:41:17.001Z</time></trkpt><trkpt lat="47.24843894601543" lon="-1.5681933984175027"><ele>30.8</ele><time>2026-04-12T08:41:18.001Z</time></trkpt><trkpt lat="47.248552143617765" lon="-1.5682258363827766"><ele>31.200000000000003</ele><time>2026-04-12T08:41:20.001Z</time></trkpt><trkpt lat="47.248660312078194" lon="-1.5682647284134927"><ele>31.6</ele><time>2026-04-12T08:41:22.001Z</time></trkpt><trkpt lat="47.24875485994597" lon="-1.5682902093991342"><ele>32.0</ele><time>2026-04-12T08:41:24.001Z</time></trkpt><trkpt lat="47.2488334402882" lon="-1.5683168638512197"><ele>32.0</ele><time>2026-04-12T08:41:26.001Z</time></trkpt><trkpt lat="47.2489312151887" lon="-1.5683466196074787"><ele>32.0</ele><time>2026-04-12T08:41:28.001Z</time></trkpt><trkpt lat="47.249041814401046" lon="-1.5683984197690788"><ele>32.0</ele><time>2026-04-12T08:41:30.001Z</time></trkpt><trkpt lat="47.24914738447149" lon="-1.5684250742211643"><ele>32.0</ele><time>2026-04-12T08:41:32.001Z</time></trkpt><trkpt lat="47.24925877996464" lon="-1.5684603620335165"><ele>32.0</ele><time>2026-04-12T08:41:34.001Z</time></trkpt><trkpt lat="47.24936367948283" lon="-1.5684881061330143"><ele>32.800000000000004</ele><time>2026-04-12T08:41:36.001Z</time></trkpt><trkpt lat="47.24946002945979" lon="-1.5685098990812605"><ele>33.6</ele><time>2026-04-12T08:41:38.001Z</time></trkpt><trkpt lat="47.249556588984326" lon="-1.568528003992111"><ele>34.400000000000006</ele><time>2026-04-12T08:41:40.001Z</time></trkpt><trkpt lat="47.24965876438399" lon="-1.5685763675734108"><ele>35.2</ele><time>2026-04-12T08:41:42.001Z</time></trkpt><trkpt lat="47.249758844307856" lon="-1.5685891918852632"><ele>36.0</ele><time>2026-04-12T08:41:44.001Z</time></trkpt><trkpt lat="47.24986009769817" lon="-1.5685981605216568"><ele>36.4</ele><time>2026-04-12T08:41:46.001Z</time></trkpt><trkpt lat="47.24995900415559" lon="-1.568611320109636"><ele>36.8</ele><time>2026-04-12T08:41:48.001Z</time></trkpt><trkpt lat="47.25004454147746" lon="-1.5686183609083002"><ele>37.199999999999996</ele><time>2026-04-12T08:41:50.001Z</time></trkpt><trkpt lat="47.25014235828747" lon="-1.5686039440348452"><ele>37.6</ele><time>2026-04-12T08:41:52.001Z</time></trkpt><trkpt lat="47.25024000745942" lon="-1.5685701649650639"><ele>38.0</ele><time>2026-04-12T08:41:54.001Z</time></trkpt><trkpt lat="47.25034042265941" lon="-1.5685477852835958"><ele>38.0</ele><time>2026-04-12T08:41:56.001Z</time></trkpt><trkpt lat="47.25043471907009" lon="-1.568500930444867"><ele>38.0</ele><time>2026-04-12T08:41:58.001Z</time></trkpt><trkpt lat="47.250521304129855" lon="-1.5684794727727476"><ele>38.0</ele><time>2026-04-12T08:42:00.001Z</time></trkpt><trkpt lat="47.25057784006675" lon="-1.568422811107308"><ele>38.0</ele><time>2026-04-12T08:42:01.001Z</time></trkpt><trkpt lat="47.25065851588477" lon="-1.56837746501115"><ele>38.0</ele><time>2026-04-12T08:42:03.001Z</time></trkpt><trkpt lat="47.25074707069178" lon="-1.5682825818672481"><ele>37.75</ele><time>2026-04-12T08:42:05.001Z</time></trkpt><trkpt lat="47.250838475345866" lon="-1.5682082343861163"><ele>37.5</ele><time>2026-04-12T08:42:07.001Z</time></trkpt><trkpt lat="47.25093993828376" lon="-1.5681189671173394"><ele>37.25</ele><time>2026-04-12T08:42:09.001Z</time></trkpt><trkpt lat="47.251030295199946" lon="-1.5680223237737714"><ele>37.0</ele><time>2026-04-12T08:42:11.001Z</time></trkpt><trkpt lat="47.2511295369335" lon="-1.5679310448482333"><ele>37.0</ele><time>2026-04-12T08:42:13.001Z</time></trkpt><trkpt lat="47.2511845222183" lon="-1.5678691025837956"><ele>37.0</ele><time>2026-04-12T08:42:14.001Z</time></trkpt><trkpt lat="47.25127689079125" lon="-1.5677784103914794"><ele>37.0</ele><time>2026-04-12T08:42:16.001Z</time></trkpt><trkpt lat="47.251325128644005" lon="-1.5677017159774598"><ele>37.0</ele><time>2026-04-12T08:42:17.001Z</time></trkpt><trkpt lat="47.25140006285836" lon="-1.5675400290652806"><ele>37.0</ele><time>2026-04-12T08:42:19.001Z</time></trkpt><trkpt lat="47.251440086446" lon="-1.5674595627948338"><ele>36.6</ele><time>2026-04-12T08:42:20.001Z</time></trkpt><trkpt lat="47.251503914638654" lon="-1.5672770887627892"><ele>36.2</ele><time>2026-04-12T08:42:22.001Z</time></trkpt><trkpt lat="47.25153002426703" lon="-1.5671450737878374"><ele>35.8</ele><time>2026-04-12T08:42:23.001Z</time></trkpt><trkpt lat="47.25155093711545" lon="-1.5670330915614654"><ele>35.4</ele><time>2026-04-12T08:42:24.001Z</time></trkpt><trkpt lat="47.251584129452006" lon="-1.5668999869391014"><ele>35.0</ele><time>2026-04-12T08:42:25.001Z</time></trkpt><trkpt lat="47.25161111918022" lon="-1.5667874179795074"><ele>35.0</ele><time>2026-04-12T08:42:26.001Z</time></trkpt><trkpt lat="47.25162779916753" lon="-1.5666916966452884"><ele>35.0</ele><time>2026-04-12T08:42:27.001Z</time></trkpt><trkpt lat="47.25163312167604" lon="-1.5665991604342746"><ele>35.0</ele><time>2026-04-12T08:42:28.001Z</time></trkpt><trkpt lat="47.25164477252145" lon="-1.5664926264449641"><ele>35.0</ele><time>2026-04-12T08:42:29.001Z</time></trkpt><trkpt lat="47.25164711945434" lon="-1.5663867630079076"><ele>35.0</ele><time>2026-04-12T08:42:30.001Z</time></trkpt><trkpt lat="47.25165902175684" lon="-1.566284671427278"><ele>35.0</ele><time>2026-04-12T08:42:31.001Z</time></trkpt><trkpt lat="47.25166698456486" lon="-1.5661911293878836"><ele>35.0</ele><time>2026-04-12T08:42:32.001Z</time></trkpt><trkpt lat="47.25168538284232" lon="-1.5661016106620114"><ele>34.666666666666664</ele><time>2026-04-12T08:42:33.001Z</time></trkpt><trkpt lat="47.251699380620614" lon="-1.565983342008261"><ele>34.33333333333333</ele><time>2026-04-12T08:42:34.001Z</time></trkpt><trkpt lat="47.25170491267671" lon="-1.5658782329424898"><ele>34.0</ele><time>2026-04-12T08:42:35.001Z</time></trkpt><trkpt lat="47.251721425025956" lon="-1.565783014522461"><ele>33.666666666666664</ele><time>2026-04-12T08:42:36.001Z</time></trkpt><trkpt lat="47.25173341114749" lon="-1.5656784083708801"><ele>33.333333333333336</ele><time>2026-04-12T08:42:37.001Z</time></trkpt><trkpt lat="47.251746109730796" lon="-1.5655011311188018"><ele>33.0</ele><time>2026-04-12T08:42:39.001Z</time></trkpt><trkpt lat="47.251764340370194" lon="-1.5653847903027807"><ele>32.666666666666664</ele><time>2026-04-12T08:42:40.001Z</time></trkpt><trkpt lat="47.251784373118774" lon="-1.565279262141851"><ele>32.333333333333336</ele><time>2026-04-12T08:42:41.001Z</time></trkpt><trkpt lat="47.25179480858822" lon="-1.5651682857438598"><ele>32.0</ele><time>2026-04-12T08:42:42.001Z</time></trkpt><trkpt lat="47.25180163983931" lon="-1.5650610812022956"><ele>31.666666666666668</ele><time>2026-04-12T08:42:43.001Z</time></trkpt><trkpt lat="47.25180310667236" lon="-1.5649456623956235"><ele>31.333333333333336</ele><time>2026-04-12T08:42:44.001Z</time></trkpt><trkpt lat="47.251828671477035" lon="-1.564821442590621"><ele>31.0</ele><time>2026-04-12T08:42:45.001Z</time></trkpt><trkpt lat="47.25184028041293" lon="-1.5647243801518946"><ele>31.0</ele><time>2026-04-12T08:42:46.001Z</time></trkpt><trkpt lat="47.251849835782544" lon="-1.5646040998413828"><ele>31.000000000000004</ele><time>2026-04-12T08:42:47.001Z</time></trkpt><trkpt lat="47.25185830150475" lon="-1.5645072888597515"><ele>31.0</ele><time>2026-04-12T08:42:48.001Z</time></trkpt><trkpt lat="47.251884830228285" lon="-1.5644017606988216"><ele>31.0</ele><time>2026-04-12T08:42:49.001Z</time></trkpt><trkpt lat="47.25189203866501" lon="-1.5643062908216978"><ele>31.000000000000004</ele><time>2026-04-12T08:42:50.001Z</time></trkpt><trkpt lat="47.25188914690842" lon="-1.5641855914160274"><ele>31.0</ele><time>2026-04-12T08:42:51.001Z</time></trkpt><trkpt lat="47.2518959781595" lon="-1.56408115290251"><ele>31.0</ele><time>2026-04-12T08:42:52.001Z</time></trkpt><trkpt lat="47.25188650660892" lon="-1.5639042947455903"><ele>30.500000000000004</ele><time>2026-04-12T08:42:54.001Z</time></trkpt><trkpt lat="47.2519083833762" lon="-1.563816368581321"><ele>30.0</ele><time>2026-04-12T08:42:55.001Z</time></trkpt><trkpt lat="47.25197250493546" lon="-1.56368636526313"><ele>29.5</ele><time>2026-04-12T08:42:57.001Z</time></trkpt><trkpt lat="47.252022419168846" lon="-1.5636244229986924"><ele>29.0</ele><time>2026-04-12T08:42:58.001Z</time></trkpt><trkpt lat="47.25208142776717" lon="-1.563554182650115"><ele>28.500000000000004</ele><time>2026-04-12T08:42:59.001Z</time></trkpt><trkpt lat="47.252132808833615" lon="-1.5634095948204056"><ele>28.0</ele><time>2026-04-12T08:43:01.001Z</time></trkpt><trkpt lat="47.25218934477051" lon="-1.5632600616678254"><ele>28.000000000000004</ele><time>2026-04-12T08:43:03.001Z</time></trkpt><trkpt lat="47.252232553481356" lon="-1.5631559584304346"><ele>28.0</ele><time>2026-04-12T08:43:04.001Z</time></trkpt><trkpt lat="47.25229332227935" lon="-1.5629996359362852"><ele>28.0</ele><time>2026-04-12T08:43:06.001Z</time></trkpt><trkpt lat="47.252319767183856" lon="-1.5629142243429672"><ele>28.0</ele><time>2026-04-12T08:43:07.001Z</time></trkpt><trkpt lat="47.25235505499621" lon="-1.5628139767810356"><ele>28.000000000000004</ele><time>2026-04-12T08:43:08.001Z</time></trkpt><trkpt lat="47.25239369556983" lon="-1.5627127233907232"><ele>28.0</ele><time>2026-04-12T08:43:09.001Z</time></trkpt><trkpt lat="47.25242713936348" lon="-1.5625907666995773"><ele>27.799999999999997</ele><time>2026-04-12T08:43:10.001Z</time></trkpt><trkpt lat="47.25247378465463" lon="-1.5624066162868984"><ele>27.599999999999998</ele><time>2026-04-12T08:43:12.001Z</time></trkpt><trkpt lat="47.25251012020488" lon="-1.5623129904284723"><ele>27.400000000000002</ele><time>2026-04-12T08:43:13.001Z</time></trkpt><trkpt lat="47.25258488678117" lon="-1.5621409099563603"><ele>27.200000000000003</ele><time>2026-04-12T08:43:15.001Z</time></trkpt><trkpt lat="47.25260596726765" lon="-1.5620303526535275"><ele>27.0</ele><time>2026-04-12T08:43:16.001Z</time></trkpt><trkpt lat="47.25268324841489" lon="-1.5618899557754042"><ele>27.0</ele><time>2026-04-12T08:43:18.001Z</time></trkpt><trkpt lat="47.25271271080454" lon="-1.5617959108218193"><ele>27.000000000000004</ele><time>2026-04-12T08:43:19.001Z</time></trkpt><trkpt lat="47.25274519067933" lon="-1.5617073141052962"><ele>27.000000000000004</ele><time>2026-04-12T08:43:20.001Z</time></trkpt><trkpt lat="47.25279988259752" lon="-1.5615539252772568"><ele>27.0</ele><time>2026-04-12T08:43:22.001Z</time></trkpt><trkpt lat="47.252856921448604" lon="-1.5613970160498856"><ele>27.0</ele><time>2026-04-12T08:43:24.001Z</time></trkpt><trkpt lat="47.252927748530404" lon="-1.5612768195584055"><ele>26.8</ele><time>2026-04-12T08:43:26.001Z</time></trkpt><trkpt lat="47.252997444055275" lon="-1.5611034818008178"><ele>26.6</ele><time>2026-04-12T08:43:28.001Z</time></trkpt><trkpt lat="47.253067852041916" lon="-1.5609316527858013"><ele>26.400000000000002</ele><time>2026-04-12T08:43:30.001Z</time></trkpt><trkpt lat="47.25311483260919" lon="-1.5607974585160247"><ele>26.200000000000003</ele><time>2026-04-12T08:43:31.001Z</time></trkpt><trkpt lat="47.253136457919375" lon="-1.5607029944672814"><ele>26.0</ele><time>2026-04-12T08:43:32.001Z</time></trkpt><trkpt lat="47.25317426030268" lon="-1.5605283156051863"><ele>25.666666666666664</ele><time>2026-04-12T08:43:34.001Z</time></trkpt><trkpt lat="47.25319768772204" lon="-1.5603592526182162"><ele>25.333333333333332</ele><time>2026-04-12T08:43:36.001Z</time></trkpt><trkpt lat="47.25319358058949" lon="-1.5602573286756503"><ele>25.0</ele><time>2026-04-12T08:43:37.001Z</time></trkpt><trkpt lat="47.25319379013707" lon="-1.5601556561901795"><ele>24.666666666666664</ele><time>2026-04-12T08:43:38.001Z</time></trkpt><trkpt lat="47.253184402405516" lon="-1.5600539837047085"><ele>24.333333333333332</ele><time>2026-04-12T08:43:39.001Z</time></trkpt><trkpt lat="47.25317799024959" lon="-1.5599544066950306"><ele>24.0</ele><time>2026-04-12T08:43:40.001Z</time></trkpt><trkpt lat="47.25315594584425" lon="-1.5598524827524645"><ele>24.0</ele><time>2026-04-12T08:43:41.001Z</time></trkpt><trkpt lat="47.253144756003515" lon="-1.5597464516773445"><ele>24.0</ele><time>2026-04-12T08:43:42.001Z</time></trkpt><trkpt lat="47.253147186755434" lon="-1.5596206393107395"><ele>24.0</ele><time>2026-04-12T08:43:43.001Z</time></trkpt><trkpt lat="47.253151922530726" lon="-1.5594996046289424"><ele>24.0</ele><time>2026-04-12T08:43:44.001Z</time></trkpt><trkpt lat="47.25314517509867" lon="-1.5594031289234378"><ele>24.0</ele><time>2026-04-12T08:43:45.001Z</time></trkpt><trkpt lat="47.253134739629225" lon="-1.5593074075892188"><ele>24.0</ele><time>2026-04-12T08:43:46.001Z</time></trkpt><trkpt lat="47.25312514235009" lon="-1.5591787453755355"><ele>24.0</ele><time>2026-04-12T08:43:47.001Z</time></trkpt><trkpt lat="47.253124010793165" lon="-1.5589876379832244"><ele>24.0</ele><time>2026-04-12T08:43:49.001Z</time></trkpt><trkpt lat="47.25311462306161" lon="-1.5588859654977534"><ele>24.0</ele><time>2026-04-12T08:43:50.001Z</time></trkpt><trkpt lat="47.25309886508365" lon="-1.5587904118015978"><ele>24.0</ele><time>2026-04-12T08:43:51.001Z</time></trkpt><trkpt lat="47.25308591504325" lon="-1.558610619978568"><ele>24.0</ele><time>2026-04-12T08:43:53.001Z</time></trkpt><trkpt lat="47.2530876333334" lon="-1.5584166627391784"><ele>24.166666666666668</ele><time>2026-04-12T08:43:55.001Z</time></trkpt><trkpt lat="47.25307355173607" lon="-1.5583247132613867"><ele>24.333333333333336</ele><time>2026-04-12T08:43:56.001Z</time></trkpt><trkpt lat="47.25306131415744" lon="-1.5582301653936115"><ele>24.5</ele><time>2026-04-12T08:43:57.001Z</time></trkpt><trkpt lat="47.2530532675304" lon="-1.5581374615445343"><ele>24.666666666666668</ele><time>2026-04-12T08:43:58.001Z</time></trkpt><trkpt lat="47.25304299969901" lon="-1.5580455120667425"><ele>24.833333333333336</ele><time>2026-04-12T08:43:59.001Z</time></trkpt><trkpt lat="47.25301793780853" lon="-1.5578674804433787"><ele>25.0</ele><time>2026-04-12T08:44:01.001Z</time></trkpt><trkpt lat="47.252999665259615" lon="-1.5576793067171775"><ele>25.25</ele><time>2026-04-12T08:44:03.001Z</time></trkpt><trkpt lat="47.252973681359784" lon="-1.5575048793121775"><ele>25.5</ele><time>2026-04-12T08:44:05.001Z</time></trkpt><trkpt lat="47.252930556467966" lon="-1.5573204774424037"><ele>25.75</ele><time>2026-04-12T08:44:07.001Z</time></trkpt><trkpt lat="47.252891203432576" lon="-1.5571499057128626"><ele>26.0</ele><time>2026-04-12T08:44:09.001Z</time></trkpt><trkpt lat="47.252867021641926" lon="-1.5569769032314018"><ele>26.0</ele><time>2026-04-12T08:44:11.001Z</time></trkpt><trkpt lat="47.252869242846266" lon="-1.5567996259793235"><ele>26.0</ele><time>2026-04-12T08:44:13.001Z</time></trkpt><trkpt lat="47.25286144767632" lon="-1.556623941288848"><ele>26.0</ele><time>2026-04-12T08:44:15.001Z</time></trkpt><trkpt lat="47.25283952899952" lon="-1.5564541239305925"><ele>26.0</ele><time>2026-04-12T08:44:17.001Z</time></trkpt><trkpt lat="47.25280910269101" lon="-1.5562708955272624"><ele>25.71428571428571</ele><time>2026-04-12T08:44:19.001Z</time></trkpt><trkpt lat="47.252797535664634" lon="-1.5561774373068997"><ele>25.42857142857143</ele><time>2026-04-12T08:44:20.001Z</time></trkpt><trkpt lat="47.25276560061355" lon="-1.556053888054151"><ele>25.142857142857142</ele><time>2026-04-12T08:44:21.001Z</time></trkpt><trkpt lat="47.25274950735946" lon="-1.555961100386042"><ele>24.857142857142854</ele><time>2026-04-12T08:44:22.001Z</time></trkpt><trkpt lat="47.25272947461088" lon="-1.5558681450798697"><ele>24.57142857142857</ele><time>2026-04-12T08:44:23.001Z</time></trkpt><trkpt lat="47.25270914849569" lon="-1.5557609405383055"><ele>24.285714285714285</ele><time>2026-04-12T08:44:24.001Z</time></trkpt><trkpt lat="47.25267235194077" lon="-1.5556634590044205"><ele>24.0</ele><time>2026-04-12T08:44:25.001Z</time></trkpt><trkpt lat="47.25266271275212" lon="-1.555568408222455"><ele>23.666666666666668</ele><time>2026-04-12T08:44:26.001Z</time></trkpt><trkpt lat="47.252639494880334" lon="-1.5553602855667055"><ele>23.333333333333332</ele><time>2026-04-12T08:44:28.001Z</time></trkpt><trkpt lat="47.25262436554511" lon="-1.5552555117770612"><ele>23.0</ele><time>2026-04-12T08:44:29.001Z</time></trkpt><trkpt lat="47.252612169875995" lon="-1.555154258386749"><ele>22.666666666666664</ele><time>2026-04-12T08:44:30.001Z</time></trkpt><trkpt lat="47.25259691481222" lon="-1.5550471376642165"><ele>22.333333333333332</ele><time>2026-04-12T08:44:31.001Z</time></trkpt><trkpt lat="47.25258295894344" lon="-1.554955104367393"><ele>22.0</ele><time>2026-04-12T08:44:32.001Z</time></trkpt><trkpt lat="47.252581198743776" lon="-1.5548412781223233"><ele>22.0</ele><time>2026-04-12T08:44:33.001Z</time></trkpt><trkpt lat="47.25256317765196" lon="-1.5547313913717444"><ele>22.0</ele><time>2026-04-12T08:44:34.001Z</time></trkpt><trkpt lat="47.25254100751807" lon="-1.5546308085336857"><ele>22.0</ele><time>2026-04-12T08:44:35.001Z</time></trkpt><trkpt lat="47.252515358894364" lon="-1.554525028915661"><ele>22.0</ele><time>2026-04-12T08:44:36.001Z</time></trkpt><trkpt lat="47.25250002001156" lon="-1.5544141363367012"><ele>22.0</ele><time>2026-04-12T08:44:37.001Z</time></trkpt><trkpt lat="47.252484806857304" lon="-1.5543065126999787"><ele>22.0</ele><time>2026-04-12T08:44:38.001Z</time></trkpt><trkpt lat="47.25246594757517" lon="-1.554206265138047"><ele>22.0</ele><time>2026-04-12T08:44:39.001Z</time></trkpt><trkpt lat="47.25245073442091" lon="-1.5540991444155146"><ele>21.666666666666664</ele><time>2026-04-12T08:44:40.001Z</time></trkpt><trkpt lat="47.252433509609894" lon="-1.5539867430939842"><ele>21.333333333333332</ele><time>2026-04-12T08:44:41.001Z</time></trkpt><trkpt lat="47.25240744189103" lon="-1.5538770239814685"><ele>21.0</ele><time>2026-04-12T08:44:42.001Z</time></trkpt><trkpt lat="47.252379572062985" lon="-1.5537828952088522"><ele>20.666666666666668</ele><time>2026-04-12T08:44:43.001Z</time></trkpt><trkpt lat="47.252347595102385" lon="-1.5536855813130304"><ele>20.333333333333336</ele><time>2026-04-12T08:44:44.001Z</time></trkpt><trkpt lat="47.252282635352806" lon="-1.5535401552930042"><ele>20.0</ele><time>2026-04-12T08:44:46.001Z</time></trkpt><trkpt lat="47.252222537107066" lon="-1.553384335713045"><ele>20.0</ele><time>2026-04-12T08:44:48.001Z</time></trkpt><trkpt lat="47.2522318829291" lon="-1.553285093979494"><ele>20.0</ele><time>2026-04-12T08:44:49.001Z</time></trkpt><trkpt lat="47.25226105195214" lon="-1.5531173720970313"><ele>20.0</ele><time>2026-04-12T08:44:51.001Z</time></trkpt><trkpt lat="47.25227936641057" lon="-1.5529415197684922"><ele>20.0</ele><time>2026-04-12T08:44:53.001Z</time></trkpt><trkpt lat="47.25225899838586" lon="-1.552756866441623"><ele>20.0</ele><time>2026-04-12T08:44:55.001Z</time></trkpt><trkpt lat="47.25223330785264" lon="-1.5526600554599916"><ele>19.833333333333336</ele><time>2026-04-12T08:44:56.001Z</time></trkpt><trkpt lat="47.25221905861725" lon="-1.5525565389558231"><ele>19.666666666666668</ele><time>2026-04-12T08:44:57.001Z</time></trkpt><trkpt lat="47.252186620651976" lon="-1.552452268080369"><ele>19.5</ele><time>2026-04-12T08:44:58.001Z</time></trkpt><trkpt lat="47.252170736945466" lon="-1.5523575525745306"><ele>19.333333333333332</ele><time>2026-04-12T08:44:59.001Z</time></trkpt><trkpt lat="47.25216269031842" lon="-1.5522447321578414"><ele>19.166666666666664</ele><time>2026-04-12T08:45:00.001Z</time></trkpt><trkpt lat="47.25211826623161" lon="-1.5520571451648624"><ele>19.0</ele><time>2026-04-12T08:45:02.001Z</time></trkpt><trkpt lat="47.25211059679021" lon="-1.5519501082613616"><ele>18.833333333333332</ele><time>2026-04-12T08:45:03.001Z</time></trkpt><trkpt lat="47.25210389126767" lon="-1.5518525429084449"><ele>18.666666666666664</ele><time>2026-04-12T08:45:04.001Z</time></trkpt><trkpt lat="47.2520653764226" lon="-1.5516715776189711"><ele>18.5</ele><time>2026-04-12T08:45:06.001Z</time></trkpt><trkpt lat="47.25205171392043" lon="-1.5515674743815804"><ele>18.333333333333332</ele><time>2026-04-12T08:45:07.001Z</time></trkpt><trkpt lat="47.25202409554948" lon="-1.5514611080303335"><ele>18.166666666666668</ele><time>2026-04-12T08:45:08.001Z</time></trkpt><trkpt lat="47.25200712219556" lon="-1.551360525192275"><ele>18.0</ele><time>2026-04-12T08:45:09.001Z</time></trkpt><trkpt lat="47.25198729899456" lon="-1.5512570086881063"><ele>17.833333333333332</ele><time>2026-04-12T08:45:10.001Z</time></trkpt><trkpt lat="47.25197489377786" lon="-1.5511505585178278"><ele>17.666666666666668</ele><time>2026-04-12T08:45:11.001Z</time></trkpt><trkpt lat="47.251971541016594" lon="-1.551047628746881"><ele>17.5</ele><time>2026-04-12T08:45:12.001Z</time></trkpt><trkpt lat="47.25196068645199" lon="-1.5509343054160019"><ele>17.333333333333336</ele><time>2026-04-12T08:45:13.001Z</time></trkpt><trkpt lat="47.25196139891376" lon="-1.5508406795575755"><ele>17.166666666666668</ele><time>2026-04-12T08:45:14.001Z</time></trkpt><trkpt lat="47.25195293319155" lon="-1.55064496211852"><ele>17.0</ele><time>2026-04-12T08:45:16.001Z</time></trkpt><trkpt lat="47.251948155506746" lon="-1.550549240784301"><ele>16.999999999999996</ele><time>2026-04-12T08:45:17.001Z</time></trkpt><trkpt lat="47.25194983188738" lon="-1.5504509210600987"><ele>17.0</ele><time>2026-04-12T08:45:18.001Z</time></trkpt><trkpt lat="47.25195347801526" lon="-1.5503542777165307"><ele>17.0</ele><time>2026-04-12T08:45:19.001Z</time></trkpt><trkpt lat="47.25196093790908" lon="-1.5502601489439143"><ele>17.0</ele><time>2026-04-12T08:45:20.001Z</time></trkpt><trkpt lat="47.2519644163989" lon="-1.5501578897252215"><ele>17.0</ele><time>2026-04-12T08:45:21.001Z</time></trkpt><trkpt lat="47.25197309166868" lon="-1.5500651020571123"><ele>16.999999999999996</ele><time>2026-04-12T08:45:22.001Z</time></trkpt><trkpt lat="47.25199698009272" lon="-1.5499628428384196"><ele>17.0</ele><time>2026-04-12T08:45:23.001Z</time></trkpt><trkpt lat="47.252004020891384" lon="-1.5498565603062042"><ele>17.0</ele><time>2026-04-12T08:45:24.001Z</time></trkpt><trkpt lat="47.25201718047936" lon="-1.5497625153526196"><ele>17.0</ele><time>2026-04-12T08:45:25.001Z</time></trkpt><trkpt lat="47.25204379302193" lon="-1.5495927818133957"><ele>17.0</ele><time>2026-04-12T08:45:27.001Z</time></trkpt><trkpt lat="47.252078871286706" lon="-1.5494148340090637"><ele>17.0</ele><time>2026-04-12T08:45:29.001Z</time></trkpt><trkpt lat="47.2521031788059" lon="-1.549242418260825"><ele>17.0</ele><time>2026-04-12T08:45:31.001Z</time></trkpt><trkpt lat="47.2521258937635" lon="-1.5491380635663392"><ele>16.999999999999996</ele><time>2026-04-12T08:45:32.001Z</time></trkpt><trkpt lat="47.25217635282059" lon="-1.5490746125593307"><ele>17.0</ele><time>2026-04-12T08:45:33.001Z</time></trkpt><trkpt lat="47.252222243740455" lon="-1.5489995107069137"><ele>17.0</ele><time>2026-04-12T08:45:34.001Z</time></trkpt><trkpt lat="47.25227387626399" lon="-1.5489317011102557"><ele>17.0</ele><time>2026-04-12T08:45:35.001Z</time></trkpt><trkpt lat="47.252319180450634" lon="-1.5488579403623461"><ele>17.0</ele><time>2026-04-12T08:45:36.001Z</time></trkpt><trkpt lat="47.2523502773114" lon="-1.5487665776177764"><ele>16.999999999999996</ele><time>2026-04-12T08:45:37.001Z</time></trkpt><trkpt lat="47.25237869196315" lon="-1.5486648213132737"><ele>17.0</ele><time>2026-04-12T08:45:38.001Z</time></trkpt><trkpt lat="47.25240907636215" lon="-1.5485743805780527"><ele>16.666666666666668</ele><time>2026-04-12T08:45:39.001Z</time></trkpt><trkpt lat="47.252439879856304" lon="-1.5484741330161211"><ele>16.333333333333336</ele><time>2026-04-12T08:45:40.001Z</time></trkpt><trkpt lat="47.25247177299787" lon="-1.5483862906708832"><ele>16.0</ele><time>2026-04-12T08:45:41.001Z</time></trkpt><trkpt lat="47.25252239969303" lon="-1.5482278727009409"><ele>15.666666666666668</ele><time>2026-04-12T08:45:43.001Z</time></trkpt><trkpt lat="47.25255433474411" lon="-1.5481245238348358"><ele>15.333333333333334</ele><time>2026-04-12T08:45:44.001Z</time></trkpt><trkpt lat="47.252589622556464" lon="-1.5480260364725702"><ele>15.0</ele><time>2026-04-12T08:45:45.001Z</time></trkpt><trkpt lat="47.252598297826246" lon="-1.5478542912765851"><ele>15.0</ele><time>2026-04-12T08:45:47.001Z</time></trkpt><trkpt lat="47.25259947129269" lon="-1.5476546343430388"><ele>15.0</ele><time>2026-04-12T08:45:49.001Z</time></trkpt><trkpt lat="47.25258580879052" lon="-1.5474739205106602"><ele>15.0</ele><time>2026-04-12T08:45:51.001Z</time></trkpt><trkpt lat="47.25255978298117" lon="-1.547311143951069"><ele>15.0</ele><time>2026-04-12T08:45:53.001Z</time></trkpt><trkpt lat="47.25253752902825" lon="-1.547133196146737"><ele>15.2</ele><time>2026-04-12T08:45:55.001Z</time></trkpt><trkpt lat="47.252540630332426" lon="-1.547032361851583"><ele>15.4</ele><time>2026-04-12T08:45:56.001Z</time></trkpt><trkpt lat="47.25253555928101" lon="-1.5469398256405693"><ele>15.600000000000001</ele><time>2026-04-12T08:45:57.001Z</time></trkpt><trkpt lat="47.25250395950605" lon="-1.5467676613494257"><ele>15.8</ele><time>2026-04-12T08:45:59.001Z</time></trkpt><trkpt lat="47.25248141218652" lon="-1.5466022025808195"><ele>16.0</ele><time>2026-04-12T08:46:01.001Z</time></trkpt><trkpt lat="47.25245563783427" lon="-1.5464259311571218"><ele>16.0</ele><time>2026-04-12T08:46:03.001Z</time></trkpt><trkpt lat="47.25242282268335" lon="-1.54626265168334"><ele>16.0</ele><time>2026-04-12T08:46:05.001Z</time></trkpt><trkpt lat="47.25239461757918" lon="-1.5460923314108943"><ele>16.0</ele><time>2026-04-12T08:46:07.001Z</time></trkpt><trkpt lat="47.252368843226925" lon="-1.545926285909066"><ele>16.0</ele><time>2026-04-12T08:46:09.001Z</time></trkpt><trkpt lat="47.25235254042526" lon="-1.545829307289371"><ele>16.0</ele><time>2026-04-12T08:46:10.001Z</time></trkpt><trkpt lat="47.25232194647868" lon="-1.545667285101065"><ele>16.400000000000002</ele><time>2026-04-12T08:46:12.001Z</time></trkpt><trkpt lat="47.252294579564825" lon="-1.5455292351558296"><ele>16.8</ele><time>2026-04-12T08:46:14.001Z</time></trkpt><trkpt lat="47.25228959233244" lon="-1.545371823014268"><ele>17.200000000000003</ele><time>2026-04-12T08:46:16.001Z</time></trkpt><trkpt lat="47.252275971739785" lon="-1.5452233795091"><ele>17.6</ele><time>2026-04-12T08:46:18.001Z</time></trkpt><trkpt lat="47.252256022810236" lon="-1.5450989082470024"><ele>18.0</ele><time>2026-04-12T08:46:20.001Z</time></trkpt><trkpt lat="47.25223607388069" lon="-1.5449658036246383"><ele>19.2</ele><time>2026-04-12T08:46:22.001Z</time></trkpt><trkpt lat="47.252238839908735" lon="-1.5448290109648786"><ele>20.4</ele><time>2026-04-12T08:46:24.001Z</time></trkpt><trkpt lat="47.252204851291374" lon="-1.544726667927154"><ele>21.599999999999998</ele><time>2026-04-12T08:46:26.001Z</time></trkpt><trkpt lat="47.25219324235548" lon="-1.5446118358537038"><ele>22.8</ele><time>2026-04-12T08:46:28.001Z</time></trkpt><trkpt lat="47.252164869613246" lon="-1.544444197790273"><ele>24.0</ele><time>2026-04-12T08:46:30.001Z</time></trkpt><trkpt lat="47.2521414841034" lon="-1.5443079080447035"><ele>23.799999999999997</ele><time>2026-04-12T08:46:32.001Z</time></trkpt><trkpt lat="47.25212467838754" lon="-1.5441609732821062"><ele>23.599999999999998</ele><time>2026-04-12T08:46:34.001Z</time></trkpt><trkpt lat="47.252099323130444" lon="-1.5439893957241848"><ele>23.4</ele><time>2026-04-12T08:46:36.001Z</time></trkpt><trkpt lat="47.25207581189205" lon="-1.5438073407872988"><ele>23.2</ele><time>2026-04-12T08:46:38.001Z</time></trkpt><trkpt lat="47.25205485713412" lon="-1.5437162294998241"><ele>23.0</ele><time>2026-04-12T08:46:39.001Z</time></trkpt><trkpt lat="47.252047816335455" lon="-1.5436099469676088"><ele>23.0</ele><time>2026-04-12T08:46:40.001Z</time></trkpt><trkpt lat="47.25203595594247" lon="-1.543513555081136"><ele>23.0</ele><time>2026-04-12T08:46:41.001Z</time></trkpt><trkpt lat="47.25202254489739" lon="-1.5434084460153648"><ele>23.0</ele><time>2026-04-12T08:46:42.001Z</time></trkpt><trkpt lat="47.25200699646701" lon="-1.5432972181602784"><ele>23.0</ele><time>2026-04-12T08:46:43.001Z</time></trkpt><trkpt lat="47.25199199286033" lon="-1.5431864932193822"><ele>23.0</ele><time>2026-04-12T08:46:44.001Z</time></trkpt><trkpt lat="47.251974474682704" lon="-1.5430756006404227"><ele>23.0</ele><time>2026-04-12T08:46:45.001Z</time></trkpt><trkpt lat="47.25195540585299" lon="-1.5429696533843342"><ele>23.0</ele><time>2026-04-12T08:46:46.001Z</time></trkpt><trkpt lat="47.25194576666434" lon="-1.5428369678571288"><ele>22.166666666666668</ele><time>2026-04-12T08:46:47.001Z</time></trkpt><trkpt lat="47.251929841048316" lon="-1.5427233092501225"><ele>21.333333333333336</ele><time>2026-04-12T08:46:48.001Z</time></trkpt><trkpt lat="47.251906287900404" lon="-1.5425886120661558"><ele>20.5</ele><time>2026-04-12T08:46:49.001Z</time></trkpt><trkpt lat="47.25190259986301" lon="-1.5424553398057281"><ele>19.666666666666668</ele><time>2026-04-12T08:46:50.001Z</time></trkpt><trkpt lat="47.25190867674281" lon="-1.5423468779786884"><ele>18.833333333333332</ele><time>2026-04-12T08:46:51.001Z</time></trkpt><trkpt lat="47.25191311915149" lon="-1.5422371588661727"><ele>18.0</ele><time>2026-04-12T08:46:52.001Z</time></trkpt><trkpt lat="47.25191332869907" lon="-1.5421129390611705"><ele>17.0</ele><time>2026-04-12T08:46:53.001Z</time></trkpt><trkpt lat="47.25191450216551" lon="-1.5420123562231118"><ele>16.0</ele><time>2026-04-12T08:46:54.001Z</time></trkpt><trkpt lat="47.25186203145166" lon="-1.5419121086611802"><ele>15.0</ele><time>2026-04-12T08:46:55.001Z</time></trkpt><trkpt lat="47.25180088546802" lon="-1.5418396051987464"><ele>14.0</ele><time>2026-04-12T08:46:56.001Z</time></trkpt><trkpt lat="47.25173232150008" lon="-1.5417907387032561"><ele>13.0</ele><time>2026-04-12T08:46:57.001Z</time></trkpt><trkpt lat="47.251663464165524" lon="-1.541739525274878"><ele>12.0</ele><time>2026-04-12T08:46:58.001Z</time></trkpt><trkpt lat="47.25158299789508" lon="-1.541743380950337"><ele>12.0</ele><time>2026-04-12T08:46:59.001Z</time></trkpt><trkpt lat="47.25151673895051" lon="-1.5416982024922423"><ele>12.0</ele><time>2026-04-12T08:47:00.001Z</time></trkpt><trkpt lat="47.251483462794916" lon="-1.5415977034732156"><ele>12.0</ele><time>2026-04-12T08:47:03.002Z</time></trkpt><trkpt lat="47.25155466706236" lon="-1.5413128864034462"><ele>12.0</ele><time>2026-04-12T08:47:05.002Z</time></trkpt><trkpt lat="47.251591421707765" lon="-1.541188079865222"><ele>12.0</ele><time>2026-04-12T08:47:06.001Z</time></trkpt><trkpt lat="47.251634923785225" lon="-1.5410629380508707"><ele>10.666666666666666</ele><time>2026-04-12T08:47:07.001Z</time></trkpt><trkpt lat="47.25167704284866" lon="-1.5409806277617262"><ele>9.333333333333334</ele><time>2026-04-12T08:47:08.001Z</time></trkpt><trkpt lat="47.25174020048906" lon="-1.5409094654037998"><ele>8.0</ele><time>2026-04-12T08:47:09.001Z</time></trkpt><trkpt lat="47.25181752354582" lon="-1.5408491995199964"><ele>6.666666666666666</ele><time>2026-04-12T08:47:10.001Z</time></trkpt><trkpt lat="47.251890404193894" lon="-1.5408166777356906"><ele>5.333333333333333</ele><time>2026-04-12T08:47:11.001Z</time></trkpt><trkpt lat="47.25195603449573" lon="-1.5407817251994653"><ele>4.0</ele><time>2026-04-12T08:47:12.001Z</time></trkpt><trkpt lat="47.25202661012043" lon="-1.540764123202805"><ele>4.0</ele><time>2026-04-12T08:47:13.001Z</time></trkpt><trkpt lat="47.252111141613916" lon="-1.5407466050251766"><ele>3.9999999999999996</ele><time>2026-04-12T08:47:14.001Z</time></trkpt><trkpt lat="47.252183686985866" lon="-1.540730008856897"><ele>4.0</ele><time>2026-04-12T08:47:15.001Z</time></trkpt><trkpt lat="47.25225367587735" lon="-1.5407163463547273"><ele>4.0</ele><time>2026-04-12T08:47:16.001Z</time></trkpt><trkpt lat="47.252320898740784" lon="-1.5406972356154962"><ele>3.9999999999999996</ele><time>2026-04-12T08:47:17.001Z</time></trkpt><trkpt lat="47.252391600094036" lon="-1.5406950563206716"><ele>4.0</ele><time>2026-04-12T08:47:18.001Z</time></trkpt><trkpt lat="47.25246322345664" lon="-1.5406816452755971"><ele>4.0</ele><time>2026-04-12T08:47:19.001Z</time></trkpt><trkpt lat="47.25253874440421" lon="-1.5406594332321926"><ele>4.6</ele><time>2026-04-12T08:47:20.001Z</time></trkpt><trkpt lat="47.25261049349536" lon="-1.540655745194797"><ele>5.2</ele><time>2026-04-12T08:47:21.001Z</time></trkpt><trkpt lat="47.25274049681355" lon="-1.540608052165751"><ele>5.799999999999999</ele><time>2026-04-12T08:47:23Z</time></trkpt><trkpt lat="47.252814425199524" lon="-1.5405877679600757"><ele>6.3999999999999995</ele><time>2026-04-12T08:47:24Z</time></trkpt><trkpt lat="47.2529443866082" lon="-1.5405845828368705"><ele>7.0</ele><time>2026-04-12T08:47:26Z</time></trkpt><trkpt lat="47.253076653040246" lon="-1.54057527892435"><ele>7.6</ele><time>2026-04-12T08:47:28Z</time></trkpt><trkpt lat="47.25314731248398" lon="-1.5405401587500613"><ele>8.2</ele><time>2026-04-12T08:47:29Z</time></trkpt><trkpt lat="47.253216379366116" lon="-1.5405276697143357"><ele>8.8</ele><time>2026-04-12T08:47:30Z</time></trkpt><trkpt lat="47.25334889725526" lon="-1.5404863469317"><ele>9.4</ele><time>2026-04-12T08:47:32Z</time></trkpt><trkpt lat="47.2534803674065" lon="-1.5404624585076612"><ele>10.0</ele><time>2026-04-12T08:47:34Z</time></trkpt><trkpt lat="47.253552074588136" lon="-1.5404458623393815"><ele>10.0</ele><time>2026-04-12T08:47:35Z</time></trkpt><trkpt lat="47.2536153998666" lon="-1.5404252428575795"><ele>10.0</ele><time>2026-04-12T08:47:36Z</time></trkpt><trkpt lat="47.25370651115407" lon="-1.5403926372542422"><ele>10.0</ele><time>2026-04-12T08:47:38Z</time></trkpt><trkpt lat="47.25377675150265" lon="-1.5403736941530746"><ele>10.0</ele><time>2026-04-12T08:47:39Z</time></trkpt><trkpt lat="47.253848919688956" lon="-1.5403606183841267"><ele>10.0</ele><time>2026-04-12T08:47:40Z</time></trkpt><trkpt lat="47.2539285896786" lon="-1.5403268393143454"><ele>10.0</ele><time>2026-04-12T08:47:41Z</time></trkpt><trkpt lat="47.25400348198344" lon="-1.5402946528061667"><ele>9.0</ele><time>2026-04-12T08:47:42Z</time></trkpt><trkpt lat="47.25412267264654" lon="-1.5402628853931466"><ele>8.0</ele><time>2026-04-12T08:47:44Z</time></trkpt><trkpt lat="47.254201713993446" lon="-1.540231872351412"><ele>7.0</ele><time>2026-04-12T08:47:45Z</time></trkpt><trkpt lat="47.25428389855404" lon="-1.5402142703547517"><ele>6.0</ele><time>2026-04-12T08:47:46Z</time></trkpt><trkpt lat="47.25442119412799" lon="-1.5402063913657704"><ele>5.0</ele><time>2026-04-12T08:47:48Z</time></trkpt><trkpt lat="47.254496128342346" lon="-1.5402051340802947"><ele>5.0</ele><time>2026-04-12T08:47:49Z</time></trkpt><trkpt lat="47.25457294848491" lon="-1.5401949081584254"><ele>5.0</ele><time>2026-04-12T08:47:50Z</time></trkpt><trkpt lat="47.25464578722348" lon="-1.5401830058559218"><ele>5.0</ele><time>2026-04-12T08:47:51Z</time></trkpt><trkpt lat="47.25475600925019" lon="-1.540159117431883"><ele>5.0</ele><time>2026-04-12T08:47:53Z</time></trkpt><trkpt lat="47.254871176599764" lon="-1.5401554293944875"><ele>5.0</ele><time>2026-04-12T08:47:55Z</time></trkpt><trkpt lat="47.2549365554445" lon="-1.540159117431883"><ele>5.0</ele><time>2026-04-12T08:47:56Z</time></trkpt><trkpt lat="47.2550118668445" lon="-1.54016825370634"><ele>6.0</ele><time>2026-04-12T08:47:58Z</time></trkpt><trkpt lat="47.25507728759875" lon="-1.5401535853757897"><ele>7.0</ele><time>2026-04-12T08:47:59Z</time></trkpt><trkpt lat="47.25517292511394" lon="-1.5401185490205325"><ele>8.0</ele><time>2026-04-12T08:48:01Z</time></trkpt><trkpt lat="47.25526952654799" lon="-1.5400490630432404"><ele>9.0</ele><time>2026-04-12T08:48:03Z</time></trkpt><trkpt lat="47.25538913630625" lon="-1.5400159545257128"><ele>10.0</ele><time>2026-04-12T08:48:05Z</time></trkpt><trkpt lat="47.25548875522544" lon="-1.5399653278305567"><ele>10.0</ele><time>2026-04-12T08:48:07Z</time></trkpt><trkpt lat="47.255608825988375" lon="-1.5399291180088557"><ele>10.0</ele><time>2026-04-12T08:48:09Z</time></trkpt><trkpt lat="47.255675001113914" lon="-1.539905145765785"><ele>10.0</ele><time>2026-04-12T08:48:10Z</time></trkpt><trkpt lat="47.25577780515631" lon="-1.539865080268625"><ele>10.0</ele><time>2026-04-12T08:48:12Z</time></trkpt><trkpt lat="47.25586615041574" lon="-1.539829708637241"><ele>10.0</ele><time>2026-04-12T08:48:14Z</time></trkpt><trkpt lat="47.25592876323243" lon="-1.5397764835521017"><ele>10.333333333333334</ele><time>2026-04-12T08:48:15Z</time></trkpt><trkpt lat="47.255988442383014" lon="-1.5397220011814867"><ele>10.666666666666668</ele><time>2026-04-12T08:48:16Z</time></trkpt><trkpt lat="47.256067148453795" lon="-1.5396800078465973"><ele>11.0</ele><time>2026-04-12T08:48:17Z</time></trkpt><trkpt lat="47.25612628278067" lon="-1.5396439656629595"><ele>11.333333333333334</ele><time>2026-04-12T08:48:18Z</time></trkpt><trkpt lat="47.2562233452194" lon="-1.5395720489337477"><ele>11.666666666666666</ele><time>2026-04-12T08:48:20Z</time></trkpt><trkpt lat="47.2563327709653" lon="-1.5395299717798265"><ele>12.0</ele><time>2026-04-12T08:48:22Z</time></trkpt><trkpt lat="47.256406992717885" lon="-1.539519829676989"><ele>11.0</ele><time>2026-04-12T08:48:23Z</time></trkpt><trkpt lat="47.2564855311506" lon="-1.5394966118052038"><ele>10.0</ele><time>2026-04-12T08:48:24Z</time></trkpt><trkpt lat="47.25662244953891" lon="-1.5394330769791635"><ele>9.0</ele><time>2026-04-12T08:48:26Z</time></trkpt><trkpt lat="47.25669956304809" lon="-1.5394180733724865"><ele>8.0</ele><time>2026-04-12T08:48:27Z</time></trkpt><trkpt lat="47.25678631574591" lon="-1.539449170233253"><ele>7.0</ele><time>2026-04-12T08:48:28Z</time></trkpt><trkpt lat="47.256857813379966" lon="-1.5394578874125513"><ele>7.0</ele><time>2026-04-12T08:48:29Z</time></trkpt><trkpt lat="47.25692704790016" lon="-1.5394663531347546"><ele>6.999999999999999</ele><time>2026-04-12T08:48:30Z</time></trkpt><trkpt lat="47.257036389827036" lon="-1.5394982043668064"><ele>6.999999999999999</ele><time>2026-04-12T08:48:32Z</time></trkpt><trkpt lat="47.25713156633755" lon="-1.539552519099358"><ele>7.0</ele><time>2026-04-12T08:48:34Z</time></trkpt><trkpt lat="47.257208889394306" lon="-1.539647318424228"><ele>7.0</ele><time>2026-04-12T08:48:36Z</time></trkpt><trkpt lat="47.257266766435706" lon="-1.5397530980422531"><ele>8.0</ele><time>2026-04-12T08:48:38Z</time></trkpt><trkpt lat="47.25732954689046" lon="-1.539875641466621"><ele>9.0</ele><time>2026-04-12T08:48:40Z</time></trkpt><trkpt lat="47.25737895820966" lon="-1.5399964246913231"><ele>10.0</ele><time>2026-04-12T08:48:42Z</time></trkpt><trkpt lat="47.25743465595623" lon="-1.5401215665056742"><ele>11.0</ele><time>2026-04-12T08:48:44Z</time></trkpt><trkpt lat="47.257484402551555" lon="-1.5402755420669356"><ele>12.0</ele><time>2026-04-12T08:48:46Z</time></trkpt><trkpt lat="47.25750975780865" lon="-1.5403871890171807"><ele>12.333333333333334</ele><time>2026-04-12T08:48:48Z</time></trkpt><trkpt lat="47.257547727830016" lon="-1.5404840838178437"><ele>12.666666666666668</ele><time>2026-04-12T08:48:50Z</time></trkpt><trkpt lat="47.25759495985439" lon="-1.5406049508615776"><ele>13.0</ele><time>2026-04-12T08:48:53Z</time></trkpt><trkpt lat="47.2576304153048" lon="-1.5407287515714212"><ele>13.333333333333334</ele><time>2026-04-12T08:48:55Z</time></trkpt><trkpt lat="47.257644874087774" lon="-1.5408336929991289"><ele>13.666666666666668</ele><time>2026-04-12T08:48:57Z</time></trkpt><trkpt lat="47.25769143555989" lon="-1.540965959431176"><ele>14.0</ele><time>2026-04-12T08:49:00Z</time></trkpt><trkpt lat="47.2577281902053" lon="-1.5411414764835882"><ele>14.142857142857142</ele><time>2026-04-12T08:49:02Z</time></trkpt><trkpt lat="47.257778942629" lon="-1.5412345156087923"><ele>14.285714285714285</ele><time>2026-04-12T08:49:04Z</time></trkpt><trkpt lat="47.25782097787341" lon="-1.5413076058044481"><ele>14.428571428571429</ele><time>2026-04-12T08:49:06Z</time></trkpt><trkpt lat="47.25785274528643" lon="-1.5413891617223074"><ele>14.571428571428571</ele><time>2026-04-12T08:49:08Z</time></trkpt><trkpt lat="47.257880698933505" lon="-1.5415126271560242"><ele>14.714285714285714</ele><time>2026-04-12T08:49:10Z</time></trkpt><trkpt lat="47.25790915549477" lon="-1.5416135452702098"><ele>14.857142857142858</ele><time>2026-04-12T08:49:12Z</time></trkpt><trkpt lat="47.257927637591266" lon="-1.5417064167573504"><ele>15.0</ele><time>2026-04-12T08:49:14Z</time></trkpt><trkpt lat="47.257969840473734" lon="-1.5418234281256253"><ele>15.0</ele><time>2026-04-12T08:49:16Z</time></trkpt><trkpt lat="47.25802218545904" lon="-1.541939852760678"><ele>15.0</ele><time>2026-04-12T08:49:19Z</time></trkpt><trkpt lat="47.25804205056956" lon="-1.5420470573022422"><ele>15.0</ele><time>2026-04-12T08:49:21Z</time></trkpt><trkpt lat="47.25805671890011" lon="-1.5421592909857091"><ele>15.0</ele><time>2026-04-12T08:49:23Z</time></trkpt><trkpt lat="47.25809443746438" lon="-1.5423106681569874"><ele>15.0</ele><time>2026-04-12T08:49:25Z</time></trkpt><trkpt lat="47.25817507137289" lon="-1.5424255840494692"><ele>16.666666666666668</ele><time>2026-04-12T08:49:27Z</time></trkpt><trkpt lat="47.25824774247339" lon="-1.5424809046104013"><ele>18.333333333333336</ele><time>2026-04-12T08:49:29Z</time></trkpt><trkpt lat="47.25832338914951" lon="-1.5425370633616509"><ele>20.0</ele><time>2026-04-12T08:49:31Z</time></trkpt><trkpt lat="47.258398113816284" lon="-1.542649548502213"><ele>21.666666666666668</ele><time>2026-04-12T08:49:33Z</time></trkpt><trkpt lat="47.25846785125067" lon="-1.5427144244327606"><ele>23.333333333333336</ele><time>2026-04-12T08:49:35Z</time></trkpt><trkpt lat="47.25854618013581" lon="-1.542771505193359"><ele>25.0</ele><time>2026-04-12T08:49:37Z</time></trkpt><trkpt lat="47.25863238800993" lon="-1.5428378898664776"><ele>25.6</ele><time>2026-04-12T08:49:39Z</time></trkpt><trkpt lat="47.258720356083714" lon="-1.542896982283837"><ele>26.2</ele><time>2026-04-12T08:49:41Z</time></trkpt><trkpt lat="47.258833344138466" lon="-1.5429353714003626"><ele>26.799999999999997</ele><time>2026-04-12T08:49:43Z</time></trkpt><trkpt lat="47.25893246014347" lon="-1.5429634507759873"><ele>27.4</ele><time>2026-04-12T08:49:45Z</time></trkpt><trkpt lat="47.25900902882894" lon="-1.5429780352875058"><ele>28.0</ele><time>2026-04-12T08:49:47Z</time></trkpt><trkpt lat="47.25908178374847" lon="-1.5429774485542838"><ele>28.4</ele><time>2026-04-12T08:49:49Z</time></trkpt><trkpt lat="47.259153155653976" lon="-1.5429618582143847"><ele>28.799999999999997</ele><time>2026-04-12T08:49:51Z</time></trkpt><trkpt lat="47.259245859503054" lon="-1.5429496206357542"><ele>29.2</ele><time>2026-04-12T08:49:53Z</time></trkpt><trkpt lat="47.25936982785096" lon="-1.542917015032417"><ele>29.6</ele><time>2026-04-12T08:49:55Z</time></trkpt><trkpt lat="47.2594671836563" lon="-1.542894886808044"><ele>30.0</ele><time>2026-04-12T08:49:57Z</time></trkpt><trkpt lat="47.259553223892354" lon="-1.5428502950831715"><ele>30.2</ele><time>2026-04-12T08:49:59Z</time></trkpt><trkpt lat="47.259654896377825" lon="-1.542797992007381"><ele>30.4</ele><time>2026-04-12T08:50:01Z</time></trkpt><trkpt lat="47.25977278784593" lon="-1.5427748579546277"><ele>30.6</ele><time>2026-04-12T08:50:03Z</time></trkpt><trkpt lat="47.2598358616673" lon="-1.5427843295052115"><ele>30.8</ele><time>2026-04-12T08:50:04Z</time></trkpt><trkpt lat="47.2599410545521" lon="-1.5427574235960309"><ele>31.0</ele><time>2026-04-12T08:50:06Z</time></trkpt><trkpt lat="47.26006229878148" lon="-1.5427210461362661"><ele>30.333333333333336</ele><time>2026-04-12T08:50:08Z</time></trkpt><trkpt lat="47.260125163055264" lon="-1.542679890991694"><ele>29.666666666666668</ele><time>2026-04-12T08:50:09Z</time></trkpt><trkpt lat="47.26018723104825" lon="-1.5426606126143994"><ele>29.0</ele><time>2026-04-12T08:50:10Z</time></trkpt><trkpt lat="47.260287730067276" lon="-1.5426806453629793"><ele>28.333333333333336</ele><time>2026-04-12T08:50:12Z</time></trkpt><trkpt lat="47.26035092961719" lon="-1.5426685754224123"><ele>27.666666666666668</ele><time>2026-04-12T08:50:13Z</time></trkpt><trkpt lat="47.260430390059256" lon="-1.5426767896875204"><ele>27.0</ele><time>2026-04-12T08:50:14Z</time></trkpt><trkpt lat="47.26050964095374" lon="-1.5426793880775036"><ele>27.0</ele><time>2026-04-12T08:50:15Z</time></trkpt><trkpt lat="47.26057388824155" lon="-1.5426797233536305"><ele>27.0</ele><time>2026-04-12T08:50:16Z</time></trkpt><trkpt lat="47.26064693652769" lon="-1.542684249581343"><ele>27.0</ele><time>2026-04-12T08:50:17Z</time></trkpt><trkpt lat="47.26072321184655" lon="-1.5427004266544642"><ele>27.0</ele><time>2026-04-12T08:50:18Z</time></trkpt><trkpt lat="47.2608123952963" lon="-1.542692547665483"><ele>27.0</ele><time>2026-04-12T08:50:19Z</time></trkpt><trkpt lat="47.26088867061516" lon="-1.5426908712848486"><ele>27.0</ele><time>2026-04-12T08:50:20Z</time></trkpt><trkpt lat="47.26096574221482" lon="-1.5426876023426117"><ele>26.166666666666668</ele><time>2026-04-12T08:50:21Z</time></trkpt><trkpt lat="47.26103728175839" lon="-1.5426911227419438"><ele>25.333333333333332</ele><time>2026-04-12T08:50:22Z</time></trkpt><trkpt lat="47.26117600225588" lon="-1.542684249581343"><ele>24.5</ele><time>2026-04-12T08:50:25Z</time></trkpt><trkpt lat="47.26124842189928" lon="-1.5426901169135632"><ele>23.666666666666664</ele><time>2026-04-12T08:50:26Z</time></trkpt><trkpt lat="47.26131543521514" lon="-1.5426959842457832"><ele>22.833333333333332</ele><time>2026-04-12T08:50:27Z</time></trkpt><trkpt lat="47.261379305317305" lon="-1.5426923800274195"><ele>22.0</ele><time>2026-04-12T08:50:28Z</time></trkpt><trkpt lat="47.26144711491396" lon="-1.5427055396153988"><ele>22.0</ele><time>2026-04-12T08:50:29Z</time></trkpt><trkpt lat="47.261533993340336" lon="-1.5427192859366001"><ele>22.0</ele><time>2026-04-12T08:50:30Z</time></trkpt><trkpt lat="47.261611400216125" lon="-1.542717861013061"><ele>22.0</ele><time>2026-04-12T08:50:31Z</time></trkpt><trkpt lat="47.26168449041178" lon="-1.5427078027292551"><ele>22.0</ele><time>2026-04-12T08:50:32Z</time></trkpt><trkpt lat="47.26183477793565" lon="-1.5427350439145626"><ele>22.0</ele><time>2026-04-12T08:50:34Z</time></trkpt><trkpt lat="47.26190728139808" lon="-1.542750885711557"><ele>22.0</ele><time>2026-04-12T08:50:35Z</time></trkpt><trkpt lat="47.26198246706953" lon="-1.542763290928251"><ele>22.0</ele><time>2026-04-12T08:50:36Z</time></trkpt><trkpt lat="47.262055347717606" lon="-1.542775612325913"><ele>22.0</ele><time>2026-04-12T08:50:37Z</time></trkpt><trkpt lat="47.26213166494598" lon="-1.542781228201038"><ele>22.0</ele><time>2026-04-12T08:50:38Z</time></trkpt><trkpt lat="47.26220823363146" lon="-1.5427767019733254"><ele>22.0</ele><time>2026-04-12T08:50:39Z</time></trkpt><trkpt lat="47.26233827885917" lon="-1.5428061224534575"><ele>22.0</ele><time>2026-04-12T08:50:41Z</time></trkpt><trkpt lat="47.262421678795725" lon="-1.5428451821222369"><ele>21.6</ele><time>2026-04-12T08:50:42Z</time></trkpt><trkpt lat="47.26249782838604" lon="-1.5428637899472777"><ele>21.200000000000003</ele><time>2026-04-12T08:50:43Z</time></trkpt><trkpt lat="47.262653564146966" lon="-1.5429461002364222"><ele>20.8</ele><time>2026-04-12T08:50:45Z</time></trkpt><trkpt lat="47.26270737596533" lon="-1.5430129878237313"><ele>20.4</ele><time>2026-04-12T08:50:46Z</time></trkpt><trkpt lat="47.26280049890956" lon="-1.5430857427432603"><ele>20.0</ele><time>2026-04-12T08:50:48Z</time></trkpt><trkpt lat="47.2628669254922" lon="-1.5431517083212203"><ele>19.8</ele><time>2026-04-12T08:50:49Z</time></trkpt><trkpt lat="47.26292438343844" lon="-1.543209543453104"><ele>19.6</ele><time>2026-04-12T08:50:50Z</time></trkpt><trkpt lat="47.26302928295663" lon="-1.5433081146344014"><ele>19.4</ele><time>2026-04-12T08:50:52Z</time></trkpt><trkpt lat="47.26309248250654" lon="-1.5433681290611097"><ele>19.2</ele><time>2026-04-12T08:50:53Z</time></trkpt><trkpt lat="47.263197675391346" lon="-1.5434470027699538"><ele>19.0</ele><time>2026-04-12T08:50:55Z</time></trkpt><trkpt lat="47.26323568732223" lon="-1.5435261279358934"><ele>19.0</ele><time>2026-04-12T08:50:56Z</time></trkpt><trkpt lat="47.263356722004026" lon="-1.5436239447459053"><ele>19.0</ele><time>2026-04-12T08:50:58Z</time></trkpt><trkpt lat="47.26346065760335" lon="-1.5437184087946487"><ele>19.0</ele><time>2026-04-12T08:51:00Z</time></trkpt><trkpt lat="47.2635453567349" lon="-1.5437856316580845"><ele>19.0</ele><time>2026-04-12T08:51:01Z</time></trkpt><trkpt lat="47.2636423353546" lon="-1.5438716299846245"><ele>19.0</ele><time>2026-04-12T08:51:03Z</time></trkpt><trkpt lat="47.26369857792488" lon="-1.5439367573722673"><ele>19.0</ele><time>2026-04-12T08:51:04Z</time></trkpt><trkpt lat="47.2638054052808" lon="-1.544030886144884"><ele>19.0</ele><time>2026-04-12T08:51:06Z</time></trkpt><trkpt lat="47.2639261885055" lon="-1.544109173120506"><ele>19.0</ele><time>2026-04-12T08:51:08Z</time></trkpt><trkpt lat="47.26403599143705" lon="-1.5442295372500496"><ele>19.0</ele><time>2026-04-12T08:51:10Z</time></trkpt><trkpt lat="47.26414239969781" lon="-1.5443214029088097"><ele>19.0</ele><time>2026-04-12T08:51:12Z</time></trkpt><trkpt lat="47.26425278936258" lon="-1.544401450084098"><ele>19.0</ele><time>2026-04-12T08:51:14Z</time></trkpt><trkpt lat="47.26435152818194" lon="-1.5444351453348477"><ele>19.0</ele><time>2026-04-12T08:51:16Z</time></trkpt><trkpt lat="47.26441577546975" lon="-1.5444497298463662"><ele>19.0</ele><time>2026-04-12T08:51:17Z</time></trkpt><trkpt lat="47.26451459810814" lon="-1.5444243326797564"><ele>19.0</ele><time>2026-04-12T08:51:19Z</time></trkpt><trkpt lat="47.26462025199762" lon="-1.544386111201294"><ele>19.0</ele><time>2026-04-12T08:51:21Z</time></trkpt><trkpt lat="47.26468420591882" lon="-1.5443258453174906"><ele>19.0</ele><time>2026-04-12T08:51:22Z</time></trkpt><trkpt lat="47.2647465253689" lon="-1.54429307207609"><ele>19.0</ele><time>2026-04-12T08:51:23Z</time></trkpt><trkpt lat="47.26485184398225" lon="-1.5442527551218348"><ele>19.0</ele><time>2026-04-12T08:51:25Z</time></trkpt><trkpt lat="47.26495431274852" lon="-1.5441862866296845"><ele>19.6</ele><time>2026-04-12T08:51:27Z</time></trkpt><trkpt lat="47.26501956586471" lon="-1.5441407728954628"><ele>20.2</ele><time>2026-04-12T08:51:28Z</time></trkpt><trkpt lat="47.26511583202264" lon="-1.544068856166251"><ele>20.8</ele><time>2026-04-12T08:51:30Z</time></trkpt><trkpt lat="47.26522073154083" lon="-1.5440106019392088"><ele>21.400000000000002</ele><time>2026-04-12T08:51:32Z</time></trkpt><trkpt lat="47.265315572775215" lon="-1.5439632441862896"><ele>22.0</ele><time>2026-04-12T08:51:34Z</time></trkpt><trkpt lat="47.26541879591277" lon="-1.5439198259278608"><ele>22.0</ele><time>2026-04-12T08:51:36Z</time></trkpt><trkpt lat="47.265534717633635" lon="-1.543898871169932"><ele>22.0</ele><time>2026-04-12T08:51:38Z</time></trkpt><trkpt lat="47.26564120971343" lon="-1.5439043194069935"><ele>22.0</ele><time>2026-04-12T08:51:40Z</time></trkpt><trkpt lat="47.2657230589979" lon="-1.543984031306155"><ele>22.0</ele><time>2026-04-12T08:51:42Z</time></trkpt><trkpt lat="47.2657767031782" lon="-1.5441187284901217"><ele>22.0</ele><time>2026-04-12T08:51:44Z</time></trkpt><trkpt lat="47.265812745361835" lon="-1.54424177482868"><ele>22.0</ele><time>2026-04-12T08:51:46Z</time></trkpt><trkpt lat="47.26583131127736" lon="-1.5443797409548836"><ele>22.0</ele><time>2026-04-12T08:51:48Z</time></trkpt><trkpt lat="47.26586265959522" lon="-1.5445212274804194"><ele>22.0</ele><time>2026-04-12T08:51:50Z</time></trkpt><trkpt lat="47.26592288356951" lon="-1.544655086474069"><ele>22.0</ele><time>2026-04-12T08:51:52Z</time></trkpt><trkpt lat="47.26598327518186" lon="-1.5446918830289922"><ele>22.0</ele><time>2026-04-12T08:51:53Z</time></trkpt><trkpt lat="47.266103220216245" lon="-1.5446990914657197"><ele>22.166666666666664</ele><time>2026-04-12T08:51:55Z</time></trkpt><trkpt lat="47.266178070611566" lon="-1.544673945756205"><ele>22.333333333333332</ele><time>2026-04-12T08:51:56Z</time></trkpt><trkpt lat="47.266240809156805" lon="-1.5446488000466903"><ele>22.5</ele><time>2026-04-12T08:51:57Z</time></trkpt><trkpt lat="47.266306062272996" lon="-1.544635305182584"><ele>22.666666666666668</ele><time>2026-04-12T08:51:58Z</time></trkpt><trkpt lat="47.26643191654912" lon="-1.5446065552547057"><ele>22.833333333333336</ele><time>2026-04-12T08:52:00Z</time></trkpt><trkpt lat="47.266495158008546" lon="-1.5445913001909335"><ele>23.0</ele><time>2026-04-12T08:52:01Z</time></trkpt><trkpt lat="47.26660902616313" lon="-1.544600855560549"><ele>23.5</ele><time>2026-04-12T08:52:03Z</time></trkpt><trkpt lat="47.26673441943458" lon="-1.5445924736573775"><ele>24.0</ele><time>2026-04-12T08:52:05Z</time></trkpt><trkpt lat="47.26684145633808" lon="-1.5446034539505322"><ele>24.5</ele><time>2026-04-12T08:52:07Z</time></trkpt><trkpt lat="47.26695653986862" lon="-1.5446239057942708"><ele>25.0</ele><time>2026-04-12T08:52:09Z</time></trkpt><trkpt lat="47.2670735512369" lon="-1.5446799807264886"><ele>25.0</ele><time>2026-04-12T08:52:11Z</time></trkpt><trkpt lat="47.26713511631569" lon="-1.544703450055369"><ele>25.0</ele><time>2026-04-12T08:52:12Z</time></trkpt><trkpt lat="47.26724529643288" lon="-1.5447651408627114"><ele>25.0</ele><time>2026-04-12T08:52:14Z</time></trkpt><trkpt lat="47.26735107605091" lon="-1.5448083914830766"><ele>25.0</ele><time>2026-04-12T08:52:16Z</time></trkpt><trkpt lat="47.26743845739147" lon="-1.5448917914196334"><ele>25.0</ele><time>2026-04-12T08:52:18Z</time></trkpt><trkpt lat="47.26750241131267" lon="-1.544989189134487"><ele>25.4</ele><time>2026-04-12T08:52:20Z</time></trkpt><trkpt lat="47.26754117761484" lon="-1.545069571585902"><ele>25.8</ele><time>2026-04-12T08:52:21Z</time></trkpt><trkpt lat="47.26760006048462" lon="-1.5451958868666973"><ele>26.200000000000003</ele><time>2026-04-12T08:52:23Z</time></trkpt><trkpt lat="47.2676536627554" lon="-1.545289596544155"><ele>26.6</ele><time>2026-04-12T08:52:25Z</time></trkpt><trkpt lat="47.267713719091624" lon="-1.545405434445986"><ele>27.0</ele><time>2026-04-12T08:52:27Z</time></trkpt><trkpt lat="47.26775173102251" lon="-1.5455433167531578"><ele>27.0</ele><time>2026-04-12T08:52:29Z</time></trkpt><trkpt lat="47.267805165655226" lon="-1.5456459950670094"><ele>27.0</ele><time>2026-04-12T08:52:31Z</time></trkpt><trkpt lat="47.267868910028845" lon="-1.5457178279771895"><ele>27.0</ele><time>2026-04-12T08:52:33Z</time></trkpt><trkpt lat="47.26789162498644" lon="-1.5458065085127444"><ele>27.0</ele><time>2026-04-12T08:52:35Z</time></trkpt><trkpt lat="47.26788282398811" lon="-1.5459186583771798"><ele>27.0</ele><time>2026-04-12T08:52:37Z</time></trkpt><trkpt lat="47.267862036868245" lon="-1.5460307244225833"><ele>27.0</ele><time>2026-04-12T08:52:39Z</time></trkpt><trkpt lat="47.267936384349376" lon="-1.5460854582502934"><ele>27.0</ele><time>2026-04-12T08:52:42Z</time></trkpt><trkpt lat="47.26802732799879" lon="-1.546049918980846"><ele>27.000000000000004</ele><time>2026-04-12T08:52:44Z</time></trkpt><trkpt lat="47.2681259410896" lon="-1.546028461308727"><ele>27.000000000000004</ele><time>2026-04-12T08:52:46Z</time></trkpt><trkpt lat="47.26821323861113" lon="-1.5460377652212474"><ele>27.0</ele><time>2026-04-12T08:52:48Z</time></trkpt><trkpt lat="47.268293495334" lon="-1.5460531041040513"><ele>27.0</ele><time>2026-04-12T08:52:50Z</time></trkpt><trkpt lat="47.26840409454635" lon="-1.5460779983564708"><ele>27.400000000000002</ele><time>2026-04-12T08:52:52Z</time></trkpt><trkpt lat="47.26850362964651" lon="-1.5461037307992076"><ele>27.800000000000004</ele><time>2026-04-12T08:52:54Z</time></trkpt><trkpt lat="47.26858296436003" lon="-1.5461551956846808"><ele>28.2</ele><time>2026-04-12T08:52:56Z</time></trkpt><trkpt lat="47.26866841786286" lon="-1.5461997035905217"><ele>28.6</ele><time>2026-04-12T08:52:58Z</time></trkpt><trkpt lat="47.26876128935" lon="-1.5462401881828403"><ele>29.0</ele><time>2026-04-12T08:53:00Z</time></trkpt><trkpt lat="47.26885571148923" lon="-1.546272039414892"><ele>29.0</ele><time>2026-04-12T08:53:02Z</time></trkpt><trkpt lat="47.26891928822479" lon="-1.546277990566144"><ele>29.0</ele><time>2026-04-12T08:53:03Z</time></trkpt><trkpt lat="47.26897398014298" lon="-1.546325096861968"><ele>29.0</ele><time>2026-04-12T08:53:05Z</time></trkpt><trkpt lat="47.26909421854398" lon="-1.546327192337761"><ele>29.0</ele><time>2026-04-12T08:53:07Z</time></trkpt><trkpt lat="47.26920879916033" lon="-1.5463030524566268"><ele>29.0</ele><time>2026-04-12T08:53:09Z</time></trkpt><trkpt lat="47.26930246692827" lon="-1.5463031362756585"><ele>29.799999999999997</ele><time>2026-04-12T08:53:11Z</time></trkpt><trkpt lat="47.269370737529606" lon="-1.546267932282338"><ele>30.599999999999998</ele><time>2026-04-12T08:53:12Z</time></trkpt><trkpt lat="47.26943511054596" lon="-1.546237003059635"><ele>31.4</ele><time>2026-04-12T08:53:13Z</time></trkpt><trkpt lat="47.269546296491534" lon="-1.5462292917087173"><ele>32.199999999999996</ele><time>2026-04-12T08:53:15Z</time></trkpt><trkpt lat="47.26960815493694" lon="-1.5462671779110526"><ele>33.0</ele><time>2026-04-12T08:53:17Z</time></trkpt><trkpt lat="47.26974130146882" lon="-1.546245887876997"><ele>33.0</ele><time>2026-04-12T08:53:19Z</time></trkpt><trkpt lat="47.26985173304311" lon="-1.546227280051956"><ele>33.0</ele><time>2026-04-12T08:53:21Z</time></trkpt><trkpt lat="47.26992239248685" lon="-1.5462045650943612"><ele>33.0</ele><time>2026-04-12T08:53:22Z</time></trkpt><trkpt lat="47.2700026073002" lon="-1.5462106838836764"><ele>33.0</ele><time>2026-04-12T08:53:23Z</time></trkpt><trkpt lat="47.27007330865345" lon="-1.5462130308165645"><ele>33.0</ele><time>2026-04-12T08:53:24Z</time></trkpt><trkpt lat="47.270159265070475" lon="-1.5462327282890176"><ele>33.0</ele><time>2026-04-12T08:53:25Z</time></trkpt><trkpt lat="47.270228876776315" lon="-1.546238176526079"><ele>33.0</ele><time>2026-04-12T08:53:26Z</time></trkpt><trkpt lat="47.27030096114359" lon="-1.546273548157463"><ele>33.0</ele><time>2026-04-12T08:53:27Z</time></trkpt><trkpt lat="47.27037044712088" lon="-1.5462890546783303"><ele>33.0</ele><time>2026-04-12T08:53:28Z</time></trkpt><trkpt lat="47.27047425699166" lon="-1.5463142842068767"><ele>33.0</ele><time>2026-04-12T08:53:30Z</time></trkpt><trkpt lat="47.27060568523339" lon="-1.546338424088011"><ele>33.0</ele><time>2026-04-12T08:53:32Z</time></trkpt><trkpt lat="47.27073107850484" lon="-1.5463763102903463"><ele>33.0</ele><time>2026-04-12T08:53:34Z</time></trkpt><trkpt lat="47.27079499051652" lon="-1.546387290583501"><ele>33.0</ele><time>2026-04-12T08:53:35Z</time></trkpt><trkpt lat="47.27085693278096" lon="-1.546415537597189"><ele>33.0</ele><time>2026-04-12T08:53:36Z</time></trkpt><trkpt lat="47.27093350146643" lon="-1.5464528370663024"><ele>33.0</ele><time>2026-04-12T08:53:37Z</time></trkpt><trkpt lat="47.27105482951484" lon="-1.5464560221895076"><ele>33.0</ele><time>2026-04-12T08:53:39Z</time></trkpt><trkpt lat="47.27112180092118" lon="-1.5464587043985225"><ele>33.0</ele><time>2026-04-12T08:53:40Z</time></trkpt><trkpt lat="47.27123897992752" lon="-1.546487454326401"><ele>33.0</ele><time>2026-04-12T08:53:42Z</time></trkpt><trkpt lat="47.27131483615122" lon="-1.5465131867691375"><ele>33.0</ele><time>2026-04-12T08:53:43Z</time></trkpt><trkpt lat="47.27143737957559" lon="-1.5465428587063648"><ele>33.0</ele><time>2026-04-12T08:53:45Z</time></trkpt><trkpt lat="47.271545967131175" lon="-1.5465760510429243"><ele>33.0</ele><time>2026-04-12T08:53:47Z</time></trkpt><trkpt lat="47.27168502290479" lon="-1.5466285217567781"><ele>32.5</ele><time>2026-04-12T08:53:49Z</time></trkpt><trkpt lat="47.27180341728709" lon="-1.546631203965793"><ele>32.0</ele><time>2026-04-12T08:53:51Z</time></trkpt><trkpt lat="47.27188296154819" lon="-1.5466717723771433"><ele>31.5</ele><time>2026-04-12T08:53:53Z</time></trkpt><trkpt lat="47.27200047583065" lon="-1.546676298604856"><ele>31.0</ele><time>2026-04-12T08:53:55Z</time></trkpt><trkpt lat="47.27213684939525" lon="-1.546710999683986"><ele>31.0</ele><time>2026-04-12T08:53:57Z</time></trkpt><trkpt lat="47.27220721547238" lon="-1.5467453654869894"><ele>31.0</ele><time>2026-04-12T08:53:58Z</time></trkpt><trkpt lat="47.27233034562997" lon="-1.5467906277641157"><ele>31.0</ele><time>2026-04-12T08:54:00Z</time></trkpt><trkpt lat="47.272396730303086" lon="-1.5468039549901587"><ele>31.0</ele><time>2026-04-12T08:54:01Z</time></trkpt><trkpt lat="47.27245980412445" lon="-1.5468161087497574"><ele>31.0</ele><time>2026-04-12T08:54:02Z</time></trkpt><trkpt lat="47.27258385629139" lon="-1.546829184518705"><ele>31.25</ele><time>2026-04-12T08:54:04Z</time></trkpt><trkpt lat="47.27270011328838" lon="-1.54684360139216"><ele>31.5</ele><time>2026-04-12T08:54:06Z</time></trkpt><trkpt lat="47.272811047776855" lon="-1.5468844212606054"><ele>31.75</ele><time>2026-04-12T08:54:08Z</time></trkpt><trkpt lat="47.27293333974413" lon="-1.546898083762775"><ele>32.0</ele><time>2026-04-12T08:54:10Z</time></trkpt><trkpt lat="47.27303886790506" lon="-1.5469373110696178"><ele>31.8</ele><time>2026-04-12T08:54:12Z</time></trkpt><trkpt lat="47.27310969498686" lon="-1.5469731017961603"><ele>31.6</ele><time>2026-04-12T08:54:13.001Z</time></trkpt><trkpt lat="47.27318333000622" lon="-1.5469884406789642"><ele>31.400000000000002</ele><time>2026-04-12T08:54:14.001Z</time></trkpt><trkpt lat="47.27324556563727" lon="-1.5470110718175274"><ele>31.200000000000003</ele><time>2026-04-12T08:54:15.001Z</time></trkpt><trkpt lat="47.273366893685676" lon="-1.5470529813333853"><ele>31.0</ele><time>2026-04-12T08:54:17.001Z</time></trkpt><trkpt lat="47.27348713208667" lon="-1.54710109345759"><ele>31.4</ele><time>2026-04-12T08:54:19.001Z</time></trkpt><trkpt lat="47.273592618338085" lon="-1.5471595991417273"><ele>31.8</ele><time>2026-04-12T08:54:21Z</time></trkpt><trkpt lat="47.27367924530736" lon="-1.547248950229536"><ele>32.199999999999996</ele><time>2026-04-12T08:54:23Z</time></trkpt><trkpt lat="47.2737678839334" lon="-1.54735028743888"><ele>32.6</ele><time>2026-04-12T08:54:25Z</time></trkpt><trkpt lat="47.27381800771437" lon="-1.5474064461901293"><ele>33.0</ele><time>2026-04-12T08:54:26Z</time></trkpt><trkpt lat="47.27386603601954" lon="-1.5474766027196751"><ele>33.0</ele><time>2026-04-12T08:54:27Z</time></trkpt><trkpt lat="47.27393112149767" lon="-1.5475956257447112"><ele>33.0</ele><time>2026-04-12T08:54:29Z</time></trkpt><trkpt lat="47.273990046276964" lon="-1.5477061830475438"><ele>33.0</ele><time>2026-04-12T08:54:31Z</time></trkpt><trkpt lat="47.27408233103088" lon="-1.5477351844325173"><ele>33.0</ele><time>2026-04-12T08:54:33Z</time></trkpt><trkpt lat="47.274168413176454" lon="-1.5477811172618976"><ele>33.0</ele><time>2026-04-12T08:54:35Z</time></trkpt><trkpt lat="47.27426589471034" lon="-1.547763012351047"><ele>33.166666666666664</ele><time>2026-04-12T08:54:37Z</time></trkpt><trkpt lat="47.27434279867194" lon="-1.5477115474655736"><ele>33.333333333333336</ele><time>2026-04-12T08:54:39Z</time></trkpt><trkpt lat="47.27441995409063" lon="-1.5476563945427049"><ele>33.5</ele><time>2026-04-12T08:54:41Z</time></trkpt><trkpt lat="47.27447540038011" lon="-1.5475984755917895"><ele>33.66666666666667</ele><time>2026-04-12T08:54:43Z</time></trkpt><trkpt lat="47.27455917750231" lon="-1.5475197695210088"><ele>33.833333333333336</ele><time>2026-04-12T08:54:45Z</time></trkpt><trkpt lat="47.2746503306993" lon="-1.5474962163730965"><ele>34.0</ele><time>2026-04-12T08:54:47Z</time></trkpt><trkpt lat="47.27474852469496" lon="-1.547487834469925"><ele>34.66666666666667</ele><time>2026-04-12T08:54:49Z</time></trkpt><trkpt lat="47.27483854633502" lon="-1.5474964678301917"><ele>35.333333333333336</ele><time>2026-04-12T08:54:51Z</time></trkpt><trkpt lat="47.274928945160724" lon="-1.5475095435991393"><ele>36.0</ele><time>2026-04-12T08:54:53Z</time></trkpt><trkpt lat="47.27502097845755" lon="-1.5475308336331952"><ele>36.666666666666664</ele><time>2026-04-12T08:54:55Z</time></trkpt><trkpt lat="47.275121058381416" lon="-1.54755354859079"><ele>37.33333333333333</ele><time>2026-04-12T08:54:57Z</time></trkpt><trkpt lat="47.27519247219644" lon="-1.5475526265814412"><ele>38.0</ele><time>2026-04-12T08:54:59Z</time></trkpt><trkpt lat="47.275274153842844" lon="-1.5475863218321908"><ele>38.0</ele><time>2026-04-12T08:55:01Z</time></trkpt><trkpt lat="47.27536656432531" lon="-1.5476159099503863"><ele>38.0</ele><time>2026-04-12T08:55:03Z</time></trkpt><trkpt lat="47.275466686158694" lon="-1.5476324222996343"><ele>38.0</ele><time>2026-04-12T08:55:05Z</time></trkpt><trkpt lat="47.275562994226135" lon="-1.5476714819684136"><ele>38.0</ele><time>2026-04-12T08:55:07Z</time></trkpt><trkpt lat="47.275652429132975" lon="-1.5477053448572267"><ele>38.0</ele><time>2026-04-12T08:55:09Z</time></trkpt><trkpt lat="47.27573222485117" lon="-1.547742057593118"><ele>38.0</ele><time>2026-04-12T08:55:11Z</time></trkpt><trkpt lat="47.275816630616106" lon="-1.5478095319136491"><ele>38.0</ele><time>2026-04-12T08:55:13Z</time></trkpt><trkpt lat="47.27588469166986" lon="-1.547912377865564"><ele>38.0</ele><time>2026-04-12T08:55:15Z</time></trkpt><trkpt lat="47.27592081767253" lon="-1.5480397827937715"><ele>38.0</ele><time>2026-04-12T08:55:17Z</time></trkpt><trkpt lat="47.27595690176568" lon="-1.5481666848077886"><ele>38.0</ele><time>2026-04-12T08:55:19Z</time></trkpt><trkpt lat="47.27603435055099" lon="-1.5482475701733942"><ele>38.0</ele><time>2026-04-12T08:55:21Z</time></trkpt><trkpt lat="47.27609889120541" lon="-1.5482772421106215"><ele>38.0</ele><time>2026-04-12T08:55:24Z</time></trkpt><trkpt lat="47.27619092450223" lon="-1.5483318083002682"><ele>38.0</ele><time>2026-04-12T08:56:00Z</time></trkpt><trkpt lat="47.27627034303478" lon="-1.5483168885126228"><ele>38.0</ele><time>2026-04-12T08:56:02Z</time></trkpt><trkpt lat="47.27635261141441" lon="-1.5482704527690525"><ele>38.0</ele><time>2026-04-12T08:56:04Z</time></trkpt><trkpt lat="47.27645734329454" lon="-1.5482192393406742"><ele>38.0</ele><time>2026-04-12T08:56:06Z</time></trkpt><trkpt lat="47.276559770151295" lon="-1.5481842029854171"><ele>38.199999999999996</ele><time>2026-04-12T08:56:08Z</time></trkpt><trkpt lat="47.27667036936364" lon="-1.548165427522313"><ele>38.4</ele><time>2026-04-12T08:56:10Z</time></trkpt><trkpt lat="47.27678038184277" lon="-1.548170708121311"><ele>38.599999999999994</ele><time>2026-04-12T08:56:12Z</time></trkpt><trkpt lat="47.2769046854668" lon="-1.5481848735376709"><ele>38.8</ele><time>2026-04-12T08:56:14Z</time></trkpt><trkpt lat="47.276969016573645" lon="-1.5481912437840812"><ele>39.0</ele><time>2026-04-12T08:56:15Z</time></trkpt><trkpt lat="47.27708443538032" lon="-1.5482023917152994"><ele>39.0</ele><time>2026-04-12T08:56:17Z</time></trkpt><trkpt lat="47.27721816864542" lon="-1.5482404455556984"><ele>39.0</ele><time>2026-04-12T08:56:19Z</time></trkpt><trkpt lat="47.27728371512822" lon="-1.5482581313713903"><ele>39.0</ele><time>2026-04-12T08:56:20Z</time></trkpt><trkpt lat="47.27735009980134" lon="-1.5482777450248117"><ele>39.0</ele><time>2026-04-12T08:56:21Z</time></trkpt><trkpt lat="47.27741849613122" lon="-1.548300040887248"><ele>39.0</ele><time>2026-04-12T08:56:22Z</time></trkpt><trkpt lat="47.2774905804985" lon="-1.5483181457980986"><ele>39.0</ele><time>2026-04-12T08:56:23Z</time></trkpt><trkpt lat="47.27756203622304" lon="-1.5483405254795666"><ele>38.714285714285715</ele><time>2026-04-12T08:56:24Z</time></trkpt><trkpt lat="47.27762821134858" lon="-1.5483634080752249"><ele>38.42857142857142</ele><time>2026-04-12T08:56:25Z</time></trkpt><trkpt lat="47.277694512202665" lon="-1.5483779925867434"><ele>38.14285714285714</ele><time>2026-04-12T08:56:26Z</time></trkpt><trkpt lat="47.27777061988346" lon="-1.5483950916692133"><ele>37.85714285714286</ele><time>2026-04-12T08:56:27Z</time></trkpt><trkpt lat="47.27784593128346" lon="-1.5484227519496794"><ele>37.57142857142857</ele><time>2026-04-12T08:56:28Z</time></trkpt><trkpt lat="47.277924176349565" lon="-1.5484377555563564"><ele>37.285714285714285</ele><time>2026-04-12T08:56:29Z</time></trkpt><trkpt lat="47.27800221186809" lon="-1.5484592970475073"><ele>37.0</ele><time>2026-04-12T08:56:30Z</time></trkpt><trkpt lat="47.27809189823203" lon="-1.5484945848598597"><ele>36.0</ele><time>2026-04-12T08:56:31Z</time></trkpt><trkpt lat="47.2781769326397" lon="-1.5485223289593575"><ele>35.0</ele><time>2026-04-12T08:56:32Z</time></trkpt><trkpt lat="47.278262386142536" lon="-1.5485482290401575"><ele>34.0</ele><time>2026-04-12T08:56:33Z</time></trkpt><trkpt lat="47.27834918074988" lon="-1.5485749673112748"><ele>33.0</ele><time>2026-04-12T08:56:34Z</time></trkpt><trkpt lat="47.278424366421326" lon="-1.548606399448168"><ele>32.0</ele><time>2026-04-12T08:56:35Z</time></trkpt><trkpt lat="47.278503910682424" lon="-1.5486322157099364"><ele>31.0</ele><time>2026-04-12T08:56:36Z</time></trkpt><trkpt lat="47.278590202375575" lon="-1.5486601274474976"><ele>31.000000000000004</ele><time>2026-04-12T08:56:37Z</time></trkpt><trkpt lat="47.27867888291113" lon="-1.5486911404892323"><ele>31.0</ele><time>2026-04-12T08:56:38Z</time></trkpt><trkpt lat="47.27875951681964" lon="-1.548705389724624"><ele>31.0</ele><time>2026-04-12T08:56:39Z</time></trkpt><trkpt lat="47.27884015072815" lon="-1.5487379953279614"><ele>31.0</ele><time>2026-04-12T08:56:40Z</time></trkpt><trkpt lat="47.27893587206237" lon="-1.5487841796144366"><ele>31.000000000000004</ele><time>2026-04-12T08:56:41Z</time></trkpt><trkpt lat="47.279020403555855" lon="-1.5488037094488263"><ele>31.0</ele><time>2026-04-12T08:56:42Z</time></trkpt><trkpt lat="47.27910334248774" lon="-1.5488286875202775"><ele>30.666666666666668</ele><time>2026-04-12T08:56:43Z</time></trkpt><trkpt lat="47.279185820414945" lon="-1.5488507319256186"><ele>30.333333333333336</ele><time>2026-04-12T08:56:44Z</time></trkpt><trkpt lat="47.2792729083889" lon="-1.548872441054833"><ele>30.0</ele><time>2026-04-12T08:56:45Z</time></trkpt><trkpt lat="47.27936498359524" lon="-1.5488920547082543"><ele>29.666666666666664</ele><time>2026-04-12T08:56:46Z</time></trkpt><trkpt lat="47.279455969154164" lon="-1.5489116683616757"><ele>29.333333333333332</ele><time>2026-04-12T08:56:47Z</time></trkpt><trkpt lat="47.27954523642294" lon="-1.5489343833192706"><ele>29.0</ele><time>2026-04-12T08:56:48Z</time></trkpt><trkpt lat="47.27962960027836" lon="-1.548958187924278"><ele>29.0</ele><time>2026-04-12T08:56:49Z</time></trkpt><trkpt lat="47.27972071156584" lon="-1.5489849261953952"><ele>29.0</ele><time>2026-04-12T08:56:50Z</time></trkpt><trkpt lat="47.279808763458654" lon="-1.549013843761337"><ele>29.0</ele><time>2026-04-12T08:56:51Z</time></trkpt><trkpt lat="47.279902221679016" lon="-1.5490555856391313"><ele>29.0</ele><time>2026-04-12T08:56:52Z</time></trkpt><trkpt lat="47.27998687890105" lon="-1.5490795578822019"><ele>29.0</ele><time>2026-04-12T08:56:53Z</time></trkpt><trkpt lat="47.28007044647567" lon="-1.5491040330394628"><ele>28.333333333333332</ele><time>2026-04-12T08:56:54Z</time></trkpt><trkpt lat="47.28015309204094" lon="-1.5491279214635016"><ele>27.666666666666664</ele><time>2026-04-12T08:56:55Z</time></trkpt><trkpt lat="47.28023758162491" lon="-1.5491427574321153"><ele>27.0</ele><time>2026-04-12T08:56:56Z</time></trkpt><trkpt lat="47.28031901181422" lon="-1.549165807665837"><ele>26.333333333333336</ele><time>2026-04-12T08:56:57Z</time></trkpt><trkpt lat="47.28039884944193" lon="-1.549183493481529"><ele>25.666666666666668</ele><time>2026-04-12T08:56:58Z</time></trkpt><trkpt lat="47.280472442551776" lon="-1.5492034424110774"><ele>25.0</ele><time>2026-04-12T08:56:59Z</time></trkpt><trkpt lat="47.2805602429875" lon="-1.5492233913406257"><ele>25.166666666666668</ele><time>2026-04-12T08:57:00Z</time></trkpt><trkpt lat="47.2806405835294" lon="-1.5492419991656665"><ele>25.333333333333336</ele><time>2026-04-12T08:57:01Z</time></trkpt><trkpt lat="47.280723564370795" lon="-1.549281897024763"><ele>25.5</ele><time>2026-04-12T08:57:02Z</time></trkpt><trkpt lat="47.28079694793306" lon="-1.5493070427342777"><ele>25.666666666666664</ele><time>2026-04-12T08:57:03Z</time></trkpt><trkpt lat="47.28087318134241" lon="-1.549326656387699"><ele>25.833333333333332</ele><time>2026-04-12T08:57:04Z</time></trkpt><trkpt lat="47.28095306087963" lon="-1.5493553224965457"><ele>26.0</ele><time>2026-04-12T08:57:05Z</time></trkpt><trkpt lat="47.28102401368998" lon="-1.5493738465025548"><ele>26.0</ele><time>2026-04-12T08:57:06Z</time></trkpt><trkpt lat="47.28109865453772" lon="-1.549385581166995"><ele>26.0</ele><time>2026-04-12T08:57:07Z</time></trkpt><trkpt lat="47.2811680986055" lon="-1.5493960585459594"><ele>26.0</ele><time>2026-04-12T08:57:08Z</time></trkpt><trkpt lat="47.28123951242052" lon="-1.5494113974287633"><ele>26.0</ele><time>2026-04-12T08:57:09Z</time></trkpt><trkpt lat="47.28131272834472" lon="-1.5494331065579778"><ele>26.0</ele><time>2026-04-12T08:57:10Z</time></trkpt><trkpt lat="47.28137416769497" lon="-1.5494554862394458"><ele>26.0</ele><time>2026-04-12T08:57:11Z</time></trkpt><trkpt lat="47.281438373073264" lon="-1.549473423512233"><ele>26.0</ele><time>2026-04-12T08:57:12Z</time></trkpt><trkpt lat="47.281507481864914" lon="-1.549495803193701"><ele>26.166666666666664</ele><time>2026-04-12T08:57:13Z</time></trkpt><trkpt lat="47.281573950357064" lon="-1.549515249209059"><ele>26.333333333333332</ele><time>2026-04-12T08:57:14Z</time></trkpt><trkpt lat="47.2816427657821" lon="-1.5495354495957023"><ele>26.5</ele><time>2026-04-12T08:57:15Z</time></trkpt><trkpt lat="47.28170906663619" lon="-1.5495550632491237"><ele>26.666666666666664</ele><time>2026-04-12T08:57:16Z</time></trkpt><trkpt lat="47.281777085780426" lon="-1.5495741739883548"><ele>26.833333333333332</ele><time>2026-04-12T08:57:17Z</time></trkpt><trkpt lat="47.28189539634369" lon="-1.5495769400164014"><ele>27.0</ele><time>2026-04-12T08:57:19Z</time></trkpt><trkpt lat="47.281970959200784" lon="-1.5495976433172352"><ele>27.166666666666668</ele><time>2026-04-12T08:57:20Z</time></trkpt><trkpt lat="47.2820859589123" lon="-1.5496102161719925"><ele>27.333333333333336</ele><time>2026-04-12T08:57:22Z</time></trkpt><trkpt lat="47.28215682790361" lon="-1.5496313385679847"><ele>27.5</ele><time>2026-04-12T08:57:23Z</time></trkpt><trkpt lat="47.28222354785286" lon="-1.549646006898535"><ele>27.666666666666668</ele><time>2026-04-12T08:57:24Z</time></trkpt><trkpt lat="47.28228808850728" lon="-1.5496578253820068"><ele>27.833333333333336</ele><time>2026-04-12T08:57:25Z</time></trkpt><trkpt lat="47.282353802628144" lon="-1.5496730804457792"><ele>28.0</ele><time>2026-04-12T08:57:26Z</time></trkpt><trkpt lat="47.28247647178106" lon="-1.5496926940992006"><ele>28.2</ele><time>2026-04-12T08:57:28Z</time></trkpt><trkpt lat="47.28254365273498" lon="-1.5496905986234077"><ele>28.4</ele><time>2026-04-12T08:57:29Z</time></trkpt><trkpt lat="47.282661250836476" lon="-1.5497121401145586"><ele>28.599999999999998</ele><time>2026-04-12T08:57:31Z</time></trkpt><trkpt lat="47.28278123778038" lon="-1.549743823708547"><ele>28.799999999999997</ele><time>2026-04-12T08:57:33Z</time></trkpt><trkpt lat="47.282886975488886" lon="-1.5498328395202288"><ele>29.0</ele><time>2026-04-12T08:57:35Z</time></trkpt><trkpt lat="47.28298730686985" lon="-1.5498836338534483"><ele>29.0</ele><time>2026-04-12T08:57:37Z</time></trkpt><trkpt lat="47.28310063020073" lon="-1.5498403832330832"><ele>29.0</ele><time>2026-04-12T08:57:39Z</time></trkpt><trkpt lat="47.28322241925381" lon="-1.5497853979482779"><ele>29.0</ele><time>2026-04-12T08:57:41Z</time></trkpt><trkpt lat="47.28333804760806" lon="-1.5497682150467762"><ele>29.0</ele><time>2026-04-12T08:57:43Z</time></trkpt><trkpt lat="47.28346800901674" lon="-1.5497744176551231"><ele>28.999999999999996</ele><time>2026-04-12T08:57:45Z</time></trkpt><trkpt lat="47.28353313640438" lon="-1.549788331614388"><ele>29.0</ele><time>2026-04-12T08:57:46Z</time></trkpt><trkpt lat="47.28365375199102" lon="-1.5497972164317497"><ele>29.0</ele><time>2026-04-12T08:57:48Z</time></trkpt><trkpt lat="47.283783587671145" lon="-1.5498106274768242"><ele>29.0</ele><time>2026-04-12T08:57:50Z</time></trkpt><trkpt lat="47.28384871505879" lon="-1.549811298029078"><ele>28.999999999999996</ele><time>2026-04-12T08:57:51Z</time></trkpt><trkpt lat="47.283913590989336" lon="-1.5498140640571245"><ele>29.0</ele><time>2026-04-12T08:57:52Z</time></trkpt><trkpt lat="47.28398043666713" lon="-1.5498191770180592"><ele>28.85714285714286</ele><time>2026-04-12T08:57:53Z</time></trkpt><trkpt lat="47.2840517247536" lon="-1.5498202666654715"><ele>28.714285714285715</ele><time>2026-04-12T08:57:54Z</time></trkpt><trkpt lat="47.28411844470285" lon="-1.549828648568643"><ele>28.571428571428573</ele><time>2026-04-12T08:57:55Z</time></trkpt><trkpt lat="47.284182608171626" lon="-1.5498266369118818"><ele>28.42857142857143</ele><time>2026-04-12T08:57:56Z</time></trkpt><trkpt lat="47.2842504596778" lon="-1.5498314984157213"><ele>28.285714285714285</ele><time>2026-04-12T08:57:57Z</time></trkpt><trkpt lat="47.28431500033222" lon="-1.5498366951956877"><ele>28.142857142857142</ele><time>2026-04-12T08:57:58Z</time></trkpt><trkpt lat="47.28438809052788" lon="-1.5498435683562883"><ele>28.0</ele><time>2026-04-12T08:57:59Z</time></trkpt><trkpt lat="47.28445627731018" lon="-1.5498472563936838"><ele>28.0</ele><time>2026-04-12T08:58:00Z</time></trkpt><trkpt lat="47.28452492509715" lon="-1.5498478431269058"><ele>28.0</ele><time>2026-04-12T08:58:01Z</time></trkpt><trkpt lat="47.28459231559865" lon="-1.5498252958073744"><ele>28.0</ele><time>2026-04-12T08:58:02Z</time></trkpt><trkpt lat="47.28466054429047" lon="-1.549823367969645"><ele>28.0</ele><time>2026-04-12T08:58:03Z</time></trkpt><trkpt lat="47.28472671941601" lon="-1.5498250443502792"><ele>28.0</ele><time>2026-04-12T08:58:04Z</time></trkpt><trkpt lat="47.28479444519363" lon="-1.5498237032457718"><ele>28.0</ele><time>2026-04-12T08:58:05Z</time></trkpt><trkpt lat="47.28486824785106" lon="-1.5498209372177252"><ele>28.0</ele><time>2026-04-12T08:58:06Z</time></trkpt><trkpt lat="47.28494150568478" lon="-1.5498257987215647"><ele>27.833333333333336</ele><time>2026-04-12T08:58:07Z</time></trkpt><trkpt lat="47.28501354814254" lon="-1.5498262178167233"><ele>27.666666666666668</ele><time>2026-04-12T08:58:08Z</time></trkpt><trkpt lat="47.28507666387342" lon="-1.5498387068524488"><ele>27.5</ele><time>2026-04-12T08:58:09Z</time></trkpt><trkpt lat="47.28514145598494" lon="-1.5498775988831648"><ele>27.333333333333336</ele><time>2026-04-12T08:58:10Z</time></trkpt><trkpt lat="47.28522070687943" lon="-1.5499843005105387"><ele>27.166666666666668</ele><time>2026-04-12T08:58:12Z</time></trkpt><trkpt lat="47.285233782648376" lon="-1.550103491173638"><ele>27.0</ele><time>2026-04-12T08:58:14Z</time></trkpt><trkpt lat="47.28527120784604" lon="-1.5502025652691258"><ele>27.0</ele><time>2026-04-12T08:58:16Z</time></trkpt><trkpt lat="47.28535808627241" lon="-1.5502874739482535"><ele>27.000000000000004</ele><time>2026-04-12T08:58:18Z</time></trkpt><trkpt lat="47.28542589586907" lon="-1.550387805329217"><ele>27.000000000000004</ele><time>2026-04-12T08:58:20Z</time></trkpt><trkpt lat="47.28548699994319" lon="-1.550495596604003"><ele>27.0</ele><time>2026-04-12T08:58:22Z</time></trkpt><trkpt lat="47.28557220198893" lon="-1.5505173057332173"><ele>27.0</ele><time>2026-04-12T08:58:24Z</time></trkpt><trkpt lat="47.28566628885203" lon="-1.5504518430694476"><ele>26.833333333333332</ele><time>2026-04-12T08:58:26Z</time></trkpt><trkpt lat="47.285731374330155" lon="-1.550345057623042"><ele>26.666666666666664</ele><time>2026-04-12T08:58:28Z</time></trkpt><trkpt lat="47.2857671650567" lon="-1.5502458997085227"><ele>26.5</ele><time>2026-04-12T08:58:30Z</time></trkpt><trkpt lat="47.28579981256955" lon="-1.5501640923335684"><ele>26.333333333333332</ele><time>2026-04-12T08:58:32Z</time></trkpt><trkpt lat="47.28584402710878" lon="-1.5500632580384146"><ele>26.166666666666664</ele><time>2026-04-12T08:58:33Z</time></trkpt><trkpt lat="47.28593354583465" lon="-1.5499451570227276"><ele>26.0</ele><time>2026-04-12T08:58:35Z</time></trkpt><trkpt lat="47.28599163242363" lon="-1.5498967934414276"><ele>25.999999999999996</ele><time>2026-04-12T08:58:36Z</time></trkpt><trkpt lat="47.28604741398924" lon="-1.549851614983333"><ele>26.0</ele><time>2026-04-12T08:58:37Z</time></trkpt><trkpt lat="47.286122306294075" lon="-1.5498190931990274"><ele>26.0</ele><time>2026-04-12T08:58:38Z</time></trkpt><trkpt lat="47.28619409729474" lon="-1.5498007368310818"><ele>26.0</ele><time>2026-04-12T08:58:39Z</time></trkpt><trkpt lat="47.28626094297253" lon="-1.5497957076891788"><ele>25.999999999999996</ele><time>2026-04-12T08:58:40Z</time></trkpt><trkpt lat="47.28636743505233" lon="-1.5497526247068771"><ele>26.0</ele><time>2026-04-12T08:58:42Z</time></trkpt><trkpt lat="47.286464581310085" lon="-1.549720270560635"><ele>25.8</ele><time>2026-04-12T08:58:44Z</time></trkpt><trkpt lat="47.28661122270607" lon="-1.5496942866608032"><ele>25.6</ele><time>2026-04-12T08:58:46Z</time></trkpt><trkpt lat="47.2867053933882" lon="-1.5496641118093855"><ele>25.4</ele><time>2026-04-12T08:58:47Z</time></trkpt><trkpt lat="47.286784602373174" lon="-1.5496682189419397"><ele>25.2</ele><time>2026-04-12T08:58:48Z</time></trkpt><trkpt lat="47.28687340863728" lon="-1.5496613457813389"><ele>25.0</ele><time>2026-04-12T08:58:49Z</time></trkpt><trkpt lat="47.286950647875" lon="-1.5496634412571317"><ele>25.0</ele><time>2026-04-12T08:58:50Z</time></trkpt><trkpt lat="47.28701321878218" lon="-1.5496491082027084"><ele>25.0</ele><time>2026-04-12T08:58:51Z</time></trkpt><trkpt lat="47.28707641833209" lon="-1.5496372059002048"><ele>25.0</ele><time>2026-04-12T08:58:52Z</time></trkpt><trkpt lat="47.287192633419565" lon="-1.5496161673232443"><ele>25.0</ele><time>2026-04-12T08:58:54Z</time></trkpt><trkpt lat="47.28728646882557" lon="-1.549569983036769"><ele>25.0</ele><time>2026-04-12T08:58:56Z</time></trkpt><trkpt lat="47.28740184572273" lon="-1.5495367907002098"><ele>25.2</ele><time>2026-04-12T08:58:58Z</time></trkpt><trkpt lat="47.28750532031738" lon="-1.5495475195362693"><ele>25.4</ele><time>2026-04-12T08:59:00Z</time></trkpt><trkpt lat="47.28757895533674" lon="-1.5495559014394409"><ele>25.6</ele><time>2026-04-12T08:59:01Z</time></trkpt><trkpt lat="47.28764894422822" lon="-1.5495489444598085"><ele>25.8</ele><time>2026-04-12T08:59:02Z</time></trkpt><trkpt lat="47.28772027422421" lon="-1.5495510399356014"><ele>26.0</ele><time>2026-04-12T08:59:03Z</time></trkpt><trkpt lat="47.28785354648464" lon="-1.5495186857893593"><ele>26.0</ele><time>2026-04-12T08:59:05Z</time></trkpt><trkpt lat="47.28792408019983" lon="-1.5495202783509618"><ele>26.0</ele><time>2026-04-12T08:59:06Z</time></trkpt><trkpt lat="47.28803032082253" lon="-1.549479290844453"><ele>26.0</ele><time>2026-04-12T08:59:08Z</time></trkpt><trkpt lat="47.28812692225658" lon="-1.5494714956745035"><ele>26.0</ele><time>2026-04-12T08:59:10Z</time></trkpt><trkpt lat="47.28822570298546" lon="-1.5494437515750057"><ele>26.0</ele><time>2026-04-12T08:59:12Z</time></trkpt><trkpt lat="47.28836299855941" lon="-1.549421790988696"><ele>25.999999999999996</ele><time>2026-04-12T08:59:14Z</time></trkpt><trkpt lat="47.28842976041817" lon="-1.5494093019529704"><ele>26.0</ele><time>2026-04-12T08:59:15Z</time></trkpt><trkpt lat="47.288510729602805" lon="-1.5493638720377807"><ele>26.0</ele><time>2026-04-12T08:59:17Z</time></trkpt><trkpt lat="47.28858214341783" lon="-1.5493550710394506"><ele>26.0</ele><time>2026-04-12T08:59:18Z</time></trkpt><trkpt lat="47.288646306886605" lon="-1.5493365470334415"><ele>25.999999999999996</ele><time>2026-04-12T08:59:19Z</time></trkpt><trkpt lat="47.28872438431465" lon="-1.54932523146416"><ele>26.0</ele><time>2026-04-12T08:59:20Z</time></trkpt><trkpt lat="47.28883016393267" lon="-1.5493257343783502"><ele>26.0</ele><time>2026-04-12T08:59:22Z</time></trkpt><trkpt lat="47.28889315393501" lon="-1.5493117366000537"><ele>26.0</ele><time>2026-04-12T08:59:23Z</time></trkpt><trkpt lat="47.28900735736572" lon="-1.5492968168124084"><ele>26.0</ele><time>2026-04-12T08:59:25Z</time></trkpt><trkpt lat="47.289131451442174" lon="-1.5492888540043954"><ele>26.0</ele><time>2026-04-12T08:59:27Z</time></trkpt><trkpt lat="47.28925068401479" lon="-1.5492746047690038"><ele>26.0</ele><time>2026-04-12T08:59:29Z</time></trkpt><trkpt lat="47.28935780473732" lon="-1.5492593497052316"><ele>25.833333333333332</ele><time>2026-04-12T08:59:31Z</time></trkpt><trkpt lat="47.289424734234146" lon="-1.5492517221733455"><ele>25.666666666666664</ele><time>2026-04-12T08:59:32Z</time></trkpt><trkpt lat="47.28950553578072" lon="-1.5492796339109067"><ele>25.5</ele><time>2026-04-12T08:59:33Z</time></trkpt><trkpt lat="47.289572968191735" lon="-1.5492767840638284"><ele>25.333333333333336</ele><time>2026-04-12T08:59:34Z</time></trkpt><trkpt lat="47.28964572311126" lon="-1.5492918714895372"><ele>25.166666666666668</ele><time>2026-04-12T08:59:35Z</time></trkpt><trkpt lat="47.28970674336635" lon="-1.5493156760945443"><ele>25.0</ele><time>2026-04-12T08:59:36Z</time></trkpt><trkpt lat="47.289832262366346" lon="-1.549346437679184"><ele>25.0</ele><time>2026-04-12T08:59:38Z</time></trkpt><trkpt lat="47.28995669171893" lon="-1.5493280813112382"><ele>25.0</ele><time>2026-04-12T08:59:40Z</time></trkpt><trkpt lat="47.29007814549588" lon="-1.5493240579977159"><ele>25.0</ele><time>2026-04-12T08:59:42Z</time></trkpt><trkpt lat="47.29014406916433" lon="-1.5493460185840253"><ele>25.0</ele><time>2026-04-12T08:59:43Z</time></trkpt><trkpt lat="47.2902526148104" lon="-1.5493738465025548"><ele>25.0</ele><time>2026-04-12T08:59:45Z</time></trkpt><trkpt lat="47.290314473255805" lon="-1.549348784612072"><ele>25.000000000000004</ele><time>2026-04-12T08:59:47Z</time></trkpt><trkpt lat="47.29035479021006" lon="-1.549258343876851"><ele>25.0</ele><time>2026-04-12T08:59:49Z</time></trkpt><trkpt lat="47.290429808243445" lon="-1.5492278337493066"><ele>25.0</ele><time>2026-04-12T08:59:51Z</time></trkpt><trkpt lat="47.2905028984391" lon="-1.5492136683329467"><ele>25.0</ele><time>2026-04-12T08:59:54Z</time></trkpt><trkpt lat="47.29061886206948" lon="-1.5492419991656665"><ele>25.000000000000004</ele><time>2026-04-12T08:59:56Z</time></trkpt><trkpt lat="47.29072032500737" lon="-1.5492035262301092"><ele>25.0</ele><time>2026-04-12T08:59:58Z</time></trkpt><trkpt lat="47.290788972794346" lon="-1.549164634199393"><ele>25.75</ele><time>2026-04-12T09:00:00Z</time></trkpt><trkpt lat="47.290861518166295" lon="-1.5491425059750201"><ele>26.5</ele><time>2026-04-12T09:00:02Z</time></trkpt><trkpt lat="47.29092643600636" lon="-1.5491449367269399"><ele>27.25</ele><time>2026-04-12T09:00:04Z</time></trkpt><trkpt lat="47.29104156144642" lon="-1.5491776261493089"><ele>28.0</ele><time>2026-04-12T09:00:06Z</time></trkpt><trkpt lat="47.29124381676995" lon="-1.549186427147639"><ele>28.0</ele><time>2026-04-12T09:00:10Z</time></trkpt><trkpt lat="47.29139628358864" lon="-1.5491577610387923"><ele>28.0</ele><time>2026-04-12T09:00:12Z</time></trkpt><trkpt lat="47.291592713489464" lon="-1.549150217325938"><ele>28.0</ele><time>2026-04-12T09:00:16Z</time></trkpt><trkpt lat="47.29168809954756" lon="-1.549155497924936"><ele>28.0</ele><time>2026-04-12T09:00:18Z</time></trkpt><trkpt lat="47.29175678924405" lon="-1.549177877606404"><ele>27.833333333333336</ele><time>2026-04-12T09:00:19Z</time></trkpt><trkpt lat="47.291852133392624" lon="-1.549170250074518"><ele>27.666666666666668</ele><time>2026-04-12T09:00:21Z</time></trkpt><trkpt lat="47.29193855081432" lon="-1.5491521451636674"><ele>27.5</ele><time>2026-04-12T09:00:23Z</time></trkpt><trkpt lat="47.29200170845472" lon="-1.5491173602655055"><ele>27.333333333333336</ele><time>2026-04-12T09:00:24Z</time></trkpt><trkpt lat="47.2920716973462" lon="-1.549111912028444"><ele>27.166666666666668</ele><time>2026-04-12T09:00:25Z</time></trkpt><trkpt lat="47.292172531641356" lon="-1.5491078887149217"><ele>27.0</ele><time>2026-04-12T09:00:26.999Z</time></trkpt><trkpt lat="47.29223321662032" lon="-1.5491388179376246"><ele>27.5</ele><time>2026-04-12T09:00:28.999Z</time></trkpt><trkpt lat="47.29237160184168" lon="-1.5491606947049024"><ele>28.0</ele><time>2026-04-12T09:00:30.999Z</time></trkpt><trkpt lat="47.29249167260461" lon="-1.5491760335877063"><ele>28.5</ele><time>2026-04-12T09:00:31.999Z</time></trkpt><trkpt lat="47.29260340337389" lon="-1.5491969883456354"><ele>29.0</ele><time>2026-04-12T09:00:33.999Z</time></trkpt><trkpt lat="47.292865254028975" lon="-1.5491539891823651"><ele>29.0</ele><time>2026-04-12T09:00:38.999Z</time></trkpt><trkpt lat="47.292973799675046" lon="-1.5491596888765218"><ele>29.0</ele><time>2026-04-12T09:00:40.999Z</time></trkpt><trkpt lat="47.293078824921785" lon="-1.5491691604271056"><ele>29.0</ele><time>2026-04-12T09:00:42.999Z</time></trkpt><trkpt lat="47.29319428563797" lon="-1.549159018324268"><ele>29.0</ele><time>2026-04-12T09:00:44.999Z</time></trkpt><trkpt lat="47.29329042606735" lon="-1.5491473674788596"><ele>29.0</ele><time>2026-04-12T09:00:46.999Z</time></trkpt><trkpt lat="47.29338501584464" lon="-1.5491133369519832"><ele>29.4</ele><time>2026-04-12T09:00:48.999Z</time></trkpt><trkpt lat="47.29346590121025" lon="-1.549013843761337"><ele>29.799999999999997</ele><time>2026-04-12T09:00:50.999Z</time></trkpt><trkpt lat="47.29355705440724" lon="-1.5489551704391362"><ele>30.200000000000003</ele><time>2026-04-12T09:00:52.999Z</time></trkpt><trkpt lat="47.293660570911406" lon="-1.5489252470448136"><ele>30.6</ele><time>2026-04-12T09:00:54.999Z</time></trkpt><trkpt lat="47.29377242740923" lon="-1.5489140152945637"><ele>31.0</ele><time>2026-04-12T09:00:56.999Z</time></trkpt><trkpt lat="47.293887427120744" lon="-1.5489152725800395"><ele>31.5</ele><time>2026-04-12T09:00:58.999Z</time></trkpt><trkpt lat="47.29400024753743" lon="-1.5489021129920602"><ele>32.0</ele><time>2026-04-12T09:01:00.999Z</time></trkpt><trkpt lat="47.294101710475324" lon="-1.5488964971169352"><ele>32.5</ele><time>2026-04-12T09:01:02.999Z</time></trkpt><trkpt lat="47.29422379289502" lon="-1.5488997660591721"><ele>33.0</ele><time>2026-04-12T09:01:04.999Z</time></trkpt><trkpt lat="47.2943455819481" lon="-1.5489014424398064"><ele>33.0</ele><time>2026-04-12T09:01:06.999Z</time></trkpt><trkpt lat="47.294471603862284" lon="-1.5489054657533288"><ele>33.0</ele><time>2026-04-12T09:01:08.999Z</time></trkpt><trkpt lat="47.29453920391136" lon="-1.5489026159062504"><ele>33.0</ele><time>2026-04-12T09:01:09.999Z</time></trkpt><trkpt lat="47.29460982144558" lon="-1.5489103272571683"><ele>33.0</ele><time>2026-04-12T09:01:10.999Z</time></trkpt><trkpt lat="47.294679642699" lon="-1.548910997809422"><ele>33.0</ele><time>2026-04-12T09:01:11.999Z</time></trkpt><trkpt lat="47.294758935503005" lon="-1.5489246603115916"><ele>33.0</ele><time>2026-04-12T09:01:12.999Z</time></trkpt><trkpt lat="47.294829846403836" lon="-1.5489279292538285"><ele>32.833333333333336</ele><time>2026-04-12T09:01:13.999Z</time></trkpt><trkpt lat="47.294906540817856" lon="-1.548926336692226"><ele>32.666666666666664</ele><time>2026-04-12T09:01:14.999Z</time></trkpt><trkpt lat="47.29497849945658" lon="-1.548911584542644"><ele>32.5</ele><time>2026-04-12T09:01:15.999Z</time></trkpt><trkpt lat="47.29505917527461" lon="-1.5489075612291217"><ele>32.33333333333333</ele><time>2026-04-12T09:01:16.999Z</time></trkpt><trkpt lat="47.29513163682753" lon="-1.5488988440498233"><ele>32.166666666666664</ele><time>2026-04-12T09:01:17.999Z</time></trkpt><trkpt lat="47.295214533849894" lon="-1.5488928928985715"><ele>32.0</ele><time>2026-04-12T09:01:18.999Z</time></trkpt><trkpt lat="47.29528586384588" lon="-1.5488778054728627"><ele>31.999999999999996</ele><time>2026-04-12T09:01:19.999Z</time></trkpt><trkpt lat="47.29536775503987" lon="-1.548874201254499"><ele>32.0</ele><time>2026-04-12T09:01:20.999Z</time></trkpt><trkpt lat="47.295436905741035" lon="-1.5488625504090905"><ele>32.0</ele><time>2026-04-12T09:01:21.999Z</time></trkpt><trkpt lat="47.2955145221644" lon="-1.5488624665900588"><ele>32.0</ele><time>2026-04-12T09:01:22.999Z</time></trkpt><trkpt lat="47.295647836334346" lon="-1.5488560963436484"><ele>31.999999999999996</ele><time>2026-04-12T09:01:24.999Z</time></trkpt><trkpt lat="47.29572972752833" lon="-1.5488260053112626"><ele>32.0</ele><time>2026-04-12T09:01:25.999Z</time></trkpt><trkpt lat="47.29579389099711" lon="-1.548829441891563"><ele>31.833333333333332</ele><time>2026-04-12T09:01:26.999Z</time></trkpt><trkpt lat="47.295880853242515" lon="-1.5488166175797105"><ele>31.666666666666664</ele><time>2026-04-12T09:01:27.999Z</time></trkpt><trkpt lat="47.295949962034165" lon="-1.548804966734302"><ele>31.5</ele><time>2026-04-12T09:01:28.999Z</time></trkpt><trkpt lat="47.296015634245514" lon="-1.54878141358639"><ele>31.333333333333336</ele><time>2026-04-12T09:01:29.999Z</time></trkpt><trkpt lat="47.296084910675226" lon="-1.5487465448691964"><ele>31.166666666666668</ele><time>2026-04-12T09:01:30.999Z</time></trkpt><trkpt lat="47.2961493256011" lon="-1.5487034618868945"><ele>31.0</ele><time>2026-04-12T09:01:31.999Z</time></trkpt><trkpt lat="47.29627924510026" lon="-1.5486802440151093"><ele>30.28571428571429</ele><time>2026-04-12T09:01:33.999Z</time></trkpt><trkpt lat="47.29635216765785" lon="-1.5486541762962458"><ele>29.571428571428577</ele><time>2026-04-12T09:01:34.999Z</time></trkpt><trkpt lat="47.29641654067421" lon="-1.5486452076598523"><ele>28.857142857142858</ele><time>2026-04-12T09:01:35.999Z</time></trkpt><trkpt lat="47.29648296725684" lon="-1.5486307907863972"><ele>28.142857142857146</ele><time>2026-04-12T09:01:36.999Z</time></trkpt><trkpt lat="47.2965489328348" lon="-1.548634981737983"><ele>27.42857142857143</ele><time>2026-04-12T09:01:37.999Z</time></trkpt><trkpt lat="47.29662122674966" lon="-1.548622325064194"><ele>26.714285714285715</ele><time>2026-04-12T09:01:38.999Z</time></trkpt><trkpt lat="47.29669301775032" lon="-1.548610841856849"><ele>26.0</ele><time>2026-04-12T09:01:39.999Z</time></trkpt><trkpt lat="47.29676690422678" lon="-1.548599945382726"><ele>25.999999999999996</ele><time>2026-04-12T09:01:40.999Z</time></trkpt><trkpt lat="47.29683437854731" lon="-1.5485835168525097"><ele>26.0</ele><time>2026-04-12T09:01:41.999Z</time></trkpt><trkpt lat="47.29690901939505" lon="-1.5485779847964165"><ele>26.0</ele><time>2026-04-12T09:01:42.999Z</time></trkpt><trkpt lat="47.29702477347785" lon="-1.548569016160023"><ele>26.0</ele><time>2026-04-12T09:01:44.999Z</time></trkpt><trkpt lat="47.29708952367985" lon="-1.548574296759021"><ele>25.999999999999996</ele><time>2026-04-12T09:01:45.999Z</time></trkpt><trkpt lat="47.29716680482709" lon="-1.5485840197667"><ele>26.0</ele><time>2026-04-12T09:01:47.999Z</time></trkpt><trkpt lat="47.29724404406482" lon="-1.5485927369459984"><ele>26.0</ele><time>2026-04-12T09:01:51.999Z</time></trkpt><trkpt lat="47.297490346289514" lon="-1.5485060680672047"><ele>26.0</ele><time>2026-04-12T09:01:58.999Z</time></trkpt><trkpt lat="47.297576847530244" lon="-1.5484867896899102"><ele>26.0</ele><time>2026-04-12T09:01:59.999Z</time></trkpt><trkpt lat="47.29764964435929" lon="-1.5484395157560225"><ele>26.0</ele><time>2026-04-12T09:02:00.999Z</time></trkpt><trkpt lat="47.29770789858633" lon="-1.5484021324678774"><ele>25.999999999999996</ele><time>2026-04-12T09:02:02.001Z</time></trkpt><trkpt lat="47.297785766466795" lon="-1.5484242606922503"><ele>26.0</ele><time>2026-04-12T09:02:03.001Z</time></trkpt><trkpt lat="47.29785671927714" lon="-1.5484250988825674"><ele>26.0</ele><time>2026-04-12T09:02:04.001Z</time></trkpt><trkpt lat="47.297974359288155" lon="-1.548465834931981"><ele>26.0</ele><time>2026-04-12T09:02:06.001Z</time></trkpt><trkpt lat="47.29804916777396" lon="-1.548483604566705"><ele>25.999999999999996</ele><time>2026-04-12T09:02:07.001Z</time></trkpt><trkpt lat="47.29811274450952" lon="-1.548465834931981"><ele>26.0</ele><time>2026-04-12T09:02:09Z</time></trkpt><trkpt lat="47.29819861710751" lon="-1.54843255877639"><ele>25.6</ele><time>2026-04-12T09:02:11Z</time></trkpt><trkpt lat="47.29829190768981" lon="-1.548415794970047"><ele>25.200000000000003</ele><time>2026-04-12T09:02:13Z</time></trkpt><trkpt lat="47.29839236479932" lon="-1.5483594685807343"><ele>24.799999999999997</ele><time>2026-04-12T09:02:15Z</time></trkpt><trkpt lat="47.29851805143738" lon="-1.54830356128658"><ele>24.4</ele><time>2026-04-12T09:02:17Z</time></trkpt><trkpt lat="47.29858397510582" lon="-1.5482760686441774"><ele>24.0</ele><time>2026-04-12T09:02:18Z</time></trkpt><trkpt lat="47.29864981495523" lon="-1.5482514258488531"><ele>23.999999999999996</ele><time>2026-04-12T09:02:19Z</time></trkpt><trkpt lat="47.29872806002134" lon="-1.5482327342047804"><ele>24.0</ele><time>2026-04-12T09:02:20Z</time></trkpt><trkpt lat="47.29880077303135" lon="-1.548201888801109"><ele>24.0</ele><time>2026-04-12T09:02:21Z</time></trkpt><trkpt lat="47.298871558203636" lon="-1.5481961891069524"><ele>24.0</ele><time>2026-04-12T09:02:22Z</time></trkpt><trkpt lat="47.29893924207175" lon="-1.548179509119641"><ele>24.0</ele><time>2026-04-12T09:02:23Z</time></trkpt><trkpt lat="47.29900495619261" lon="-1.5481834486141317"><ele>23.999999999999996</ele><time>2026-04-12T09:02:24Z</time></trkpt><trkpt lat="47.299068155742525" lon="-1.548178335653197"><ele>24.0</ele><time>2026-04-12T09:02:25Z</time></trkpt><trkpt lat="47.29916521818125" lon="-1.548147741706621"><ele>24.5</ele><time>2026-04-12T09:02:27Z</time></trkpt><trkpt lat="47.2992906114527" lon="-1.548127373681914"><ele>25.0</ele><time>2026-04-12T09:02:29Z</time></trkpt><trkpt lat="47.29941202332014" lon="-1.5480951033547037"><ele>25.5</ele><time>2026-04-12T09:02:31Z</time></trkpt><trkpt lat="47.29952379599893" lon="-1.5480562951430195"><ele>26.0</ele><time>2026-04-12T09:02:33Z</time></trkpt><trkpt lat="47.29964017872447" lon="-1.548018408940684"><ele>26.0</ele><time>2026-04-12T09:02:35Z</time></trkpt><trkpt lat="47.29975899220192" lon="-1.5479904972031227"><ele>26.0</ele><time>2026-04-12T09:02:37Z</time></trkpt><trkpt lat="47.29982567024165" lon="-1.5479545388385167"><ele>26.0</ele><time>2026-04-12T09:02:38Z</time></trkpt><trkpt lat="47.29994511236185" lon="-1.5479275491103044"><ele>26.0</ele><time>2026-04-12T09:02:40Z</time></trkpt><trkpt lat="47.30006811679089" lon="-1.547880861909639"><ele>26.0</ele><time>2026-04-12T09:02:42Z</time></trkpt><trkpt lat="47.300189151472686" lon="-1.5478374436512103"><ele>26.0</ele><time>2026-04-12T09:02:44Z</time></trkpt><trkpt lat="47.30030444455081" lon="-1.547792181374084"><ele>26.0</ele><time>2026-04-12T09:02:46Z</time></trkpt><trkpt lat="47.30042413812811" lon="-1.5477509424104798"><ele>26.0</ele><time>2026-04-12T09:02:48Z</time></trkpt><trkpt lat="47.300546472004896" lon="-1.5476757567390311"><ele>26.0</ele><time>2026-04-12T09:02:50Z</time></trkpt><trkpt lat="47.30066943452442" lon="-1.5476343501373637"><ele>25.6</ele><time>2026-04-12T09:02:52Z</time></trkpt><trkpt lat="47.30073267598385" lon="-1.547617753969084"><ele>25.200000000000003</ele><time>2026-04-12T09:02:53Z</time></trkpt><trkpt lat="47.300859619907385" lon="-1.5475832205280173"><ele>24.799999999999997</ele><time>2026-04-12T09:02:55Z</time></trkpt><trkpt lat="47.30093748778785" lon="-1.5475203562542308"><ele>24.4</ele><time>2026-04-12T09:02:56Z</time></trkpt><trkpt lat="47.301048883281" lon="-1.5474579110756026"><ele>24.0</ele><time>2026-04-12T09:02:58Z</time></trkpt><trkpt lat="47.301115603230244" lon="-1.5474318433567391"><ele>24.0</ele><time>2026-04-12T09:02:59Z</time></trkpt><trkpt lat="47.301186011216885" lon="-1.547376522795807"><ele>24.0</ele><time>2026-04-12T09:03:00Z</time></trkpt><trkpt lat="47.301291036463624" lon="-1.5473265666529046"><ele>24.0</ele><time>2026-04-12T09:03:02Z</time></trkpt><trkpt lat="47.301391786939746" lon="-1.5472787059857949"><ele>24.0</ele><time>2026-04-12T09:03:04Z</time></trkpt><trkpt lat="47.301506116099006" lon="-1.5472046937807902"><ele>24.0</ele><time>2026-04-12T09:03:06Z</time></trkpt><trkpt lat="47.30157732036645" lon="-1.5471554920091732"><ele>23.799999999999997</ele><time>2026-04-12T09:03:07Z</time></trkpt><trkpt lat="47.301638047254926" lon="-1.5471186954542502"><ele>23.599999999999998</ele><time>2026-04-12T09:03:08Z</time></trkpt><trkpt lat="47.30176591318781" lon="-1.5470398217454058"><ele>23.4</ele><time>2026-04-12T09:03:10Z</time></trkpt><trkpt lat="47.30182672389532" lon="-1.5469977445914846"><ele>23.2</ele><time>2026-04-12T09:03:11Z</time></trkpt><trkpt lat="47.30195417073304" lon="-1.5469197928919893"><ele>23.0</ele><time>2026-04-12T09:03:13Z</time></trkpt><trkpt lat="47.302028476304656" lon="-1.546886935831557"><ele>22.833333333333336</ele><time>2026-04-12T09:03:14Z</time></trkpt><trkpt lat="47.30212382045323" lon="-1.5468319505467516"><ele>22.666666666666668</ele><time>2026-04-12T09:03:15Z</time></trkpt><trkpt lat="47.30219670110131" lon="-1.5468027815237144"><ele>22.5</ele><time>2026-04-12T09:03:16Z</time></trkpt><trkpt lat="47.3022767482766" lon="-1.5467387437834839"><ele>22.333333333333332</ele><time>2026-04-12T09:03:17Z</time></trkpt><trkpt lat="47.302349628924674" lon="-1.5467093233033518"><ele>22.166666666666664</ele><time>2026-04-12T09:03:18Z</time></trkpt><trkpt lat="47.30242129419679" lon="-1.5466676652445892"><ele>22.0</ele><time>2026-04-12T09:03:19Z</time></trkpt><trkpt lat="47.302485499575084" lon="-1.546643860639582"><ele>21.8</ele><time>2026-04-12T09:03:20Z</time></trkpt><trkpt lat="47.30263272770429" lon="-1.5465824212893347"><ele>21.6</ele><time>2026-04-12T09:03:22Z</time></trkpt><trkpt lat="47.30269676544452" lon="-1.5465628914549447"><ele>21.400000000000002</ele><time>2026-04-12T09:03:23Z</time></trkpt><trkpt lat="47.302775848700946" lon="-1.5465869475170473"><ele>21.200000000000003</ele><time>2026-04-12T09:03:24Z</time></trkpt><trkpt lat="47.30285874572331" lon="-1.5465894620879987"><ele>21.0</ele><time>2026-04-12T09:03:25Z</time></trkpt><trkpt lat="47.30298120532865" lon="-1.5466400049641231"><ele>21.166666666666668</ele><time>2026-04-12T09:03:27Z</time></trkpt><trkpt lat="47.303085853389746" lon="-1.5467008575811485"><ele>21.333333333333332</ele><time>2026-04-12T09:03:29Z</time></trkpt><trkpt lat="47.30315328580076" lon="-1.5467465389534334"><ele>21.5</ele><time>2026-04-12T09:03:31Z</time></trkpt><trkpt lat="47.30314347897405" lon="-1.5468606166555983"><ele>21.666666666666664</ele><time>2026-04-12T09:03:33Z</time></trkpt><trkpt lat="47.303103581114954" lon="-1.5469746105387312"><ele>21.833333333333332</ele><time>2026-04-12T09:03:35Z</time></trkpt><trkpt lat="47.30305781592364" lon="-1.547101931647907"><ele>22.0</ele><time>2026-04-12T09:03:37Z</time></trkpt><trkpt lat="47.30298615065152" lon="-1.547247441486965"><ele>22.0</ele><time>2026-04-12T09:03:39Z</time></trkpt><trkpt lat="47.30289830830628" lon="-1.5473693143590794"><ele>22.0</ele><time>2026-04-12T09:03:41Z</time></trkpt><trkpt lat="47.30279785119677" lon="-1.5474685560926305"><ele>22.0</ele><time>2026-04-12T09:03:43Z</time></trkpt><trkpt lat="47.3027133616128" lon="-1.547580957414161"><ele>22.0</ele><time>2026-04-12T09:03:45Z</time></trkpt><trkpt lat="47.302623507610804" lon="-1.5476543828859437"><ele>22.0</ele><time>2026-04-12T09:03:47Z</time></trkpt><trkpt lat="47.30253792837942" lon="-1.5477661136552205"><ele>22.0</ele><time>2026-04-12T09:03:49Z</time></trkpt><trkpt lat="47.30245285206223" lon="-1.5478488430395236"><ele>22.0</ele><time>2026-04-12T09:03:51Z</time></trkpt><trkpt lat="47.30236928448761" lon="-1.5479261241867652"><ele>22.0</ele><time>2026-04-12T09:03:53Z</time></trkpt><trkpt lat="47.302291123240536" lon="-1.548016397283923"><ele>22.0</ele><time>2026-04-12T09:03:55Z</time></trkpt><trkpt lat="47.30221447073603" lon="-1.5481118671610468"><ele>22.6</ele><time>2026-04-12T09:03:57Z</time></trkpt><trkpt lat="47.302114474631196" lon="-1.548187471927654"><ele>23.200000000000003</ele><time>2026-04-12T09:03:59Z</time></trkpt><trkpt lat="47.302028685852235" lon="-1.5482793375864143"><ele>23.8</ele><time>2026-04-12T09:04:01Z</time></trkpt><trkpt lat="47.30195308108563" lon="-1.5483444649740572"><ele>24.4</ele><time>2026-04-12T09:04:03Z</time></trkpt><trkpt lat="47.30186494537378" lon="-1.548405485229146"><ele>25.0</ele><time>2026-04-12T09:04:05Z</time></trkpt><trkpt lat="47.301782928451246" lon="-1.5484742168351529"><ele>25.0</ele><time>2026-04-12T09:04:07Z</time></trkpt><trkpt lat="47.30169437364424" lon="-1.5485331416144488"><ele>25.0</ele><time>2026-04-12T09:04:09Z</time></trkpt><trkpt lat="47.301598610400504" lon="-1.5485950838788864"><ele>25.0</ele><time>2026-04-12T09:04:11Z</time></trkpt><trkpt lat="47.30149999730969" lon="-1.5486720297500012"><ele>25.0</ele><time>2026-04-12T09:04:13Z</time></trkpt><trkpt lat="47.301404234065956" lon="-1.5487370733186125"><ele>25.0</ele><time>2026-04-12T09:04:15Z</time></trkpt><trkpt lat="47.30130645916546" lon="-1.5488084033146023"><ele>25.4</ele><time>2026-04-12T09:04:17Z</time></trkpt><trkpt lat="47.30122062847698" lon="-1.5488663222655177"><ele>25.8</ele><time>2026-04-12T09:04:19Z</time></trkpt><trkpt lat="47.30111455549235" lon="-1.5489332936718583"><ele>26.200000000000003</ele><time>2026-04-12T09:04:21Z</time></trkpt><trkpt lat="47.301059737845605" lon="-1.5490081440671803"><ele>26.6</ele><time>2026-04-12T09:04:23Z</time></trkpt><trkpt lat="47.30104687162424" lon="-1.5491602756097438"><ele>27.0</ele><time>2026-04-12T09:04:25Z</time></trkpt><trkpt lat="47.30097218886698" lon="-1.5492304321392898"><ele>27.0</ele><time>2026-04-12T09:04:27Z</time></trkpt><trkpt lat="47.30090094269002" lon="-1.549208555372012"><ele>27.0</ele><time>2026-04-12T09:04:28Z</time></trkpt><trkpt lat="47.300827433399206" lon="-1.5491748601212623"><ele>27.0</ele><time>2026-04-12T09:04:30Z</time></trkpt><trkpt lat="47.30074625466699" lon="-1.5491952281459693"><ele>27.0</ele><time>2026-04-12T09:04:32Z</time></trkpt><trkpt lat="47.30065505956048" lon="-1.5492332819863681"><ele>27.0</ele><time>2026-04-12T09:04:34Z</time></trkpt><trkpt lat="47.300551752603894" lon="-1.5492788795396213"><ele>27.0</ele><time>2026-04-12T09:04:36Z</time></trkpt><trkpt lat="47.30048188944096" lon="-1.549357334153307"><ele>27.400000000000002</ele><time>2026-04-12T09:04:38Z</time></trkpt><trkpt lat="47.30039010760123" lon="-1.5494184382274274"><ele>27.800000000000004</ele><time>2026-04-12T09:04:40Z</time></trkpt><trkpt lat="47.30028613009238" lon="-1.5494567435249216"><ele>28.2</ele><time>2026-04-12T09:04:42Z</time></trkpt><trkpt lat="47.30019577317619" lon="-1.5495326835676557"><ele>28.6</ele><time>2026-04-12T09:04:44Z</time></trkpt><trkpt lat="47.30011668991977" lon="-1.5496069472297556"><ele>29.0</ele><time>2026-04-12T09:04:46Z</time></trkpt><trkpt lat="47.300023441246985" lon="-1.5496660396471151"><ele>28.999999999999996</ele><time>2026-04-12T09:04:48Z</time></trkpt><trkpt lat="47.29993719146335" lon="-1.549742650242103"><ele>29.0</ele><time>2026-04-12T09:04:50Z</time></trkpt><trkpt lat="47.29983388450676" lon="-1.5497902594521173"><ele>29.0</ele><time>2026-04-12T09:04:52Z</time></trkpt><trkpt lat="47.299794280014275" lon="-1.54988078400637"><ele>29.0</ele><time>2026-04-12T09:04:54Z</time></trkpt><trkpt lat="47.29975899220192" lon="-1.549971560017718"><ele>28.999999999999996</ele><time>2026-04-12T09:04:56Z</time></trkpt><trkpt lat="47.29981963527137" lon="-1.5500722266748082"><ele>29.0</ele><time>2026-04-12T09:04:59Z</time></trkpt><trkpt lat="47.29988161944532" lon="-1.550182783977641"><ele>29.0</ele><time>2026-04-12T09:05:01Z</time></trkpt><trkpt lat="47.29994293306702" lon="-1.5503021422788037"><ele>29.0</ele><time>2026-04-12T09:05:02.999Z</time></trkpt><trkpt lat="47.29998915926301" lon="-1.5503770764931573"><ele>29.0</ele><time>2026-04-12T09:05:03.999Z</time></trkpt><trkpt lat="47.30002214205199" lon="-1.5505414456143514"><ele>29.0</ele><time>2026-04-12T09:05:05.999Z</time></trkpt><trkpt lat="47.3000345891782" lon="-1.5506991092130082"><ele>29.0</ele><time>2026-04-12T09:05:07.999Z</time></trkpt><trkpt lat="47.30003970213914" lon="-1.5508804097786089"><ele>29.000000000000004</ele><time>2026-04-12T09:05:09.999Z</time></trkpt><trkpt lat="47.300057136497735" lon="-1.550980238245382"><ele>29.0</ele><time>2026-04-12T09:05:10.999Z</time></trkpt><trkpt lat="47.300060573078035" lon="-1.5510781388744255"><ele>29.000000000000004</ele><time>2026-04-12T09:05:11.999Z</time></trkpt><trkpt lat="47.30006882925266" lon="-1.5511718485518835"><ele>29.000000000000004</ele><time>2026-04-12T09:05:12.999Z</time></trkpt><trkpt lat="47.30008793999189" lon="-1.5512651391341827"><ele>29.0</ele><time>2026-04-12T09:05:13.999Z</time></trkpt><trkpt lat="47.300094561695396" lon="-1.551362872125163"><ele>29.000000000000004</ele><time>2026-04-12T09:05:14.999Z</time></trkpt><trkpt lat="47.300104494250654" lon="-1.551457419992938"><ele>29.000000000000004</ele><time>2026-04-12T09:05:15.999Z</time></trkpt><trkpt lat="47.30012071323329" lon="-1.5515569131835842"><ele>28.999999999999996</ele><time>2026-04-12T09:05:16.999Z</time></trkpt><trkpt lat="47.300144140652655" lon="-1.5516630280777362"><ele>29.0</ele><time>2026-04-12T09:05:17.999Z</time></trkpt><trkpt lat="47.300154366574525" lon="-1.551810968668714"><ele>29.0</ele><time>2026-04-12T09:05:19.999Z</time></trkpt><trkpt lat="47.30017234575683" lon="-1.5519237052663712"><ele>29.0</ele><time>2026-04-12T09:05:21.999Z</time></trkpt><trkpt lat="47.30015017562294" lon="-1.5520261321231275"><ele>28.999999999999996</ele><time>2026-04-12T09:05:28.999Z</time></trkpt><trkpt lat="47.30013588447803" lon="-1.5521212667241246"><ele>29.0</ele><time>2026-04-12T09:05:31.999Z</time></trkpt><trkpt lat="47.300148289694725" lon="-1.5522495098426492"><ele>28.799999999999997</ele><time>2026-04-12T09:05:37.999Z</time></trkpt><trkpt lat="47.30010248259389" lon="-1.5523685328676853"><ele>28.599999999999998</ele><time>2026-04-12T09:05:40.999Z</time></trkpt><trkpt lat="47.30006803297186" lon="-1.5525254420950565"><ele>28.4</ele><time>2026-04-12T09:05:42.999Z</time></trkpt><trkpt lat="47.30004221671009" lon="-1.5526261925711786"><ele>28.2</ele><time>2026-04-12T09:05:44.999Z</time></trkpt><trkpt lat="47.29998915926301" lon="-1.5527504961952125"><ele>28.0</ele><time>2026-04-12T09:05:46.999Z</time></trkpt><trkpt lat="47.29996703103864" lon="-1.5528695192202486"><ele>28.000000000000004</ele><time>2026-04-12T09:05:48.999Z</time></trkpt><trkpt lat="47.29995944541627" lon="-1.5530365705504576"><ele>28.0</ele><time>2026-04-12T09:05:50.999Z</time></trkpt><trkpt lat="47.29990756143564" lon="-1.553135728464977"><ele>28.0</ele><time>2026-04-12T09:05:52.999Z</time></trkpt><trkpt lat="47.29985383343631" lon="-1.553223151715056"><ele>28.0</ele><time>2026-04-12T09:05:54.999Z</time></trkpt><trkpt lat="47.29975241240793" lon="-1.553240586073653"><ele>28.000000000000004</ele><time>2026-04-12T09:05:56.999Z</time></trkpt><trkpt lat="47.29968728502029" lon="-1.5532260015621344"><ele>28.0</ele><time>2026-04-12T09:05:57.999Z</time></trkpt><trkpt lat="47.29960874658757" lon="-1.5532004367574612"><ele>28.000000000000004</ele><time>2026-04-12T09:05:59.999Z</time></trkpt><trkpt lat="47.299535782120465" lon="-1.5531679149731556"><ele>28.0</ele><time>2026-04-12T09:06:02.999Z</time></trkpt><trkpt lat="47.299445425204276" lon="-1.5531846787794987"><ele>28.0</ele><time>2026-04-12T09:06:13.999Z</time></trkpt><trkpt lat="47.29936554566705" lon="-1.5532191284015338"><ele>28.0</ele><time>2026-04-12T09:06:15.999Z</time></trkpt><trkpt lat="47.2992792539739" lon="-1.5532822441324157"><ele>28.000000000000004</ele><time>2026-04-12T09:06:17.999Z</time></trkpt><trkpt lat="47.299201386093436" lon="-1.5533512271955174"><ele>28.0</ele><time>2026-04-12T09:06:19.999Z</time></trkpt><trkpt lat="47.29909543883735" lon="-1.5534119121744794"><ele>28.0</ele><time>2026-04-12T09:06:21.999Z</time></trkpt><trkpt lat="47.29900696784937" lon="-1.5535069629564449"><ele>27.999999999999996</ele><time>2026-04-12T09:06:23.999Z</time></trkpt><trkpt lat="47.29891120460564" lon="-1.5536019299193784"><ele>27.999999999999996</ele><time>2026-04-12T09:06:25.999Z</time></trkpt><trkpt lat="47.29883145079696" lon="-1.5536691527828141"><ele>28.0</ele><time>2026-04-12T09:06:27.999Z</time></trkpt><trkpt lat="47.29874251880431" lon="-1.553749954329388"><ele>28.0</ele><time>2026-04-12T09:06:29.999Z</time></trkpt><trkpt lat="47.29864943776959" lon="-1.5538025088622736"><ele>28.599999999999998</ele><time>2026-04-12T09:06:31.999Z</time></trkpt><trkpt lat="47.298570270694135" lon="-1.5538891777410673"><ele>29.199999999999996</ele><time>2026-04-12T09:06:33.999Z</time></trkpt><trkpt lat="47.298486409752904" lon="-1.5539792832001615"><ele>29.8</ele><time>2026-04-12T09:06:35.999Z</time></trkpt><trkpt lat="47.298400914340554" lon="-1.5540593303754497"><ele>30.4</ele><time>2026-04-12T09:06:37.999Z</time></trkpt><trkpt lat="47.29830749802971" lon="-1.5541449934258629"><ele>31.0</ele><time>2026-04-12T09:06:39.999Z</time></trkpt><trkpt lat="47.29822087106043" lon="-1.5542306564762762"><ele>31.0</ele><time>2026-04-12T09:06:41.999Z</time></trkpt><trkpt lat="47.29813416027212" lon="-1.5542927663787773"><ele>31.0</ele><time>2026-04-12T09:06:43.999Z</time></trkpt><trkpt lat="47.298037475019036" lon="-1.55434909276809"><ele>31.0</ele><time>2026-04-12T09:06:45.999Z</time></trkpt><trkpt lat="47.29795508091086" lon="-1.5544311516001394"><ele>31.0</ele><time>2026-04-12T09:06:47.999Z</time></trkpt><trkpt lat="47.29785596490586" lon="-1.554517317564743"><ele>31.0</ele><time>2026-04-12T09:06:49.999Z</time></trkpt><trkpt lat="47.29776091412389" lon="-1.554591581226843"><ele>31.200000000000003</ele><time>2026-04-12T09:06:51.999Z</time></trkpt><trkpt lat="47.29767919056797" lon="-1.5546781662866052"><ele>31.400000000000002</ele><time>2026-04-12T09:06:53.999Z</time></trkpt><trkpt lat="47.297595748721896" lon="-1.5547631587847646"><ele>31.6</ele><time>2026-04-12T09:06:55.999Z</time></trkpt><trkpt lat="47.297509750395356" lon="-1.5548370033517058"><ele>31.8</ele><time>2026-04-12T09:06:57.999Z</time></trkpt><trkpt lat="47.29743062522942" lon="-1.5549113508328376"><ele>32.0</ele><time>2026-04-12T09:06:59.999Z</time></trkpt><trkpt lat="47.29733343706214" lon="-1.5549781546011148"><ele>32.6</ele><time>2026-04-12T09:07:01.999Z</time></trkpt><trkpt lat="47.29724303823644" lon="-1.5550344809904275"><ele>33.2</ele><time>2026-04-12T09:07:03.999Z</time></trkpt><trkpt lat="47.29715066966349" lon="-1.5551304537817416"><ele>33.8</ele><time>2026-04-12T09:07:05.999Z</time></trkpt><trkpt lat="47.297057420990704" lon="-1.5552177093937576"><ele>34.4</ele><time>2026-04-12T09:07:07.999Z</time></trkpt><trkpt lat="47.29698877320373" lon="-1.5553047135486782"><ele>35.0</ele><time>2026-04-12T09:07:09.999Z</time></trkpt><trkpt lat="47.296911408237456" lon="-1.5553695894792259"><ele>35.0</ele><time>2026-04-12T09:07:11.999Z</time></trkpt><trkpt lat="47.29682427835399" lon="-1.5554263349636974"><ele>35.0</ele><time>2026-04-12T09:07:13.999Z</time></trkpt><trkpt lat="47.2967606177994" lon="-1.5554573480054321"><ele>35.0</ele><time>2026-04-12T09:07:14.999Z</time></trkpt><trkpt lat="47.296648048839806" lon="-1.5554913785323086"><ele>35.0</ele><time>2026-04-12T09:07:16.999Z</time></trkpt><trkpt lat="47.29656171523714" lon="-1.555540412665862"><ele>35.0</ele><time>2026-04-12T09:07:18.999Z</time></trkpt><trkpt lat="47.296468382745324" lon="-1.5555580146625223"><ele>35.4</ele><time>2026-04-12T09:07:20.999Z</time></trkpt><trkpt lat="47.29636474051261" lon="-1.5555638819947424"><ele>35.8</ele><time>2026-04-12T09:07:22.999Z</time></trkpt><trkpt lat="47.29626453486019" lon="-1.5555700007840576"><ele>36.2</ele><time>2026-04-12T09:07:24.999Z</time></trkpt><trkpt lat="47.296171831011115" lon="-1.5555423405035915"><ele>36.6</ele><time>2026-04-12T09:07:26.999Z</time></trkpt><trkpt lat="47.296106787442504" lon="-1.5555001795306387"><ele>37.0</ele><time>2026-04-12T09:07:28.999Z</time></trkpt><trkpt lat="47.29600381576204" lon="-1.555442931131977"><ele>37.0</ele><time>2026-04-12T09:07:30.999Z</time></trkpt><trkpt lat="47.29591446467423" lon="-1.5553746186211288"><ele>37.0</ele><time>2026-04-12T09:07:32.999Z</time></trkpt><trkpt lat="47.295829765542685" lon="-1.555302701891917"><ele>37.0</ele><time>2026-04-12T09:07:34.999Z</time></trkpt><trkpt lat="47.295756423889934" lon="-1.5552457887693822"><ele>37.0</ele><time>2026-04-12T09:07:36.999Z</time></trkpt><trkpt lat="47.29567302395338" lon="-1.55518460087623"><ele>37.0</ele><time>2026-04-12T09:07:38.999Z</time></trkpt><trkpt lat="47.29560693264687" lon="-1.5551699325456798"><ele>37.0</ele><time>2026-04-12T09:07:40.999Z</time></trkpt><trkpt lat="47.29552194014871" lon="-1.5551757160588682"><ele>37.6</ele><time>2026-04-12T09:07:42.999Z</time></trkpt><trkpt lat="47.29545232844287" lon="-1.5552616305663765"><ele>38.2</ele><time>2026-04-12T09:07:44.999Z</time></trkpt><trkpt lat="47.29540689852768" lon="-1.555352741853851"><ele>38.8</ele><time>2026-04-12T09:07:46.999Z</time></trkpt><trkpt lat="47.2953490633958" lon="-1.5554624609663668"><ele>39.4</ele><time>2026-04-12T09:07:48.999Z</time></trkpt><trkpt lat="47.295303256294964" lon="-1.5555805619820537"><ele>40.0</ele><time>2026-04-12T09:07:50.999Z</time></trkpt><trkpt lat="47.29523289021784" lon="-1.5556863416000788"><ele>40.0</ele><time>2026-04-12T09:07:52.999Z</time></trkpt><trkpt lat="47.295192363716005" lon="-1.5557658858611767"><ele>40.0</ele><time>2026-04-12T09:07:53.999Z</time></trkpt><trkpt lat="47.29513117582285" lon="-1.5558849088862128"><ele>40.0</ele><time>2026-04-12T09:07:55.999Z</time></trkpt><trkpt lat="47.29507321496242" lon="-1.5560018364354558"><ele>40.0</ele><time>2026-04-12T09:07:57.999Z</time></trkpt><trkpt lat="47.295008841946064" lon="-1.5561020001783556"><ele>40.0</ele><time>2026-04-12T09:07:59.999Z</time></trkpt><trkpt lat="47.29493981697345" lon="-1.5561988111599871"><ele>40.4</ele><time>2026-04-12T09:08:01.999Z</time></trkpt><trkpt lat="47.29488059882754" lon="-1.5563315805062243"><ele>40.8</ele><time>2026-04-12T09:08:03.999Z</time></trkpt><trkpt lat="47.29483039122754" lon="-1.5564541239305925"><ele>41.2</ele><time>2026-04-12T09:08:05.999Z</time></trkpt><trkpt lat="47.29476962242955" lon="-1.5565548744067144"><ele>41.6</ele><time>2026-04-12T09:08:07.999Z</time></trkpt><trkpt lat="47.294697831428884" lon="-1.55665872618701"><ele>42.0</ele><time>2026-04-12T09:08:09.999Z</time></trkpt><trkpt lat="47.29462231048131" lon="-1.5567743964507772"><ele>42.2</ele><time>2026-04-12T09:08:11.999Z</time></trkpt><trkpt lat="47.294552740684985" lon="-1.556905573235412"><ele>42.400000000000006</ele><time>2026-04-12T09:08:13.999Z</time></trkpt><trkpt lat="47.29448916394943" lon="-1.5570387616768078"><ele>42.599999999999994</ele><time>2026-04-12T09:08:15.999Z</time></trkpt><trkpt lat="47.29443170600319" lon="-1.5571520011886555"><ele>42.8</ele><time>2026-04-12T09:08:17.999Z</time></trkpt><trkpt lat="47.29436066937381" lon="-1.557280579583307"><ele>43.0</ele><time>2026-04-12T09:08:19.999Z</time></trkpt><trkpt lat="47.29429361414844" lon="-1.5574027039125165"><ele>43.333333333333336</ele><time>2026-04-12T09:08:21.999Z</time></trkpt><trkpt lat="47.29423447982156" lon="-1.5575135126724442"><ele>43.66666666666667</ele><time>2026-04-12T09:08:23.999Z</time></trkpt><trkpt lat="47.29417429775679" lon="-1.5575883630677663"><ele>44.0</ele><time>2026-04-12T09:08:25.999Z</time></trkpt><trkpt lat="47.29412291669035" lon="-1.5576701704427205"><ele>44.333333333333336</ele><time>2026-04-12T09:08:27.999Z</time></trkpt><trkpt lat="47.294052927798866" lon="-1.5577771235271896"><ele>44.666666666666664</ele><time>2026-04-12T09:08:29.999Z</time></trkpt><trkpt lat="47.29399873879486" lon="-1.5578831546023095"><ele>45.0</ele><time>2026-04-12T09:08:31.999Z</time></trkpt><trkpt lat="47.29395515289837" lon="-1.557988431306144"><ele>45.333333333333336</ele><time>2026-04-12T09:08:33.999Z</time></trkpt><trkpt lat="47.29391630277717" lon="-1.5580747649088111"><ele>45.666666666666664</ele><time>2026-04-12T09:08:35.999Z</time></trkpt><trkpt lat="47.29386752010071" lon="-1.5581487771138158"><ele>46.0</ele><time>2026-04-12T09:08:37.999Z</time></trkpt><trkpt lat="47.29381341491574" lon="-1.5582667104914396"><ele>46.33333333333333</ele><time>2026-04-12T09:08:39.999Z</time></trkpt><trkpt lat="47.2937818570503" lon="-1.558357318864724"><ele>46.666666666666664</ele><time>2026-04-12T09:08:40.999Z</time></trkpt><trkpt lat="47.29371811267668" lon="-1.5584594104453533"><ele>47.0</ele><time>2026-04-12T09:08:42.999Z</time></trkpt><trkpt lat="47.29367670607501" lon="-1.5585330035551996"><ele>47.0</ele><time>2026-04-12T09:08:43.999Z</time></trkpt><trkpt lat="47.29362469636583" lon="-1.558675998823306"><ele>47.0</ele><time>2026-04-12T09:08:45.999Z</time></trkpt><trkpt lat="47.293586013882695" lon="-1.5587749890997622"><ele>47.0</ele><time>2026-04-12T09:08:46.999Z</time></trkpt><trkpt lat="47.29352654427969" lon="-1.5588971134289715"><ele>47.0</ele><time>2026-04-12T09:08:48.999Z</time></trkpt><trkpt lat="47.29345349599355" lon="-1.559044299648664"><ele>47.0</ele><time>2026-04-12T09:08:50.999Z</time></trkpt><trkpt lat="47.29337541856551" lon="-1.5591357462122655"><ele>47.0</ele><time>2026-04-12T09:08:52.999Z</time></trkpt><trkpt lat="47.29331946936184" lon="-1.5592620614930608"><ele>47.0</ele><time>2026-04-12T09:08:54.999Z</time></trkpt><trkpt lat="47.29325555735016" lon="-1.5593763068332889"><ele>47.0</ele><time>2026-04-12T09:08:56.999Z</time></trkpt><trkpt lat="47.29321586903864" lon="-1.559449397028945"><ele>47.0</ele><time>2026-04-12T09:08:57.999Z</time></trkpt><trkpt lat="47.293117465495406" lon="-1.559578059242628"><ele>47.0</ele><time>2026-04-12T09:08:59.999Z</time></trkpt><trkpt lat="47.29304739278489" lon="-1.5597418416306001"><ele>46.666666666666664</ele><time>2026-04-12T09:09:01.999Z</time></trkpt><trkpt lat="47.2930167569288" lon="-1.5598260797574741"><ele>46.33333333333333</ele><time>2026-04-12T09:09:02.999Z</time></trkpt><trkpt lat="47.29297082409942" lon="-1.559906210751794"><ele>46.0</ele><time>2026-04-12T09:09:03.999Z</time></trkpt><trkpt lat="47.29292225097054" lon="-1.5600065421327576"><ele>45.666666666666664</ele><time>2026-04-12T09:09:04.999Z</time></trkpt><trkpt lat="47.29288666979158" lon="-1.560085080565475"><ele>45.333333333333336</ele><time>2026-04-12T09:09:05.999Z</time></trkpt><trkpt lat="47.29284333535218" lon="-1.5601783711477744"><ele>45.0</ele><time>2026-04-12T09:09:06.999Z</time></trkpt><trkpt lat="47.292767311490415" lon="-1.5603252220913397"><ele>44.8</ele><time>2026-04-12T09:09:08.999Z</time></trkpt><trkpt lat="47.292710775553516" lon="-1.5604115556940068"><ele>44.6</ele><time>2026-04-12T09:09:09.999Z</time></trkpt><trkpt lat="47.29266278915786" lon="-1.5605040919050206"><ele>44.400000000000006</ele><time>2026-04-12T09:09:10.999Z</time></trkpt><trkpt lat="47.29258554992013" lon="-1.5606731548919908"><ele>44.2</ele><time>2026-04-12T09:09:13Z</time></trkpt><trkpt lat="47.29253546804868" lon="-1.5607600752278796"><ele>44.0</ele><time>2026-04-12T09:09:14Z</time></trkpt><trkpt lat="47.29248614054852" lon="-1.5608541201814643"><ele>44.0</ele><time>2026-04-12T09:09:15Z</time></trkpt><trkpt lat="47.292439034252695" lon="-1.5609534457340473"><ele>44.0</ele><time>2026-04-12T09:09:16Z</time></trkpt><trkpt lat="47.292400687045685" lon="-1.5610310621574157"><ele>44.0</ele><time>2026-04-12T09:09:17Z</time></trkpt><trkpt lat="47.292353748387924" lon="-1.561101973058247"><ele>44.0</ele><time>2026-04-12T09:09:18Z</time></trkpt><trkpt lat="47.29230454661631" lon="-1.5611876361086603"><ele>44.0</ele><time>2026-04-12T09:09:19Z</time></trkpt><trkpt lat="47.29225769177758" lon="-1.5612638276084896"><ele>44.0</ele><time>2026-04-12T09:09:20Z</time></trkpt><trkpt lat="47.29220387995922" lon="-1.5613632369801043"><ele>44.0</ele><time>2026-04-12T09:09:21Z</time></trkpt><trkpt lat="47.29214759547942" lon="-1.5614667534842728"><ele>43.83333333333333</ele><time>2026-04-12T09:09:22Z</time></trkpt><trkpt lat="47.29209910616957" lon="-1.5615449566408632"><ele>43.666666666666664</ele><time>2026-04-12T09:09:23Z</time></trkpt><trkpt lat="47.29205078449779" lon="-1.5616233274355173"><ele>43.5</ele><time>2026-04-12T09:09:24Z</time></trkpt><trkpt lat="47.29198490273886" lon="-1.5617414284512043"><ele>43.333333333333336</ele><time>2026-04-12T09:09:25Z</time></trkpt><trkpt lat="47.29193071373486" lon="-1.5618406701847556"><ele>43.16666666666667</ele><time>2026-04-12T09:09:26Z</time></trkpt><trkpt lat="47.29188687638127" lon="-1.5619529038682225"><ele>43.0</ele><time>2026-04-12T09:09:27Z</time></trkpt><trkpt lat="47.29182941843503" lon="-1.5620661433800702"><ele>42.333333333333336</ele><time>2026-04-12T09:09:28Z</time></trkpt><trkpt lat="47.29178629354321" lon="-1.5621750243022685"><ele>41.66666666666667</ele><time>2026-04-12T09:09:29Z</time></trkpt><trkpt lat="47.291752975478104" lon="-1.5622905269279723"><ele>41.0</ele><time>2026-04-12T09:09:30Z</time></trkpt><trkpt lat="47.291728290773264" lon="-1.5624227933600194"><ele>40.333333333333336</ele><time>2026-04-12T09:09:31Z</time></trkpt><trkpt lat="47.29168131020599" lon="-1.562542235480214"><ele>39.666666666666664</ele><time>2026-04-12T09:09:32Z</time></trkpt><trkpt lat="47.2916477825933" lon="-1.56265832483914"><ele>39.0</ele><time>2026-04-12T09:09:33Z</time></trkpt><trkpt lat="47.2916271631115" lon="-1.5627998951837074"><ele>38.2</ele><time>2026-04-12T09:09:34Z</time></trkpt><trkpt lat="47.2916039033302" lon="-1.5629366040244352"><ele>37.4</ele><time>2026-04-12T09:09:35Z</time></trkpt><trkpt lat="47.291583200029365" lon="-1.5630729775890364"><ele>36.6</ele><time>2026-04-12T09:09:36Z</time></trkpt><trkpt lat="47.29156534657561" lon="-1.5632039867356076"><ele>35.8</ele><time>2026-04-12T09:09:37Z</time></trkpt><trkpt lat="47.291520880579284" lon="-1.5633347444250838"><ele>35.0</ele><time>2026-04-12T09:09:38Z</time></trkpt><trkpt lat="47.29148802351885" lon="-1.5634593833252446"><ele>35.0</ele><time>2026-04-12T09:09:39Z</time></trkpt><trkpt lat="47.29142549452119" lon="-1.5636054798975247"><ele>35.0</ele><time>2026-04-12T09:09:40Z</time></trkpt><trkpt lat="47.29136237879031" lon="-1.5637139417245645"><ele>35.0</ele><time>2026-04-12T09:09:41Z</time></trkpt><trkpt lat="47.29130005934023" lon="-1.5638209786280652"><ele>35.0</ele><time>2026-04-12T09:09:42Z</time></trkpt><trkpt lat="47.29123962581836" lon="-1.563909407706525"><ele>35.0</ele><time>2026-04-12T09:09:43Z</time></trkpt><trkpt lat="47.291194030538044" lon="-1.564016423242414"><ele>34.8</ele><time>2026-04-12T09:09:44Z</time></trkpt><trkpt lat="47.29114694404349" lon="-1.5640881898350258"><ele>34.6</ele><time>2026-04-12T09:09:45Z</time></trkpt><trkpt lat="47.291078944734565" lon="-1.5641696658000015"><ele>34.4</ele><time>2026-04-12T09:09:46Z</time></trkpt><trkpt lat="47.291024420454434" lon="-1.5642795525505806"><ele>34.2</ele><time>2026-04-12T09:09:47Z</time></trkpt><trkpt lat="47.29097010572188" lon="-1.56441047787812"><ele>34.0</ele><time>2026-04-12T09:09:48Z</time></trkpt><trkpt lat="47.29092237078332" lon="-1.5645657945438889"><ele>33.0</ele><time>2026-04-12T09:09:49Z</time></trkpt><trkpt lat="47.290894794321886" lon="-1.564677944408324"><ele>32.0</ele><time>2026-04-12T09:09:50Z</time></trkpt><trkpt lat="47.29091076184743" lon="-1.5648035891368657"><ele>31.0</ele><time>2026-04-12T09:09:51Z</time></trkpt><trkpt lat="47.290900661654106" lon="-1.5649061836316853"><ele>30.0</ele><time>2026-04-12T09:09:52Z</time></trkpt><trkpt lat="47.29090862446212" lon="-1.5650227759048017"><ele>29.000000000000004</ele><time>2026-04-12T09:09:53Z</time></trkpt><trkpt lat="47.29095229417764" lon="-1.5651544556036265"><ele>28.0</ele><time>2026-04-12T09:09:54Z</time></trkpt><trkpt lat="47.29100694418632" lon="-1.5652952715769086"><ele>26.4</ele><time>2026-04-12T09:09:55Z</time></trkpt><trkpt lat="47.29107777126812" lon="-1.5654432959869182"><ele>24.799999999999997</ele><time>2026-04-12T09:09:56Z</time></trkpt><trkpt lat="47.29114574850284" lon="-1.5655548591181314"><ele>23.2</ele><time>2026-04-12T09:09:57Z</time></trkpt><trkpt lat="47.29120241016828" lon="-1.5656846947982588"><ele>21.6</ele><time>2026-04-12T09:09:58Z</time></trkpt><trkpt lat="47.2912738944128" lon="-1.5657952798505137"><ele>20.0</ele><time>2026-04-12T09:09:59Z</time></trkpt><trkpt lat="47.29134966915551" lon="-1.5659186676215118"><ele>20.0</ele><time>2026-04-12T09:10:00Z</time></trkpt><trkpt lat="47.291420194530275" lon="-1.566029832434575"><ele>20.0</ele><time>2026-04-12T09:10:01Z</time></trkpt><trkpt lat="47.29148830586961" lon="-1.566121546853575"><ele>20.0</ele><time>2026-04-12T09:10:02Z</time></trkpt><trkpt lat="47.29156439440876" lon="-1.5661870604651347"><ele>20.0</ele><time>2026-04-12T09:10:03Z</time></trkpt><trkpt lat="47.291650520040236" lon="-1.5662286513718675"><ele>20.0</ele><time>2026-04-12T09:10:04Z</time></trkpt><trkpt lat="47.29175532645381" lon="-1.5662371651970182"><ele>20.8</ele><time>2026-04-12T09:10:05Z</time></trkpt><trkpt lat="47.29187371679329" lon="-1.5662430971875472"><ele>21.6</ele><time>2026-04-12T09:10:06Z</time></trkpt><trkpt lat="47.29197842905655" lon="-1.5661923867309986"><ele>22.4</ele><time>2026-04-12T09:10:07Z</time></trkpt><trkpt lat="47.29207326048223" lon="-1.5661852164545087"><ele>23.2</ele><time>2026-04-12T09:10:08Z</time></trkpt><trkpt lat="47.29217956124442" lon="-1.5661959515121373"><ele>24.0</ele><time>2026-04-12T09:10:09Z</time></trkpt><trkpt lat="47.29229322703381" lon="-1.5662552978687165"><ele>22.4</ele><time>2026-04-12T09:10:10Z</time></trkpt><trkpt lat="47.29237474928077" lon="-1.5663560570206223"><ele>20.799999999999997</ele><time>2026-04-12T09:10:11Z</time></trkpt><trkpt lat="47.292433971206414" lon="-1.5664766521152083"><ele>19.200000000000003</ele><time>2026-04-12T09:10:12Z</time></trkpt><trkpt lat="47.29248040280003" lon="-1.5666176103624518"><ele>17.6</ele><time>2026-04-12T09:10:13Z</time></trkpt><trkpt lat="47.292510633017464" lon="-1.566751790509367"><ele>16.0</ele><time>2026-04-12T09:10:14Z</time></trkpt><trkpt lat="47.29253605378109" lon="-1.5668973259836134"><ele>15.600000000000001</ele><time>2026-04-12T09:10:15Z</time></trkpt><trkpt lat="47.29255856832279" lon="-1.567038798054834"><ele>15.200000000000001</ele><time>2026-04-12T09:10:16Z</time></trkpt><trkpt lat="47.29258128992005" lon="-1.5671879643927398"><ele>14.799999999999999</ele><time>2026-04-12T09:10:17Z</time></trkpt><trkpt lat="47.29260211218182" lon="-1.5673281599693314"><ele>14.399999999999999</ele><time>2026-04-12T09:10:18Z</time></trkpt><trkpt lat="47.29262278526293" lon="-1.567467344282004"><ele>14.0</ele><time>2026-04-12T09:10:19Z</time></trkpt><trkpt lat="47.29262607642197" lon="-1.567602977158099"><ele>14.000000000000002</ele><time>2026-04-12T09:10:20Z</time></trkpt><trkpt lat="47.29265700564467" lon="-1.567736081780463"><ele>14.0</ele><time>2026-04-12T09:10:21Z</time></trkpt><trkpt lat="47.29268688712948" lon="-1.5678618103280364"><ele>14.0</ele><time>2026-04-12T09:10:22Z</time></trkpt><trkpt lat="47.292703818573884" lon="-1.5679775644108354"><ele>14.0</ele><time>2026-04-12T09:10:23Z</time></trkpt><trkpt lat="47.29272309695118" lon="-1.568087618799478"><ele>14.000000000000002</ele><time>2026-04-12T09:10:24Z</time></trkpt><trkpt lat="47.29272854518825" lon="-1.5681925602271856"><ele>14.0</ele><time>2026-04-12T09:10:25Z</time></trkpt><trkpt lat="47.29274694346571" lon="-1.5683147683754268"><ele>15.6</ele><time>2026-04-12T09:10:26Z</time></trkpt><trkpt lat="47.2927794233405" lon="-1.5684869326665702"><ele>17.2</ele><time>2026-04-12T09:10:28Z</time></trkpt><trkpt lat="47.292787050872384" lon="-1.5685988310739105"><ele>18.8</ele><time>2026-04-12T09:10:30Z</time></trkpt><trkpt lat="47.29280448523098" lon="-1.5687045268729036"><ele>20.400000000000002</ele><time>2026-04-12T09:10:32Z</time></trkpt><trkpt lat="47.29284140965677" lon="-1.5688680549253435"><ele>22.0</ele><time>2026-04-12T09:10:35Z</time></trkpt><trkpt lat="47.29286182985354" lon="-1.568999575478171"><ele>22.666666666666664</ele><time>2026-04-12T09:10:37Z</time></trkpt><trkpt lat="47.29288434411364" lon="-1.5691555225875906"><ele>23.333333333333332</ele><time>2026-04-12T09:10:39Z</time></trkpt><trkpt lat="47.292903634823396" lon="-1.569292874691866"><ele>24.0</ele><time>2026-04-12T09:10:41Z</time></trkpt><trkpt lat="47.292922838289456" lon="-1.569436161923006"><ele>24.666666666666664</ele><time>2026-04-12T09:10:43Z</time></trkpt><trkpt lat="47.2929337909411" lon="-1.5695405209962539"><ele>25.333333333333332</ele><time>2026-04-12T09:10:45Z</time></trkpt><trkpt lat="47.292940497966704" lon="-1.569641598821972"><ele>26.0</ele><time>2026-04-12T09:10:46Z</time></trkpt><trkpt lat="47.29294086893793" lon="-1.5698185610980158"><ele>26.0</ele><time>2026-04-12T09:10:48Z</time></trkpt><trkpt lat="47.292921137369824" lon="-1.5699509060245147"><ele>26.0</ele><time>2026-04-12T09:10:50Z</time></trkpt><trkpt lat="47.292889409166584" lon="-1.570079191152827"><ele>26.0</ele><time>2026-04-12T09:10:52Z</time></trkpt><trkpt lat="47.29283641697399" lon="-1.5702129386398682"><ele>26.0</ele><time>2026-04-12T09:10:54Z</time></trkpt><trkpt lat="47.292766981353" lon="-1.570331673296535"><ele>26.0</ele><time>2026-04-12T09:10:56Z</time></trkpt><trkpt lat="47.29269870561295" lon="-1.5704008564367613"><ele>26.4</ele><time>2026-04-12T09:10:58Z</time></trkpt><trkpt lat="47.292633532939" lon="-1.5704719534895577"><ele>26.8</ele><time>2026-04-12T09:11:00Z</time></trkpt><trkpt lat="47.2925416185578" lon="-1.5705253286708245"><ele>27.199999999999996</ele><time>2026-04-12T09:11:02Z</time></trkpt><trkpt lat="47.29244908312882" lon="-1.5705557154250716"><ele>27.599999999999998</ele><time>2026-04-12T09:11:04Z</time></trkpt><trkpt lat="47.29235275717949" lon="-1.570573121166247"><ele>28.0</ele><time>2026-04-12T09:11:06Z</time></trkpt><trkpt lat="47.29224446301524" lon="-1.5705801837780615"><ele>28.000000000000004</ele><time>2026-04-12T09:11:08Z</time></trkpt><trkpt lat="47.29217480107332" lon="-1.5705820883372172"><ele>28.0</ele><time>2026-04-12T09:11:10Z</time></trkpt><trkpt lat="47.29208577894353" lon="-1.5705624595299088"><ele>28.0</ele><time>2026-04-12T09:11:12Z</time></trkpt><trkpt lat="47.29199483529412" lon="-1.5705511439606272"><ele>28.0</ele><time>2026-04-12T09:11:14Z</time></trkpt><trkpt lat="47.29189618029379" lon="-1.5705549996360861"><ele>28.000000000000004</ele><time>2026-04-12T09:11:16Z</time></trkpt><trkpt lat="47.29182082698428" lon="-1.5705673210337483"><ele>28.0</ele><time>2026-04-12T09:11:18Z</time></trkpt><trkpt lat="47.29172196243637" lon="-1.570547707380327"><ele>28.000000000000004</ele><time>2026-04-12T09:11:20Z</time></trkpt><trkpt lat="47.29164832741701" lon="-1.5705524850651347"><ele>28.0</ele><time>2026-04-12T09:11:22Z</time></trkpt><trkpt lat="47.29156513702803" lon="-1.5705459471806609"><ele>28.0</ele><time>2026-04-12T09:11:25Z</time></trkpt><trkpt lat="47.291490621908835" lon="-1.5705217234804951"><ele>28.0</ele><time>2026-04-12T09:11:28Z</time></trkpt><trkpt lat="47.29141719643705" lon="-1.5705114975586258"><ele>28.000000000000004</ele><time>2026-04-12T09:11:30Z</time></trkpt><trkpt lat="47.291336730166606" lon="-1.570507641883167"><ele>28.0</ele><time>2026-04-12T09:11:32Z</time></trkpt><trkpt lat="47.29123128582471" lon="-1.5705178678050362"><ele>29.0</ele><time>2026-04-12T09:11:34Z</time></trkpt><trkpt lat="47.29112198580735" lon="-1.570529099555286"><ele>29.999999999999996</ele><time>2026-04-12T09:11:36Z</time></trkpt><trkpt lat="47.29101704437964" lon="-1.570536475630077"><ele>30.999999999999996</ele><time>2026-04-12T09:11:38Z</time></trkpt><trkpt lat="47.290916754908196" lon="-1.5705396607532822"><ele>32.0</ele><time>2026-04-12T09:11:40Z</time></trkpt><trkpt lat="47.29081998583608" lon="-1.5705834142878377"><ele>33.0</ele><time>2026-04-12T09:11:42Z</time></trkpt><trkpt lat="47.29074044157498" lon="-1.5706132538631283"><ele>33.0</ele><time>2026-04-12T09:11:43.999Z</time></trkpt><trkpt lat="47.290665255903534" lon="-1.5706303529455983"><ele>33.0</ele><time>2026-04-12T09:11:44.999Z</time></trkpt><trkpt lat="47.2905935487219" lon="-1.5707102324828233"><ele>33.0</ele><time>2026-04-12T09:11:46.999Z</time></trkpt><trkpt lat="47.29050826285713" lon="-1.5707746893182124"><ele>33.0</ele><time>2026-04-12T09:11:48.999Z</time></trkpt><trkpt lat="47.29042934723877" lon="-1.570828082041415"><ele>33.0</ele><time>2026-04-12T09:11:50.999Z</time></trkpt><trkpt lat="47.290347162678174" lon="-1.5709195286050168"><ele>33.666666666666664</ele><time>2026-04-12T09:11:52.999Z</time></trkpt><trkpt lat="47.29029431477868" lon="-1.5710014197990028"><ele>34.333333333333336</ele><time>2026-04-12T09:11:54.999Z</time></trkpt><trkpt lat="47.290251147977344" lon="-1.5710691455766288"><ele>35.0</ele><time>2026-04-12T09:11:56.999Z</time></trkpt><trkpt lat="47.29019343857401" lon="-1.5711552277222007"><ele>35.66666666666667</ele><time>2026-04-12T09:11:58.999Z</time></trkpt><trkpt lat="47.2901281435483" lon="-1.5712391305729478"><ele>36.333333333333336</ele><time>2026-04-12T09:12:00.999Z</time></trkpt><trkpt lat="47.29006733284079" lon="-1.57133451663104"><ele>37.0</ele><time>2026-04-12T09:12:02.999Z</time></trkpt><trkpt lat="47.290007318414084" lon="-1.5714407153442236"><ele>37.16666666666667</ele><time>2026-04-12T09:12:04.999Z</time></trkpt><trkpt lat="47.28992974390023" lon="-1.5715306531652542"><ele>37.333333333333336</ele><time>2026-04-12T09:12:06.999Z</time></trkpt><trkpt lat="47.289874758615426" lon="-1.5716127958163355"><ele>37.5</ele><time>2026-04-12T09:12:08.999Z</time></trkpt><trkpt lat="47.2898416500979" lon="-1.5717003028854464"><ele>37.666666666666664</ele><time>2026-04-12T09:12:10.999Z</time></trkpt><trkpt lat="47.28976151910358" lon="-1.5718146320447062"><ele>37.83333333333333</ele><time>2026-04-12T09:12:13.999Z</time></trkpt><trkpt lat="47.28969928347253" lon="-1.5719009656473732"><ele>38.0</ele><time>2026-04-12T09:12:15.999Z</time></trkpt><trkpt lat="47.28962518744849" lon="-1.5719904005542136"><ele>38.8</ele><time>2026-04-12T09:12:17.999Z</time></trkpt><trkpt lat="47.289563245184056" lon="-1.5721011254951098"><ele>39.599999999999994</ele><time>2026-04-12T09:12:19.999Z</time></trkpt><trkpt lat="47.28950465568089" lon="-1.57220765948442"><ele>40.400000000000006</ele><time>2026-04-12T09:12:21.999Z</time></trkpt><trkpt lat="47.28943454106086" lon="-1.5723070688560346"><ele>41.2</ele><time>2026-04-12T09:12:23.999Z</time></trkpt><trkpt lat="47.28933760435068" lon="-1.5724346414223056"><ele>42.0</ele><time>2026-04-12T09:12:25.999Z</time></trkpt><trkpt lat="47.289281487508944" lon="-1.572555927561198"><ele>42.0</ele><time>2026-04-12T09:12:27.999Z</time></trkpt><trkpt lat="47.289222101724974" lon="-1.5726502239718778"><ele>42.0</ele><time>2026-04-12T09:12:29.999Z</time></trkpt><trkpt lat="47.2891542502188" lon="-1.572736725212608"><ele>42.0</ele><time>2026-04-12T09:12:31.999Z</time></trkpt><trkpt lat="47.28909163740211" lon="-1.572849880905424"><ele>42.0</ele><time>2026-04-12T09:12:33.999Z</time></trkpt><trkpt lat="47.28901611645453" lon="-1.5729461051538334"><ele>42.0</ele><time>2026-04-12T09:12:35.999Z</time></trkpt><trkpt lat="47.28895203680479" lon="-1.5730553213521588"><ele>42.0</ele><time>2026-04-12T09:12:37.999Z</time></trkpt><trkpt lat="47.28890011091464" lon="-1.5731723327204334"><ele>42.0</ele><time>2026-04-12T09:12:39.999Z</time></trkpt><trkpt lat="47.288840557492605" lon="-1.5732890926316132"><ele>42.0</ele><time>2026-04-12T09:12:41.999Z</time></trkpt><trkpt lat="47.288773083172075" lon="-1.5733926091357817"><ele>42.0</ele><time>2026-04-12T09:12:43.999Z</time></trkpt><trkpt lat="47.2887009988048" lon="-1.5735046751811852"><ele>42.0</ele><time>2026-04-12T09:12:45.999Z</time></trkpt><trkpt lat="47.28863775734537" lon="-1.573609365151798"><ele>42.0</ele><time>2026-04-12T09:12:47.999Z</time></trkpt><trkpt lat="47.28858218532734" lon="-1.573698297144448"><ele>42.0</ele><time>2026-04-12T09:12:49.999Z</time></trkpt><trkpt lat="47.2885057004609" lon="-1.5738032385721559"><ele>42.0</ele><time>2026-04-12T09:12:51.999Z</time></trkpt><trkpt lat="47.28841140405022" lon="-1.5739220101400966"><ele>42.0</ele><time>2026-04-12T09:12:53.999Z</time></trkpt><trkpt lat="47.28833718229764" lon="-1.5740557014956829"><ele>42.0</ele><time>2026-04-12T09:12:55.999Z</time></trkpt><trkpt lat="47.288270839534036" lon="-1.5741969365641233"><ele>42.0</ele><time>2026-04-12T09:12:57.999Z</time></trkpt><trkpt lat="47.288198294162086" lon="-1.5743124391898273"><ele>42.0</ele><time>2026-04-12T09:12:59.999Z</time></trkpt><trkpt lat="47.28810894307428" lon="-1.5744280256345629"><ele>42.0</ele><time>2026-04-12T09:13:01.999Z</time></trkpt><trkpt lat="47.28801929861986" lon="-1.5745229925974966"><ele>42.0</ele><time>2026-04-12T09:13:03.999Z</time></trkpt><trkpt lat="47.28793573104524" lon="-1.5746167860939861"><ele>42.0</ele><time>2026-04-12T09:13:05.999Z</time></trkpt><trkpt lat="47.28784390729599" lon="-1.5747268404826287"><ele>42.0</ele><time>2026-04-12T09:13:07.999Z</time></trkpt><trkpt lat="47.28774814405226" lon="-1.5747948177173499"><ele>42.0</ele><time>2026-04-12T09:13:09.999Z</time></trkpt><trkpt lat="47.28767668832772" lon="-1.5748720988645915"><ele>42.0</ele><time>2026-04-12T09:13:11.999Z</time></trkpt><trkpt lat="47.28761956565761" lon="-1.5749244857594136"><ele>42.0</ele><time>2026-04-12T09:13:12.999Z</time></trkpt><trkpt lat="47.287561018063954" lon="-1.5749669820084935"><ele>42.0</ele><time>2026-04-12T09:13:13.999Z</time></trkpt><trkpt lat="47.287499285347096" lon="-1.5750058740392094"><ele>42.0</ele><time>2026-04-12T09:13:14.999Z</time></trkpt><trkpt lat="47.287438600368134" lon="-1.5750493761166697"><ele>42.0</ele><time>2026-04-12T09:13:15.999Z</time></trkpt><trkpt lat="47.287386171563796" lon="-1.5751018468305236"><ele>42.0</ele><time>2026-04-12T09:13:16.999Z</time></trkpt><trkpt lat="47.28729346771472" lon="-1.5752094704672464"><ele>42.0</ele><time>2026-04-12T09:13:18.999Z</time></trkpt><trkpt lat="47.287188484377495" lon="-1.575307622553385"><ele>42.0</ele><time>2026-04-12T09:13:20.999Z</time></trkpt><trkpt lat="47.287096115804545" lon="-1.5754031762495406"><ele>42.0</ele><time>2026-04-12T09:13:22.999Z</time></trkpt><trkpt lat="47.287037232934765" lon="-1.5754463430508743"><ele>42.2</ele><time>2026-04-12T09:13:23.999Z</time></trkpt><trkpt lat="47.286938577934436" lon="-1.5755376219764123"><ele>42.400000000000006</ele><time>2026-04-12T09:13:25.999Z</time></trkpt><trkpt lat="47.28684432343327" lon="-1.5756335947677265"><ele>42.599999999999994</ele><time>2026-04-12T09:13:27.999Z</time></trkpt><trkpt lat="47.286748769737116" lon="-1.5757146477713955"><ele>42.8</ele><time>2026-04-12T09:13:29.999Z</time></trkpt><trkpt lat="47.28666134648704" lon="-1.5757970418795717"><ele>43.0</ele><time>2026-04-12T09:13:31.999Z</time></trkpt><trkpt lat="47.286567469171516" lon="-1.5758935175850763"><ele>43.0</ele><time>2026-04-12T09:13:33.999Z</time></trkpt><trkpt lat="47.28648151275449" lon="-1.5759806055590286"><ele>43.0</ele><time>2026-04-12T09:13:35.999Z</time></trkpt><trkpt lat="47.286388096443645" lon="-1.57606031745819"><ele>43.0</ele><time>2026-04-12T09:13:37.999Z</time></trkpt><trkpt lat="47.28628374174916" lon="-1.5761417057379858"><ele>43.0</ele><time>2026-04-12T09:13:39.999Z</time></trkpt><trkpt lat="47.28617800404065" lon="-1.5762283746167796"><ele>43.2</ele><time>2026-04-12T09:13:41.999Z</time></trkpt><trkpt lat="47.28609263435685" lon="-1.5762844495489972"><ele>43.4</ele><time>2026-04-12T09:13:43.999Z</time></trkpt><trkpt lat="47.28600278035485" lon="-1.5763675980284588"><ele>43.6</ele><time>2026-04-12T09:13:45.999Z</time></trkpt><trkpt lat="47.28593576703899" lon="-1.5764230862274546"><ele>43.800000000000004</ele><time>2026-04-12T09:13:47.999Z</time></trkpt><trkpt lat="47.28587470487439" lon="-1.5764758083984036"><ele>44.0</ele><time>2026-04-12T09:13:48.999Z</time></trkpt><trkpt lat="47.285775672688416" lon="-1.5765556879356284"><ele>44.0</ele><time>2026-04-12T09:13:50.999Z</time></trkpt><trkpt lat="47.28567475457423" lon="-1.5766431111857078"><ele>44.0</ele><time>2026-04-12T09:13:52.999Z</time></trkpt><trkpt lat="47.2855874570527" lon="-1.5767115075155875"><ele>44.0</ele><time>2026-04-12T09:13:54.999Z</time></trkpt><trkpt lat="47.28548720949077" lon="-1.5768135152771852"><ele>44.0</ele><time>2026-04-12T09:13:56.999Z</time></trkpt><trkpt lat="47.28538733911448" lon="-1.576909320430436"><ele>43.800000000000004</ele><time>2026-04-12T09:13:58.999Z</time></trkpt><trkpt lat="47.28532309182667" lon="-1.5769645571723365"><ele>43.6</ele><time>2026-04-12T09:13:59.999Z</time></trkpt><trkpt lat="47.28522016205572" lon="-1.577051896603384"><ele>43.4</ele><time>2026-04-12T09:14:01.999Z</time></trkpt><trkpt lat="47.28513709739529" lon="-1.5771612804397728"><ele>43.2</ele><time>2026-04-12T09:14:03.999Z</time></trkpt><trkpt lat="47.28505537383936" lon="-1.577286086977997"><ele>43.0</ele><time>2026-04-12T09:14:05.999Z</time></trkpt><trkpt lat="47.28497872133486" lon="-1.577406032012382"><ele>43.0</ele><time>2026-04-12T09:14:07.999Z</time></trkpt><trkpt lat="47.28490445767276" lon="-1.5775066148504404"><ele>43.0</ele><time>2026-04-12T09:14:09.999Z</time></trkpt><trkpt lat="47.284823362759575" lon="-1.5776460059001833"><ele>43.0</ele><time>2026-04-12T09:14:11.999Z</time></trkpt><trkpt lat="47.284749602011665" lon="-1.5777393803015143"><ele>43.0</ele><time>2026-04-12T09:14:13.999Z</time></trkpt><trkpt lat="47.284691515422686" lon="-1.577830240131894"><ele>43.0</ele><time>2026-04-12T09:14:15.999Z</time></trkpt><trkpt lat="47.28465312630616" lon="-1.577954208479801"><ele>42.8</ele><time>2026-04-12T09:14:17.999Z</time></trkpt><trkpt lat="47.28454177272253" lon="-1.578113632278124"><ele>42.599999999999994</ele><time>2026-04-12T09:14:19.999Z</time></trkpt><trkpt lat="47.28448980492286" lon="-1.5782110299929772"><ele>42.400000000000006</ele><time>2026-04-12T09:14:20.999Z</time></trkpt><trkpt lat="47.28443557400934" lon="-1.5782669372871314"><ele>42.2</ele><time>2026-04-12T09:14:21.999Z</time></trkpt><trkpt lat="47.28437937334858" lon="-1.5783586353078283"><ele>42.0</ele><time>2026-04-12T09:14:22.999Z</time></trkpt><trkpt lat="47.2843326442384" lon="-1.5784370061024822"><ele>42.0</ele><time>2026-04-12T09:14:23.999Z</time></trkpt><trkpt lat="47.28429073472254" lon="-1.5785079170033134"><ele>42.0</ele><time>2026-04-12T09:14:24.999Z</time></trkpt><trkpt lat="47.28423889265142" lon="-1.5785795822754303"><ele>42.0</ele><time>2026-04-12T09:14:25.999Z</time></trkpt><trkpt lat="47.284177662848755" lon="-1.578648900614659"><ele>42.0</ele><time>2026-04-12T09:14:26.999Z</time></trkpt><trkpt lat="47.28407703810118" lon="-1.57876230776457"><ele>42.0</ele><time>2026-04-12T09:14:28.999Z</time></trkpt><trkpt lat="47.28402704004876" lon="-1.578840091826002"><ele>42.0</ele><time>2026-04-12T09:14:29.999Z</time></trkpt><trkpt lat="47.28397938892923" lon="-1.578925168143193"><ele>42.333333333333336</ele><time>2026-04-12T09:14:30.999Z</time></trkpt><trkpt lat="47.283925535201355" lon="-1.5790440235301657"><ele>42.666666666666664</ele><time>2026-04-12T09:14:32.999Z</time></trkpt><trkpt lat="47.28389142085545" lon="-1.5791244059815808"><ele>43.0</ele><time>2026-04-12T09:14:33.999Z</time></trkpt><trkpt lat="47.28383936923675" lon="-1.579202357681076"><ele>43.33333333333333</ele><time>2026-04-12T09:14:34.999Z</time></trkpt><trkpt lat="47.28374264207415" lon="-1.5793363843127892"><ele>43.666666666666664</ele><time>2026-04-12T09:14:36.999Z</time></trkpt><trkpt lat="47.283694655678495" lon="-1.579413916917126"><ele>44.0</ele><time>2026-04-12T09:14:37.999Z</time></trkpt><trkpt lat="47.28363560517065" lon="-1.5795176010593581"><ele>44.0</ele><time>2026-04-12T09:14:38.999Z</time></trkpt><trkpt lat="47.28357533928685" lon="-1.5796697326019216"><ele>44.0</ele><time>2026-04-12T09:14:40.999Z</time></trkpt><trkpt lat="47.28353594434194" lon="-1.5798549726620128"><ele>44.0</ele><time>2026-04-12T09:14:42.999Z</time></trkpt><trkpt lat="47.28350962516598" lon="-1.5800237841918878"><ele>44.0</ele><time>2026-04-12T09:14:44.999Z</time></trkpt><trkpt lat="47.2834887961366" lon="-1.5801131352796964"><ele>44.0</ele><time>2026-04-12T09:14:45.999Z</time></trkpt><trkpt lat="47.283479869409724" lon="-1.580301225186866"><ele>43.800000000000004</ele><time>2026-04-12T09:14:47.999Z</time></trkpt><trkpt lat="47.28348556910388" lon="-1.5804954338833508"><ele>43.6</ele><time>2026-04-12T09:14:49.999Z</time></trkpt><trkpt lat="47.28348020468585" lon="-1.5806077513858494"><ele>43.4</ele><time>2026-04-12T09:14:50.999Z</time></trkpt><trkpt lat="47.2834689729356" lon="-1.5807010419681489"><ele>43.2</ele><time>2026-04-12T09:14:51.999Z</time></trkpt><trkpt lat="47.28343531959437" lon="-1.5808426123127162"><ele>43.0</ele><time>2026-04-12T09:14:53.999Z</time></trkpt><trkpt lat="47.283425848043784" lon="-1.5809534210726441"><ele>43.0</ele><time>2026-04-12T09:14:54.999Z</time></trkpt><trkpt lat="47.28342823688619" lon="-1.5810649003848256"><ele>43.0</ele><time>2026-04-12T09:14:55.999Z</time></trkpt><trkpt lat="47.28341465820305" lon="-1.5811674110606138"><ele>43.0</ele><time>2026-04-12T09:14:56.999Z</time></trkpt><trkpt lat="47.283419771163985" lon="-1.5813218895360652"><ele>43.0</ele><time>2026-04-12T09:14:57.999Z</time></trkpt><trkpt lat="47.2834343556755" lon="-1.5814927127227014"><ele>43.0</ele><time>2026-04-12T09:14:59.999Z</time></trkpt><trkpt lat="47.283424004025086" lon="-1.5815886855140155"><ele>43.0</ele><time>2026-04-12T09:15:00.999Z</time></trkpt><trkpt lat="47.283435445322915" lon="-1.581686418504996"><ele>43.333333333333336</ele><time>2026-04-12T09:15:01.999Z</time></trkpt><trkpt lat="47.28342287246816" lon="-1.581781804563088"><ele>43.66666666666667</ele><time>2026-04-12T09:15:02.999Z</time></trkpt><trkpt lat="47.28341503538869" lon="-1.5819069463774393"><ele>44.0</ele><time>2026-04-12T09:15:03.999Z</time></trkpt><trkpt lat="47.28341310755096" lon="-1.582030160354061"><ele>44.333333333333336</ele><time>2026-04-12T09:15:04.999Z</time></trkpt><trkpt lat="47.28340623439036" lon="-1.5821241214886141"><ele>44.666666666666664</ele><time>2026-04-12T09:15:05.999Z</time></trkpt><trkpt lat="47.28338167541407" lon="-1.5822884067907763"><ele>45.0</ele><time>2026-04-12T09:15:07.999Z</time></trkpt><trkpt lat="47.2833690606498" lon="-1.582411369310303"><ele>45.0</ele><time>2026-04-12T09:15:08.999Z</time></trkpt><trkpt lat="47.2833600920134" lon="-1.582510024310632"><ele>45.0</ele><time>2026-04-12T09:15:09.999Z</time></trkpt><trkpt lat="47.283359882465824" lon="-1.582623515279575"><ele>45.0</ele><time>2026-04-12T09:15:10.999Z</time></trkpt><trkpt lat="47.28333968207918" lon="-1.5828115213677127"><ele>45.0</ele><time>2026-04-12T09:15:12.999Z</time></trkpt><trkpt lat="47.28333846670322" lon="-1.5829894691720445"><ele>45.0</ele><time>2026-04-12T09:15:14.999Z</time></trkpt><trkpt lat="47.283332850828096" lon="-1.5831598732635221"><ele>45.0</ele><time>2026-04-12T09:15:16.999Z</time></trkpt><trkpt lat="47.283326983495876" lon="-1.583262719215437"><ele>45.0</ele><time>2026-04-12T09:15:17.999Z</time></trkpt><trkpt lat="47.28332438510589" lon="-1.5834443550571644"><ele>45.0</ele><time>2026-04-12T09:15:19.999Z</time></trkpt><trkpt lat="47.28331713475965" lon="-1.583606209607407"><ele>45.0</ele><time>2026-04-12T09:15:21.999Z</time></trkpt><trkpt lat="47.28331482973628" lon="-1.58370017074196"><ele>45.0</ele><time>2026-04-12T09:15:22.999Z</time></trkpt><trkpt lat="47.28330426853828" lon="-1.5838093031212537"><ele>45.0</ele><time>2026-04-12T09:15:23.999Z</time></trkpt><trkpt lat="47.2833051067286" lon="-1.5839134063586442"><ele>44.833333333333336</ele><time>2026-04-12T09:15:24.999Z</time></trkpt><trkpt lat="47.28330984250389" lon="-1.5840128995492906"><ele>44.666666666666664</ele><time>2026-04-12T09:15:25.999Z</time></trkpt><trkpt lat="47.283322121992036" lon="-1.584205096589014"><ele>44.5</ele><time>2026-04-12T09:15:27.999Z</time></trkpt><trkpt lat="47.28329425216399" lon="-1.5843230299666378"><ele>44.33333333333333</ele><time>2026-04-12T09:15:28.999Z</time></trkpt><trkpt lat="47.28329626382075" lon="-1.584422187881157"><ele>44.166666666666664</ele><time>2026-04-12T09:15:29.999Z</time></trkpt><trkpt lat="47.28328008674763" lon="-1.5845234412714695"><ele>44.0</ele><time>2026-04-12T09:15:30.999Z</time></trkpt><trkpt lat="47.28327765599571" lon="-1.584619330243752"><ele>43.800000000000004</ele><time>2026-04-12T09:15:31.999Z</time></trkpt><trkpt lat="47.28327229157768" lon="-1.5847240202143646"><ele>43.6</ele><time>2026-04-12T09:15:32.999Z</time></trkpt><trkpt lat="47.2832636163079" lon="-1.5849017165616013"><ele>43.4</ele><time>2026-04-12T09:15:34.999Z</time></trkpt><trkpt lat="47.28325376757167" lon="-1.5850009582951525"><ele>43.2</ele><time>2026-04-12T09:15:35.999Z</time></trkpt><trkpt lat="47.283262945755645" lon="-1.5850995294764498"><ele>43.0</ele><time>2026-04-12T09:15:36.999Z</time></trkpt><trkpt lat="47.28324375119738" lon="-1.5852815844133359"><ele>43.0</ele><time>2026-04-12T09:15:38.999Z</time></trkpt><trkpt lat="47.28323729713194" lon="-1.5853792335852843"><ele>43.0</ele><time>2026-04-12T09:15:39.999Z</time></trkpt><trkpt lat="47.28323419582777" lon="-1.5854721050724252"><ele>43.0</ele><time>2026-04-12T09:15:40.999Z</time></trkpt><trkpt lat="47.28323105261408" lon="-1.5855793096139892"><ele>43.0</ele><time>2026-04-12T09:15:41.999Z</time></trkpt><trkpt lat="47.28322690357201" lon="-1.585671929644035"><ele>43.0</ele><time>2026-04-12T09:15:42.999Z</time></trkpt><trkpt lat="47.28322505955331" lon="-1.5858501289054618"><ele>43.0</ele><time>2026-04-12T09:15:44.999Z</time></trkpt><trkpt lat="47.28321642619304" lon="-1.5860067028567064"><ele>43.0</ele><time>2026-04-12T09:15:46.999Z</time></trkpt><trkpt lat="47.283227448395714" lon="-1.5860997419819105"><ele>43.0</ele><time>2026-04-12T09:15:47.999Z</time></trkpt><trkpt lat="47.283228202767" lon="-1.5862719062730541"><ele>43.0</ele><time>2026-04-12T09:15:49.999Z</time></trkpt><trkpt lat="47.28321512699805" lon="-1.5863717347398272"><ele>43.0</ele><time>2026-04-12T09:15:50.999Z</time></trkpt><trkpt lat="47.283207499466165" lon="-1.586532080547499"><ele>43.0</ele><time>2026-04-12T09:15:52.999Z</time></trkpt><trkpt lat="47.28317828853361" lon="-1.5866233594730372"><ele>43.0</ele><time>2026-04-12T09:15:53.999Z</time></trkpt><trkpt lat="47.283126069276854" lon="-1.58678278327136"><ele>43.8</ele><time>2026-04-12T09:15:55.999Z</time></trkpt><trkpt lat="47.28309425995432" lon="-1.5868675243124244"><ele>44.599999999999994</ele><time>2026-04-12T09:15:56.999Z</time></trkpt><trkpt lat="47.28303491607986" lon="-1.5870165545508144"><ele>45.400000000000006</ele><time>2026-04-12T09:15:58.999Z</time></trkpt><trkpt lat="47.28298575621776" lon="-1.5871659200653314"><ele>46.2</ele><time>2026-04-12T09:16:00.999Z</time></trkpt><trkpt lat="47.28293135766618" lon="-1.5873042214676618"><ele>47.0</ele><time>2026-04-12T09:16:02.998Z</time></trkpt><trkpt lat="47.28288123388521" lon="-1.587445875631261"><ele>47.0</ele><time>2026-04-12T09:16:04.998Z</time></trkpt><trkpt lat="47.282845107882544" lon="-1.587528940291691"><ele>47.0</ele><time>2026-04-12T09:16:05.998Z</time></trkpt><trkpt lat="47.282789661593064" lon="-1.5876816585674767"><ele>47.0</ele><time>2026-04-12T09:16:07.998Z</time></trkpt><trkpt lat="47.28276422251694" lon="-1.5878279227778203"><ele>47.0</ele><time>2026-04-12T09:16:09.998Z</time></trkpt><trkpt lat="47.282711961350664" lon="-1.5879529807731396"><ele>47.0</ele><time>2026-04-12T09:16:11.998Z</time></trkpt><trkpt lat="47.28264373265885" lon="-1.5880761947497615"><ele>47.2</ele><time>2026-04-12T09:16:13.998Z</time></trkpt><trkpt lat="47.2825838858702" lon="-1.5882111433908233"><ele>47.400000000000006</ele><time>2026-04-12T09:16:15.998Z</time></trkpt><trkpt lat="47.28253992278807" lon="-1.5883380454048406"><ele>47.599999999999994</ele><time>2026-04-12T09:16:17.998Z</time></trkpt><trkpt lat="47.282482590570375" lon="-1.5884735807791244"><ele>47.8</ele><time>2026-04-12T09:16:19.998Z</time></trkpt><trkpt lat="47.28243355643682" lon="-1.5885941125467313"><ele>48.0</ele><time>2026-04-12T09:16:21.998Z</time></trkpt><trkpt lat="47.28238108572297" lon="-1.5887349285200132"><ele>48.2</ele><time>2026-04-12T09:16:24Z</time></trkpt><trkpt lat="47.28232337631963" lon="-1.5888623334482208"><ele>48.4</ele><time>2026-04-12T09:16:26Z</time></trkpt><trkpt lat="47.28227807213299" lon="-1.5889329090729252"><ele>48.6</ele><time>2026-04-12T09:16:27Z</time></trkpt><trkpt lat="47.28223364804618" lon="-1.5890601463630694"><ele>48.800000000000004</ele><time>2026-04-12T09:16:29Z</time></trkpt><trkpt lat="47.28216751483016" lon="-1.589186294005801"><ele>49.0</ele><time>2026-04-12T09:16:31Z</time></trkpt><trkpt lat="47.28213055063717" lon="-1.5893057361259957"><ele>49.400000000000006</ele><time>2026-04-12T09:16:33Z</time></trkpt><trkpt lat="47.282069698020145" lon="-1.5894221607610484"><ele>49.8</ele><time>2026-04-12T09:16:35Z</time></trkpt><trkpt lat="47.28202049624853" lon="-1.58954487182348"><ele>50.2</ele><time>2026-04-12T09:16:37Z</time></trkpt><trkpt lat="47.281970330558046" lon="-1.5896563511356614"><ele>50.599999999999994</ele><time>2026-04-12T09:16:39Z</time></trkpt><trkpt lat="47.28190243714236" lon="-1.589790796862533"><ele>51.0</ele><time>2026-04-12T09:16:41Z</time></trkpt><trkpt lat="47.28184615266256" lon="-1.589907137678554"><ele>51.199999999999996</ele><time>2026-04-12T09:16:43Z</time></trkpt><trkpt lat="47.2817749064856" lon="-1.590022975580385"><ele>51.4</ele><time>2026-04-12T09:16:45Z</time></trkpt><trkpt lat="47.28171824482016" lon="-1.5901471115663555"><ele>51.6</ele><time>2026-04-12T09:16:47Z</time></trkpt><trkpt lat="47.28165403944187" lon="-1.5902469400331287"><ele>51.8</ele><time>2026-04-12T09:16:49Z</time></trkpt><trkpt lat="47.28159251627259" lon="-1.5903601795449762"><ele>52.0</ele><time>2026-04-12T09:16:51Z</time></trkpt><trkpt lat="47.2815270116993" lon="-1.5904620196685106"><ele>52.2</ele><time>2026-04-12T09:16:53Z</time></trkpt><trkpt lat="47.281450107737705" lon="-1.5905652008965523"><ele>52.400000000000006</ele><time>2026-04-12T09:16:55Z</time></trkpt><trkpt lat="47.28138091512702" lon="-1.5906755905613217"><ele>52.599999999999994</ele><time>2026-04-12T09:16:57Z</time></trkpt><trkpt lat="47.281304094984456" lon="-1.5907790232464585"><ele>52.8</ele><time>2026-04-12T09:16:59Z</time></trkpt><trkpt lat="47.28122522127561" lon="-1.5908749960377726"><ele>53.0</ele><time>2026-04-12T09:17:01Z</time></trkpt><trkpt lat="47.28115581911735" lon="-1.5909856371596371"><ele>53.0</ele><time>2026-04-12T09:17:03Z</time></trkpt><trkpt lat="47.281077574051245" lon="-1.5911048278227364"><ele>53.0</ele><time>2026-04-12T09:17:05Z</time></trkpt><trkpt lat="47.28100632787429" lon="-1.591220498086504"><ele>53.0</ele><time>2026-04-12T09:17:07Z</time></trkpt><trkpt lat="47.28093797345392" lon="-1.5913410298541106"><ele>53.0</ele><time>2026-04-12T09:17:09Z</time></trkpt><trkpt lat="47.28086635009132" lon="-1.5914831869319002"><ele>53.0</ele><time>2026-04-12T09:17:11Z</time></trkpt><trkpt lat="47.28078915276311" lon="-1.5916112624123613"><ele>53.0</ele><time>2026-04-12T09:17:13Z</time></trkpt><trkpt lat="47.28073513139717" lon="-1.5916726179435772"><ele>53.0</ele><time>2026-04-12T09:17:14Z</time></trkpt><trkpt lat="47.28064251136713" lon="-1.591782253237061"><ele>53.0</ele><time>2026-04-12T09:17:16Z</time></trkpt><trkpt lat="47.28056749333374" lon="-1.5919266734287068"><ele>53.0</ele><time>2026-04-12T09:17:18Z</time></trkpt><trkpt lat="47.280532750345095" lon="-1.5920057147756144"><ele>53.0</ele><time>2026-04-12T09:17:19Z</time></trkpt><trkpt lat="47.280456558845266" lon="-1.592130772770934"><ele>53.2</ele><time>2026-04-12T09:17:21Z</time></trkpt><trkpt lat="47.28036406454377" lon="-1.5922596026226805"><ele>53.4</ele><time>2026-04-12T09:17:23Z</time></trkpt><trkpt lat="47.28028229907833" lon="-1.5923905279502202"><ele>53.60000000000001</ele><time>2026-04-12T09:17:25Z</time></trkpt><trkpt lat="47.280233893587514" lon="-1.5924631990507174"><ele>53.800000000000004</ele><time>2026-04-12T09:17:26Z</time></trkpt><trkpt lat="47.28016348560087" lon="-1.5925983991488746"><ele>54.0</ele><time>2026-04-12T09:17:28Z</time></trkpt><trkpt lat="47.28002644148402" lon="-1.5927932783976129"><ele>54.0</ele><time>2026-04-12T09:17:31Z</time></trkpt><trkpt lat="47.279933905273005" lon="-1.5929116308703952"><ele>54.00000000000001</ele><time>2026-04-12T09:17:33Z</time></trkpt><trkpt lat="47.27989010982893" lon="-1.5929801948383384"><ele>54.00000000000001</ele><time>2026-04-12T09:17:34Z</time></trkpt><trkpt lat="47.27980880536817" lon="-1.5931216813638742"><ele>54.0</ele><time>2026-04-12T09:17:36Z</time></trkpt><trkpt lat="47.27976593193345" lon="-1.5932195819929178"><ele>54.0</ele><time>2026-04-12T09:17:37Z</time></trkpt><trkpt lat="47.27971773599021" lon="-1.5932894032463367"><ele>53.400000000000006</ele><time>2026-04-12T09:17:38Z</time></trkpt><trkpt lat="47.279668324671015" lon="-1.5933511778727112"><ele>52.800000000000004</ele><time>2026-04-12T09:17:39Z</time></trkpt><trkpt lat="47.27958165579222" lon="-1.5934975259020863"><ele>52.2</ele><time>2026-04-12T09:17:41Z</time></trkpt><trkpt lat="47.27949553173713" lon="-1.5936203207835495"><ele>51.599999999999994</ele><time>2026-04-12T09:17:43Z</time></trkpt><trkpt lat="47.279425710483714" lon="-1.5937605500236094"><ele>51.0</ele><time>2026-04-12T09:17:45Z</time></trkpt><trkpt lat="47.27936821062796" lon="-1.5939244162306132"><ele>50.75</ele><time>2026-04-12T09:17:47Z</time></trkpt><trkpt lat="47.27935706269674" lon="-1.5941622946426217"><ele>50.5</ele><time>2026-04-12T09:17:49Z</time></trkpt><trkpt lat="47.27937114429407" lon="-1.5943102352335996"><ele>50.25</ele><time>2026-04-12T09:17:51Z</time></trkpt><trkpt lat="47.279352746016606" lon="-1.5944731794312543"><ele>50.0</ele><time>2026-04-12T09:17:53Z</time></trkpt><trkpt lat="47.27926297583364" lon="-1.594581138344104"><ele>50.0</ele><time>2026-04-12T09:17:55Z</time></trkpt><trkpt lat="47.27916277018122" lon="-1.5946233831360885"><ele>50.0</ele><time>2026-04-12T09:17:57Z</time></trkpt><trkpt lat="47.27905120705001" lon="-1.5946720819935152"><ele>50.0</ele><time>2026-04-12T09:17:59Z</time></trkpt><trkpt lat="47.27895125285469" lon="-1.5947639476522755"><ele>50.0</ele><time>2026-04-12T09:18:01Z</time></trkpt><trkpt lat="47.278860434933826" lon="-1.5948918554946732"><ele>50.0</ele><time>2026-04-12T09:18:03Z</time></trkpt><trkpt lat="47.2788030188971" lon="-1.5950320847347332"><ele>50.0</ele><time>2026-04-12T09:18:05Z</time></trkpt><trkpt lat="47.27873621512882" lon="-1.5951712243273808"><ele>50.0</ele><time>2026-04-12T09:18:07Z</time></trkpt><trkpt lat="47.278675194873735" lon="-1.5953045804068402"><ele>50.0</ele><time>2026-04-12T09:18:09Z</time></trkpt><trkpt lat="47.27864288263701" lon="-1.5953882318004922"><ele>50.0</ele><time>2026-04-12T09:18:10Z</time></trkpt><trkpt lat="47.27858026982032" lon="-1.5955204144135076"><ele>50.0</ele><time>2026-04-12T09:18:12Z</time></trkpt><trkpt lat="47.27852750573985" lon="-1.5956565365210134"><ele>50.0</ele><time>2026-04-12T09:18:14Z</time></trkpt><trkpt lat="47.2784560081058" lon="-1.5957916528001388"><ele>50.0</ele><time>2026-04-12T09:18:16Z</time></trkpt><trkpt lat="47.27839184463702" lon="-1.5959369950011335"><ele>50.0</ele><time>2026-04-12T09:18:18Z</time></trkpt><trkpt lat="47.27833954156123" lon="-1.5960848517730795"><ele>50.0</ele><time>2026-04-12T09:18:20Z</time></trkpt><trkpt lat="47.27829641666941" lon="-1.596234636382755"><ele>50.0</ele><time>2026-04-12T09:18:22Z</time></trkpt><trkpt lat="47.27825827900998" lon="-1.5963920485243166"><ele>50.0</ele><time>2026-04-12T09:18:24Z</time></trkpt><trkpt lat="47.27825396232985" lon="-1.596558680759367"><ele>50.0</ele><time>2026-04-12T09:18:26Z</time></trkpt><trkpt lat="47.278259159109815" lon="-1.5966690704241364"><ele>50.0</ele><time>2026-04-12T09:18:27Z</time></trkpt><trkpt lat="47.278277264020666" lon="-1.596831763164696"><ele>50.0</ele><time>2026-04-12T09:18:29Z</time></trkpt><trkpt lat="47.2782781441205" lon="-1.5969973895713658"><ele>50.0</ele><time>2026-04-12T09:18:31Z</time></trkpt><trkpt lat="47.27824260485105" lon="-1.5971516165897224"><ele>50.0</ele><time>2026-04-12T09:18:33Z</time></trkpt><trkpt lat="47.278171149126514" lon="-1.5972965396955583"><ele>50.0</ele><time>2026-04-12T09:18:35Z</time></trkpt><trkpt lat="47.278061430014" lon="-1.5973997209236002"><ele>49.8</ele><time>2026-04-12T09:18:37Z</time></trkpt><trkpt lat="47.27796042808078" lon="-1.5974845457836961"><ele>49.6</ele><time>2026-04-12T09:18:39Z</time></trkpt><trkpt lat="47.27786898151718" lon="-1.5975991264000513"><ele>49.400000000000006</ele><time>2026-04-12T09:18:40.999Z</time></trkpt><trkpt lat="47.277803686491474" lon="-1.5977316442891933"><ele>49.2</ele><time>2026-04-12T09:18:42.999Z</time></trkpt><trkpt lat="47.277765339284464" lon="-1.5978168044254162"><ele>49.0</ele><time>2026-04-12T09:18:43.999Z</time></trkpt><trkpt lat="47.27771508977495" lon="-1.5979745518431048"><ele>49.0</ele><time>2026-04-12T09:18:45.999Z</time></trkpt><trkpt lat="47.27765993685208" lon="-1.5981278568521124"><ele>49.0</ele><time>2026-04-12T09:18:47.999Z</time></trkpt><trkpt lat="47.27756656245075" lon="-1.5982575248941762"><ele>49.0</ele><time>2026-04-12T09:18:49.999Z</time></trkpt><trkpt lat="47.27755344477229" lon="-1.5983487200006827"><ele>49.0</ele><time>2026-04-12T09:18:50.999Z</time></trkpt><trkpt lat="47.27750533264808" lon="-1.5985012706384047"><ele>49.0</ele><time>2026-04-12T09:18:52.999Z</time></trkpt><trkpt lat="47.27746262685142" lon="-1.5986713394537555"><ele>49.0</ele><time>2026-04-12T09:18:54.999Z</time></trkpt><trkpt lat="47.27740298961035" lon="-1.5988563280567516"><ele>49.0</ele><time>2026-04-12T09:18:56.999Z</time></trkpt><trkpt lat="47.2773753712394" lon="-1.598943416030704"><ele>49.0</ele><time>2026-04-12T09:18:57.999Z</time></trkpt><trkpt lat="47.277316446460105" lon="-1.5990997385248533"><ele>49.0</ele><time>2026-04-12T09:18:59.999Z</time></trkpt><trkpt lat="47.277290336831726" lon="-1.599188167603313"><ele>49.0</ele><time>2026-04-12T09:19:00.999Z</time></trkpt><trkpt lat="47.2772355610945" lon="-1.5993607509896153"><ele>49.2</ele><time>2026-04-12T09:19:02.999Z</time></trkpt><trkpt lat="47.2771760914915" lon="-1.5995371062323447"><ele>49.400000000000006</ele><time>2026-04-12T09:19:04.999Z</time></trkpt><trkpt lat="47.277141809507526" lon="-1.5996178239598866"><ele>49.6</ele><time>2026-04-12T09:19:05.999Z</time></trkpt><trkpt lat="47.27709411647848" lon="-1.5997896529749034"><ele>49.8</ele><time>2026-04-12T09:19:07.999Z</time></trkpt><trkpt lat="47.27706184615127" lon="-1.5998798422530291"><ele>50.0</ele><time>2026-04-12T09:19:08.999Z</time></trkpt><trkpt lat="47.277031042657114" lon="-1.599965589122474"><ele>50.0</ele><time>2026-04-12T09:19:09.999Z</time></trkpt><trkpt lat="47.27697777566246" lon="-1.6001416090890765"><ele>50.0</ele><time>2026-04-12T09:19:11.999Z</time></trkpt><trkpt lat="47.276915079026736" lon="-1.6003178805127742"><ele>50.0</ele><time>2026-04-12T09:19:13.999Z</time></trkpt><trkpt lat="47.276881006590344" lon="-1.600402789191902"><ele>50.0</ele><time>2026-04-12T09:19:14.999Z</time></trkpt><trkpt lat="47.27685066410086" lon="-1.6004948224887257"><ele>50.0</ele><time>2026-04-12T09:19:15.999Z</time></trkpt><trkpt lat="47.27681474764577" lon="-1.6005804855391388"><ele>50.00000000000001</ele><time>2026-04-12T09:19:16.999Z</time></trkpt><trkpt lat="47.27678603962741" lon="-1.6006645560279493"><ele>50.0</ele><time>2026-04-12T09:19:17.999Z</time></trkpt><trkpt lat="47.27676185783676" lon="-1.6007552482202656"><ele>50.0</ele><time>2026-04-12T09:19:18.999Z</time></trkpt><trkpt lat="47.27673562247983" lon="-1.6008439287558205"><ele>50.0</ele><time>2026-04-12T09:19:19.999Z</time></trkpt><trkpt lat="47.27670783647082" lon="-1.6009347047671685"><ele>50.0</ele><time>2026-04-12T09:19:20.999Z</time></trkpt><trkpt lat="47.276697568639435" lon="-1.6010294202730069"><ele>50.00000000000001</ele><time>2026-04-12T09:19:21.999Z</time></trkpt><trkpt lat="47.27668093056164" lon="-1.6011249739691624"><ele>50.0</ele><time>2026-04-12T09:19:22.999Z</time></trkpt><trkpt lat="47.27666106545112" lon="-1.601225305350126"><ele>49.85714285714286</ele><time>2026-04-12T09:19:23.999Z</time></trkpt><trkpt lat="47.27664392445914" lon="-1.6013224516078841"><ele>49.714285714285715</ele><time>2026-04-12T09:19:24.999Z</time></trkpt><trkpt lat="47.2766234726154" lon="-1.601420352236928"><ele>49.57142857142857</ele><time>2026-04-12T09:19:25.999Z</time></trkpt><trkpt lat="47.276614084883846" lon="-1.6015311609968557"><ele>49.42857142857143</ele><time>2026-04-12T09:19:26.999Z</time></trkpt><trkpt lat="47.27660071574829" lon="-1.6016336716726436"><ele>49.285714285714285</ele><time>2026-04-12T09:19:27.999Z</time></trkpt><trkpt lat="47.27658265274695" lon="-1.6017364338055269"><ele>49.142857142857146</ele><time>2026-04-12T09:19:28.999Z</time></trkpt><trkpt lat="47.27657418702475" lon="-1.6018375195577756"><ele>49.0</ele><time>2026-04-12T09:19:29.999Z</time></trkpt><trkpt lat="47.276565344116904" lon="-1.6019723005607742"><ele>48.99999999999999</ele><time>2026-04-12T09:19:30.999Z</time></trkpt><trkpt lat="47.27655964442275" lon="-1.6020868811771292"><ele>49.0</ele><time>2026-04-12T09:19:31.999Z</time></trkpt><trkpt lat="47.276551262519575" lon="-1.6021888051196953"><ele>49.0</ele><time>2026-04-12T09:19:32.999Z</time></trkpt><trkpt lat="47.27653596554629" lon="-1.6022835206255337"><ele>49.0</ele><time>2026-04-12T09:19:33.999Z</time></trkpt><trkpt lat="47.276533157608725" lon="-1.602382175625863"><ele>48.99999999999999</ele><time>2026-04-12T09:19:34.999Z</time></trkpt><trkpt lat="47.27652917620472" lon="-1.6025770548746012"><ele>49.0</ele><time>2026-04-12T09:19:36.999Z</time></trkpt><trkpt lat="47.27653743237934" lon="-1.6026753745988036"><ele>48.99999999999999</ele><time>2026-04-12T09:19:37.999Z</time></trkpt><trkpt lat="47.27654426363043" lon="-1.6027803160265113"><ele>49.0</ele><time>2026-04-12T09:19:38.999Z</time></trkpt><trkpt lat="47.27654669438235" lon="-1.6028963215664056"><ele>49.0</ele><time>2026-04-12T09:19:39.999Z</time></trkpt><trkpt lat="47.276557632765986" lon="-1.6029993351563838"><ele>49.0</ele><time>2026-04-12T09:19:40.999Z</time></trkpt><trkpt lat="47.27657175627283" lon="-1.603109808640185"><ele>48.99999999999999</ele><time>2026-04-12T09:19:41.999Z</time></trkpt><trkpt lat="47.27658244319937" lon="-1.6032181028291612"><ele>49.0</ele><time>2026-04-12T09:19:42.999Z</time></trkpt><trkpt lat="47.27659786590121" lon="-1.6033455915764006"><ele>48.99999999999999</ele><time>2026-04-12T09:19:43.999Z</time></trkpt><trkpt lat="47.2766094748371" lon="-1.6034477669760616"><ele>49.0</ele><time>2026-04-12T09:19:44.999Z</time></trkpt><trkpt lat="47.27662397552959" lon="-1.6035497747376595"><ele>49.0</ele><time>2026-04-12T09:19:45.999Z</time></trkpt><trkpt lat="47.27663772185079" lon="-1.6036542132511769"><ele>49.0</ele><time>2026-04-12T09:19:46.999Z</time></trkpt><trkpt lat="47.27665976625613" lon="-1.6038439795389807"><ele>48.99999999999999</ele><time>2026-04-12T09:19:48.999Z</time></trkpt><trkpt lat="47.27667619478635" lon="-1.6039471607670224"><ele>49.0</ele><time>2026-04-12T09:19:49.999Z</time></trkpt><trkpt lat="47.27669358723543" lon="-1.604066938163344"><ele>48.99999999999999</ele><time>2026-04-12T09:19:50.999Z</time></trkpt><trkpt lat="47.27671458390287" lon="-1.6041706223055758"><ele>49.0</ele><time>2026-04-12T09:19:51.999Z</time></trkpt><trkpt lat="47.27672929414294" lon="-1.6042774915710132"><ele>49.0</ele><time>2026-04-12T09:19:52.999Z</time></trkpt><trkpt lat="47.276757750704206" lon="-1.6043841093793552"><ele>49.0</ele><time>2026-04-12T09:19:53.999Z</time></trkpt><trkpt lat="47.27679928303442" lon="-1.6045351512745065"><ele>48.99999999999999</ele><time>2026-04-12T09:19:54.999Z</time></trkpt><trkpt lat="47.276816130659796" lon="-1.6046417690828485"><ele>49.0</ele><time>2026-04-12T09:19:55.999Z</time></trkpt><trkpt lat="47.27683892943642" lon="-1.6047589480891868"><ele>49.166666666666664</ele><time>2026-04-12T09:19:56.999Z</time></trkpt><trkpt lat="47.27687023584477" lon="-1.6048811562374279"><ele>49.33333333333333</ele><time>2026-04-12T09:19:57.999Z</time></trkpt><trkpt lat="47.27688725110821" lon="-1.6049866843983578"><ele>49.5</ele><time>2026-04-12T09:19:58.999Z</time></trkpt><trkpt lat="47.27690363772891" lon="-1.6050946433112072"><ele>49.66666666666667</ele><time>2026-04-12T09:19:59.999Z</time></trkpt><trkpt lat="47.27692735851488" lon="-1.6052150074407505"><ele>49.833333333333336</ele><time>2026-04-12T09:20:00.999Z</time></trkpt><trkpt lat="47.276936830065466" lon="-1.6053181886687924"><ele>50.0</ele><time>2026-04-12T09:20:01.999Z</time></trkpt><trkpt lat="47.276933896399356" lon="-1.6054660454407386"><ele>50.0</ele><time>2026-04-12T09:20:03.999Z</time></trkpt><trkpt lat="47.277012937746264" lon="-1.605548942463105"><ele>50.0</ele><time>2026-04-12T09:20:06.999Z</time></trkpt><trkpt lat="47.27712383032522" lon="-1.6055458411589316"><ele>50.0</ele><time>2026-04-12T09:20:08.999Z</time></trkpt><trkpt lat="47.27723518390886" lon="-1.6054861620083503"><ele>50.0</ele><time>2026-04-12T09:20:10.999Z</time></trkpt><trkpt lat="47.27729142647914" lon="-1.6054420731976677"><ele>50.0</ele><time>2026-04-12T09:20:11.999Z</time></trkpt><trkpt lat="47.27741455663673" lon="-1.6053713299349"><ele>49.28571428571429</ele><time>2026-04-12T09:20:13.999Z</time></trkpt><trkpt lat="47.277482156685814" lon="-1.6053475253298928"><ele>48.57142857142857</ele><time>2026-04-12T09:20:14.999Z</time></trkpt><trkpt lat="47.27754585914992" lon="-1.6053152550026824"><ele>47.85714285714286</ele><time>2026-04-12T09:20:15.999Z</time></trkpt><trkpt lat="47.27761077698998" lon="-1.6052937973305632"><ele>47.142857142857146</ele><time>2026-04-12T09:20:16.999Z</time></trkpt><trkpt lat="47.277675191915854" lon="-1.6052647959455897"><ele>46.42857142857143</ele><time>2026-04-12T09:20:17.999Z</time></trkpt><trkpt lat="47.27774098985575" lon="-1.6052255686387469"><ele>45.714285714285715</ele><time>2026-04-12T09:20:18.999Z</time></trkpt><trkpt lat="47.277806620157584" lon="-1.60519103519768"><ele>45.0</ele><time>2026-04-12T09:20:19.999Z</time></trkpt><trkpt lat="47.27786298845641" lon="-1.6051464434728073"><ele>45.0</ele><time>2026-04-12T09:20:20.999Z</time></trkpt><trkpt lat="47.277921033135875" lon="-1.605108557270472"><ele>45.0</ele><time>2026-04-12T09:20:21.999Z</time></trkpt><trkpt lat="47.278002379506155" lon="-1.6050785500571179"><ele>45.0</ele><time>2026-04-12T09:20:22.999Z</time></trkpt><trkpt lat="47.27806331594221" lon="-1.6050377301886725"><ele>45.0</ele><time>2026-04-12T09:20:23.999Z</time></trkpt><trkpt lat="47.27818191987209" lon="-1.6049762070193931"><ele>45.0</ele><time>2026-04-12T09:20:25.999Z</time></trkpt><trkpt lat="47.27824629288845" lon="-1.6049430985018656"><ele>45.0</ele><time>2026-04-12T09:20:26.999Z</time></trkpt><trkpt lat="47.278313096656724" lon="-1.6049126721933529"><ele>44.666666666666664</ele><time>2026-04-12T09:20:27.999Z</time></trkpt><trkpt lat="47.27837281771682" lon="-1.6048793960377619"><ele>44.333333333333336</ele><time>2026-04-12T09:20:28.999Z</time></trkpt><trkpt lat="47.27848907471381" lon="-1.6048239078387663"><ele>44.0</ele><time>2026-04-12T09:20:30.999Z</time></trkpt><trkpt lat="47.278561159081086" lon="-1.6048070602133915"><ele>43.66666666666667</ele><time>2026-04-12T09:20:31.999Z</time></trkpt><trkpt lat="47.278678924820646" lon="-1.604844024406378"><ele>43.333333333333336</ele><time>2026-04-12T09:20:33.999Z</time></trkpt><trkpt lat="47.278739735528156" lon="-1.6048692539349243"><ele>43.0</ele><time>2026-04-12T09:20:34.999Z</time></trkpt><trkpt lat="47.2788471496173" lon="-1.6049572639182255"><ele>43.00000000000001</ele><time>2026-04-12T09:20:36.999Z</time></trkpt><trkpt lat="47.27890837941997" lon="-1.604993389920895"><ele>43.0</ele><time>2026-04-12T09:20:37.999Z</time></trkpt><trkpt lat="47.278969399675056" lon="-1.6050182003542828"><ele>43.0</ele><time>2026-04-12T09:20:38.999Z</time></trkpt><trkpt lat="47.27906616874717" lon="-1.605112077669804"><ele>43.0</ele><time>2026-04-12T09:20:40.999Z</time></trkpt><trkpt lat="47.27912526116453" lon="-1.6051631234601187"><ele>43.0</ele><time>2026-04-12T09:20:41.999Z</time></trkpt><trkpt lat="47.27918192282997" lon="-1.6052093077465939"><ele>43.00000000000001</ele><time>2026-04-12T09:20:42.999Z</time></trkpt><trkpt lat="47.27923703384332" lon="-1.6052571684137036"><ele>43.0</ele><time>2026-04-12T09:20:43.999Z</time></trkpt><trkpt lat="47.27934863888405" lon="-1.6053574159756352"><ele>42.833333333333336</ele><time>2026-04-12T09:20:45.999Z</time></trkpt><trkpt lat="47.27944943126969" lon="-1.605415502564614"><ele>42.66666666666667</ele><time>2026-04-12T09:20:46.999Z</time></trkpt><trkpt lat="47.27954016537152" lon="-1.6054488625392367"><ele>42.5</ele><time>2026-04-12T09:20:47.999Z</time></trkpt><trkpt lat="47.2796156863191" lon="-1.605484150351589"><ele>42.333333333333336</ele><time>2026-04-12T09:20:48.999Z</time></trkpt><trkpt lat="47.27969757751308" lon="-1.605519521982973"><ele>42.166666666666664</ele><time>2026-04-12T09:20:49.999Z</time></trkpt><trkpt lat="47.279770500070676" lon="-1.6055649518981627"><ele>42.0</ele><time>2026-04-12T09:20:50.999Z</time></trkpt><trkpt lat="47.27989078038119" lon="-1.6056340187802962"><ele>42.0</ele><time>2026-04-12T09:20:52.999Z</time></trkpt><trkpt lat="47.27996483449571" lon="-1.605730745942896"><ele>42.0</ele><time>2026-04-12T09:20:54.999Z</time></trkpt><trkpt lat="47.28000976149671" lon="-1.6057987231776172"><ele>42.0</ele><time>2026-04-12T09:20:55.999Z</time></trkpt><trkpt lat="47.28009207178585" lon="-1.60590978339464"><ele>42.0</ele><time>2026-04-12T09:20:57.999Z</time></trkpt><trkpt lat="47.28015937846832" lon="-1.6060763318106588"><ele>42.0</ele><time>2026-04-12T09:20:59.999Z</time></trkpt><trkpt lat="47.28020887360655" lon="-1.606154032053059"><ele>41.6</ele><time>2026-04-12T09:21:01.999Z</time></trkpt><trkpt lat="47.28025166322224" lon="-1.6062753181919514"><ele>41.2</ele><time>2026-04-12T09:21:03.999Z</time></trkpt><trkpt lat="47.28028401736848" lon="-1.6063975263401924"><ele>40.8</ele><time>2026-04-12T09:21:06.999Z</time></trkpt><trkpt lat="47.280351952693685" lon="-1.6064798366293371"><ele>40.4</ele><time>2026-04-12T09:21:07.999Z</time></trkpt><trkpt lat="47.28038124744527" lon="-1.6066054813578785"><ele>40.0</ele><time>2026-04-12T09:21:08.999Z</time></trkpt><trkpt lat="47.2804434411668" lon="-1.6067524999395075"><ele>40.0</ele><time>2026-04-12T09:21:10.999Z</time></trkpt><trkpt lat="47.280475292398854" lon="-1.6068467963501873"><ele>40.0</ele><time>2026-04-12T09:21:11.999Z</time></trkpt><trkpt lat="47.28051560935311" lon="-1.6069287713632052"><ele>40.0</ele><time>2026-04-12T09:21:12.999Z</time></trkpt><trkpt lat="47.2805594467067" lon="-1.6070081479862397"><ele>40.0</ele><time>2026-04-12T09:21:13.999Z</time></trkpt><trkpt lat="47.28064791769467" lon="-1.6071637999281354"><ele>40.0</ele><time>2026-04-12T09:21:15.999Z</time></trkpt><trkpt lat="47.280685720077976" lon="-1.6073112376049228"><ele>41.0</ele><time>2026-04-12T09:21:17.999Z</time></trkpt><trkpt lat="47.280714763372465" lon="-1.6073936317130992"><ele>42.0</ele><time>2026-04-12T09:21:18.999Z</time></trkpt><trkpt lat="47.280725492208525" lon="-1.6074984893217752"><ele>43.0</ele><time>2026-04-12T09:21:20.999Z</time></trkpt><trkpt lat="47.280804198279306" lon="-1.6076363716289472"><ele>44.0</ele><time>2026-04-12T09:21:23.999Z</time></trkpt><trkpt lat="47.28084166538648" lon="-1.6077387146666717"><ele>45.0</ele><time>2026-04-12T09:21:25.999Z</time></trkpt><trkpt lat="47.28091261819683" lon="-1.607855306939788"><ele>46.0</ele><time>2026-04-12T09:21:27.999Z</time></trkpt><trkpt lat="47.28095792238347" lon="-1.607957230882354"><ele>46.599999999999994</ele><time>2026-04-12T09:21:29.999Z</time></trkpt><trkpt lat="47.28101299148731" lon="-1.6080555506065561"><ele>47.2</ele><time>2026-04-12T09:21:30.999Z</time></trkpt><trkpt lat="47.28107648440383" lon="-1.6081744059935288"><ele>47.8</ele><time>2026-04-12T09:21:32.999Z</time></trkpt><trkpt lat="47.281125937632545" lon="-1.6082764975741581"><ele>48.400000000000006</ele><time>2026-04-12T09:21:34.999Z</time></trkpt><trkpt lat="47.28121373806827" lon="-1.608371464537092"><ele>49.0</ele><time>2026-04-12T09:21:36.999Z</time></trkpt><trkpt lat="47.28130841166459" lon="-1.6084060817971904"><ele>49.0</ele><time>2026-04-12T09:21:37.999Z</time></trkpt><trkpt lat="47.28139348798178" lon="-1.6083816904589612"><ele>49.0</ele><time>2026-04-12T09:21:39.999Z</time></trkpt><trkpt lat="47.281490382782444" lon="-1.6084130387768227"><ele>49.0</ele><time>2026-04-12T09:21:40.999Z</time></trkpt><trkpt lat="47.28160798088394" lon="-1.6083971969798285"><ele>49.0</ele><time>2026-04-12T09:21:42.999Z</time></trkpt><trkpt lat="47.28170093619011" lon="-1.608403818683334"><ele>49.0</ele><time>2026-04-12T09:21:44.999Z</time></trkpt><trkpt lat="47.28179699280046" lon="-1.6084566246733147"><ele>48.800000000000004</ele><time>2026-04-12T09:21:46.999Z</time></trkpt><trkpt lat="47.2818502178856" lon="-1.6085076704636294"><ele>48.6</ele><time>2026-04-12T09:21:47.999Z</time></trkpt><trkpt lat="47.28192230225287" lon="-1.608605068178483"><ele>48.4</ele><time>2026-04-12T09:21:49.999Z</time></trkpt><trkpt lat="47.28199262642048" lon="-1.6086978558465919"><ele>48.2</ele><time>2026-04-12T09:21:51.999Z</time></trkpt><trkpt lat="47.28207615208559" lon="-1.6087762266412458"><ele>48.0</ele><time>2026-04-12T09:21:53.999Z</time></trkpt><trkpt lat="47.282169861763045" lon="-1.608878150583812"><ele>48.4</ele><time>2026-04-12T09:21:55.999Z</time></trkpt><trkpt lat="47.28224425115369" lon="-1.60900119692237"><ele>48.8</ele><time>2026-04-12T09:21:57.999Z</time></trkpt><trkpt lat="47.282315958335325" lon="-1.6091213934138502"><ele>49.2</ele><time>2026-04-12T09:21:59.999Z</time></trkpt><trkpt lat="47.28239156310193" lon="-1.6092313639834608"><ele>49.6</ele><time>2026-04-12T09:22:01.999Z</time></trkpt><trkpt lat="47.282463270283564" lon="-1.6093516442939726"><ele>50.0</ele><time>2026-04-12T09:22:03.999Z</time></trkpt><trkpt lat="47.28251255587421" lon="-1.6094854194685904"><ele>51.0</ele><time>2026-04-12T09:22:05.999Z</time></trkpt><trkpt lat="47.28256213483147" lon="-1.6096137464061469"><ele>52.0</ele><time>2026-04-12T09:22:07.999Z</time></trkpt><trkpt lat="47.282618377401754" lon="-1.609735032545039"><ele>53.0</ele><time>2026-04-12T09:22:09.999Z</time></trkpt><trkpt lat="47.282674913338646" lon="-1.6098683886244984"><ele>54.0</ele><time>2026-04-12T09:22:11.999Z</time></trkpt><trkpt lat="47.28271795441143" lon="-1.60999403335304"><ele>55.0</ele><time>2026-04-12T09:22:13.999Z</time></trkpt><trkpt lat="47.28276954502545" lon="-1.6101382020875905"><ele>55.0</ele><time>2026-04-12T09:22:15.999Z</time></trkpt><trkpt lat="47.28279142179273" lon="-1.610278598965714"><ele>55.0</ele><time>2026-04-12T09:22:17.999Z</time></trkpt><trkpt lat="47.28282134518705" lon="-1.6104148887112832"><ele>55.0</ele><time>2026-04-12T09:22:19.999Z</time></trkpt><trkpt lat="47.28285022084348" lon="-1.6105035692468384"><ele>55.0</ele><time>2026-04-12T09:22:20.999Z</time></trkpt><trkpt lat="47.282866230278536" lon="-1.6106643341496685"><ele>55.0</ele><time>2026-04-12T09:22:22.999Z</time></trkpt><trkpt lat="47.282848963558" lon="-1.610804731027792"><ele>54.99999999999999</ele><time>2026-04-12T09:22:24.999Z</time></trkpt><trkpt lat="47.28282448840074" lon="-1.6108987759813767"><ele>55.0</ele><time>2026-04-12T09:22:26.999Z</time></trkpt><trkpt lat="47.28285554335199" lon="-1.611003885047148"><ele>55.0</ele><time>2026-04-12T09:22:27.999Z</time></trkpt><trkpt lat="47.282843263863846" lon="-1.6111088264748556"><ele>55.0</ele><time>2026-04-12T09:22:29.999Z</time></trkpt><trkpt lat="47.28287285198204" lon="-1.6112141031786904"><ele>54.99999999999999</ele><time>2026-04-12T09:22:31.999Z</time></trkpt><trkpt lat="47.28287264243446" lon="-1.6113333776608214"><ele>55.0</ele><time>2026-04-12T09:22:33.999Z</time></trkpt><trkpt lat="47.2828941420161" lon="-1.6114827431753385"><ele>55.166666666666664</ele><time>2026-04-12T09:22:35.998Z</time></trkpt><trkpt lat="47.282915515869185" lon="-1.6116221342250812"><ele>55.33333333333333</ele><time>2026-04-12T09:22:37.998Z</time></trkpt><trkpt lat="47.28293424942277" lon="-1.6117572505042066"><ele>55.5</ele><time>2026-04-12T09:22:39.998Z</time></trkpt><trkpt lat="47.28294740901075" lon="-1.6118714958444347"><ele>55.66666666666667</ele><time>2026-04-12T09:22:41.998Z</time></trkpt><trkpt lat="47.282959814227446" lon="-1.6119983140394203"><ele>55.833333333333336</ele><time>2026-04-12T09:22:43.998Z</time></trkpt><trkpt lat="47.28296480145983" lon="-1.6121260542437545"><ele>56.0</ele><time>2026-04-12T09:22:45.998Z</time></trkpt><trkpt lat="47.282986636317595" lon="-1.612270558254432"><ele>56.199999999999996</ele><time>2026-04-12T09:22:47.998Z</time></trkpt><trkpt lat="47.28300893218003" lon="-1.6124262940153595"><ele>56.39999999999999</ele><time>2026-04-12T09:22:49.998Z</time></trkpt><trkpt lat="47.283032359599396" lon="-1.6125680319979903"><ele>56.6</ele><time>2026-04-12T09:22:51.998Z</time></trkpt><trkpt lat="47.28302330714397" lon="-1.6127215046450614"><ele>56.8</ele><time>2026-04-12T09:22:53.998Z</time></trkpt><trkpt lat="47.28302703709088" lon="-1.6128488257542373"><ele>57.0</ele><time>2026-04-12T09:22:55.998Z</time></trkpt><trkpt lat="47.283058762594386" lon="-1.613007662819338"><ele>57.2</ele><time>2026-04-12T09:22:57.998Z</time></trkpt><trkpt lat="47.28308198046617" lon="-1.6131515800967935"><ele>57.400000000000006</ele><time>2026-04-12T09:22:59.998Z</time></trkpt><trkpt lat="47.283091661564335" lon="-1.6132472176119808"><ele>57.599999999999994</ele><time>2026-04-12T09:23:00.998Z</time></trkpt><trkpt lat="47.28310917974196" lon="-1.6133915539845949"><ele>57.8</ele><time>2026-04-12T09:23:02.998Z</time></trkpt><trkpt lat="47.28316303346984" lon="-1.6135032847538715"><ele>58.0</ele><time>2026-04-12T09:23:04.998Z</time></trkpt><trkpt lat="47.28323696185581" lon="-1.613604202868057"><ele>58.49999999999999</ele><time>2026-04-12T09:23:06.998Z</time></trkpt><trkpt lat="47.28331311144613" lon="-1.6137141734376677"><ele>59.0</ele><time>2026-04-12T09:23:08.998Z</time></trkpt><trkpt lat="47.283400241329595" lon="-1.6138011775925882"><ele>59.5</ele><time>2026-04-12T09:23:10.998Z</time></trkpt><trkpt lat="47.283473080068156" lon="-1.6138446796700487"><ele>60.0</ele><time>2026-04-12T09:23:12.998Z</time></trkpt><trkpt lat="47.283538836098536" lon="-1.6138686519131193"><ele>60.49999999999999</ele><time>2026-04-12T09:23:14.998Z</time></trkpt><trkpt lat="47.28360392157666" lon="-1.6139060352012644"><ele>61.0</ele><time>2026-04-12T09:23:16.998Z</time></trkpt><trkpt lat="47.283688578798696" lon="-1.61393268965335"><ele>61.0</ele><time>2026-04-12T09:23:19.998Z</time></trkpt><trkpt lat="47.28377352938734" lon="-1.613982729615284"><ele>60.99999999999999</ele><time>2026-04-12T09:23:22.998Z</time></trkpt><trkpt lat="47.283926457210704" lon="-1.6140859946623576"><ele>60.99999999999999</ele><time>2026-04-12T09:23:24.998Z</time></trkpt><trkpt lat="47.28400721684776" lon="-1.6141078714296353"><ele>61.0</ele><time>2026-04-12T09:23:25.998Z</time></trkpt><trkpt lat="47.28408018131487" lon="-1.614174842835976"><ele>61.0</ele><time>2026-04-12T09:23:26.998Z</time></trkpt><trkpt lat="47.28414178830318" lon="-1.6142250504359734"><ele>61.75</ele><time>2026-04-12T09:23:28.998Z</time></trkpt><trkpt lat="47.284262152432724" lon="-1.6142838913962378"><ele>62.5</ele><time>2026-04-12T09:23:29.998Z</time></trkpt><trkpt lat="47.284395801878794" lon="-1.614318592475368"><ele>63.25</ele><time>2026-04-12T09:23:31.998Z</time></trkpt><trkpt lat="47.28449441496961" lon="-1.6143423132613435"><ele>64.0</ele><time>2026-04-12T09:23:32.998Z</time></trkpt><trkpt lat="47.28457270194523" lon="-1.6142759285882247"><ele>63.99999999999999</ele><time>2026-04-12T09:23:33.998Z</time></trkpt><trkpt lat="47.284652581482455" lon="-1.614247262479378"><ele>64.0</ele><time>2026-04-12T09:23:35.998Z</time></trkpt><trkpt lat="47.2847348917716" lon="-1.614229325206591"><ele>64.0</ele><time>2026-04-12T09:23:37.998Z</time></trkpt><trkpt lat="47.28481854316525" lon="-1.6142902616426482"><ele>64.0</ele><time>2026-04-12T09:23:40.998Z</time></trkpt><trkpt lat="47.2849021945589" lon="-1.6143630165621772"><ele>63.99999999999999</ele><time>2026-04-12T09:23:42.998Z</time></trkpt><trkpt lat="47.28495977823369" lon="-1.6144589055344596"><ele>64.0</ele><time>2026-04-12T09:23:44.998Z</time></trkpt><trkpt lat="47.285021762407645" lon="-1.6145167406663432"><ele>63.49999999999999</ele><time>2026-04-12T09:23:46.998Z</time></trkpt><trkpt lat="47.285100258930854" lon="-1.614577258007242"><ele>63.0</ele><time>2026-04-12T09:23:48.998Z</time></trkpt><trkpt lat="47.28516174019062" lon="-1.6146126296386258"><ele>62.5</ele><time>2026-04-12T09:23:49.998Z</time></trkpt><trkpt lat="47.2852689866417" lon="-1.6146900784239309"><ele>62.0</ele><time>2026-04-12T09:23:51.998Z</time></trkpt><trkpt lat="47.285331012725166" lon="-1.6147382743671672"><ele>61.49999999999999</ele><time>2026-04-12T09:23:52.998Z</time></trkpt><trkpt lat="47.285421369641355" lon="-1.614805581049635"><ele>61.0</ele><time>2026-04-12T09:23:54.998Z</time></trkpt><trkpt lat="47.28550141681664" lon="-1.6148397792145748"><ele>61.0</ele><time>2026-04-12T09:23:56.998Z</time></trkpt><trkpt lat="47.28560740598225" lon="-1.6148778330549736"><ele>60.99999999999999</ele><time>2026-04-12T09:23:57.998Z</time></trkpt><trkpt lat="47.28567215618425" lon="-1.6148596443250913"><ele>60.99999999999999</ele><time>2026-04-12T09:23:58.998Z</time></trkpt><trkpt lat="47.28573791221463" lon="-1.6148437187090654"><ele>61.0</ele><time>2026-04-12T09:23:59.998Z</time></trkpt><trkpt lat="47.285833968824974" lon="-1.6147977858796854"><ele>61.0</ele><time>2026-04-12T09:24:01.998Z</time></trkpt><trkpt lat="47.28594046090477" lon="-1.6147671081140775"><ele>61.0</ele><time>2026-04-12T09:24:03.998Z</time></trkpt><trkpt lat="47.28604607288473" lon="-1.6147096082583206"><ele>60.99999999999999</ele><time>2026-04-12T09:24:05.998Z</time></trkpt><trkpt lat="47.28614925411277" lon="-1.6146857198342817"><ele>60.99999999999999</ele><time>2026-04-12T09:24:07.998Z</time></trkpt><trkpt lat="47.28620889135384" lon="-1.6146369371578233"><ele>61.0</ele><time>2026-04-12T09:24:08.998Z</time></trkpt><trkpt lat="47.286270414523116" lon="-1.6146125458195941"><ele>61.0</ele><time>2026-04-12T09:24:09.998Z</time></trkpt><trkpt lat="47.28638277393513" lon="-1.6145128011718526"><ele>61.0</ele><time>2026-04-12T09:24:11.998Z</time></trkpt><trkpt lat="47.28648302149706" lon="-1.6144542116686835"><ele>60.99999999999999</ele><time>2026-04-12T09:24:13.998Z</time></trkpt><trkpt lat="47.2865724564039" lon="-1.6144009865835443"><ele>60.99999999999999</ele><time>2026-04-12T09:24:15.998Z</time></trkpt><trkpt lat="47.28666050829672" lon="-1.6143282316640153"><ele>61.0</ele><time>2026-04-12T09:24:17.998Z</time></trkpt><trkpt lat="47.28674835064196" lon="-1.6142343543484938"><ele>61.0</ele><time>2026-04-12T09:24:19.998Z</time></trkpt><trkpt lat="47.28684407197618" lon="-1.6141413152232897"><ele>61.0</ele><time>2026-04-12T09:24:21.998Z</time></trkpt><trkpt lat="47.286928477741114" lon="-1.614077948035313"><ele>60.99999999999999</ele><time>2026-04-12T09:24:23.998Z</time></trkpt><trkpt lat="47.28701560762458" lon="-1.61398742348106"><ele>60.99999999999999</ele><time>2026-04-12T09:24:25.998Z</time></trkpt><trkpt lat="47.28710965257817" lon="-1.6138889361187945"><ele>61.0</ele><time>2026-04-12T09:24:27.998Z</time></trkpt><trkpt lat="47.28720252406531" lon="-1.613802183420969"><ele>61.0</ele><time>2026-04-12T09:24:29.998Z</time></trkpt><trkpt lat="47.28729145605796" lon="-1.6136865131572016"><ele>61.199999999999996</ele><time>2026-04-12T09:24:31.998Z</time></trkpt><trkpt lat="47.28738575246864" lon="-1.6136016882971056"><ele>61.39999999999999</ele><time>2026-04-12T09:24:33.998Z</time></trkpt><trkpt lat="47.28748566475444" lon="-1.6135814040914305"><ele>61.6</ele><time>2026-04-12T09:24:35.998Z</time></trkpt><trkpt lat="47.28759517431938" lon="-1.613593893127156"><ele>61.8</ele><time>2026-04-12T09:24:37.998Z</time></trkpt><trkpt lat="47.28771294005894" lon="-1.6136037837728985"><ele>62.0</ele><time>2026-04-12T09:24:39.998Z</time></trkpt><trkpt lat="47.287828526503674" lon="-1.6136000119164713"><ele>62.0</ele><time>2026-04-12T09:24:41.998Z</time></trkpt><trkpt lat="47.28793225255542" lon="-1.6135883610710628"><ele>62.0</ele><time>2026-04-12T09:24:43.998Z</time></trkpt><trkpt lat="47.288048048547736" lon="-1.6135737765595444"><ele>62.0</ele><time>2026-04-12T09:24:45.998Z</time></trkpt><trkpt lat="47.28816103660249" lon="-1.6135657299324997"><ele>62.0</ele><time>2026-04-12T09:24:47.998Z</time></trkpt><trkpt lat="47.288267193406156" lon="-1.6135651431992777"><ele>62.0</ele><time>2026-04-12T09:24:49.998Z</time></trkpt><trkpt lat="47.28838977874004" lon="-1.6135508939638858"><ele>62.2</ele><time>2026-04-12T09:24:51.998Z</time></trkpt><trkpt lat="47.28845188864254" lon="-1.6135292686537033"><ele>62.400000000000006</ele><time>2026-04-12T09:24:52.998Z</time></trkpt><trkpt lat="47.28852212899112" lon="-1.6135068051532035"><ele>62.599999999999994</ele><time>2026-04-12T09:24:53.998Z</time></trkpt><trkpt lat="47.28866256777876" lon="-1.613482497634006"><ele>62.8</ele><time>2026-04-12T09:24:55.998Z</time></trkpt><trkpt lat="47.28877295744353" lon="-1.6134449467077976"><ele>63.0</ele><time>2026-04-12T09:24:57.998Z</time></trkpt><trkpt lat="47.28888435293668" lon="-1.613393565641356"><ele>62.8</ele><time>2026-04-12T09:24:59.998Z</time></trkpt><trkpt lat="47.288946504748694" lon="-1.6133493091926103"><ele>62.599999999999994</ele><time>2026-04-12T09:25:00.998Z</time></trkpt><trkpt lat="47.28904214226388" lon="-1.613261299209309"><ele>62.400000000000006</ele><time>2026-04-12T09:25:02.998Z</time></trkpt><trkpt lat="47.28910701819443" lon="-1.613230956719828"><ele>62.2</ele><time>2026-04-12T09:25:03.998Z</time></trkpt><trkpt lat="47.28922231127255" lon="-1.6131721157595638"><ele>62.0</ele><time>2026-04-12T09:25:05.998Z</time></trkpt><trkpt lat="47.28935545780443" lon="-1.6131437011078122"><ele>62.00000000000001</ele><time>2026-04-12T09:25:07.998Z</time></trkpt><trkpt lat="47.28943340950393" lon="-1.6131051443532232"><ele>62.0</ele><time>2026-04-12T09:25:08.998Z</time></trkpt><trkpt lat="47.289489400617114" lon="-1.613039430232358"><ele>62.0</ele><time>2026-04-12T09:25:09.998Z</time></trkpt><trkpt lat="47.289557084485224" lon="-1.612987881527853"><ele>62.0</ele><time>2026-04-12T09:25:10.998Z</time></trkpt><trkpt lat="47.28962200232529" lon="-1.6129397694036485"><ele>62.00000000000001</ele><time>2026-04-12T09:25:11.998Z</time></trkpt><trkpt lat="47.28971579582178" lon="-1.6128222551211833"><ele>62.0</ele><time>2026-04-12T09:25:13.998Z</time></trkpt><trkpt lat="47.28976969145917" lon="-1.612762575970602"><ele>61.66666666666667</ele><time>2026-04-12T09:25:14.998Z</time></trkpt><trkpt lat="47.28982895151459" lon="-1.6127037350103377"><ele>61.333333333333336</ele><time>2026-04-12T09:25:15.998Z</time></trkpt><trkpt lat="47.28987513580107" lon="-1.612640619279456"><ele>61.0</ele><time>2026-04-12T09:25:16.998Z</time></trkpt><trkpt lat="47.2899735393443" lon="-1.6125345882043358"><ele>60.66666666666667</ele><time>2026-04-12T09:25:18.998Z</time></trkpt><trkpt lat="47.290056687823764" lon="-1.6124092787519213"><ele>60.333333333333336</ele><time>2026-04-12T09:25:20.998Z</time></trkpt><trkpt lat="47.29010195010089" lon="-1.612343313173961"><ele>60.0</ele><time>2026-04-12T09:25:21.998Z</time></trkpt><trkpt lat="47.29018673305147" lon="-1.6122259665295595"><ele>60.0</ele><time>2026-04-12T09:25:23.998Z</time></trkpt><trkpt lat="47.29023681492292" lon="-1.6121651139125341"><ele>60.0</ele><time>2026-04-12T09:25:24.998Z</time></trkpt><trkpt lat="47.29028454986148" lon="-1.6120969690397493"><ele>60.0</ele><time>2026-04-12T09:25:25.998Z</time></trkpt><trkpt lat="47.290331153243116" lon="-1.6120302490905039"><ele>60.0</ele><time>2026-04-12T09:25:26.998Z</time></trkpt><trkpt lat="47.29037687652492" lon="-1.6119640320554487"><ele>60.0</ele><time>2026-04-12T09:25:27.998Z</time></trkpt><trkpt lat="47.290460066913894" lon="-1.611841656269144"><ele>60.0</ele><time>2026-04-12T09:25:29.998Z</time></trkpt><trkpt lat="47.290499629496864" lon="-1.6117629501983632"><ele>60.0</ele><time>2026-04-12T09:25:30.998Z</time></trkpt><trkpt lat="47.29051777631723" lon="-1.6116223856821763"><ele>60.0</ele><time>2026-04-12T09:25:32.998Z</time></trkpt><trkpt lat="47.29054837026381" lon="-1.6115161031499612"><ele>60.0</ele><time>2026-04-12T09:25:33.998Z</time></trkpt><trkpt lat="47.29057079185479" lon="-1.611360283570002"><ele>60.0</ele><time>2026-04-12T09:25:35.998Z</time></trkpt><trkpt lat="47.29060155343943" lon="-1.6112244129195914"><ele>60.0</ele><time>2026-04-12T09:25:37.998Z</time></trkpt><trkpt lat="47.290655113800696" lon="-1.611150233076523"><ele>60.0</ele><time>2026-04-12T09:25:39.998Z</time></trkpt><trkpt lat="47.29074949403041" lon="-1.6111592855319483"><ele>60.0</ele><time>2026-04-12T09:25:41.998Z</time></trkpt><trkpt lat="47.29083842602306" lon="-1.611234806479524"><ele>60.0</ele><time>2026-04-12T09:25:43.998Z</time></trkpt><trkpt lat="47.29092396334492" lon="-1.6113297734424576"><ele>60.0</ele><time>2026-04-12T09:25:45.998Z</time></trkpt><trkpt lat="47.29099240158432" lon="-1.6114219743773448"><ele>60.0</ele><time>2026-04-12T09:25:47.998Z</time></trkpt><trkpt lat="47.29107881900602" lon="-1.6115468647346007"><ele>60.0</ele><time>2026-04-12T09:25:49.998Z</time></trkpt><trkpt lat="47.291157357438735" lon="-1.6116801369950284"><ele>60.0</ele><time>2026-04-12T09:25:51.999Z</time></trkpt><trkpt lat="47.29120982815259" lon="-1.6118217911586274"><ele>60.0</ele><time>2026-04-12T09:25:53.999Z</time></trkpt><trkpt lat="47.29124373295092" lon="-1.6119014192387573"><ele>60.0</ele><time>2026-04-12T09:25:54.999Z</time></trkpt><trkpt lat="47.29129611984574" lon="-1.612027818338584"><ele>60.0</ele><time>2026-04-12T09:25:57Z</time></trkpt><trkpt lat="47.291366988837055" lon="-1.612194031478476"><ele>60.0</ele><time>2026-04-12T09:25:59Z</time></trkpt><trkpt lat="47.291400684087805" lon="-1.612278856338572"><ele>59.85714285714286</ele><time>2026-04-12T09:26:00Z</time></trkpt><trkpt lat="47.29144598827445" lon="-1.612371979282808"><ele>59.71428571428571</ele><time>2026-04-12T09:26:01Z</time></trkpt><trkpt lat="47.29148995135658" lon="-1.6124530322864767"><ele>59.57142857142857</ele><time>2026-04-12T09:26:02Z</time></trkpt><trkpt lat="47.29152427525007" lon="-1.6125425510123488"><ele>59.42857142857143</ele><time>2026-04-12T09:26:03Z</time></trkpt><trkpt lat="47.291555875025026" lon="-1.6126383561655997"><ele>59.28571428571429</ele><time>2026-04-12T09:26:04Z</time></trkpt><trkpt lat="47.291599880016676" lon="-1.612731646747899"><ele>59.14285714285714</ele><time>2026-04-12T09:26:05Z</time></trkpt><trkpt lat="47.29164346591317" lon="-1.6128309723004817"><ele>59.0</ele><time>2026-04-12T09:26:06Z</time></trkpt><trkpt lat="47.29168311231517" lon="-1.6129221674069882"><ele>58.66666666666667</ele><time>2026-04-12T09:26:07Z</time></trkpt><trkpt lat="47.29172175288879" lon="-1.6130240913495542"><ele>58.333333333333336</ele><time>2026-04-12T09:26:08Z</time></trkpt><trkpt lat="47.2917696135559" lon="-1.613116962836695"><ele>58.0</ele><time>2026-04-12T09:26:09Z</time></trkpt><trkpt lat="47.291810936338535" lon="-1.613214192913485"><ele>57.66666666666667</ele><time>2026-04-12T09:26:10Z</time></trkpt><trkpt lat="47.29185716253453" lon="-1.613300777973247"><ele>57.333333333333336</ele><time>2026-04-12T09:26:11Z</time></trkpt><trkpt lat="47.29190456219696" lon="-1.6133916378036266"><ele>57.0</ele><time>2026-04-12T09:26:12Z</time></trkpt><trkpt lat="47.291958038739196" lon="-1.6134871076807504"><ele>57.0</ele><time>2026-04-12T09:26:13Z</time></trkpt><trkpt lat="47.29200941980564" lon="-1.6135684959605463"><ele>57.0</ele><time>2026-04-12T09:26:14Z</time></trkpt><trkpt lat="47.29205627464437" lon="-1.6136606968954332"><ele>57.0</ele><time>2026-04-12T09:26:15Z</time></trkpt><trkpt lat="47.29210493159228" lon="-1.613740576432658"><ele>57.0</ele><time>2026-04-12T09:26:16Z</time></trkpt><trkpt lat="47.292191977656714" lon="-1.6138677299037705"><ele>57.0</ele><time>2026-04-12T09:26:18Z</time></trkpt><trkpt lat="47.29224662766539" lon="-1.6139657981708775"><ele>57.0</ele><time>2026-04-12T09:26:19Z</time></trkpt><trkpt lat="47.29229260240429" lon="-1.61405581981094"><ele>57.6</ele><time>2026-04-12T09:26:20Z</time></trkpt><trkpt lat="47.29235743642532" lon="-1.6141950432226193"><ele>58.2</ele><time>2026-04-12T09:26:22Z</time></trkpt><trkpt lat="47.29239984885537" lon="-1.6142657026663554"><ele>58.8</ele><time>2026-04-12T09:26:23Z</time></trkpt><trkpt lat="47.292499928779236" lon="-1.6143381223097577"><ele>59.4</ele><time>2026-04-12T09:26:25Z</time></trkpt><trkpt lat="47.292633578225306" lon="-1.6143525391832128"><ele>60.0</ele><time>2026-04-12T09:26:27Z</time></trkpt><trkpt lat="47.29269740641796" lon="-1.6143583226964011"><ele>60.0</ele><time>2026-04-12T09:26:28Z</time></trkpt><trkpt lat="47.29276136033916" lon="-1.6143622621908917"><ele>60.0</ele><time>2026-04-12T09:26:29Z</time></trkpt><trkpt lat="47.292892872399925" lon="-1.61438221112044"><ele>60.0</ele><time>2026-04-12T09:26:31Z</time></trkpt><trkpt lat="47.29296545968139" lon="-1.6143820434823766"><ele>60.0</ele><time>2026-04-12T09:26:32Z</time></trkpt><trkpt lat="47.29304860816085" lon="-1.6143932752326264"><ele>60.0</ele><time>2026-04-12T09:26:33Z</time></trkpt><trkpt lat="47.29313280437821" lon="-1.6144064348206058"><ele>60.0</ele><time>2026-04-12T09:26:34Z</time></trkpt><trkpt lat="47.29319361508572" lon="-1.614441722632958"><ele>59.5</ele><time>2026-04-12T09:26:35Z</time></trkpt><trkpt lat="47.293310710273026" lon="-1.6145606618389623"><ele>59.0</ele><time>2026-04-12T09:26:37Z</time></trkpt><trkpt lat="47.29336351626301" lon="-1.614629980178191"><ele>58.5</ele><time>2026-04-12T09:26:38Z</time></trkpt><trkpt lat="47.29340848517352" lon="-1.6147141344860332"><ele>58.0</ele><time>2026-04-12T09:26:39Z</time></trkpt><trkpt lat="47.293459866239964" lon="-1.6148142144099016"><ele>57.5</ele><time>2026-04-12T09:26:40Z</time></trkpt><trkpt lat="47.293503577865" lon="-1.6149007994696636"><ele>57.0</ele><time>2026-04-12T09:26:41Z</time></trkpt><trkpt lat="47.29354842104697" lon="-1.6149776615217466"><ele>57.0</ele><time>2026-04-12T09:26:42Z</time></trkpt><trkpt lat="47.293595317795216" lon="-1.615070365370824"><ele>57.0</ele><time>2026-04-12T09:26:43Z</time></trkpt><trkpt lat="47.29364435192877" lon="-1.6151464730516216"><ele>57.0</ele><time>2026-04-12T09:26:44Z</time></trkpt><trkpt lat="47.2936980799281" lon="-1.6152339801207327"><ele>57.0</ele><time>2026-04-12T09:26:45Z</time></trkpt><trkpt lat="47.29375210129404" lon="-1.6153220739230656"><ele>57.0</ele><time>2026-04-12T09:26:46Z</time></trkpt><trkpt lat="47.293798788494705" lon="-1.6154061444118761"><ele>57.0</ele><time>2026-04-12T09:26:47Z</time></trkpt><trkpt lat="47.29385184594178" lon="-1.6154959145948435"><ele>57.0</ele><time>2026-04-12T09:26:48Z</time></trkpt><trkpt lat="47.293909681073664" lon="-1.6156087350115325"><ele>57.0</ele><time>2026-04-12T09:26:49Z</time></trkpt><trkpt lat="47.29396143932575" lon="-1.6156938113287236"><ele>57.0</ele><time>2026-04-12T09:26:50Z</time></trkpt><trkpt lat="47.2940104734593" lon="-1.6157787200078515"><ele>57.0</ele><time>2026-04-12T09:26:51Z</time></trkpt><trkpt lat="47.29406445291573" lon="-1.6158735193327216"><ele>57.0</ele><time>2026-04-12T09:26:52Z</time></trkpt><trkpt lat="47.29410694916481" lon="-1.6159590147450715"><ele>57.0</ele><time>2026-04-12T09:26:53Z</time></trkpt><trkpt lat="47.29415405546063" lon="-1.6160544846221954"><ele>57.0</ele><time>2026-04-12T09:26:54Z</time></trkpt><trkpt lat="47.29421176486397" lon="-1.6161122359350473"><ele>57.0</ele><time>2026-04-12T09:26:55Z</time></trkpt><trkpt lat="47.294253758198856" lon="-1.6162034310415538"><ele>57.0</ele><time>2026-04-12T09:26:56Z</time></trkpt><trkpt lat="47.2943067318269" lon="-1.6162932850435527"><ele>57.0</ele><time>2026-04-12T09:26:57Z</time></trkpt><trkpt lat="47.29437206876212" lon="-1.6163840610549005"><ele>57.0</ele><time>2026-04-12T09:26:58Z</time></trkpt><trkpt lat="47.29443229273641" lon="-1.616481458769754"><ele>57.0</ele><time>2026-04-12T09:26:59Z</time></trkpt><trkpt lat="47.29448614646429" lon="-1.616569804029182"><ele>56.666666666666664</ele><time>2026-04-12T09:27:00Z</time></trkpt><trkpt lat="47.29454163466328" lon="-1.616670303048209"><ele>56.33333333333333</ele><time>2026-04-12T09:27:01Z</time></trkpt><trkpt lat="47.294595739848255" lon="-1.6167514398709095"><ele>56.0</ele><time>2026-04-12T09:27:02Z</time></trkpt><trkpt lat="47.294649467847584" lon="-1.6168360132739104"><ele>55.666666666666664</ele><time>2026-04-12T09:27:03Z</time></trkpt><trkpt lat="47.29471019473606" lon="-1.616924861447529"><ele>55.33333333333333</ele><time>2026-04-12T09:27:04Z</time></trkpt><trkpt lat="47.294768742329715" lon="-1.6170282941326657"><ele>55.0</ele><time>2026-04-12T09:27:05Z</time></trkpt><trkpt lat="47.29483257052237" lon="-1.6170979477480212"><ele>54.99999999999999</ele><time>2026-04-12T09:27:06Z</time></trkpt><trkpt lat="47.29488059882754" lon="-1.6171764861807387"><ele>55.0</ele><time>2026-04-12T09:27:07Z</time></trkpt><trkpt lat="47.29493621275508" lon="-1.6172773204758923"><ele>55.0</ele><time>2026-04-12T09:27:08Z</time></trkpt><trkpt lat="47.294980594932376" lon="-1.6173493210241359"><ele>55.0</ele><time>2026-04-12T09:27:09Z</time></trkpt><trkpt lat="47.295039603530704" lon="-1.617431798951344"><ele>54.99999999999999</ele><time>2026-04-12T09:27:10Z</time></trkpt><trkpt lat="47.295098067305325" lon="-1.6175196412965818"><ele>55.0</ele><time>2026-04-12T09:27:11Z</time></trkpt><trkpt lat="47.29515062183821" lon="-1.6175913903877301"><ele>54.99999999999999</ele><time>2026-04-12T09:27:12Z</time></trkpt><trkpt lat="47.295197728134035" lon="-1.617663055659847"><ele>55.0</ele><time>2026-04-12T09:27:13Z</time></trkpt><trkpt lat="47.29524139784956" lon="-1.6177333798274562"><ele>55.0</ele><time>2026-04-12T09:27:14Z</time></trkpt><trkpt lat="47.29528276254171" lon="-1.617804123090224"><ele>55.0</ele><time>2026-04-12T09:27:15Z</time></trkpt><trkpt lat="47.29536025323653" lon="-1.617910824717598"><ele>54.99999999999999</ele><time>2026-04-12T09:27:17Z</time></trkpt><trkpt lat="47.295407736718" lon="-1.6179814003423023"><ele>55.0</ele><time>2026-04-12T09:27:18Z</time></trkpt><trkpt lat="47.29549101092601" lon="-1.6181224677726795"><ele>54.83333333333333</ele><time>2026-04-12T09:27:20Z</time></trkpt><trkpt lat="47.295569130263566" lon="-1.6182764433339407"><ele>54.666666666666664</ele><time>2026-04-12T09:27:22Z</time></trkpt><trkpt lat="47.29564787824386" lon="-1.618396304549294"><ele>54.5</ele><time>2026-04-12T09:27:24Z</time></trkpt><trkpt lat="47.295686812184094" lon="-1.6184782795623116"><ele>54.33333333333333</ele><time>2026-04-12T09:27:25Z</time></trkpt><trkpt lat="47.295728176876246" lon="-1.6185520403102212"><ele>54.166666666666664</ele><time>2026-04-12T09:27:26Z</time></trkpt><trkpt lat="47.295775744176744" lon="-1.6186149884030396"><ele>54.0</ele><time>2026-04-12T09:27:27Z</time></trkpt><trkpt lat="47.295821174091934" lon="-1.6187696345165545"><ele>54.333333333333336</ele><time>2026-04-12T09:27:29Z</time></trkpt><trkpt lat="47.29584921155804" lon="-1.6189372725799855"><ele>54.66666666666667</ele><time>2026-04-12T09:27:31Z</time></trkpt><trkpt lat="47.295829262628494" lon="-1.6191032342627822"><ele>55.0</ele><time>2026-04-12T09:27:33Z</time></trkpt><trkpt lat="47.295790622054874" lon="-1.619178419934231"><ele>55.333333333333336</ele><time>2026-04-12T09:27:34Z</time></trkpt><trkpt lat="47.29574087545955" lon="-1.619260897861439"><ele>55.66666666666667</ele><time>2026-04-12T09:27:35Z</time></trkpt><trkpt lat="47.29569749911064" lon="-1.6193506680444063"><ele>56.0</ele><time>2026-04-12T09:27:36Z</time></trkpt><trkpt lat="47.29566338476473" lon="-1.6194469761118473"><ele>56.0</ele><time>2026-04-12T09:27:37Z</time></trkpt><trkpt lat="47.295633377551376" lon="-1.6195501573398892"><ele>55.99999999999999</ele><time>2026-04-12T09:27:38Z</time></trkpt><trkpt lat="47.29561099786991" lon="-1.619648560883123"><ele>55.99999999999999</ele><time>2026-04-12T09:27:39Z</time></trkpt><trkpt lat="47.29559318632567" lon="-1.619750484825689"><ele>56.0</ele><time>2026-04-12T09:27:40Z</time></trkpt><trkpt lat="47.295559113889276" lon="-1.619945196436364"><ele>56.0</ele><time>2026-04-12T09:27:42Z</time></trkpt><trkpt lat="47.29552675974303" lon="-1.620119623841364"><ele>56.00000000000001</ele><time>2026-04-12T09:27:44Z</time></trkpt><trkpt lat="47.29550706227058" lon="-1.6202088911101409"><ele>56.0</ele><time>2026-04-12T09:27:45Z</time></trkpt><trkpt lat="47.295492310121" lon="-1.6203133296236585"><ele>56.0</ele><time>2026-04-12T09:27:46Z</time></trkpt><trkpt lat="47.295486275150715" lon="-1.6204807162299943"><ele>56.0</ele><time>2026-04-12T09:27:48Z</time></trkpt><trkpt lat="47.29551720437342" lon="-1.6205725818887544"><ele>56.00000000000001</ele><time>2026-04-12T09:27:49Z</time></trkpt><trkpt lat="47.2955404222452" lon="-1.6206630226239753"><ele>56.0</ele><time>2026-04-12T09:27:50Z</time></trkpt><trkpt lat="47.29558103256607" lon="-1.6208155732616976"><ele>56.0</ele><time>2026-04-12T09:27:52Z</time></trkpt><trkpt lat="47.29561275806957" lon="-1.6209008172169521"><ele>55.99999999999999</ele><time>2026-04-12T09:27:53Z</time></trkpt><trkpt lat="47.295654122761725" lon="-1.6210605762914019"><ele>55.99999999999999</ele><time>2026-04-12T09:27:55Z</time></trkpt><trkpt lat="47.29572176472032" lon="-1.621200470255335"><ele>56.0</ele><time>2026-04-12T09:27:57Z</time></trkpt><trkpt lat="47.295795776925324" lon="-1.6213511768743594"><ele>56.0</ele><time>2026-04-12T09:27:59Z</time></trkpt><trkpt lat="47.29583194483751" lon="-1.6214451380089125"><ele>56.0</ele><time>2026-04-12T09:28:00Z</time></trkpt><trkpt lat="47.29586924430662" lon="-1.621528621764501"><ele>56.0</ele><time>2026-04-12T09:28:01Z</time></trkpt><trkpt lat="47.29589992207223" lon="-1.6216111835107407"><ele>56.0</ele><time>2026-04-12T09:28:02Z</time></trkpt><trkpt lat="47.295930641747354" lon="-1.6216944158092343"><ele>56.0</ele><time>2026-04-12T09:28:03Z</time></trkpt><trkpt lat="47.295961906246184" lon="-1.6217811685070598"><ele>56.0</ele><time>2026-04-12T09:28:04Z</time></trkpt><trkpt lat="47.29600695897573" lon="-1.6218605451300943"><ele>56.0</ele><time>2026-04-12T09:28:05Z</time></trkpt><trkpt lat="47.29603583463216" lon="-1.6219470463708248"><ele>56.0</ele><time>2026-04-12T09:28:06Z</time></trkpt><trkpt lat="47.29608780243182" lon="-1.622097752989849"><ele>56.0</ele><time>2026-04-12T09:28:08Z</time></trkpt><trkpt lat="47.29611097839409" lon="-1.62219942547532"><ele>55.99999999999999</ele><time>2026-04-12T09:28:09Z</time></trkpt><trkpt lat="47.29614496701145" lon="-1.6222988348469345"><ele>55.99999999999999</ele><time>2026-04-12T09:28:10Z</time></trkpt><trkpt lat="47.29619840164417" lon="-1.622467814014873"><ele>56.0</ele><time>2026-04-12T09:28:12Z</time></trkpt><trkpt lat="47.29623771277004" lon="-1.6226455941811415"><ele>56.0</ele><time>2026-04-12T09:28:14Z</time></trkpt><trkpt lat="47.29623746131295" lon="-1.6227458417430731"><ele>55.833333333333336</ele><time>2026-04-12T09:28:15Z</time></trkpt><trkpt lat="47.29623331227088" lon="-1.622853381560764"><ele>55.66666666666667</ele><time>2026-04-12T09:28:16Z</time></trkpt><trkpt lat="47.296245801306604" lon="-1.6230631805971478"><ele>55.5</ele><time>2026-04-12T09:28:18Z</time></trkpt><trkpt lat="47.29624135889792" lon="-1.6231769230231858"><ele>55.33333333333333</ele><time>2026-04-12T09:28:19Z</time></trkpt><trkpt lat="47.29625937998974" lon="-1.623277002947054"><ele>55.166666666666664</ele><time>2026-04-12T09:28:20Z</time></trkpt><trkpt lat="47.29625049517238" lon="-1.623396612705312"><ele>55.0</ele><time>2026-04-12T09:28:21Z</time></trkpt><trkpt lat="47.296224385544" lon="-1.6235168930158237"><ele>54.83333333333333</ele><time>2026-04-12T09:28:22Z</time></trkpt><trkpt lat="47.296201377219795" lon="-1.6237131133690696"><ele>54.666666666666664</ele><time>2026-04-12T09:28:24Z</time></trkpt><trkpt lat="47.296171537644504" lon="-1.6238179709777458"><ele>54.5</ele><time>2026-04-12T09:28:25Z</time></trkpt><trkpt lat="47.296161018356024" lon="-1.623931629584752"><ele>54.33333333333333</ele><time>2026-04-12T09:28:26Z</time></trkpt><trkpt lat="47.29617673442447" lon="-1.6240289434805735"><ele>54.166666666666664</ele><time>2026-04-12T09:28:27Z</time></trkpt><trkpt lat="47.29620196395302" lon="-1.6241387464121209"><ele>54.0</ele><time>2026-04-12T09:28:28Z</time></trkpt><trkpt lat="47.29624307718807" lon="-1.6242399159834013"><ele>54.0</ele><time>2026-04-12T09:28:29Z</time></trkpt><trkpt lat="47.29628188539976" lon="-1.6243591904655326"><ele>54.0</ele><time>2026-04-12T09:28:30Z</time></trkpt><trkpt lat="47.296326435215114" lon="-1.6244553308949101"><ele>54.0</ele><time>2026-04-12T09:28:31Z</time></trkpt><trkpt lat="47.29634609077805" lon="-1.6245435923353067"><ele>54.0</ele><time>2026-04-12T09:28:32Z</time></trkpt><trkpt lat="47.29638737165117" lon="-1.6246648784741988"><ele>54.0</ele><time>2026-04-12T09:28:33Z</time></trkpt><trkpt lat="47.29641352318907" lon="-1.6247576661423078"><ele>54.0</ele><time>2026-04-12T09:28:34Z</time></trkpt><trkpt lat="47.29645241521978" lon="-1.624859003351652"><ele>54.166666666666664</ele><time>2026-04-12T09:28:35Z</time></trkpt><trkpt lat="47.29650103025818" lon="-1.6249636933222644"><ele>54.33333333333333</ele><time>2026-04-12T09:28:36Z</time></trkpt><trkpt lat="47.296560751318275" lon="-1.6251586563900347"><ele>54.5</ele><time>2026-04-12T09:28:38Z</time></trkpt><trkpt lat="47.29658132889056" lon="-1.6252559702858564"><ele>54.666666666666664</ele><time>2026-04-12T09:28:39Z</time></trkpt><trkpt lat="47.29658518456602" lon="-1.6253496799633143"><ele>54.83333333333333</ele><time>2026-04-12T09:28:40Z</time></trkpt><trkpt lat="47.29659126144582" lon="-1.6254573874190685"><ele>55.0</ele><time>2026-04-12T09:28:41Z</time></trkpt><trkpt lat="47.29657479100609" lon="-1.6256468184307455"><ele>55.166666666666664</ele><time>2026-04-12T09:28:43Z</time></trkpt><trkpt lat="47.29657646738672" lon="-1.6257410310223939"><ele>55.33333333333333</ele><time>2026-04-12T09:28:44Z</time></trkpt><trkpt lat="47.29656703774565" lon="-1.6258382610991837"><ele>55.5</ele><time>2026-04-12T09:28:45Z</time></trkpt><trkpt lat="47.296546292535304" lon="-1.6259331442430855"><ele>55.66666666666667</ele><time>2026-04-12T09:28:46Z</time></trkpt><trkpt lat="47.29652621787721" lon="-1.6260286979392413"><ele>55.833333333333336</ele><time>2026-04-12T09:28:47Z</time></trkpt><trkpt lat="47.29649067860776" lon="-1.6262171231225377"><ele>56.0</ele><time>2026-04-12T09:28:49Z</time></trkpt><trkpt lat="47.29645840828055" lon="-1.6263000201449043"><ele>56.199999999999996</ele><time>2026-04-12T09:28:50Z</time></trkpt><trkpt lat="47.2964067338475" lon="-1.6264433506891378"><ele>56.39999999999999</ele><time>2026-04-12T09:28:52Z</time></trkpt><trkpt lat="47.296337164051174" lon="-1.6265710070744404"><ele>56.6</ele><time>2026-04-12T09:28:54Z</time></trkpt><trkpt lat="47.29627844881946" lon="-1.6266903653756033"><ele>56.8</ele><time>2026-04-12T09:28:56Z</time></trkpt><trkpt lat="47.29621809911662" lon="-1.6267968155458818"><ele>57.0</ele><time>2026-04-12T09:28:58Z</time></trkpt><trkpt lat="47.29614878077739" lon="-1.62691106088611"><ele>57.0</ele><time>2026-04-12T09:29:00Z</time></trkpt><trkpt lat="47.29605733421379" lon="-1.6269719135031355"><ele>57.0</ele><time>2026-04-12T09:29:02Z</time></trkpt><trkpt lat="47.29599786461079" lon="-1.627015918494786"><ele>57.0</ele><time>2026-04-12T09:29:03Z</time></trkpt><trkpt lat="47.29591320738876" lon="-1.627090768890108"><ele>57.0</ele><time>2026-04-12T09:29:05Z</time></trkpt><trkpt lat="47.295805080837845" lon="-1.6271873284146443"><ele>57.0</ele><time>2026-04-12T09:29:07Z</time></trkpt><trkpt lat="47.2956960741871" lon="-1.6272563952967778"><ele>57.0</ele><time>2026-04-12T09:29:09Z</time></trkpt><trkpt lat="47.29563748468393" lon="-1.627294030042018"><ele>57.0</ele><time>2026-04-12T09:29:10Z</time></trkpt><trkpt lat="47.295563262931346" lon="-1.6273200977608815"><ele>57.0</ele><time>2026-04-12T09:29:11Z</time></trkpt><trkpt lat="47.29549859654838" lon="-1.6273396275952712"><ele>57.0</ele><time>2026-04-12T09:29:12Z</time></trkpt><trkpt lat="47.295394702858566" lon="-1.6273784358069554"><ele>57.0</ele><time>2026-04-12T09:29:14Z</time></trkpt><trkpt lat="47.29528892324054" lon="-1.6274265479311603"><ele>57.0</ele><time>2026-04-12T09:29:16Z</time></trkpt><trkpt lat="47.295177485837876" lon="-1.6274723131224769"><ele>57.0</ele><time>2026-04-12T09:29:18Z</time></trkpt><trkpt lat="47.2951106820696" lon="-1.6274995543077844"><ele>57.0</ele><time>2026-04-12T09:29:19Z</time></trkpt><trkpt lat="47.29500293270433" lon="-1.6275595687344926"><ele>57.0</ele><time>2026-04-12T09:29:21Z</time></trkpt><trkpt lat="47.29487900626594" lon="-1.6276181582376616"><ele>57.0</ele><time>2026-04-12T09:29:23Z</time></trkpt><trkpt lat="47.294816812544404" lon="-1.6276476625368257"><ele>57.0</ele><time>2026-04-12T09:29:24Z</time></trkpt><trkpt lat="47.29470826689833" lon="-1.6277054138496776"><ele>56.71428571428571</ele><time>2026-04-12T09:29:26Z</time></trkpt><trkpt lat="47.29464062493974" lon="-1.6277348343298097"><ele>56.42857142857142</ele><time>2026-04-12T09:29:27Z</time></trkpt><trkpt lat="47.29457558137113" lon="-1.627756543459024"><ele>56.14285714285714</ele><time>2026-04-12T09:29:28Z</time></trkpt><trkpt lat="47.2945096996122" lon="-1.6277751512840648"><ele>55.857142857142854</ele><time>2026-04-12T09:29:29Z</time></trkpt><trkpt lat="47.29443191555077" lon="-1.6278050746783872"><ele>55.57142857142857</ele><time>2026-04-12T09:29:30Z</time></trkpt><trkpt lat="47.29436180093074" lon="-1.6278016380980869"><ele>55.28571428571428</ele><time>2026-04-12T09:29:31Z</time></trkpt><trkpt lat="47.294285735159455" lon="-1.6278005484506746"><ele>55.0</ele><time>2026-04-12T09:29:31.999Z</time></trkpt><trkpt lat="47.29422194887632" lon="-1.6277992911651988"><ele>54.99999999999999</ele><time>2026-04-12T09:29:32.999Z</time></trkpt><trkpt lat="47.29415434882724" lon="-1.6278055775925775"><ele>55.0</ele><time>2026-04-12T09:29:33.999Z</time></trkpt><trkpt lat="47.29407622948968" lon="-1.6278035659358163"><ele>55.0</ele><time>2026-04-12T09:29:34.999Z</time></trkpt><trkpt lat="47.293998193971156" lon="-1.6278003808126111"><ele>55.0</ele><time>2026-04-12T09:29:35.999Z</time></trkpt><trkpt lat="47.293923134028255" lon="-1.6278055775925775"><ele>55.0</ele><time>2026-04-12T09:29:36.999Z</time></trkpt><trkpt lat="47.2938542766937" lon="-1.6278018057361503"><ele>54.99999999999999</ele><time>2026-04-12T09:29:37.999Z</time></trkpt><trkpt lat="47.29377330750906" lon="-1.6278028115645309"><ele>55.0</ele><time>2026-04-12T09:29:38.999Z</time></trkpt><trkpt lat="47.2936980799281" lon="-1.6278029792025943"><ele>54.666666666666664</ele><time>2026-04-12T09:29:39.999Z</time></trkpt><trkpt lat="47.29362612128937" lon="-1.6278124507531782"><ele>54.33333333333333</ele><time>2026-04-12T09:29:40.999Z</time></trkpt><trkpt lat="47.2935479600423" lon="-1.6278114449247976"><ele>54.0</ele><time>2026-04-12T09:29:41.999Z</time></trkpt><trkpt lat="47.29348237164998" lon="-1.627815719695415"><ele>53.66666666666667</ele><time>2026-04-12T09:29:42.999Z</time></trkpt><trkpt lat="47.293409574820934" lon="-1.6278163902476688"><ele>53.333333333333336</ele><time>2026-04-12T09:29:43.999Z</time></trkpt><trkpt lat="47.29327554818922" lon="-1.6278286278262992"><ele>53.0</ele><time>2026-04-12T09:29:45.999Z</time></trkpt><trkpt lat="47.29321213909173" lon="-1.6278382670149465"><ele>53.00000000000001</ele><time>2026-04-12T09:29:46.999Z</time></trkpt><trkpt lat="47.29314353321427" lon="-1.6278353333488365"><ele>53.0</ele><time>2026-04-12T09:29:47.999Z</time></trkpt><trkpt lat="47.293070149652" lon="-1.627847570927467"><ele>53.0</ele><time>2026-04-12T09:29:48.999Z</time></trkpt><trkpt lat="47.293002046688734" lon="-1.6278486605748792"><ele>53.0</ele><time>2026-04-12T09:29:49.999Z</time></trkpt><trkpt lat="47.29287975472146" lon="-1.627859892325129"><ele>53.00000000000001</ele><time>2026-04-12T09:29:51.999Z</time></trkpt><trkpt lat="47.29280641306871" lon="-1.6278623230770488"><ele>53.0</ele><time>2026-04-12T09:29:52.999Z</time></trkpt><trkpt lat="47.29273960930043" lon="-1.6278583835825582"><ele>52.8</ele><time>2026-04-12T09:29:53.999Z</time></trkpt><trkpt lat="47.29267552965068" lon="-1.6278497502222915"><ele>52.599999999999994</ele><time>2026-04-12T09:29:54.999Z</time></trkpt><trkpt lat="47.29260436729275" lon="-1.6278249397889037"><ele>52.400000000000006</ele><time>2026-04-12T09:29:55.999Z</time></trkpt><trkpt lat="47.292491840242675" lon="-1.6278082598015924"><ele>52.2</ele><time>2026-04-12T09:29:57.999Z</time></trkpt><trkpt lat="47.292367913804284" lon="-1.6277862153962512"><ele>52.0</ele><time>2026-04-12T09:29:59.999Z</time></trkpt><trkpt lat="47.29226666041397" lon="-1.627762997524466"><ele>52.8</ele><time>2026-04-12T09:30:01.999Z</time></trkpt><trkpt lat="47.29220564015888" lon="-1.6277339123204608"><ele>53.6</ele><time>2026-04-12T09:30:02.999Z</time></trkpt><trkpt lat="47.29208971843802" lon="-1.6276697069421668"><ele>54.39999999999999</ele><time>2026-04-12T09:30:04.999Z</time></trkpt><trkpt lat="47.29199546393686" lon="-1.6276236064747232"><ele>55.199999999999996</ele><time>2026-04-12T09:30:06.999Z</time></trkpt><trkpt lat="47.291896431750885" lon="-1.6275967843845742"><ele>56.0</ele><time>2026-04-12T09:30:08.999Z</time></trkpt><trkpt lat="47.29182862215423" lon="-1.6275662742570298"><ele>56.0</ele><time>2026-04-12T09:30:09.999Z</time></trkpt><trkpt lat="47.29174178563737" lon="-1.6275031585261481"><ele>55.99999999999999</ele><time>2026-04-12T09:30:10.999Z</time></trkpt><trkpt lat="47.29164711204105" lon="-1.6274580638870852"><ele>55.99999999999999</ele><time>2026-04-12T09:30:11.999Z</time></trkpt><trkpt lat="47.29155235462569" lon="-1.627436606214966"><ele>56.0</ele><time>2026-04-12T09:30:13.999Z</time></trkpt><trkpt lat="47.291469918608" lon="-1.6273863986149684"><ele>56.0</ele><time>2026-04-12T09:30:14.999Z</time></trkpt><trkpt lat="47.291390625804" lon="-1.6273553855732337"><ele>54.4</ele><time>2026-04-12T09:30:15.999Z</time></trkpt><trkpt lat="47.29131330274724" lon="-1.6273275576547042"><ele>52.8</ele><time>2026-04-12T09:30:16.999Z</time></trkpt><trkpt lat="47.2911937348985" lon="-1.6272910125568762"><ele>51.199999999999996</ele><time>2026-04-12T09:30:17.999Z</time></trkpt><trkpt lat="47.29109315206044" lon="-1.6272558085635558"><ele>49.599999999999994</ele><time>2026-04-12T09:30:18.999Z</time></trkpt><trkpt lat="47.29097987063908" lon="-1.6272099595532075"><ele>48.0</ele><time>2026-04-12T09:30:19.999Z</time></trkpt><trkpt lat="47.2908562375673" lon="-1.6271816287204877"><ele>48.0</ele><time>2026-04-12T09:30:20.999Z</time></trkpt><trkpt lat="47.2907436686077" lon="-1.6271672118470326"><ele>48.0</ele><time>2026-04-12T09:30:21.999Z</time></trkpt><trkpt lat="47.29063038718634" lon="-1.6271865740433589"><ele>48.0</ele><time>2026-04-12T09:30:22.999Z</time></trkpt><trkpt lat="47.290520751892856" lon="-1.6272125579431906"><ele>48.0</ele><time>2026-04-12T09:30:23.999Z</time></trkpt><trkpt lat="47.29042804804378" lon="-1.6272373683765784"><ele>48.0</ele><time>2026-04-12T09:30:24.999Z</time></trkpt><trkpt lat="47.2903424688124" lon="-1.6272748354837552"><ele>47.666666666666664</ele><time>2026-04-12T09:30:25.999Z</time></trkpt><trkpt lat="47.290251650891534" lon="-1.6273260489121333"><ele>47.333333333333336</ele><time>2026-04-12T09:30:26.999Z</time></trkpt><trkpt lat="47.290170891254476" lon="-1.6273672878757373"><ele>47.0</ele><time>2026-04-12T09:30:27.999Z</time></trkpt><trkpt lat="47.29010723069989" lon="-1.6274140588954347"><ele>46.66666666666667</ele><time>2026-04-12T09:30:28.999Z</time></trkpt><trkpt lat="47.29004537225448" lon="-1.6274682898089545"><ele>46.333333333333336</ele><time>2026-04-12T09:30:29.999Z</time></trkpt><trkpt lat="47.28996637281709" lon="-1.6274951118991035"><ele>46.0</ele><time>2026-04-12T09:30:30.999Z</time></trkpt><trkpt lat="47.28983674668454" lon="-1.627539452166881"><ele>46.0</ele><time>2026-04-12T09:30:32.999Z</time></trkpt><trkpt lat="47.28977275085383" lon="-1.6275663580760615"><ele>46.0</ele><time>2026-04-12T09:30:33.999Z</time></trkpt><trkpt lat="47.28970728819006" lon="-1.627595359461035"><ele>46.0</ele><time>2026-04-12T09:30:34.999Z</time></trkpt><trkpt lat="47.28961274032228" lon="-1.6276723891511817"><ele>46.0</ele><time>2026-04-12T09:30:36.999Z</time></trkpt><trkpt lat="47.28952959184282" lon="-1.6277687810376544"><ele>46.0</ele><time>2026-04-12T09:30:38.999Z</time></trkpt><trkpt lat="47.28944837120109" lon="-1.6278674360379835"><ele>46.4</ele><time>2026-04-12T09:30:40.999Z</time></trkpt><trkpt lat="47.28936497126453" lon="-1.6279660910383127"><ele>46.8</ele><time>2026-04-12T09:30:42.999Z</time></trkpt><trkpt lat="47.28929276116871" lon="-1.6280586272493265"><ele>47.199999999999996</ele><time>2026-04-12T09:30:44.999Z</time></trkpt><trkpt lat="47.28922708895736" lon="-1.6281434521094227"><ele>47.599999999999994</ele><time>2026-04-12T09:30:46.999Z</time></trkpt><trkpt lat="47.289160285189084" lon="-1.628234647215929"><ele>48.0</ele><time>2026-04-12T09:30:48.999Z</time></trkpt><trkpt lat="47.289105341813794" lon="-1.6283007804319525"><ele>48.0</ele><time>2026-04-12T09:30:50.999Z</time></trkpt><trkpt lat="47.289025001271895" lon="-1.6284015309080746"><ele>48.0</ele><time>2026-04-12T09:30:52.999Z</time></trkpt><trkpt lat="47.28895618584686" lon="-1.6284809913501408"><ele>48.0</ele><time>2026-04-12T09:30:54.999Z</time></trkpt><trkpt lat="47.28888192218476" lon="-1.6285758744940426"><ele>48.0</ele><time>2026-04-12T09:30:56.999Z</time></trkpt><trkpt lat="47.28881017309361" lon="-1.628661537544456"><ele>48.0</ele><time>2026-04-12T09:30:58.999Z</time></trkpt><trkpt lat="47.28874207013034" lon="-1.6287602763638167"><ele>48.599999999999994</ele><time>2026-04-12T09:31:00.999Z</time></trkpt><trkpt lat="47.28866881229662" lon="-1.6288607753828437"><ele>49.199999999999996</ele><time>2026-04-12T09:31:02.999Z</time></trkpt><trkpt lat="47.288581556684605" lon="-1.628945767881003"><ele>49.8</ele><time>2026-04-12T09:31:04.999Z</time></trkpt><trkpt lat="47.28853113953703" lon="-1.6290027648225696"><ele>50.4</ele><time>2026-04-12T09:31:05.999Z</time></trkpt><trkpt lat="47.288440614982775" lon="-1.6290512960419328"><ele>51.0</ele><time>2026-04-12T09:31:07.999Z</time></trkpt><trkpt lat="47.28832829748028" lon="-1.6291162557915124"><ele>51.0</ele><time>2026-04-12T09:31:09.999Z</time></trkpt><trkpt lat="47.288226541175774" lon="-1.629100749270645"><ele>51.0</ele><time>2026-04-12T09:31:11.999Z</time></trkpt><trkpt lat="47.28812547179039" lon="-1.629094589004563"><ele>51.0</ele><time>2026-04-12T09:31:13.999Z</time></trkpt><trkpt lat="47.28802031177526" lon="-1.6290991062336782"><ele>51.0</ele><time>2026-04-12T09:31:15.999Z</time></trkpt><trkpt lat="47.28792420592838" lon="-1.6290790401414308"><ele>51.0</ele><time>2026-04-12T09:31:17.999Z</time></trkpt><trkpt lat="47.287830190614656" lon="-1.6291049884642173"><ele>51.599999999999994</ele><time>2026-04-12T09:31:19.999Z</time></trkpt><trkpt lat="47.28770676436969" lon="-1.6291063667760393"><ele>52.2</ele><time>2026-04-12T09:31:22.999Z</time></trkpt><trkpt lat="47.287618178952975" lon="-1.6291073560147247"><ele>52.800000000000004</ele><time>2026-04-12T09:31:24.999Z</time></trkpt><trkpt lat="47.287528622008196" lon="-1.6290725860759887"><ele>53.400000000000006</ele><time>2026-04-12T09:31:26.999Z</time></trkpt><trkpt lat="47.28743172720753" lon="-1.6291066166028652"><ele>54.0</ele><time>2026-04-12T09:31:28.999Z</time></trkpt><trkpt lat="47.28734229230069" lon="-1.629106951878992"><ele>54.6</ele><time>2026-04-12T09:31:30.999Z</time></trkpt><trkpt lat="47.28724367920988" lon="-1.6291467659190568"><ele>55.2</ele><time>2026-04-12T09:31:32.999Z</time></trkpt><trkpt lat="47.2871451499381" lon="-1.6291560698315772"><ele>55.800000000000004</ele><time>2026-04-12T09:31:34.999Z</time></trkpt><trkpt lat="47.28705387101256" lon="-1.6291778627798232"><ele>56.400000000000006</ele><time>2026-04-12T09:31:36.999Z</time></trkpt><trkpt lat="47.28697809860789" lon="-1.6292224545046958"><ele>57.0</ele><time>2026-04-12T09:31:38.999Z</time></trkpt><trkpt lat="47.28689930871808" lon="-1.6292969696238908"><ele>57.0</ele><time>2026-04-12T09:31:40.999Z</time></trkpt><trkpt lat="47.28683221158319" lon="-1.6293528769180452"><ele>57.0</ele><time>2026-04-12T09:31:42.999Z</time></trkpt><trkpt lat="47.28676825766199" lon="-1.6293895058349048"><ele>57.0</ele><time>2026-04-12T09:31:44.999Z</time></trkpt><trkpt lat="47.286683432801894" lon="-1.6294776834562694"><ele>57.0</ele><time>2026-04-12T09:31:46.999Z</time></trkpt><trkpt lat="47.2866184311428" lon="-1.6295259632185375"><ele>57.0</ele><time>2026-04-12T09:31:48.999Z</time></trkpt><trkpt lat="47.286542784466675" lon="-1.629578014837233"><ele>57.0</ele><time>2026-04-12T09:31:50.999Z</time></trkpt><trkpt lat="47.286457917697064" lon="-1.6296397894636072"><ele>57.333333333333336</ele><time>2026-04-12T09:31:52.999Z</time></trkpt><trkpt lat="47.28636689022862" lon="-1.629707599060265"><ele>57.66666666666667</ele><time>2026-04-12T09:31:54.999Z</time></trkpt><trkpt lat="47.28630628906869" lon="-1.629740875215856"><ele>58.0</ele><time>2026-04-12T09:31:55.999Z</time></trkpt><trkpt lat="47.28623202540659" lon="-1.6298290528372208"><ele>58.333333333333336</ele><time>2026-04-12T09:31:57.999Z</time></trkpt><trkpt lat="47.2861355916106" lon="-1.629884960131375"><ele>58.66666666666667</ele><time>2026-04-12T09:31:59.999Z</time></trkpt><trkpt lat="47.28606639899992" lon="-1.6299475729480664"><ele>59.0</ele><time>2026-04-12T09:32:01.999Z</time></trkpt><trkpt lat="47.285979855849675" lon="-1.6300029773280302"><ele>59.0</ele><time>2026-04-12T09:32:03.999Z</time></trkpt><trkpt lat="47.28590785530143" lon="-1.630064081402151"><ele>59.00000000000001</ele><time>2026-04-12T09:32:05.999Z</time></trkpt><trkpt lat="47.28585098408841" lon="-1.6301507502809447"><ele>59.00000000000001</ele><time>2026-04-12T09:32:07.999Z</time></trkpt><trkpt lat="47.28576775178992" lon="-1.6302182246014756"><ele>59.0</ele><time>2026-04-12T09:32:09.999Z</time></trkpt><trkpt lat="47.285671988546184" lon="-1.6302840225413724"><ele>59.0</ele><time>2026-04-12T09:32:11.999Z</time></trkpt><trkpt lat="47.28557723113083" lon="-1.630367171020834"><ele>59.0</ele><time>2026-04-12T09:32:13.999Z</time></trkpt><trkpt lat="47.28549622003668" lon="-1.6304462961867734"><ele>59.00000000000001</ele><time>2026-04-12T09:32:15.999Z</time></trkpt><trkpt lat="47.28541017980062" lon="-1.6305155307069705"><ele>59.00000000000001</ele><time>2026-04-12T09:32:17.999Z</time></trkpt><trkpt lat="47.28530528028243" lon="-1.630604043604462"><ele>59.0</ele><time>2026-04-12T09:32:19.999Z</time></trkpt><trkpt lat="47.285202434330515" lon="-1.6306674107924388"><ele>59.0</ele><time>2026-04-12T09:32:21.999Z</time></trkpt><trkpt lat="47.28510482706808" lon="-1.630738405512302"><ele>59.0</ele><time>2026-04-12T09:32:23.999Z</time></trkpt><trkpt lat="47.285023983611985" lon="-1.6308192070588756"><ele>59.00000000000001</ele><time>2026-04-12T09:32:25.999Z</time></trkpt><trkpt lat="47.284927256449386" lon="-1.6308869328365017"><ele>59.00000000000001</ele><time>2026-04-12T09:32:27.999Z</time></trkpt><trkpt lat="47.284837528175935" lon="-1.6309379786268163"><ele>59.0</ele><time>2026-04-12T09:32:29.999Z</time></trkpt><trkpt lat="47.28472579740666" lon="-1.6310331132278135"><ele>59.0</ele><time>2026-04-12T09:32:31.999Z</time></trkpt><trkpt lat="47.28464935444973" lon="-1.6311467718348196"><ele>59.16666666666667</ele><time>2026-04-12T09:32:33.999Z</time></trkpt><trkpt lat="47.28455610577695" lon="-1.6311880107984236"><ele>59.333333333333336</ele><time>2026-04-12T09:32:35.999Z</time></trkpt><trkpt lat="47.284472789659425" lon="-1.6312239691630297"><ele>59.5</ele><time>2026-04-12T09:32:37.999Z</time></trkpt><trkpt lat="47.28441235613756" lon="-1.6312732547536783"><ele>59.66666666666667</ele><time>2026-04-12T09:32:39.999Z</time></trkpt><trkpt lat="47.28441596035592" lon="-1.6314025875196152"><ele>59.833333333333336</ele><time>2026-04-12T09:32:42.999Z</time></trkpt><trkpt lat="47.28444730867378" lon="-1.6314956266448195"><ele>60.0</ele><time>2026-04-12T09:32:44.999Z</time></trkpt><trkpt lat="47.28448808663271" lon="-1.631616493688553"><ele>60.0</ele><time>2026-04-12T09:32:46.999Z</time></trkpt><trkpt lat="47.28451000530951" lon="-1.6317098680898843"><ele>60.0</ele><time>2026-04-12T09:32:47.999Z</time></trkpt><trkpt lat="47.28455317211084" lon="-1.6318378597513137"><ele>60.0</ele><time>2026-04-12T09:32:49.999Z</time></trkpt><trkpt lat="47.28458699309014" lon="-1.6320056654528081"><ele>60.0</ele><time>2026-04-12T09:32:51.999Z</time></trkpt><trkpt lat="47.284600362225696" lon="-1.63212058134529"><ele>60.0</ele><time>2026-04-12T09:32:52.999Z</time></trkpt><trkpt lat="47.284589633389636" lon="-1.6322122793659868"><ele>60.0</ele><time>2026-04-12T09:32:53.999Z</time></trkpt><trkpt lat="47.28457592897795" lon="-1.632304983215064"><ele>60.2</ele><time>2026-04-12T09:32:54.999Z</time></trkpt><trkpt lat="47.28451511827044" lon="-1.6324400156751577"><ele>60.4</ele><time>2026-04-12T09:32:56.999Z</time></trkpt><trkpt lat="47.28442819793455" lon="-1.6325336415335838"><ele>60.599999999999994</ele><time>2026-04-12T09:32:58.999Z</time></trkpt><trkpt lat="47.28433511689983" lon="-1.6326349787429277"><ele>60.8</ele><time>2026-04-12T09:33:00.999Z</time></trkpt><trkpt lat="47.2842367133566" lon="-1.6327260062113709"><ele>61.0</ele><time>2026-04-12T09:33:03Z</time></trkpt><trkpt lat="47.28419329509817" lon="-1.6328547522440857"><ele>60.5</ele><time>2026-04-12T09:33:05Z</time></trkpt><trkpt lat="47.284196899316534" lon="-1.632998166607351"><ele>60.0</ele><time>2026-04-12T09:33:07Z</time></trkpt><trkpt lat="47.28421303448014" lon="-1.6331770364210318"><ele>59.5</ele><time>2026-04-12T09:33:09Z</time></trkpt><trkpt lat="47.28422908582471" lon="-1.6333768609926416"><ele>59.0</ele><time>2026-04-12T09:33:11Z</time></trkpt><trkpt lat="47.28422393095426" lon="-1.6335512045786096"><ele>58.800000000000004</ele><time>2026-04-12T09:33:13Z</time></trkpt><trkpt lat="47.28426085323773" lon="-1.6337315831348613"><ele>58.60000000000001</ele><time>2026-04-12T09:33:15Z</time></trkpt><trkpt lat="47.28425825484775" lon="-1.63389519788477"><ele>58.4</ele><time>2026-04-12T09:33:17Z</time></trkpt><trkpt lat="47.28426747494124" lon="-1.634009443224998"><ele>58.2</ele><time>2026-04-12T09:33:18Z</time></trkpt><trkpt lat="47.28425351907246" lon="-1.6341899894193133"><ele>58.0</ele><time>2026-04-12T09:33:20Z</time></trkpt><trkpt lat="47.2842237633162" lon="-1.6343368403628789"><ele>58.599999999999994</ele><time>2026-04-12T09:33:22Z</time></trkpt><trkpt lat="47.28420641277663" lon="-1.6344892233625374"><ele>59.199999999999996</ele><time>2026-04-12T09:33:24Z</time></trkpt><trkpt lat="47.28418658957563" lon="-1.6346329730019296"><ele>59.8</ele><time>2026-04-12T09:33:26Z</time></trkpt><trkpt lat="47.28416756265543" lon="-1.6347893793151107"><ele>60.4</ele><time>2026-04-12T09:33:28Z</time></trkpt><trkpt lat="47.28415628899567" lon="-1.634925082327458"><ele>61.0</ele><time>2026-04-12T09:33:30Z</time></trkpt><trkpt lat="47.28414250076495" lon="-1.6350783035174339"><ele>61.0</ele><time>2026-04-12T09:33:32Z</time></trkpt><trkpt lat="47.28413403504275" lon="-1.635211408139798"><ele>60.99999999999999</ele><time>2026-04-12T09:33:34Z</time></trkpt><trkpt lat="47.284122426106855" lon="-1.6353678982720108"><ele>60.99999999999999</ele><time>2026-04-12T09:33:36Z</time></trkpt><trkpt lat="47.28411366701804" lon="-1.6355085466072294"><ele>61.0</ele><time>2026-04-12T09:33:38Z</time></trkpt><trkpt lat="47.28410013024442" lon="-1.6356548108175728"><ele>61.0</ele><time>2026-04-12T09:33:40Z</time></trkpt><trkpt lat="47.28408353407614" lon="-1.6357933636769986"><ele>61.0</ele><time>2026-04-12T09:33:42Z</time></trkpt><trkpt lat="47.28408060041003" lon="-1.6359564755127167"><ele>60.99999999999999</ele><time>2026-04-12T09:33:44Z</time></trkpt><trkpt lat="47.2840588493713" lon="-1.6360977105811574"><ele>60.99999999999999</ele><time>2026-04-12T09:33:46Z</time></trkpt><trkpt lat="47.28404464204542" lon="-1.6362542007133702"><ele>61.0</ele><time>2026-04-12T09:33:48Z</time></trkpt><trkpt lat="47.28402293291621" lon="-1.6363974474385719"><ele>61.0</ele><time>2026-04-12T09:33:50Z</time></trkpt><trkpt lat="47.28400046941571" lon="-1.636540275068615"><ele>61.0</ele><time>2026-04-12T09:33:52Z</time></trkpt><trkpt lat="47.283959020904526" lon="-1.636676983909343"><ele>60.99999999999999</ele><time>2026-04-12T09:33:54Z</time></trkpt><trkpt lat="47.283907430290505" lon="-1.6367979347721084"><ele>60.99999999999999</ele><time>2026-04-12T09:33:56Z</time></trkpt><trkpt lat="47.283871513835415" lon="-1.6369280219093307"><ele>61.0</ele><time>2026-04-12T09:33:58Z</time></trkpt><trkpt lat="47.283831154971644" lon="-1.6370594501510607"><ele>61.0</ele><time>2026-04-12T09:34:00Z</time></trkpt><trkpt lat="47.28388039865278" lon="-1.6371454484776007"><ele>61.599999999999994</ele><time>2026-04-12T09:34:02Z</time></trkpt><trkpt lat="47.28395151910119" lon="-1.6372153535500515"><ele>62.199999999999996</ele><time>2026-04-12T09:34:04Z</time></trkpt><trkpt lat="47.2840390261703" lon="-1.6372757870719183"><ele>62.800000000000004</ele><time>2026-04-12T09:34:06Z</time></trkpt><trkpt lat="47.284128586805686" lon="-1.6373697482064713"><ele>63.400000000000006</ele><time>2026-04-12T09:34:08Z</time></trkpt><trkpt lat="47.28421781216495" lon="-1.637443844230508"><ele>64.0</ele><time>2026-04-12T09:34:10Z</time></trkpt><trkpt lat="47.2843075404384" lon="-1.6375154256835929"><ele>64.0</ele><time>2026-04-12T09:34:12Z</time></trkpt><trkpt lat="47.28438251656227" lon="-1.6375885158792487"><ele>64.0</ele><time>2026-04-12T09:34:14Z</time></trkpt><trkpt lat="47.2844552714818" lon="-1.6376605164274924"><ele>64.0</ele><time>2026-04-12T09:34:16Z</time></trkpt><trkpt lat="47.28453569584273" lon="-1.6377306729570382"><ele>64.0</ele><time>2026-04-12T09:34:18Z</time></trkpt><trkpt lat="47.28461607829414" lon="-1.6378416493550294"><ele>64.0</ele><time>2026-04-12T09:34:20Z</time></trkpt><trkpt lat="47.28467177604072" lon="-1.6379604209229703"><ele>64.60000000000001</ele><time>2026-04-12T09:34:22Z</time></trkpt><trkpt lat="47.28473313157193" lon="-1.6380782704815622"><ele>65.2</ele><time>2026-04-12T09:34:24Z</time></trkpt><trkpt lat="47.284804335839375" lon="-1.6381940245643614"><ele>65.80000000000001</ele><time>2026-04-12T09:34:26Z</time></trkpt><trkpt lat="47.284893686927184" lon="-1.6383221000448225"><ele>66.4</ele><time>2026-04-12T09:34:28Z</time></trkpt><trkpt lat="47.284961664161905" lon="-1.6384114511326313"><ele>67.0</ele><time>2026-04-12T09:34:30Z</time></trkpt><trkpt lat="47.28502272632651" lon="-1.6384707950070858"><ele>67.6</ele><time>2026-04-12T09:34:32Z</time></trkpt><trkpt lat="47.28508609351449" lon="-1.6385552007720232"><ele>68.2</ele><time>2026-04-12T09:34:34Z</time></trkpt><trkpt lat="47.28517263666474" lon="-1.6386521793917181"><ele>68.8</ele><time>2026-04-12T09:34:36Z</time></trkpt><trkpt lat="47.28527464442634" lon="-1.6387280356154206"><ele>69.4</ele><time>2026-04-12T09:34:38Z</time></trkpt><trkpt lat="47.28535335049712" lon="-1.6388346534237626"><ele>70.0</ele><time>2026-04-12T09:34:40Z</time></trkpt><trkpt lat="47.28541265246206" lon="-1.6388882976040606"><ele>69.75</ele><time>2026-04-12T09:34:41Z</time></trkpt><trkpt lat="47.285512732385925" lon="-1.6390141099706654"><ele>69.5</ele><time>2026-04-12T09:34:43Z</time></trkpt><trkpt lat="47.28564583700829" lon="-1.6391613800093896"><ele>69.25</ele><time>2026-04-12T09:34:45Z</time></trkpt><trkpt lat="47.28570878510111" lon="-1.6392145212754972"><ele>69.0</ele><time>2026-04-12T09:34:46Z</time></trkpt><trkpt lat="47.28577604987406" lon="-1.639286102728582"><ele>69.0</ele><time>2026-04-12T09:34:47Z</time></trkpt><trkpt lat="47.28582998742097" lon="-1.6393567621723184"><ele>69.0</ele><time>2026-04-12T09:34:48Z</time></trkpt><trkpt lat="47.285939496985904" lon="-1.6394659783706436"><ele>69.0</ele><time>2026-04-12T09:34:50Z</time></trkpt><trkpt lat="47.28599770930343" lon="-1.6395028587445983"><ele>69.0</ele><time>2026-04-12T09:34:51Z</time></trkpt><trkpt lat="47.28606602181428" lon="-1.6395185329035291"><ele>69.0</ele><time>2026-04-12T09:34:52Z</time></trkpt><trkpt lat="47.286142339042655" lon="-1.639539739118553"><ele>69.0</ele><time>2026-04-12T09:34:53Z</time></trkpt><trkpt lat="47.286236132539145" lon="-1.6395838279292356"><ele>68.57142857142857</ele><time>2026-04-12T09:34:54Z</time></trkpt><trkpt lat="47.286307252987555" lon="-1.6396216303125393"><ele>68.14285714285715</ele><time>2026-04-12T09:34:55Z</time></trkpt><trkpt lat="47.28638143283062" lon="-1.6396202892080318"><ele>67.71428571428572</ele><time>2026-04-12T09:34:56Z</time></trkpt><trkpt lat="47.28645058353179" lon="-1.6395997535452616"><ele>67.28571428571429</ele><time>2026-04-12T09:34:57Z</time></trkpt><trkpt lat="47.28652970869773" lon="-1.6395910363659632"><ele>66.85714285714286</ele><time>2026-04-12T09:34:58Z</time></trkpt><trkpt lat="47.28659735065632" lon="-1.6396017652020227"><ele>66.42857142857143</ele><time>2026-04-12T09:34:59Z</time></trkpt><trkpt lat="47.28667044085198" lon="-1.6396119073048603"><ele>66.0</ele><time>2026-04-12T09:35:00Z</time></trkpt><trkpt lat="47.28674579416149" lon="-1.6396036930397522"><ele>65.5</ele><time>2026-04-12T09:35:01Z</time></trkpt><trkpt lat="47.286812933205894" lon="-1.639606123791672"><ele>65.0</ele><time>2026-04-12T09:35:02Z</time></trkpt><trkpt lat="47.28690777444028" lon="-1.6396340355292331"><ele>64.5</ele><time>2026-04-12T09:35:03Z</time></trkpt><trkpt lat="47.28698409166866" lon="-1.6396456025556099"><ele>64.0</ele><time>2026-04-12T09:35:04Z</time></trkpt><trkpt lat="47.28705915161156" lon="-1.6396607738003504"><ele>63.5</ele><time>2026-04-12T09:35:05Z</time></trkpt><trkpt lat="47.28711705438166" lon="-1.6396124314764429"><ele>63.0</ele><time>2026-04-12T09:35:06Z</time></trkpt><trkpt lat="47.287206040905666" lon="-1.6396183224639949"><ele>62.599999999999994</ele><time>2026-04-12T09:35:07Z</time></trkpt><trkpt lat="47.28730178449106" lon="-1.6396270662779024"><ele>62.199999999999996</ele><time>2026-04-12T09:35:08Z</time></trkpt><trkpt lat="47.28739029453233" lon="-1.6396349057949273"><ele>61.8</ele><time>2026-04-12T09:35:09Z</time></trkpt><trkpt lat="47.28745780827904" lon="-1.6396434124930501"><ele>61.4</ele><time>2026-04-12T09:35:10Z</time></trkpt><trkpt lat="47.28755598892205" lon="-1.6396754421309006"><ele>61.0</ele><time>2026-04-12T09:35:11Z</time></trkpt><trkpt lat="47.28766222187745" lon="-1.639674280437638"><ele>60.99999999999999</ele><time>2026-04-12T09:35:12Z</time></trkpt><trkpt lat="47.287733810997835" lon="-1.6397104784861576"><ele>61.0</ele><time>2026-04-12T09:35:13Z</time></trkpt><trkpt lat="47.28781603746795" lon="-1.6397223807886612"><ele>61.0</ele><time>2026-04-12T09:35:14Z</time></trkpt><trkpt lat="47.28789868303322" lon="-1.6397430002704632"><ele>61.0</ele><time>2026-04-12T09:35:15Z</time></trkpt><trkpt lat="47.287994027181796" lon="-1.6397574171439182"><ele>60.99999999999999</ele><time>2026-04-12T09:35:16Z</time></trkpt><trkpt lat="47.28808597665959" lon="-1.639773678036071"><ele>61.0</ele><time>2026-04-12T09:35:17Z</time></trkpt><trkpt lat="47.2881666105681" lon="-1.6397948004320635"><ele>60.4</ele><time>2026-04-12T09:35:18Z</time></trkpt><trkpt lat="47.28825520728462" lon="-1.6398175153896584"><ele>59.8</ele><time>2026-04-12T09:35:19Z</time></trkpt><trkpt lat="47.28835004851901" lon="-1.639836458490826"><ele>59.199999999999996</ele><time>2026-04-12T09:35:20Z</time></trkpt><trkpt lat="47.288432316898636" lon="-1.6398498695359005"><ele>58.599999999999994</ele><time>2026-04-12T09:35:21Z</time></trkpt><trkpt lat="47.28852435019546" lon="-1.6398585028961672"><ele>58.0</ele><time>2026-04-12T09:35:22Z</time></trkpt><trkpt lat="47.28861688640647" lon="-1.6398739255980028"><ele>57.99999999999999</ele><time>2026-04-12T09:35:23Z</time></trkpt><trkpt lat="47.288697897500626" lon="-1.6398920305088533"><ele>58.0</ele><time>2026-04-12T09:35:24Z</time></trkpt><trkpt lat="47.28878297381782" lon="-1.6399083752200379"><ele>58.0</ele><time>2026-04-12T09:35:25Z</time></trkpt><trkpt lat="47.28886872068726" lon="-1.639936622233726"><ele>58.0</ele><time>2026-04-12T09:35:26Z</time></trkpt><trkpt lat="47.28896100544118" lon="-1.6399546433255447"><ele>57.99999999999999</ele><time>2026-04-12T09:35:27Z</time></trkpt><trkpt lat="47.2890498536148" lon="-1.6399638634190334"><ele>58.0</ele><time>2026-04-12T09:35:28Z</time></trkpt><trkpt lat="47.289140252440504" lon="-1.6399616841242088"><ele>57.49999999999999</ele><time>2026-04-12T09:35:29Z</time></trkpt><trkpt lat="47.28922101207756" lon="-1.639965791256763"><ele>57.0</ele><time>2026-04-12T09:35:30Z</time></trkpt><trkpt lat="47.289301604076556" lon="-1.6399682220086826"><ele>56.5</ele><time>2026-04-12T09:35:31Z</time></trkpt><trkpt lat="47.28937683165752" lon="-1.6399828065202011"><ele>56.0</ele><time>2026-04-12T09:35:32Z</time></trkpt><trkpt lat="47.28946484164082" lon="-1.6399605106577648"><ele>55.49999999999999</ele><time>2026-04-12T09:35:33Z</time></trkpt><trkpt lat="47.289547571025125" lon="-1.6399530507639422"><ele>55.0</ele><time>2026-04-12T09:35:34Z</time></trkpt><trkpt lat="47.28962267287754" lon="-1.639935700224377"><ele>54.99999999999999</ele><time>2026-04-12T09:35:35Z</time></trkpt><trkpt lat="47.289708126380376" lon="-1.6399111412480845"><ele>55.0</ele><time>2026-04-12T09:35:36Z</time></trkpt><trkpt lat="47.2897761036151" lon="-1.6398859955385698"><ele>55.0</ele><time>2026-04-12T09:35:37Z</time></trkpt><trkpt lat="47.28985418104314" lon="-1.6398507915452494"><ele>55.0</ele><time>2026-04-12T09:35:38Z</time></trkpt><trkpt lat="47.28992915716701" lon="-1.639826735483147"><ele>54.99999999999999</ele><time>2026-04-12T09:35:39Z</time></trkpt><trkpt lat="47.28999411691659" lon="-1.6398154199138655"><ele>55.0</ele><time>2026-04-12T09:35:40Z</time></trkpt><trkpt lat="47.29007332590156" lon="-1.63979169912789"><ele>54.666666666666664</ele><time>2026-04-12T09:35:41Z</time></trkpt><trkpt lat="47.29014679328286" lon="-1.6397689003512632"><ele>54.33333333333333</ele><time>2026-04-12T09:35:42Z</time></trkpt><trkpt lat="47.290224619253806" lon="-1.6397543158397447"><ele>54.0</ele><time>2026-04-12T09:35:43Z</time></trkpt><trkpt lat="47.290302529043785" lon="-1.6397546511158716"><ele>53.66666666666667</ele><time>2026-04-12T09:35:44Z</time></trkpt><trkpt lat="47.29040474635296" lon="-1.6397321876153719"><ele>53.333333333333336</ele><time>2026-04-12T09:35:45Z</time></trkpt><trkpt lat="47.29048948739403" lon="-1.639715926723219"><ele>53.0</ele><time>2026-04-12T09:35:46Z</time></trkpt><trkpt lat="47.29057494089686" lon="-1.639661192895509"><ele>52.66666666666667</ele><time>2026-04-12T09:35:47Z</time></trkpt><trkpt lat="47.29066127449953" lon="-1.6396372206524383"><ele>52.333333333333336</ele><time>2026-04-12T09:35:48Z</time></trkpt><trkpt lat="47.29073805273258" lon="-1.6396099794671308"><ele>52.0</ele><time>2026-04-12T09:35:49Z</time></trkpt><trkpt lat="47.29085447736763" lon="-1.6395756974831592"><ele>51.66666666666667</ele><time>2026-04-12T09:35:50Z</time></trkpt><trkpt lat="47.29093293198132" lon="-1.6395419184133777"><ele>51.333333333333336</ele><time>2026-04-12T09:35:51Z</time></trkpt><trkpt lat="47.29101088368081" lon="-1.639516521246768"><ele>51.0</ele><time>2026-04-12T09:35:52Z</time></trkpt><trkpt lat="47.29107990865343" lon="-1.6394772939399251"><ele>50.8</ele><time>2026-04-12T09:35:52.999Z</time></trkpt><trkpt lat="47.291227681606344" lon="-1.6394246555880079"><ele>50.599999999999994</ele><time>2026-04-12T09:35:54.999Z</time></trkpt><trkpt lat="47.29129234798931" lon="-1.6393977496788272"><ele>50.4</ele><time>2026-04-12T09:35:55.999Z</time></trkpt><trkpt lat="47.29135537990116" lon="-1.6393849253669748"><ele>50.2</ele><time>2026-04-12T09:35:56.999Z</time></trkpt><trkpt lat="47.29146166243338" lon="-1.6393547505155572"><ele>50.0</ele><time>2026-04-12T09:35:58.999Z</time></trkpt><trkpt lat="47.291563879742554" lon="-1.6393189597890148"><ele>51.0</ele><time>2026-04-12T09:36:00.999Z</time></trkpt><trkpt lat="47.29165448811584" lon="-1.6392828337863452"><ele>52.0</ele><time>2026-04-12T09:36:02.999Z</time></trkpt><trkpt lat="47.2917651292377" lon="-1.63923078216765"><ele>53.0</ele><time>2026-04-12T09:36:04.999Z</time></trkpt><trkpt lat="47.29187774010681" lon="-1.639213096351958"><ele>54.0</ele><time>2026-04-12T09:36:06.999Z</time></trkpt><trkpt lat="47.29197597601198" lon="-1.6391837596908576"><ele>55.0</ele><time>2026-04-12T09:36:08.999Z</time></trkpt><trkpt lat="47.292075930207304" lon="-1.639164481313563"><ele>55.0</ele><time>2026-04-12T09:36:10.999Z</time></trkpt><trkpt lat="47.29218263183468" lon="-1.639130953700877"><ele>55.0</ele><time>2026-04-12T09:36:12.999Z</time></trkpt><trkpt lat="47.29227793407374" lon="-1.6390845179573066"><ele>55.0</ele><time>2026-04-12T09:36:14.999Z</time></trkpt><trkpt lat="47.29239083830946" lon="-1.639091726394034"><ele>55.0</ele><time>2026-04-12T09:36:16.999Z</time></trkpt><trkpt lat="47.29249808476054" lon="-1.6390915587559707"><ele>55.0</ele><time>2026-04-12T09:36:18.999Z</time></trkpt><trkpt lat="47.29258538228207" lon="-1.6390946600601441"><ele>55.8</ele><time>2026-04-12T09:36:20.999Z</time></trkpt><trkpt lat="47.29268927597188" lon="-1.6390990186497933"><ele>56.6</ele><time>2026-04-12T09:36:22.999Z</time></trkpt><trkpt lat="47.292792415290414" lon="-1.6391089092955358"><ele>57.400000000000006</ele><time>2026-04-12T09:36:24.999Z</time></trkpt><trkpt lat="47.292880634821294" lon="-1.6391084063813455"><ele>58.2</ele><time>2026-04-12T09:36:26.999Z</time></trkpt><trkpt lat="47.29298050519758" lon="-1.6391038801536328"><ele>59.0</ele><time>2026-04-12T09:36:28.999Z</time></trkpt><trkpt lat="47.293077399998246" lon="-1.6391120105997092"><ele>59.0</ele><time>2026-04-12T09:36:30.999Z</time></trkpt><trkpt lat="47.293192232071696" lon="-1.639131791891194"><ele>59.00000000000001</ele><time>2026-04-12T09:36:32.999Z</time></trkpt><trkpt lat="47.2933087824353" lon="-1.6391223203406102"><ele>59.00000000000001</ele><time>2026-04-12T09:36:34.999Z</time></trkpt><trkpt lat="47.293410999744474" lon="-1.6391330491766698"><ele>59.0</ele><time>2026-04-12T09:36:36.999Z</time></trkpt><trkpt lat="47.293522981970845" lon="-1.6391187999412782"><ele>59.0</ele><time>2026-04-12T09:36:38.999Z</time></trkpt><trkpt lat="47.29365449403161" lon="-1.639097090812064"><ele>59.0</ele><time>2026-04-12T09:36:40.999Z</time></trkpt><trkpt lat="47.2937681107291" lon="-1.639085272328592"><ele>59.0</ele><time>2026-04-12T09:36:42.999Z</time></trkpt><trkpt lat="47.29388323616916" lon="-1.6390886250898606"><ele>59.0</ele><time>2026-04-12T09:36:44.999Z</time></trkpt><trkpt lat="47.29399400301957" lon="-1.6390778124347694"><ele>59.0</ele><time>2026-04-12T09:36:46.999Z</time></trkpt><trkpt lat="47.294110511473654" lon="-1.6390617191806798"><ele>58.800000000000004</ele><time>2026-04-12T09:36:48.999Z</time></trkpt><trkpt lat="47.29422630746597" lon="-1.6390617191806798"><ele>58.60000000000001</ele><time>2026-04-12T09:36:50.999Z</time></trkpt><trkpt lat="47.294344408481656" lon="-1.6390255093589787"><ele>58.4</ele><time>2026-04-12T09:36:52.999Z</time></trkpt><trkpt lat="47.294465233615874" lon="-1.6390116792187457"><ele>58.2</ele><time>2026-04-12T09:36:54.999Z</time></trkpt><trkpt lat="47.294528265527724" lon="-1.6390058957055573"><ele>58.0</ele><time>2026-04-12T09:36:55.999Z</time></trkpt><trkpt lat="47.29459465020084" lon="-1.639000112192369"><ele>58.00000000000001</ele><time>2026-04-12T09:36:56.999Z</time></trkpt><trkpt lat="47.29466036432171" lon="-1.6389963403359418"><ele>58.0</ele><time>2026-04-12T09:36:57.999Z</time></trkpt><trkpt lat="47.294725659347414" lon="-1.6389905568227534"><ele>58.00000000000001</ele><time>2026-04-12T09:36:58.999Z</time></trkpt><trkpt lat="47.29479610924357" lon="-1.6389752179399495"><ele>58.00000000000001</ele><time>2026-04-12T09:36:59.999Z</time></trkpt><trkpt lat="47.29486090135509" lon="-1.638964153827763"><ele>58.0</ele><time>2026-04-12T09:37:00.999Z</time></trkpt><trkpt lat="47.29494187053972" lon="-1.6389369126424556"><ele>58.00000000000001</ele><time>2026-04-12T09:37:01.999Z</time></trkpt><trkpt lat="47.29502606675708" lon="-1.6389343142524724"><ele>58.00000000000001</ele><time>2026-04-12T09:37:02.999Z</time></trkpt><trkpt lat="47.295093415349065" lon="-1.6389387566611533"><ele>58.00000000000001</ele><time>2026-04-12T09:37:03.999Z</time></trkpt><trkpt lat="47.2951590456509" lon="-1.6389336437002187"><ele>58.0</ele><time>2026-04-12T09:37:04.999Z</time></trkpt><trkpt lat="47.29523196820849" lon="-1.6389433667078976"><ele>58.00000000000001</ele><time>2026-04-12T09:37:06.999Z</time></trkpt><trkpt lat="47.295295670672594" lon="-1.6389560233816867"><ele>58.00000000000001</ele><time>2026-04-12T09:37:08.999Z</time></trkpt><trkpt lat="47.29533250913703" lon="-1.6390335559860234"><ele>58.0</ele><time>2026-04-12T09:37:10.999Z</time></trkpt><trkpt lat="47.295336239083944" lon="-1.6391543392107255"><ele>58.00000000000001</ele><time>2026-04-12T09:37:12.999Z</time></trkpt><trkpt lat="47.29530883026057" lon="-1.6392866894618041"><ele>58.00000000000001</ele><time>2026-04-12T09:37:14.999Z</time></trkpt><trkpt lat="47.295279158323346" lon="-1.639427002520896"><ele>58.2</ele><time>2026-04-12T09:37:16.999Z</time></trkpt><trkpt lat="47.29524843864822" lon="-1.6395745240167152"><ele>58.4</ele><time>2026-04-12T09:37:18.999Z</time></trkpt><trkpt lat="47.29523997292602" lon="-1.6396665573135387"><ele>58.60000000000001</ele><time>2026-04-12T09:37:19.999Z</time></trkpt><trkpt lat="47.295229998461245" lon="-1.6397594288006794"><ele>58.800000000000004</ele><time>2026-04-12T09:37:20.999Z</time></trkpt><trkpt lat="47.29522002399647" lon="-1.6399208642557634"><ele>59.0</ele><time>2026-04-12T09:37:22.999Z</time></trkpt><trkpt lat="47.295212899378775" lon="-1.6400922741756216"><ele>59.0</ele><time>2026-04-12T09:37:24.999Z</time></trkpt><trkpt lat="47.29520355355674" lon="-1.6402666177615897"><ele>59.00000000000001</ele><time>2026-04-12T09:37:26.999Z</time></trkpt><trkpt lat="47.295197644315" lon="-1.6404467448607463"><ele>59.00000000000001</ele><time>2026-04-12T09:37:28.999Z</time></trkpt><trkpt lat="47.295188424221514" lon="-1.6405406221762677"><ele>59.0</ele><time>2026-04-12T09:37:29.999Z</time></trkpt><trkpt lat="47.295187711759745" lon="-1.6407206654563924"><ele>59.0</ele><time>2026-04-12T09:37:31.999Z</time></trkpt><trkpt lat="47.2951873345741" lon="-1.6408144589528821"><ele>59.25</ele><time>2026-04-12T09:37:32.999Z</time></trkpt><trkpt lat="47.29518096432769" lon="-1.6409798339024566"><ele>59.5</ele><time>2026-04-12T09:37:34.999Z</time></trkpt><trkpt lat="47.29516428434038" lon="-1.6411613021061207"><ele>59.75</ele><time>2026-04-12T09:37:36.999Z</time></trkpt><trkpt lat="47.29515498042786" lon="-1.6413229051992682"><ele>60.0</ele><time>2026-04-12T09:37:38.999Z</time></trkpt><trkpt lat="47.295144209682284" lon="-1.6415009368226319"><ele>60.4</ele><time>2026-04-12T09:37:40.999Z</time></trkpt><trkpt lat="47.29515053801918" lon="-1.641677292065361"><ele>60.8</ele><time>2026-04-12T09:37:42.999Z</time></trkpt><trkpt lat="47.29515204676175" lon="-1.6417823173121007"><ele>61.2</ele><time>2026-04-12T09:37:43.999Z</time></trkpt><trkpt lat="47.295129750899314" lon="-1.641964875163177"><ele>61.6</ele><time>2026-04-12T09:37:45.999Z</time></trkpt><trkpt lat="47.29511956688696" lon="-1.6421508695945535"><ele>62.0</ele><time>2026-04-12T09:37:47.999Z</time></trkpt><trkpt lat="47.29510510810399" lon="-1.6422464232907092"><ele>62.0</ele><time>2026-04-12T09:37:48.999Z</time></trkpt><trkpt lat="47.29509035595441" lon="-1.6424122173354423"><ele>62.0</ele><time>2026-04-12T09:37:50.999Z</time></trkpt><trkpt lat="47.29508415334606" lon="-1.642592931167821"><ele>62.0</ele><time>2026-04-12T09:37:52.999Z</time></trkpt><trkpt lat="47.29505984582686" lon="-1.6427610721454422"><ele>62.0</ele><time>2026-04-12T09:37:54.999Z</time></trkpt><trkpt lat="47.29504853025758" lon="-1.6428550332799952"><ele>62.0</ele><time>2026-04-12T09:37:55.999Z</time></trkpt><trkpt lat="47.295021289072274" lon="-1.6430278681233925"><ele>62.0</ele><time>2026-04-12T09:37:57.999Z</time></trkpt><trkpt lat="47.294992539144395" lon="-1.643121661619882"><ele>62.0</ele><time>2026-04-12T09:37:58.999Z</time></trkpt><trkpt lat="47.29497091383421" lon="-1.6432115156218812"><ele>62.0</ele><time>2026-04-12T09:37:59.999Z</time></trkpt><trkpt lat="47.29491739538246" lon="-1.6433856077507543"><ele>62.0</ele><time>2026-04-12T09:38:01.999Z</time></trkpt><trkpt lat="47.294862745373784" lon="-1.643534386532049"><ele>62.0</ele><time>2026-04-12T09:38:03.999Z</time></trkpt><trkpt lat="47.29479351085359" lon="-1.6436866018936445"><ele>62.16666666666667</ele><time>2026-04-12T09:38:05.999Z</time></trkpt><trkpt lat="47.294756504751085" lon="-1.6437641344979812"><ele>62.333333333333336</ele><time>2026-04-12T09:38:06.999Z</time></trkpt><trkpt lat="47.294681738174795" lon="-1.6439124941841177"><ele>62.5</ele><time>2026-04-12T09:38:08.999Z</time></trkpt><trkpt lat="47.294643600515364" lon="-1.6439875960365347"><ele>62.66666666666667</ele><time>2026-04-12T09:38:09.999Z</time></trkpt><trkpt lat="47.294607474512695" lon="-1.6440676432118229"><ele>62.833333333333336</ele><time>2026-04-12T09:38:10.999Z</time></trkpt><trkpt lat="47.2945295228132" lon="-1.6442052740618998"><ele>63.0</ele><time>2026-04-12T09:38:12.999Z</time></trkpt><trkpt lat="47.29447152004325" lon="-1.644353130833846"><ele>63.599999999999994</ele><time>2026-04-12T09:38:14.999Z</time></trkpt><trkpt lat="47.29443539404058" lon="-1.6444328427330073"><ele>64.19999999999999</ele><time>2026-04-12T09:38:15.999Z</time></trkpt><trkpt lat="47.29440718893641" lon="-1.6445176675931032"><ele>64.8</ele><time>2026-04-12T09:38:16.999Z</time></trkpt><trkpt lat="47.29437097911471" lon="-1.6446078568712292"><ele>65.39999999999999</ele><time>2026-04-12T09:38:17.999Z</time></trkpt><trkpt lat="47.2943207296052" lon="-1.6447711363450108"><ele>66.0</ele><time>2026-04-12T09:38:19.999Z</time></trkpt><trkpt lat="47.294295961081325" lon="-1.6449589747950852"><ele>66.0</ele><time>2026-04-12T09:38:21.999Z</time></trkpt><trkpt lat="47.294267630248605" lon="-1.6451389342561784"><ele>66.0</ele><time>2026-04-12T09:38:23.999Z</time></trkpt><trkpt lat="47.29423330635512" lon="-1.6453035548344677"><ele>66.0</ele><time>2026-04-12T09:38:25.999Z</time></trkpt><trkpt lat="47.29420598135078" lon="-1.645391816274864"><ele>66.0</ele><time>2026-04-12T09:38:26.999Z</time></trkpt><trkpt lat="47.29418653533542" lon="-1.6455514077112503"><ele>66.0</ele><time>2026-04-12T09:38:28.999Z</time></trkpt><trkpt lat="47.294155438474654" lon="-1.6456379089519806"><ele>66.0</ele><time>2026-04-12T09:38:29.999Z</time></trkpt><trkpt lat="47.29413171768868" lon="-1.6457372345045633"><ele>66.0</ele><time>2026-04-12T09:38:30.999Z</time></trkpt><trkpt lat="47.29411813900554" lon="-1.6458306927249262"><ele>66.0</ele><time>2026-04-12T09:38:31.999Z</time></trkpt><trkpt lat="47.29410275821322" lon="-1.6459260787830183"><ele>66.0</ele><time>2026-04-12T09:38:32.999Z</time></trkpt><trkpt lat="47.294091694101034" lon="-1.6461027693018746"><ele>66.0</ele><time>2026-04-12T09:38:34.999Z</time></trkpt><trkpt lat="47.29404873684728" lon="-1.646286500619395"><ele>66.39999999999999</ele><time>2026-04-12T09:38:36.999Z</time></trkpt><trkpt lat="47.29402434550905" lon="-1.6463837306961848"><ele>66.8</ele><time>2026-04-12T09:38:37.999Z</time></trkpt><trkpt lat="47.29400875516915" lon="-1.6464852355435924"><ele>67.19999999999999</ele><time>2026-04-12T09:38:38.999Z</time></trkpt><trkpt lat="47.29398599830204" lon="-1.646579280497177"><ele>67.6</ele><time>2026-04-12T09:38:39.999Z</time></trkpt><trkpt lat="47.29396487590605" lon="-1.6467659454808075"><ele>68.0</ele><time>2026-04-12T09:38:41.999Z</time></trkpt><trkpt lat="47.29394647762859" lon="-1.64693953469549"><ele>68.2</ele><time>2026-04-12T09:38:43.999Z</time></trkpt><trkpt lat="47.29392497804695" lon="-1.6470364294961533"><ele>68.4</ele><time>2026-04-12T09:38:44.999Z</time></trkpt><trkpt lat="47.29390620258385" lon="-1.647212114186629"><ele>68.60000000000001</ele><time>2026-04-12T09:38:46.999Z</time></trkpt><trkpt lat="47.293886714658974" lon="-1.6473025549218498"><ele>68.8</ele><time>2026-04-12T09:38:47.999Z</time></trkpt><trkpt lat="47.29386932220989" lon="-1.6474815085545624"><ele>69.0</ele><time>2026-04-12T09:38:49.999Z</time></trkpt><trkpt lat="47.29384698443794" lon="-1.6476618871108142"><ele>68.8</ele><time>2026-04-12T09:38:51.999Z</time></trkpt><trkpt lat="47.29383311238819" lon="-1.64775501005505"><ele>68.60000000000001</ele><time>2026-04-12T09:38:52.999Z</time></trkpt><trkpt lat="47.29381848596716" lon="-1.6478531621411887"><ele>68.4</ele><time>2026-04-12T09:38:53.999Z</time></trkpt><trkpt lat="47.29381555230105" lon="-1.6480440180764049"><ele>68.2</ele><time>2026-04-12T09:38:55.999Z</time></trkpt><trkpt lat="47.2937852936306" lon="-1.6482305154219719"><ele>68.0</ele><time>2026-04-12T09:38:57.999Z</time></trkpt><trkpt lat="47.293777121275006" lon="-1.648330008612618"><ele>68.0</ele><time>2026-04-12T09:38:58.999Z</time></trkpt><trkpt lat="47.293759645006894" lon="-1.6485101357117746"><ele>68.0</ele><time>2026-04-12T09:39:00.999Z</time></trkpt><trkpt lat="47.29373340964997" lon="-1.6487019136563397"><ele>68.0</ele><time>2026-04-12T09:39:02.999Z</time></trkpt><trkpt lat="47.29371270634913" lon="-1.6488763410613396"><ele>68.0</ele><time>2026-04-12T09:39:04.999Z</time></trkpt><trkpt lat="47.29369904384696" lon="-1.648968122901068"><ele>68.0</ele><time>2026-04-12T09:39:05.999Z</time></trkpt><trkpt lat="47.29368609380656" lon="-1.6490665264443019"><ele>68.0</ele><time>2026-04-12T09:39:06.999Z</time></trkpt><trkpt lat="47.29365529031241" lon="-1.6492444742486339"><ele>68.0</ele><time>2026-04-12T09:39:08.999Z</time></trkpt><trkpt lat="47.293638358868" lon="-1.6493383515641553"><ele>68.0</ele><time>2026-04-12T09:39:09.999Z</time></trkpt><trkpt lat="47.293625576465665" lon="-1.6494339890793426"><ele>68.0</ele><time>2026-04-12T09:39:10.999Z</time></trkpt><trkpt lat="47.29359812573278" lon="-1.6496244259194002"><ele>68.0</ele><time>2026-04-12T09:39:12.999Z</time></trkpt><trkpt lat="47.29357960172677" lon="-1.6498119290933477"><ele>68.0</ele><time>2026-04-12T09:39:14.999Z</time></trkpt><trkpt lat="47.29356623259121" lon="-1.6499119251981842"><ele>68.0</ele><time>2026-04-12T09:39:15.999Z</time></trkpt><trkpt lat="47.29355370164597" lon="-1.650008568541752"><ele>68.0</ele><time>2026-04-12T09:39:16.999Z</time></trkpt><trkpt lat="47.29353718929672" lon="-1.6501949820682873"><ele>68.0</ele><time>2026-04-12T09:39:18.999Z</time></trkpt><trkpt lat="47.29349360340023" lon="-1.6503726784155242"><ele>68.0</ele><time>2026-04-12T09:39:20.999Z</time></trkpt><trkpt lat="47.29348086290741" lon="-1.65047166869198"><ele>67.8</ele><time>2026-04-12T09:39:21.999Z</time></trkpt><trkpt lat="47.29343023621225" lon="-1.650636959822523"><ele>67.6</ele><time>2026-04-12T09:39:23.999Z</time></trkpt><trkpt lat="47.29338233363563" lon="-1.6508118063226815"><ele>67.4</ele><time>2026-04-12T09:39:25.999Z</time></trkpt><trkpt lat="47.29333686181092" lon="-1.6509806178525563"><ele>67.2</ele><time>2026-04-12T09:39:27.999Z</time></trkpt><trkpt lat="47.293299688070356" lon="-1.6510595753804325"><ele>67.0</ele><time>2026-04-12T09:39:28.999Z</time></trkpt><trkpt lat="47.293270351409255" lon="-1.6511546261623977"><ele>67.0</ele><time>2026-04-12T09:39:29.999Z</time></trkpt><trkpt lat="47.29324998338455" lon="-1.651249760763395"><ele>67.0</ele><time>2026-04-12T09:39:30.999Z</time></trkpt><trkpt lat="47.293202667541145" lon="-1.6514228470638872"><ele>67.0</ele><time>2026-04-12T09:39:32.999Z</time></trkpt><trkpt lat="47.29318028785968" lon="-1.6515239328161362"><ele>67.0</ele><time>2026-04-12T09:39:33.999Z</time></trkpt><trkpt lat="47.293150154917775" lon="-1.6516185645029429"><ele>67.0</ele><time>2026-04-12T09:39:34.999Z</time></trkpt><trkpt lat="47.29312593121761" lon="-1.651711855085242"><ele>67.0</ele><time>2026-04-12T09:39:35.999Z</time></trkpt><trkpt lat="47.29309194260025" lon="-1.651905141772378"><ele>66.85714285714286</ele><time>2026-04-12T09:39:37.999Z</time></trkpt><trkpt lat="47.293060217096745" lon="-1.6519911400989182"><ele>66.71428571428571</ele><time>2026-04-12T09:39:38.999Z</time></trkpt><trkpt lat="47.29302941360259" lon="-1.6520908009276278"><ele>66.57142857142857</ele><time>2026-04-12T09:39:39.999Z</time></trkpt><trkpt lat="47.2929919045859" lon="-1.6521848458812125"><ele>66.42857142857143</ele><time>2026-04-12T09:39:40.999Z</time></trkpt><trkpt lat="47.2929633642056" lon="-1.6522879432902227"><ele>66.28571428571429</ele><time>2026-04-12T09:39:41.999Z</time></trkpt><trkpt lat="47.29294794150376" lon="-1.6523953992888818"><ele>66.14285714285714</ele><time>2026-04-12T09:39:42.999Z</time></trkpt><trkpt lat="47.29291902393782" lon="-1.6525066271439683"><ele>66.0</ele><time>2026-04-12T09:39:43.999Z</time></trkpt><trkpt lat="47.292877910702764" lon="-1.6526122391239297"><ele>66.0</ele><time>2026-04-12T09:39:44.999Z</time></trkpt><trkpt lat="47.292851088612615" lon="-1.6527158394471302"><ele>66.0</ele><time>2026-04-12T09:39:45.999Z</time></trkpt><trkpt lat="47.29281735145235" lon="-1.6528158355519667"><ele>66.0</ele><time>2026-04-12T09:39:46.999Z</time></trkpt><trkpt lat="47.292778543240665" lon="-1.6529222857222454"><ele>66.0</ele><time>2026-04-12T09:39:47.999Z</time></trkpt><trkpt lat="47.29274681773716" lon="-1.6530294064447777"><ele>66.0</ele><time>2026-04-12T09:39:48.999Z</time></trkpt><trkpt lat="47.29272095956587" lon="-1.6531361080721514"><ele>66.0</ele><time>2026-04-12T09:39:49.999Z</time></trkpt><trkpt lat="47.29269120380961" lon="-1.6532460786417622"><ele>66.16666666666667</ele><time>2026-04-12T09:39:50.999Z</time></trkpt><trkpt lat="47.29265792765402" lon="-1.6533602401629586"><ele>66.33333333333333</ele><time>2026-04-12T09:39:51.999Z</time></trkpt><trkpt lat="47.292618323161534" lon="-1.6534696239993474"><ele>66.5</ele><time>2026-04-12T09:39:52.999Z</time></trkpt><trkpt lat="47.29258014359259" lon="-1.653575487436404"><ele>66.66666666666666</ele><time>2026-04-12T09:39:53.999Z</time></trkpt><trkpt lat="47.292533414482406" lon="-1.653669197113862"><ele>66.83333333333333</ele><time>2026-04-12T09:39:54.999Z</time></trkpt><trkpt lat="47.29248165623032" lon="-1.6537541057929896"><ele>67.0</ele><time>2026-04-12T09:39:55.999Z</time></trkpt><trkpt lat="47.29243170008742" lon="-1.6538375057295465"><ele>67.0</ele><time>2026-04-12T09:39:56.999Z</time></trkpt><trkpt lat="47.29237239812248" lon="-1.6539306286737825"><ele>67.0</ele><time>2026-04-12T09:39:57.999Z</time></trkpt><trkpt lat="47.29231242560529" lon="-1.6540210694090034"><ele>67.0</ele><time>2026-04-12T09:39:58.999Z</time></trkpt><trkpt lat="47.29225790132516" lon="-1.6541051398978142"><ele>67.0</ele><time>2026-04-12T09:39:59.999Z</time></trkpt><trkpt lat="47.29219285775655" lon="-1.654175883160582"><ele>67.0</ele><time>2026-04-12T09:40:00.999Z</time></trkpt><trkpt lat="47.292125299616984" lon="-1.6542614623919634"><ele>67.0</ele><time>2026-04-12T09:40:01.999Z</time></trkpt><trkpt lat="47.29207324799829" lon="-1.6543244943038133"><ele>67.0</ele><time>2026-04-12T09:40:02.999Z</time></trkpt><trkpt lat="47.29201993909412" lon="-1.6543903760627419"><ele>67.0</ele><time>2026-04-12T09:40:03.999Z</time></trkpt><trkpt lat="47.2919525066831" lon="-1.6544446069762617"><ele>67.0</ele><time>2026-04-12T09:40:04.999Z</time></trkpt><trkpt lat="47.29184924163603" lon="-1.6545448545381933"><ele>67.0</ele><time>2026-04-12T09:40:06.999Z</time></trkpt><trkpt lat="47.29174069598996" lon="-1.6546591836974534"><ele>67.0</ele><time>2026-04-12T09:40:08.999Z</time></trkpt><trkpt lat="47.29168302849614" lon="-1.6547281667605551"><ele>67.0</ele><time>2026-04-12T09:40:09.999Z</time></trkpt><trkpt lat="47.291628127030364" lon="-1.6547987423852595"><ele>67.0</ele><time>2026-04-12T09:40:10.999Z</time></trkpt><trkpt lat="47.29153944649481" lon="-1.6549180168673907"><ele>67.0</ele><time>2026-04-12T09:40:12.999Z</time></trkpt><trkpt lat="47.29144091722303" lon="-1.6550180129722272"><ele>67.0</ele><time>2026-04-12T09:40:15Z</time></trkpt><trkpt lat="47.29139121253722" lon="-1.655075848104111"><ele>67.0</ele><time>2026-04-12T09:40:16Z</time></trkpt><trkpt lat="47.291289498142234" lon="-1.6551638580874122"><ele>67.0</ele><time>2026-04-12T09:40:18Z</time></trkpt><trkpt lat="47.291234554766945" lon="-1.6552285663798965"><ele>67.0</ele><time>2026-04-12T09:40:19Z</time></trkpt><trkpt lat="47.29117600717329" lon="-1.6552797798082746"><ele>67.0</ele><time>2026-04-12T09:40:20Z</time></trkpt><trkpt lat="47.29110953868114" lon="-1.6553139779732147"><ele>67.0</ele><time>2026-04-12T09:40:21Z</time></trkpt><trkpt lat="47.29101779875093" lon="-1.6554106213167825"><ele>67.0</ele><time>2026-04-12T09:40:23Z</time></trkpt><trkpt lat="47.29092744183474" lon="-1.655522687362186"><ele>67.0</ele><time>2026-04-12T09:40:25Z</time></trkpt><trkpt lat="47.29082036302172" lon="-1.6556303948179405"><ele>67.2</ele><time>2026-04-12T09:40:27Z</time></trkpt><trkpt lat="47.29077195753091" lon="-1.6556936781868856"><ele>67.4</ele><time>2026-04-12T09:40:28Z</time></trkpt><trkpt lat="47.290724515958956" lon="-1.655777832494728"><ele>67.6</ele><time>2026-04-12T09:40:29Z</time></trkpt><trkpt lat="47.290619825988344" lon="-1.6558670159444733"><ele>67.8</ele><time>2026-04-12T09:40:31Z</time></trkpt><trkpt lat="47.29055541106247" lon="-1.6558997053668423"><ele>68.0</ele><time>2026-04-12T09:40:32Z</time></trkpt><trkpt lat="47.290473310320905" lon="-1.6560439579204247"><ele>68.16666666666667</ele><time>2026-04-12T09:40:34Z</time></trkpt><trkpt lat="47.290421007245115" lon="-1.6561335604653284"><ele>68.33333333333334</ele><time>2026-04-12T09:40:35Z</time></trkpt><trkpt lat="47.29035030589186" lon="-1.6561416070923731"><ele>68.5</ele><time>2026-04-12T09:40:36Z</time></trkpt><trkpt lat="47.290291003926924" lon="-1.6562013700619862"><ele>68.66666666666667</ele><time>2026-04-12T09:40:37Z</time></trkpt><trkpt lat="47.2902354319089" lon="-1.6563036292806792"><ele>68.83333333333333</ele><time>2026-04-12T09:40:38Z</time></trkpt><trkpt lat="47.290144991173676" lon="-1.6563828382656502"><ele>69.0</ele><time>2026-04-12T09:40:40Z</time></trkpt><trkpt lat="47.29006955404513" lon="-1.6564367339030432"><ele>69.0</ele><time>2026-04-12T09:40:41Z</time></trkpt><trkpt lat="47.28996172086083" lon="-1.6565446089968612"><ele>69.0</ele><time>2026-04-12T09:40:43Z</time></trkpt><trkpt lat="47.289858791089884" lon="-1.6566467005774905"><ele>69.0</ele><time>2026-04-12T09:40:45Z</time></trkpt><trkpt lat="47.28977032010191" lon="-1.6567392367885045"><ele>69.0</ele><time>2026-04-12T09:40:47Z</time></trkpt><trkpt lat="47.28971655019306" lon="-1.6568279173240594"><ele>69.0</ele><time>2026-04-12T09:40:50Z</time></trkpt><trkpt lat="47.28966680359774" lon="-1.6568976547584466"><ele>68.60000000000001</ele><time>2026-04-12T09:40:52Z</time></trkpt><trkpt lat="47.289588139436475" lon="-1.6569957230255539"><ele>68.2</ele><time>2026-04-12T09:40:54Z</time></trkpt><trkpt lat="47.28950704452329" lon="-1.6570954676732952"><ele>67.80000000000001</ele><time>2026-04-12T09:40:56Z</time></trkpt><trkpt lat="47.28940621022814" lon="-1.6572142392412361"><ele>67.4</ele><time>2026-04-12T09:40:58Z</time></trkpt><trkpt lat="47.28935021911495" lon="-1.6572767682388958"><ele>67.0</ele><time>2026-04-12T09:40:59Z</time></trkpt><trkpt lat="47.289242930754355" lon="-1.657386571170443"><ele>67.0</ele><time>2026-04-12T09:41:01Z</time></trkpt><trkpt lat="47.28918534707957" lon="-1.657445244492644"><ele>67.0</ele><time>2026-04-12T09:41:02Z</time></trkpt><trkpt lat="47.2890680842542" lon="-1.6575876530275284"><ele>67.0</ele><time>2026-04-12T09:41:04Z</time></trkpt><trkpt lat="47.28901200932198" lon="-1.6576547082529007"><ele>67.0</ele><time>2026-04-12T09:41:05Z</time></trkpt><trkpt lat="47.2889549704709" lon="-1.6577147226796092"><ele>67.0</ele><time>2026-04-12T09:41:06Z</time></trkpt><trkpt lat="47.28888246700846" lon="-1.6577898245320262"><ele>67.16666666666666</ele><time>2026-04-12T09:41:07Z</time></trkpt><trkpt lat="47.288821656300954" lon="-1.657878253610486"><ele>67.33333333333333</ele><time>2026-04-12T09:41:08Z</time></trkpt><trkpt lat="47.2887517512285" lon="-1.657935753466243"><ele>67.5</ele><time>2026-04-12T09:41:09Z</time></trkpt><trkpt lat="47.2886898927831" lon="-1.6579953487977925"><ele>67.66666666666667</ele><time>2026-04-12T09:41:10Z</time></trkpt><trkpt lat="47.288661897226504" lon="-1.6580849513426963"><ele>67.83333333333334</ele><time>2026-04-12T09:41:11Z</time></trkpt><trkpt lat="47.28861005515539" lon="-1.658153431491608"><ele>68.0</ele><time>2026-04-12T09:41:12Z</time></trkpt><trkpt lat="47.288539060435525" lon="-1.6581839416191524"><ele>68.0</ele><time>2026-04-12T09:41:13Z</time></trkpt><trkpt lat="47.28849480398678" lon="-1.6582665871844238"><ele>68.0</ele><time>2026-04-12T09:41:14Z</time></trkpt><trkpt lat="47.28844321337276" lon="-1.6583368275330013"><ele>68.0</ele><time>2026-04-12T09:41:15Z</time></trkpt><trkpt lat="47.28838034909897" lon="-1.6584172099844166"><ele>68.0</ele><time>2026-04-12T09:41:16Z</time></trkpt><trkpt lat="47.28832779456609" lon="-1.6585182119176336"><ele>68.0</ele><time>2026-04-12T09:41:17Z</time></trkpt><trkpt lat="47.288287351883284" lon="-1.6586065571770616"><ele>68.0</ele><time>2026-04-12T09:41:18Z</time></trkpt><trkpt lat="47.28829171047293" lon="-1.6587073076531837"><ele>67.85714285714285</ele><time>2026-04-12T09:41:19Z</time></trkpt><trkpt lat="47.288257889493636" lon="-1.6587958205506752"><ele>67.71428571428571</ele><time>2026-04-12T09:41:20Z</time></trkpt><trkpt lat="47.28824577764355" lon="-1.658926410602088"><ele>67.57142857142857</ele><time>2026-04-12T09:41:21Z</time></trkpt><trkpt lat="47.288204873956076" lon="-1.6590046975777102"><ele>67.42857142857142</ele><time>2026-04-12T09:41:22Z</time></trkpt><trkpt lat="47.288186266131035" lon="-1.6591068729773715"><ele>67.28571428571428</ele><time>2026-04-12T09:41:23Z</time></trkpt><trkpt lat="47.28815634273671" lon="-1.6591984871790364"><ele>67.14285714285714</ele><time>2026-04-12T09:41:24Z</time></trkpt><trkpt lat="47.28811912708663" lon="-1.6592936217800334"><ele>67.0</ele><time>2026-04-12T09:41:25Z</time></trkpt><trkpt lat="47.2880690871247" lon="-1.6593969706461387"><ele>67.0</ele><time>2026-04-12T09:41:26Z</time></trkpt><trkpt lat="47.288018418520025" lon="-1.6594780236498075"><ele>67.0</ele><time>2026-04-12T09:41:27Z</time></trkpt><trkpt lat="47.28794633415275" lon="-1.6595374513432937"><ele>67.0</ele><time>2026-04-12T09:41:28Z</time></trkpt><trkpt lat="47.28790911850267" lon="-1.659623114393707"><ele>67.0</ele><time>2026-04-12T09:41:29Z</time></trkpt><trkpt lat="47.28784332056277" lon="-1.6596868168578107"><ele>67.0</ele><time>2026-04-12T09:41:30Z</time></trkpt><trkpt lat="47.28777303830468" lon="-1.6597436461613138"><ele>67.0</ele><time>2026-04-12T09:41:31Z</time></trkpt><trkpt lat="47.287710760764114" lon="-1.6597947757706601"><ele>67.0</ele><time>2026-04-12T09:41:32Z</time></trkpt><trkpt lat="47.287652883722714" lon="-1.659842887894865"><ele>67.0</ele><time>2026-04-12T09:41:33Z</time></trkpt><trkpt lat="47.287598233714036" lon="-1.6599097754821739"><ele>67.0</ele><time>2026-04-12T09:41:34Z</time></trkpt><trkpt lat="47.2875489900329" lon="-1.6599678620711527"><ele>67.0</ele><time>2026-04-12T09:41:35Z</time></trkpt><trkpt lat="47.28747040969067" lon="-1.6600327380017004"><ele>67.0</ele><time>2026-04-12T09:41:36Z</time></trkpt><trkpt lat="47.287401971451274" lon="-1.6600995417699778"><ele>67.0</ele><time>2026-04-12T09:41:37Z</time></trkpt><trkpt lat="47.28734053210103" lon="-1.6601572930828297"><ele>67.0</ele><time>2026-04-12T09:41:38Z</time></trkpt><trkpt lat="47.287269621200196" lon="-1.6602239292130434"><ele>66.85714285714286</ele><time>2026-04-12T09:41:39Z</time></trkpt><trkpt lat="47.28720348798417" lon="-1.6602898109719717"><ele>66.71428571428571</ele><time>2026-04-12T09:41:40Z</time></trkpt><trkpt lat="47.287137690044275" lon="-1.6603321395829882"><ele>66.57142857142857</ele><time>2026-04-12T09:41:41Z</time></trkpt><trkpt lat="47.28706967090004" lon="-1.660363404081818"><ele>66.42857142857143</ele><time>2026-04-12T09:41:42Z</time></trkpt><trkpt lat="47.28699993346565" lon="-1.6604086663589444"><ele>66.28571428571429</ele><time>2026-04-12T09:41:43Z</time></trkpt><trkpt lat="47.28692537643694" lon="-1.6604340635255541"><ele>66.14285714285714</ele><time>2026-04-12T09:41:44Z</time></trkpt><trkpt lat="47.28685970422559" lon="-1.6604754701272215"><ele>66.0</ele><time>2026-04-12T09:41:45Z</time></trkpt><trkpt lat="47.28678292599254" lon="-1.6604856960490908"><ele>66.0</ele><time>2026-04-12T09:41:46Z</time></trkpt><trkpt lat="47.28669441309505" lon="-1.660520397128221"><ele>66.0</ele><time>2026-04-12T09:41:47Z</time></trkpt><trkpt lat="47.28662111335181" lon="-1.6605405136958329"><ele>66.0</ele><time>2026-04-12T09:41:48Z</time></trkpt><trkpt lat="47.286540982357494" lon="-1.660559037701842"><ele>66.0</ele><time>2026-04-12T09:41:49Z</time></trkpt><trkpt lat="47.28646466512912" lon="-1.6605785675362317"><ele>66.0</ele><time>2026-04-12T09:41:50Z</time></trkpt><trkpt lat="47.28638734207236" lon="-1.660597929732558"><ele>66.0</ele><time>2026-04-12T09:41:51Z</time></trkpt><trkpt lat="47.28632460352712" lon="-1.6606192197666136"><ele>65.66666666666667</ele><time>2026-04-12T09:41:52Z</time></trkpt><trkpt lat="47.28624598127537" lon="-1.6606333851829735"><ele>65.33333333333333</ele><time>2026-04-12T09:41:53Z</time></trkpt><trkpt lat="47.28616375480526" lon="-1.6606480535135237"><ele>65.0</ele><time>2026-04-12T09:41:54Z</time></trkpt><trkpt lat="47.2860821988874" lon="-1.660650065170285"><ele>64.66666666666666</ele><time>2026-04-12T09:41:55Z</time></trkpt><trkpt lat="47.28601715531879" lon="-1.6606688406333892"><ele>64.33333333333333</ele><time>2026-04-12T09:41:56Z</time></trkpt><trkpt lat="47.285948591350845" lon="-1.660666242243406"><ele>64.0</ele><time>2026-04-12T09:41:57Z</time></trkpt><trkpt lat="47.28587043010377" lon="-1.6606671642527548"><ele>64.0</ele><time>2026-04-12T09:41:58Z</time></trkpt><trkpt lat="47.28579792664134" lon="-1.6606743726894824"><ele>63.99999999999999</ele><time>2026-04-12T09:41:59Z</time></trkpt><trkpt lat="47.285715490623645" lon="-1.6606958303616015"><ele>64.0</ele><time>2026-04-12T09:42:00Z</time></trkpt><trkpt lat="47.28564629801296" lon="-1.6607246641085116"><ele>64.0</ele><time>2026-04-12T09:42:01Z</time></trkpt><trkpt lat="47.2855779435926" lon="-1.6607561800644366"><ele>63.99999999999999</ele><time>2026-04-12T09:42:02Z</time></trkpt><trkpt lat="47.28551021781497" lon="-1.66079591028547"><ele>64.0</ele><time>2026-04-12T09:42:03Z</time></trkpt><trkpt lat="47.285443414046696" lon="-1.6608345508590907"><ele>64.0</ele><time>2026-04-12T09:42:04Z</time></trkpt><trkpt lat="47.28537430525505" lon="-1.6608787234888047"><ele>63.99999999999999</ele><time>2026-04-12T09:42:05Z</time></trkpt><trkpt lat="47.28531077042901" lon="-1.6609208844617576"><ele>64.0</ele><time>2026-04-12T09:42:06Z</time></trkpt><trkpt lat="47.285256874791614" lon="-1.6609717626140088"><ele>64.0</ele><time>2026-04-12T09:42:07Z</time></trkpt><trkpt lat="47.28519388478928" lon="-1.6610199585572454"><ele>64.0</ele><time>2026-04-12T09:42:08Z</time></trkpt><trkpt lat="47.28512754202568" lon="-1.6610741056517335"><ele>63.99999999999999</ele><time>2026-04-12T09:42:09Z</time></trkpt><trkpt lat="47.28506501302801" lon="-1.6611209604904624"><ele>64.0</ele><time>2026-04-12T09:42:10Z</time></trkpt><trkpt lat="47.284939619756564" lon="-1.66122003458595"><ele>63.99999999999999</ele><time>2026-04-12T09:42:12Z</time></trkpt><trkpt lat="47.2848739056357" lon="-1.661273092033026"><ele>64.0</ele><time>2026-04-12T09:42:13Z</time></trkpt><trkpt lat="47.28481837552719" lon="-1.6613298375174974"><ele>64.0</ele><time>2026-04-12T09:42:14Z</time></trkpt><trkpt lat="47.2847494343736" lon="-1.661372669042704"><ele>64.0</ele><time>2026-04-12T09:42:15Z</time></trkpt><trkpt lat="47.284643780484124" lon="-1.6614662110820984"><ele>63.99999999999999</ele><time>2026-04-12T09:42:17Z</time></trkpt><trkpt lat="47.284571947573944" lon="-1.661505270750878"><ele>64.0</ele><time>2026-04-12T09:42:19Z</time></trkpt><trkpt lat="47.28450895757161" lon="-1.661545000971911"><ele>64.33333333333333</ele><time>2026-04-12T09:42:20Z</time></trkpt><trkpt lat="47.28445191872053" lon="-1.6616036742941118"><ele>64.66666666666666</ele><time>2026-04-12T09:42:21Z</time></trkpt><trkpt lat="47.28438741997562" lon="-1.6616574022934414"><ele>65.0</ele><time>2026-04-12T09:42:22Z</time></trkpt><trkpt lat="47.28431835309349" lon="-1.6617120523021198"><ele>65.33333333333333</ele><time>2026-04-12T09:42:23Z</time></trkpt><trkpt lat="47.284241700588986" lon="-1.6617914289251545"><ele>65.66666666666667</ele><time>2026-04-12T09:42:24Z</time></trkpt><trkpt lat="47.28414786518298" lon="-1.6618611663595417"><ele>66.0</ele><time>2026-04-12T09:42:25Z</time></trkpt><trkpt lat="47.28403839752756" lon="-1.6619480866954306"><ele>66.2</ele><time>2026-04-12T09:42:27Z</time></trkpt><trkpt lat="47.283965810246094" lon="-1.662004580722807"><ele>66.39999999999999</ele><time>2026-04-12T09:42:28Z</time></trkpt><trkpt lat="47.283906927376314" lon="-1.6620443947628718"><ele>66.6</ele><time>2026-04-12T09:42:29Z</time></trkpt><trkpt lat="47.28378576696597" lon="-1.6621460672483426"><ele>66.8</ele><time>2026-04-12T09:42:31Z</time></trkpt><trkpt lat="47.28370136120103" lon="-1.6622144635782226"><ele>67.0</ele><time>2026-04-12T09:42:32Z</time></trkpt><trkpt lat="47.2836357308992" lon="-1.662258217112778"><ele>66.66666666666666</ele><time>2026-04-12T09:42:33Z</time></trkpt><trkpt lat="47.283560503318235" lon="-1.6623301338419898"><ele>66.33333333333333</ele><time>2026-04-12T09:42:34Z</time></trkpt><trkpt lat="47.283479869409724" lon="-1.662389561535476"><ele>66.0</ele><time>2026-04-12T09:42:35Z</time></trkpt><trkpt lat="47.28341931015931" lon="-1.6624363325551732"><ele>65.66666666666667</ele><time>2026-04-12T09:42:36Z</time></trkpt><trkpt lat="47.28335141674362" lon="-1.662498274819611"><ele>65.33333333333334</ele><time>2026-04-12T09:42:37Z</time></trkpt><trkpt lat="47.28328121830456" lon="-1.6625530086473213"><ele>65.0</ele><time>2026-04-12T09:42:38Z</time></trkpt><trkpt lat="47.28321592327885" lon="-1.662610508503078"><ele>65.0</ele><time>2026-04-12T09:42:39Z</time></trkpt><trkpt lat="47.283151550262495" lon="-1.6626733727768646"><ele>65.0</ele><time>2026-04-12T09:42:40Z</time></trkpt><trkpt lat="47.28309161965482" lon="-1.6627377457932222"><ele>65.0</ele><time>2026-04-12T09:42:41Z</time></trkpt><trkpt lat="47.28300729770891" lon="-1.6627942398205984"><ele>65.0</ele><time>2026-04-12T09:42:42Z</time></trkpt><trkpt lat="47.28294275705449" lon="-1.6628416813925493"><ele>65.0</ele><time>2026-04-12T09:42:43Z</time></trkpt><trkpt lat="47.282885676293894" lon="-1.6629172861591566"><ele>65.0</ele><time>2026-04-12T09:42:44Z</time></trkpt><trkpt lat="47.282822015739306" lon="-1.6629688348636618"><ele>64.83333333333334</ele><time>2026-04-12T09:42:45Z</time></trkpt><trkpt lat="47.28273496967487" lon="-1.6630106605604877"><ele>64.66666666666667</ele><time>2026-04-12T09:42:46Z</time></trkpt><trkpt lat="47.282670261382385" lon="-1.6630757879481306"><ele>64.5</ele><time>2026-04-12T09:42:47Z</time></trkpt><trkpt lat="47.28260798384182" lon="-1.6631290968523016"><ele>64.33333333333333</ele><time>2026-04-12T09:42:48Z</time></trkpt><trkpt lat="47.28253258862279" lon="-1.6631828248516314"><ele>64.16666666666666</ele><time>2026-04-12T09:42:49Z</time></trkpt><trkpt lat="47.28246360555969" lon="-1.6632352117464535"><ele>64.0</ele><time>2026-04-12T09:42:50Z</time></trkpt><trkpt lat="47.28239847817205" lon="-1.6632735170439474"><ele>63.99999999999999</ele><time>2026-04-12T09:42:51Z</time></trkpt><trkpt lat="47.282331842041835" lon="-1.663313666360139"><ele>64.0</ele><time>2026-04-12T09:42:52Z</time></trkpt><trkpt lat="47.2822093824365" lon="-1.6634349524990315"><ele>64.0</ele><time>2026-04-12T09:42:54Z</time></trkpt><trkpt lat="47.282135956964716" lon="-1.6634953022018666"><ele>64.0</ele><time>2026-04-12T09:42:55Z</time></trkpt><trkpt lat="47.28207812183283" lon="-1.663547018544435"><ele>63.99999999999999</ele><time>2026-04-12T09:42:56Z</time></trkpt><trkpt lat="47.28200821676038" lon="-1.6635898500696416"><ele>64.0</ele><time>2026-04-12T09:42:56.999Z</time></trkpt><trkpt lat="47.28193173189394" lon="-1.6636387165651318"><ele>63.83333333333333</ele><time>2026-04-12T09:42:57.999Z</time></trkpt><trkpt lat="47.28186463475905" lon="-1.6636895108983514"><ele>63.666666666666664</ele><time>2026-04-12T09:42:58.999Z</time></trkpt><trkpt lat="47.281792382753714" lon="-1.6637424007073638"><ele>63.5</ele><time>2026-04-12T09:42:59.999Z</time></trkpt><trkpt lat="47.28172972802751" lon="-1.6638063546285626"><ele>63.33333333333333</ele><time>2026-04-12T09:43:00.999Z</time></trkpt><trkpt lat="47.2816654807397" lon="-1.6638589091614482"><ele>63.166666666666664</ele><time>2026-04-12T09:43:01.999Z</time></trkpt><trkpt lat="47.281601359180435" lon="-1.6639068536475896"><ele>63.0</ele><time>2026-04-12T09:43:02.999Z</time></trkpt><trkpt lat="47.28153585460715" lon="-1.6639564745143651"><ele>63.0</ele><time>2026-04-12T09:43:03.999Z</time></trkpt><trkpt lat="47.28146611717276" lon="-1.6640081070379018"><ele>63.0</ele><time>2026-04-12T09:43:04.999Z</time></trkpt><trkpt lat="47.28140392345123" lon="-1.664062505589485"><ele>63.0</ele><time>2026-04-12T09:43:05.999Z</time></trkpt><trkpt lat="47.28134210691534" lon="-1.6641074325904845"><ele>63.0</ele><time>2026-04-12T09:43:06.999Z</time></trkpt><trkpt lat="47.281278111084625" lon="-1.6641669441030027"><ele>63.0</ele><time>2026-04-12T09:43:07.999Z</time></trkpt><trkpt lat="47.281201123303994" lon="-1.6642143856749536"><ele>63.0</ele><time>2026-04-12T09:43:08.999Z</time></trkpt><trkpt lat="47.28113675028764" lon="-1.6642826981858017"><ele>62.833333333333336</ele><time>2026-04-12T09:43:09.999Z</time></trkpt><trkpt lat="47.28107774168931" lon="-1.6643278766438963"><ele>62.66666666666667</ele><time>2026-04-12T09:43:10.999Z</time></trkpt><trkpt lat="47.28096940559082" lon="-1.664414629341722"><ele>62.5</ele><time>2026-04-12T09:43:12.999Z</time></trkpt><trkpt lat="47.280904278203174" lon="-1.6644747275874618"><ele>62.333333333333336</ele><time>2026-04-12T09:43:13.999Z</time></trkpt><trkpt lat="47.280813627920374" lon="-1.6645320598051552"><ele>62.16666666666667</ele><time>2026-04-12T09:43:14.999Z</time></trkpt><trkpt lat="47.28074518968098" lon="-1.6645756457016472"><ele>62.0</ele><time>2026-04-12T09:43:15.999Z</time></trkpt><trkpt lat="47.28067867927931" lon="-1.6646166332081562"><ele>62.00000000000001</ele><time>2026-04-12T09:43:16.999Z</time></trkpt><trkpt lat="47.280607810288" lon="-1.66465736925757"><ele>62.0</ele><time>2026-04-12T09:43:17.999Z</time></trkpt><trkpt lat="47.2805335466259" lon="-1.6646874602899557"><ele>62.0</ele><time>2026-04-12T09:43:18.999Z</time></trkpt><trkpt lat="47.28046276145361" lon="-1.6647248435781008"><ele>62.0</ele><time>2026-04-12T09:43:19.999Z</time></trkpt><trkpt lat="47.28039457467131" lon="-1.6647494863734251"><ele>62.00000000000001</ele><time>2026-04-12T09:43:20.999Z</time></trkpt><trkpt lat="47.28032852527432" lon="-1.664779828862906"><ele>62.0</ele><time>2026-04-12T09:43:21.999Z</time></trkpt><trkpt lat="47.28019965351306" lon="-1.664856188000799"><ele>62.333333333333336</ele><time>2026-04-12T09:43:23.999Z</time></trkpt><trkpt lat="47.28013222110204" lon="-1.664888625966073"><ele>62.66666666666667</ele><time>2026-04-12T09:43:24.999Z</time></trkpt><trkpt lat="47.28000686974011" lon="-1.6649509873256692"><ele>63.0</ele><time>2026-04-12T09:43:26.999Z</time></trkpt><trkpt lat="47.27994501129471" lon="-1.6649830061957844"><ele>63.33333333333333</ele><time>2026-04-12T09:43:27.999Z</time></trkpt><trkpt lat="47.27988319475882" lon="-1.6650195512936123"><ele>63.666666666666664</ele><time>2026-04-12T09:43:28.999Z</time></trkpt><trkpt lat="47.279820079027935" lon="-1.6650368180141457"><ele>64.0</ele><time>2026-04-12T09:43:29.999Z</time></trkpt><trkpt lat="47.279701810374185" lon="-1.6650950722411881"><ele>64.66666666666666</ele><time>2026-04-12T09:43:31.999Z</time></trkpt><trkpt lat="47.279624110131785" lon="-1.665111584590436"><ele>65.33333333333333</ele><time>2026-04-12T09:43:32.999Z</time></trkpt><trkpt lat="47.27955558807336" lon="-1.6651363950238238"><ele>66.0</ele><time>2026-04-12T09:43:33.999Z</time></trkpt><trkpt lat="47.279487736567184" lon="-1.665158104153038"><ele>66.66666666666667</ele><time>2026-04-12T09:43:34.999Z</time></trkpt><trkpt lat="47.2794187954136" lon="-1.665179645644189"><ele>67.33333333333334</ele><time>2026-04-12T09:43:35.999Z</time></trkpt><trkpt lat="47.27934947707437" lon="-1.6652089823052894"><ele>68.0</ele><time>2026-04-12T09:43:36.999Z</time></trkpt><trkpt lat="47.279228107116445" lon="-1.6652589384481917"><ele>67.8</ele><time>2026-04-12T09:43:38.999Z</time></trkpt><trkpt lat="47.27916230917655" lon="-1.6652851738051186"><ele>67.6</ele><time>2026-04-12T09:43:39.999Z</time></trkpt><trkpt lat="47.279094457670375" lon="-1.6653160192087901"><ele>67.4</ele><time>2026-04-12T09:43:40.999Z</time></trkpt><trkpt lat="47.278979122682735" lon="-1.6653630416855825"><ele>67.2</ele><time>2026-04-12T09:43:42.999Z</time></trkpt><trkpt lat="47.27885167584501" lon="-1.6654139198378337"><ele>67.0</ele><time>2026-04-12T09:43:44.999Z</time></trkpt><trkpt lat="47.27873726286672" lon="-1.6654551588014377"><ele>67.0</ele><time>2026-04-12T09:43:46.999Z</time></trkpt><trkpt lat="47.27861291733317" lon="-1.6655137483046067"><ele>67.0</ele><time>2026-04-12T09:43:48.999Z</time></trkpt><trkpt lat="47.27854787376456" lon="-1.6655383072808994"><ele>67.0</ele><time>2026-04-12T09:43:49.999Z</time></trkpt><trkpt lat="47.278483877933844" lon="-1.6655597649530187"><ele>67.0</ele><time>2026-04-12T09:43:50.999Z</time></trkpt><trkpt lat="47.278355592905804" lon="-1.6656317655012622"><ele>67.0</ele><time>2026-04-12T09:43:52.999Z</time></trkpt><trkpt lat="47.27824189238928" lon="-1.6656947135940805"><ele>67.0</ele><time>2026-04-12T09:43:54.999Z</time></trkpt><trkpt lat="47.27813908834688" lon="-1.665772916750671"><ele>67.0</ele><time>2026-04-12T09:43:56.999Z</time></trkpt><trkpt lat="47.278034440285786" lon="-1.6658470965937393"><ele>67.0</ele><time>2026-04-12T09:43:58.999Z</time></trkpt><trkpt lat="47.277934695638045" lon="-1.665921108798744"><ele>67.0</ele><time>2026-04-12T09:44:00.999Z</time></trkpt><trkpt lat="47.27787212473087" lon="-1.6659504454598444"><ele>67.0</ele><time>2026-04-12T09:44:01.999Z</time></trkpt><trkpt lat="47.27776630320333" lon="-1.6660540457830448"><ele>67.2</ele><time>2026-04-12T09:44:03.999Z</time></trkpt><trkpt lat="47.277681059248074" lon="-1.6661224421129246"><ele>67.4</ele><time>2026-04-12T09:44:05.999Z</time></trkpt><trkpt lat="47.277574315711185" lon="-1.6662098653630038"><ele>67.6</ele><time>2026-04-12T09:44:07.999Z</time></trkpt><trkpt lat="47.27749695074491" lon="-1.666296450422766"><ele>67.8</ele><time>2026-04-12T09:44:09.999Z</time></trkpt><trkpt lat="47.27738417223773" lon="-1.6663757432267687"><ele>68.0</ele><time>2026-04-12T09:44:11.999Z</time></trkpt><trkpt lat="47.27729272567413" lon="-1.6664558742210887"><ele>68.2</ele><time>2026-04-12T09:44:13.999Z</time></trkpt><trkpt lat="47.27719000545076" lon="-1.6665349993870282"><ele>68.4</ele><time>2026-04-12T09:44:15.999Z</time></trkpt><trkpt lat="47.27710329466245" lon="-1.6666152980194116"><ele>68.60000000000001</ele><time>2026-04-12T09:44:17.999Z</time></trkpt><trkpt lat="47.27703980174593" lon="-1.6666778270170712"><ele>68.8</ele><time>2026-04-12T09:44:18.999Z</time></trkpt><trkpt lat="47.27698381063274" lon="-1.6667309682831788"><ele>69.0</ele><time>2026-04-12T09:44:19.999Z</time></trkpt><trkpt lat="47.27690200325779" lon="-1.6668263543412711"><ele>69.0</ele><time>2026-04-12T09:44:21.999Z</time></trkpt><trkpt lat="47.27685808208517" lon="-1.6669112630203988"><ele>69.0</ele><time>2026-04-12T09:44:22.999Z</time></trkpt><trkpt lat="47.276806240014054" lon="-1.666968343780997"><ele>69.0</ele><time>2026-04-12T09:44:23.999Z</time></trkpt><trkpt lat="47.276744213930584" lon="-1.6670927312240629"><ele>69.0</ele><time>2026-04-12T09:44:25.999Z</time></trkpt><trkpt lat="47.27666668132625" lon="-1.66721913032389"><ele>69.0</ele><time>2026-04-12T09:44:27.999Z</time></trkpt><trkpt lat="47.27661391724578" lon="-1.6672840900734693"><ele>69.0</ele><time>2026-04-12T09:44:28.999Z</time></trkpt><trkpt lat="47.27652917620472" lon="-1.6674036998317272"><ele>68.66666666666667</ele><time>2026-04-12T09:44:30.999Z</time></trkpt><trkpt lat="47.27648089644245" lon="-1.6674713417903217"><ele>68.33333333333333</ele><time>2026-04-12T09:44:31.999Z</time></trkpt><trkpt lat="47.27643555034629" lon="-1.6675420012340578"><ele>68.0</ele><time>2026-04-12T09:44:32.999Z</time></trkpt><trkpt lat="47.27635223422877" lon="-1.6676586773262057"><ele>67.66666666666666</ele><time>2026-04-12T09:44:34.999Z</time></trkpt><trkpt lat="47.276305211751975" lon="-1.6677282471225297"><ele>67.33333333333333</ele><time>2026-04-12T09:44:35.999Z</time></trkpt><trkpt lat="47.276255339428104" lon="-1.6678220406190192"><ele>67.0</ele><time>2026-04-12T09:44:36.999Z</time></trkpt><trkpt lat="47.276218417144634" lon="-1.6679131519064938"><ele>66.85714285714286</ele><time>2026-04-12T09:44:37.999Z</time></trkpt><trkpt lat="47.27618933194063" lon="-1.6680152434871234"><ele>66.71428571428571</ele><time>2026-04-12T09:44:38.999Z</time></trkpt><trkpt lat="47.276150607547976" lon="-1.668102247642044"><ele>66.57142857142857</ele><time>2026-04-12T09:44:39.999Z</time></trkpt><trkpt lat="47.2761226539009" lon="-1.6681914310917894"><ele>66.42857142857143</ele><time>2026-04-12T09:44:40.999Z</time></trkpt><trkpt lat="47.27610006467185" lon="-1.6682884935305158"><ele>66.28571428571429</ele><time>2026-04-12T09:44:41.999Z</time></trkpt><trkpt lat="47.276082630313255" lon="-1.6683853883311788"><ele>66.14285714285714</ele><time>2026-04-12T09:44:42.999Z</time></trkpt><trkpt lat="47.2760526230999" lon="-1.6684832889602226"><ele>66.0</ele><time>2026-04-12T09:44:43.999Z</time></trkpt><trkpt lat="47.27603745185516" lon="-1.6685970313862604"><ele>66.0</ele><time>2026-04-12T09:44:44.999Z</time></trkpt><trkpt lat="47.27602123287252" lon="-1.6686987038717314"><ele>66.0</ele><time>2026-04-12T09:44:45.999Z</time></trkpt><trkpt lat="47.27601125840775" lon="-1.6688020527378364"><ele>66.0</ele><time>2026-04-12T09:44:46.999Z</time></trkpt><trkpt lat="47.275988124354996" lon="-1.66889945045269"><ele>66.0</ele><time>2026-04-12T09:44:47.999Z</time></trkpt><trkpt lat="47.27596784014932" lon="-1.6689982730910824"><ele>66.0</ele><time>2026-04-12T09:44:48.999Z</time></trkpt><trkpt lat="47.27593829394064" lon="-1.6691084112987564"><ele>66.0</ele><time>2026-04-12T09:44:49.999Z</time></trkpt><trkpt lat="47.27590908300809" lon="-1.6692098323271323"><ele>66.0</ele><time>2026-04-12T09:44:50.999Z</time></trkpt><trkpt lat="47.27588636805049" lon="-1.66931184008873"><ele>66.0</ele><time>2026-04-12T09:44:51.999Z</time></trkpt><trkpt lat="47.275862772993065" lon="-1.6694119200125983"><ele>66.0</ele><time>2026-04-12T09:44:52.999Z</time></trkpt><trkpt lat="47.27584211160175" lon="-1.6695083957181027"><ele>66.0</ele><time>2026-04-12T09:44:53.999Z</time></trkpt><trkpt lat="47.27582589261911" lon="-1.6696106549367957"><ele>66.0</ele><time>2026-04-12T09:44:54.999Z</time></trkpt><trkpt lat="47.27580648851327" lon="-1.6697165183738523"><ele>66.0</ele><time>2026-04-12T09:44:55.999Z</time></trkpt><trkpt lat="47.27578897033564" lon="-1.6698252316579871"><ele>66.0</ele><time>2026-04-12T09:44:56.999Z</time></trkpt><trkpt lat="47.27575686764649" lon="-1.6699200309828575"><ele>66.0</ele><time>2026-04-12T09:44:57.999Z</time></trkpt><trkpt lat="47.27571772415868" lon="-1.670007621871"><ele>66.0</ele><time>2026-04-12T09:44:58.999Z</time></trkpt><trkpt lat="47.27567355152897" lon="-1.6701055225000438"><ele>66.0</ele><time>2026-04-12T09:44:59.999Z</time></trkpt><trkpt lat="47.27563101337037" lon="-1.6701897606269178"><ele>66.0</ele><time>2026-04-12T09:45:00.999Z</time></trkpt><trkpt lat="47.27558063813231" lon="-1.6702814586476145"><ele>66.0</ele><time>2026-04-12T09:45:01.999Z</time></trkpt><trkpt lat="47.27554262620143" lon="-1.6703662835077107"><ele>66.0</ele><time>2026-04-12T09:45:02.999Z</time></trkpt><trkpt lat="47.27548688654534" lon="-1.6704412177220642"><ele>66.0</ele><time>2026-04-12T09:45:03.999Z</time></trkpt><trkpt lat="47.27543827150694" lon="-1.670519923792845"><ele>66.0</ele><time>2026-04-12T09:45:04.999Z</time></trkpt><trkpt lat="47.275359230160035" lon="-1.6706302296385827"><ele>65.8</ele><time>2026-04-12T09:45:06.999Z</time></trkpt><trkpt lat="47.275281394948685" lon="-1.6706782431172866"><ele>65.6</ele><time>2026-04-12T09:45:08.999Z</time></trkpt><trkpt lat="47.275172062262214" lon="-1.6705611627564492"><ele>65.4</ele><time>2026-04-12T09:45:10.999Z</time></trkpt><trkpt lat="47.27513409224085" lon="-1.6704865638182222"><ele>65.2</ele><time>2026-04-12T09:45:11.999Z</time></trkpt><trkpt lat="47.27508954242549" lon="-1.6702999826536236"><ele>65.0</ele><time>2026-04-12T09:45:13.999Z</time></trkpt><trkpt lat="47.27505727209828" lon="-1.6702090390042124"><ele>65.28571428571429</ele><time>2026-04-12T09:45:14.999Z</time></trkpt><trkpt lat="47.27502651051364" lon="-1.6701206937447843"><ele>65.57142857142857</ele><time>2026-04-12T09:45:15.999Z</time></trkpt><trkpt lat="47.27499750912867" lon="-1.6700134892032201"><ele>65.85714285714286</ele><time>2026-04-12T09:45:16.999Z</time></trkpt><trkpt lat="47.27496431679211" lon="-1.6699296701715047"><ele>66.14285714285714</ele><time>2026-04-12T09:45:17.999Z</time></trkpt><trkpt lat="47.274933597116984" lon="-1.669821711258655"><ele>66.42857142857143</ele><time>2026-04-12T09:45:18.999Z</time></trkpt><trkpt lat="47.27489721965722" lon="-1.669731019066339"><ele>66.71428571428572</ele><time>2026-04-12T09:45:19.999Z</time></trkpt><trkpt lat="47.27485849526457" lon="-1.6696271672860437"><ele>67.0</ele><time>2026-04-12T09:45:20.999Z</time></trkpt><trkpt lat="47.27482915860347" lon="-1.6695394925788691"><ele>67.2</ele><time>2026-04-12T09:45:21.999Z</time></trkpt><trkpt lat="47.2748041386225" lon="-1.6694389935598424"><ele>67.4</ele><time>2026-04-12T09:45:22.999Z</time></trkpt><trkpt lat="47.27475933735005" lon="-1.6692627221361447"><ele>67.6</ele><time>2026-04-12T09:45:24.999Z</time></trkpt><trkpt lat="47.27474454329095" lon="-1.6690877918169544"><ele>67.8</ele><time>2026-04-12T09:45:26.999Z</time></trkpt><trkpt lat="47.27472727657042" lon="-1.6689929924920843"><ele>68.0</ele><time>2026-04-12T09:45:27.999Z</time></trkpt><trkpt lat="47.27465661712668" lon="-1.6688585467652126"><ele>67.66666666666667</ele><time>2026-04-12T09:45:29.999Z</time></trkpt><trkpt lat="47.27462191604755" lon="-1.6687458939865871"><ele>67.33333333333334</ele><time>2026-04-12T09:45:30.999Z</time></trkpt><trkpt lat="47.274581515274264" lon="-1.6686747316286608"><ele>67.0</ele><time>2026-04-12T09:45:31.999Z</time></trkpt><trkpt lat="47.27452338677577" lon="-1.668586805464391"><ele>66.66666666666667</ele><time>2026-04-12T09:45:32.999Z</time></trkpt><trkpt lat="47.27445985194973" lon="-1.66842453181899"><ele>66.33333333333333</ele><time>2026-04-12T09:45:34.999Z</time></trkpt><trkpt lat="47.274396568580784" lon="-1.668334929274086"><ele>66.0</ele><time>2026-04-12T09:45:36.999Z</time></trkpt><trkpt lat="47.27430453528396" lon="-1.668257480488781"><ele>66.0</ele><time>2026-04-12T09:45:37.999Z</time></trkpt><trkpt lat="47.27424950808964" lon="-1.668194197119836"><ele>66.0</ele><time>2026-04-12T09:45:38.999Z</time></trkpt><trkpt lat="47.27419406180016" lon="-1.6680720727906264"><ele>66.0</ele><time>2026-04-12T09:45:40.999Z</time></trkpt><trkpt lat="47.27410353724591" lon="-1.6679619345829524"><ele>66.0</ele><time>2026-04-12T09:45:42.999Z</time></trkpt><trkpt lat="47.27403895468197" lon="-1.6679108049736058"><ele>66.0</ele><time>2026-04-12T09:45:43.999Z</time></trkpt><trkpt lat="47.27399482396177" lon="-1.6677543148413931"><ele>65.39999999999999</ele><time>2026-04-12T09:45:44.999Z</time></trkpt><trkpt lat="47.273937114558436" lon="-1.6676642093822989"><ele>64.8</ele><time>2026-04-12T09:45:45.999Z</time></trkpt><trkpt lat="47.27385581009767" lon="-1.667565805839065"><ele>64.19999999999999</ele><time>2026-04-12T09:45:46.999Z</time></trkpt><trkpt lat="47.27379269436679" lon="-1.6674925480053457"><ele>63.599999999999994</ele><time>2026-04-12T09:45:47.999Z</time></trkpt><trkpt lat="47.27374047511003" lon="-1.6674197930858166"><ele>63.0</ele><time>2026-04-12T09:45:48.999Z</time></trkpt><trkpt lat="47.27364324503324" lon="-1.6672898735866577"><ele>63.0</ele><time>2026-04-12T09:45:50.999Z</time></trkpt><trkpt lat="47.27355422922156" lon="-1.6671845130637912"><ele>63.0</ele><time>2026-04-12T09:45:52.999Z</time></trkpt><trkpt lat="47.273463620848275" lon="-1.6670728661135463"><ele>63.0</ele><time>2026-04-12T09:45:54.999Z</time></trkpt><trkpt lat="47.273382190658964" lon="-1.6669457964614656"><ele>63.0</ele><time>2026-04-12T09:45:56.999Z</time></trkpt><trkpt lat="47.27331056729636" lon="-1.6668275278077151"><ele>62.5</ele><time>2026-04-12T09:45:58.999Z</time></trkpt><trkpt lat="47.27323554926298" lon="-1.6667051520214105"><ele>62.0</ele><time>2026-04-12T09:46:00.999Z</time></trkpt><trkpt lat="47.27317796558819" lon="-1.666574813427093"><ele>61.5</ele><time>2026-04-12T09:46:02.999Z</time></trkpt><trkpt lat="47.27311945990405" lon="-1.6663790959880374"><ele>61.0</ele><time>2026-04-12T09:46:05.999Z</time></trkpt><trkpt lat="47.273107389963485" lon="-1.666223946960332"><ele>61.0</ele><time>2026-04-12T09:46:07.999Z</time></trkpt><trkpt lat="47.273102318912066" lon="-1.6660863161102553"><ele>60.99999999999999</ele><time>2026-04-12T09:46:09.999Z</time></trkpt><trkpt lat="47.273104665844954" lon="-1.6659373696908968"><ele>60.99999999999999</ele><time>2026-04-12T09:46:11.999Z</time></trkpt><trkpt lat="47.27310604885898" lon="-1.6658269800261276"><ele>61.0</ele><time>2026-04-12T09:46:13.999Z</time></trkpt><trkpt lat="47.273110742724754" lon="-1.6656737588361517"><ele>61.0</ele><time>2026-04-12T09:46:15.999Z</time></trkpt><trkpt lat="47.27312000472776" lon="-1.6655143350378288"><ele>61.199999999999996</ele><time>2026-04-12T09:46:17.999Z</time></trkpt><trkpt lat="47.27312926673076" lon="-1.6653524804875863"><ele>61.39999999999999</ele><time>2026-04-12T09:46:19.999Z</time></trkpt><trkpt lat="47.27314003747634" lon="-1.6652085632101308"><ele>61.6</ele><time>2026-04-12T09:46:21.999Z</time></trkpt><trkpt lat="47.273137145719744" lon="-1.665039667861224"><ele>61.8</ele><time>2026-04-12T09:46:23.999Z</time></trkpt><trkpt lat="47.273131152658976" lon="-1.6648817528054722"><ele>62.0</ele><time>2026-04-12T09:46:25.999Z</time></trkpt><trkpt lat="47.273151394955136" lon="-1.6647475585356957"><ele>62.25</ele><time>2026-04-12T09:46:27.999Z</time></trkpt><trkpt lat="47.27316983514211" lon="-1.6645824350432161"><ele>62.5</ele><time>2026-04-12T09:46:29.999Z</time></trkpt><trkpt lat="47.27318048015914" lon="-1.6644062474385504"><ele>62.75</ele><time>2026-04-12T09:46:31.999Z</time></trkpt><trkpt lat="47.2731832880967" lon="-1.6642455663547517"><ele>63.0</ele><time>2026-04-12T09:46:33.999Z</time></trkpt><trkpt lat="47.27320830807767" lon="-1.6640741564348935"><ele>63.0</ele><time>2026-04-12T09:46:35.999Z</time></trkpt><trkpt lat="47.27323906966231" lon="-1.6639109607801437"><ele>63.0</ele><time>2026-04-12T09:46:37.999Z</time></trkpt><trkpt lat="47.2732411651381" lon="-1.6637540515527722"><ele>63.0</ele><time>2026-04-12T09:46:39.999Z</time></trkpt><trkpt lat="47.273259060501374" lon="-1.6635807976142163"><ele>63.0</ele><time>2026-04-12T09:46:41.999Z</time></trkpt><trkpt lat="47.273265640295364" lon="-1.6634813882426018"><ele>63.0</ele><time>2026-04-12T09:46:42.999Z</time></trkpt><trkpt lat="47.27327632722191" lon="-1.6633890196696512"><ele>63.0</ele><time>2026-04-12T09:46:43.999Z</time></trkpt><trkpt lat="47.27328852289102" lon="-1.6632923763260834"><ele>63.0</ele><time>2026-04-12T09:46:44.999Z</time></trkpt><trkpt lat="47.27329908408902" lon="-1.6631958168015473"><ele>63.0</ele><time>2026-04-12T09:46:45.999Z</time></trkpt><trkpt lat="47.27331090257249" lon="-1.6630982514486303"><ele>63.0</ele><time>2026-04-12T09:46:46.999Z</time></trkpt><trkpt lat="47.27333428808234" lon="-1.6629219800249329"><ele>63.0</ele><time>2026-04-12T09:46:48.999Z</time></trkpt><trkpt lat="47.273350926160134" lon="-1.6628253366813648"><ele>63.0</ele><time>2026-04-12T09:46:49.999Z</time></trkpt><trkpt lat="47.27336965971372" lon="-1.662721903996228"><ele>62.8</ele><time>2026-04-12T09:46:50.999Z</time></trkpt><trkpt lat="47.27338550151072" lon="-1.6626229975388036"><ele>62.599999999999994</ele><time>2026-04-12T09:46:51.999Z</time></trkpt><trkpt lat="47.27342137605629" lon="-1.6624479834005819"><ele>62.400000000000006</ele><time>2026-04-12T09:46:53.999Z</time></trkpt><trkpt lat="47.27347711571238" lon="-1.6622721310720427"><ele>62.2</ele><time>2026-04-12T09:46:55.999Z</time></trkpt><trkpt lat="47.27350984704427" lon="-1.6621825285271388"><ele>62.0</ele><time>2026-04-12T09:46:56.999Z</time></trkpt><trkpt lat="47.27354161445729" lon="-1.662091752515791"><ele>62.00000000000001</ele><time>2026-04-12T09:46:57.999Z</time></trkpt><trkpt lat="47.273590397133745" lon="-1.6619271319375017"><ele>62.0</ele><time>2026-04-12T09:46:59.999Z</time></trkpt><trkpt lat="47.27362685841254" lon="-1.661827219651697"><ele>62.0</ele><time>2026-04-12T09:47:00.999Z</time></trkpt><trkpt lat="47.27365430914543" lon="-1.6617086995408512"><ele>62.0</ele><time>2026-04-12T09:47:01.999Z</time></trkpt><trkpt lat="47.273680837868966" lon="-1.6616132296637274"><ele>62.00000000000001</ele><time>2026-04-12T09:47:02.999Z</time></trkpt><trkpt lat="47.27371935271404" lon="-1.6615204419956184"><ele>62.0</ele><time>2026-04-12T09:47:03.999Z</time></trkpt><trkpt lat="47.27375807710669" lon="-1.6614309232697462"><ele>62.0</ele><time>2026-04-12T09:47:04.999Z</time></trkpt><trkpt lat="47.27379089225761" lon="-1.661336710678098"><ele>62.00000000000001</ele><time>2026-04-12T09:47:05.999Z</time></trkpt><trkpt lat="47.27382039655677" lon="-1.6612348705545636"><ele>62.0</ele><time>2026-04-12T09:47:06.999Z</time></trkpt><trkpt lat="47.27385149341754" lon="-1.6611364670113298"><ele>62.0</ele><time>2026-04-12T09:47:07.999Z</time></trkpt><trkpt lat="47.27388342846862" lon="-1.6610409133151742"><ele>62.00000000000001</ele><time>2026-04-12T09:47:08.999Z</time></trkpt><trkpt lat="47.27391473487697" lon="-1.66094787418997"><ele>62.0</ele><time>2026-04-12T09:47:09.999Z</time></trkpt><trkpt lat="47.27393070240251" lon="-1.6608368977919787"><ele>62.0</ele><time>2026-04-12T09:47:10.999Z</time></trkpt><trkpt lat="47.27396196690134" lon="-1.660746959970948"><ele>62.2</ele><time>2026-04-12T09:47:11.999Z</time></trkpt><trkpt lat="47.27398732215843" lon="-1.6606260091081826"><ele>62.400000000000006</ele><time>2026-04-12T09:47:12.999Z</time></trkpt><trkpt lat="47.27404251699082" lon="-1.6605007834747996"><ele>62.599999999999994</ele><time>2026-04-12T09:47:14.999Z</time></trkpt><trkpt lat="47.27408912037245" lon="-1.6603435389713015"><ele>62.8</ele><time>2026-04-12T09:47:16.999Z</time></trkpt><trkpt lat="47.2741471231424" lon="-1.6601890604958498"><ele>63.0</ele><time>2026-04-12T09:47:18.999Z</time></trkpt><trkpt lat="47.27420110259882" lon="-1.660108594225403"><ele>63.0</ele><time>2026-04-12T09:47:19.999Z</time></trkpt><trkpt lat="47.274233372926034" lon="-1.6600168123856744"><ele>63.0</ele><time>2026-04-12T09:47:20.999Z</time></trkpt><trkpt lat="47.274277377917684" lon="-1.6599225997940263"><ele>63.0</ele><time>2026-04-12T09:47:21.999Z</time></trkpt><trkpt lat="47.27433471013538" lon="-1.6597682051376064"><ele>63.0</ele><time>2026-04-12T09:47:23.999Z</time></trkpt><trkpt lat="47.27436626800082" lon="-1.659671394155975"><ele>63.0</ele><time>2026-04-12T09:47:24.999Z</time></trkpt><trkpt lat="47.27442318112335" lon="-1.6595312487349467"><ele>63.166666666666664</ele><time>2026-04-12T09:47:26.999Z</time></trkpt><trkpt lat="47.27447862741283" lon="-1.659431336449142"><ele>63.33333333333333</ele><time>2026-04-12T09:47:28.999Z</time></trkpt><trkpt lat="47.274520495019175" lon="-1.6593330167249396"><ele>63.5</ele><time>2026-04-12T09:47:31.999Z</time></trkpt><trkpt lat="47.27445926521651" lon="-1.6593728307650046"><ele>63.666666666666664</ele><time>2026-04-12T09:49:13Z</time></trkpt><trkpt lat="47.27451232266358" lon="-1.6593211982414677"><ele>63.83333333333333</ele><time>2026-04-12T09:49:17Z</time></trkpt><trkpt lat="47.27458042562685" lon="-1.6592550650254443"><ele>64.0</ele><time>2026-04-12T09:49:21Z</time></trkpt><trkpt lat="47.27465305481783" lon="-1.6591792926207736"><ele>63.99999999999999</ele><time>2026-04-12T09:49:24Z</time></trkpt><trkpt lat="47.2747090040215" lon="-1.659135287629123"><ele>64.0</ele><time>2026-04-12T09:49:26Z</time></trkpt><trkpt lat="47.27479340978644" lon="-1.6590702440605116"><ele>64.0</ele><time>2026-04-12T09:49:29Z</time></trkpt><trkpt lat="47.27486415304921" lon="-1.6590236406788779"><ele>64.0</ele><time>2026-04-12T09:49:31Z</time></trkpt><trkpt lat="47.274940176910974" lon="-1.6590055357680273"><ele>63.99999999999999</ele><time>2026-04-12T09:49:33Z</time></trkpt><trkpt lat="47.275029695636846" lon="-1.6589959803984118"><ele>64.0</ele><time>2026-04-12T09:49:35Z</time></trkpt><trkpt lat="47.2751122992926" lon="-1.6589727625266266"><ele>64.33333333333333</ele><time>2026-04-12T09:49:37Z</time></trkpt><trkpt lat="47.27518178526989" lon="-1.6589478682742071"><ele>64.66666666666666</ele><time>2026-04-12T09:49:39Z</time></trkpt><trkpt lat="47.27525454018942" lon="-1.6589253209546757"><ele>65.0</ele><time>2026-04-12T09:49:41Z</time></trkpt><trkpt lat="47.27532499008558" lon="-1.6588881891236258"><ele>65.33333333333333</ele><time>2026-04-12T09:49:43Z</time></trkpt><trkpt lat="47.27540520489893" lon="-1.6588466987029264"><ele>65.66666666666667</ele><time>2026-04-12T09:49:45Z</time></trkpt><trkpt lat="47.2754785884612" lon="-1.6588232293740461"><ele>66.0</ele><time>2026-04-12T09:49:46Z</time></trkpt><trkpt lat="47.27557246577672" lon="-1.65878383442914"><ele>66.0</ele><time>2026-04-12T09:49:48Z</time></trkpt><trkpt lat="47.27567321625284" lon="-1.6587264183924149"><ele>66.0</ele><time>2026-04-12T09:49:50Z</time></trkpt><trkpt lat="47.27578297727487" lon="-1.6586610395476769"><ele>66.0</ele><time>2026-04-12T09:49:52Z</time></trkpt><trkpt lat="47.27584814657203" lon="-1.6586201358601995"><ele>66.0</ele><time>2026-04-12T09:49:53Z</time></trkpt><trkpt lat="47.27590811908922" lon="-1.6585678327844091"><ele>66.0</ele><time>2026-04-12T09:49:54Z</time></trkpt><trkpt lat="47.275975090495564" lon="-1.6585176251844116"><ele>66.0</ele><time>2026-04-12T09:49:55Z</time></trkpt><trkpt lat="47.27604005024514" lon="-1.658456269653196"><ele>65.8</ele><time>2026-04-12T09:49:56Z</time></trkpt><trkpt lat="47.2760803671994" lon="-1.6583750490114635"><ele>65.6</ele><time>2026-04-12T09:49:57Z</time></trkpt><trkpt lat="47.276131496808745" lon="-1.6582952532932704"><ele>65.4</ele><time>2026-04-12T09:49:58Z</time></trkpt><trkpt lat="47.27615995337001" lon="-1.6582030523583835"><ele>65.2</ele><time>2026-04-12T09:49:59Z</time></trkpt><trkpt lat="47.276189960583366" lon="-1.6580376774088088"><ele>65.0</ele><time>2026-04-12T09:50:01Z</time></trkpt><trkpt lat="47.27618547626517" lon="-1.6578391939417065"><ele>64.0</ele><time>2026-04-12T09:50:03Z</time></trkpt><trkpt lat="47.27618275214664" lon="-1.6577248647824467"><ele>63.0</ele><time>2026-04-12T09:50:04Z</time></trkpt><trkpt lat="47.27620085705749" lon="-1.6575467493400513"><ele>62.0</ele><time>2026-04-12T09:50:06Z</time></trkpt><trkpt lat="47.276209699965335" lon="-1.657379781828874"><ele>61.0</ele><time>2026-04-12T09:50:07.999Z</time></trkpt><trkpt lat="47.27618975103579" lon="-1.657180627809518"><ele>60.99999999999999</ele><time>2026-04-12T09:50:09.999Z</time></trkpt><trkpt lat="47.27616544351659" lon="-1.6570285800859863"><ele>61.0</ele><time>2026-04-12T09:50:11.999Z</time></trkpt><trkpt lat="47.27614117790691" lon="-1.6569158434883289"><ele>61.0</ele><time>2026-04-12T09:50:12.999Z</time></trkpt><trkpt lat="47.27611695420674" lon="-1.6568126622602872"><ele>61.0</ele><time>2026-04-12T09:50:13.999Z</time></trkpt><trkpt lat="47.27609260477803" lon="-1.6567183658496072"><ele>60.99999999999999</ele><time>2026-04-12T09:50:14.999Z</time></trkpt><trkpt lat="47.27605073717169" lon="-1.656617112459295"><ele>61.0</ele><time>2026-04-12T09:50:15.999Z</time></trkpt><trkpt lat="47.27600803137503" lon="-1.6565283481047084"><ele>60.666666666666664</ele><time>2026-04-12T09:50:16.999Z</time></trkpt><trkpt lat="47.27598686706952" lon="-1.656430028380506"><ele>60.33333333333333</ele><time>2026-04-12T09:50:17.999Z</time></trkpt><trkpt lat="47.27595698558471" lon="-1.6563328821227479"><ele>60.0</ele><time>2026-04-12T09:50:18.999Z</time></trkpt><trkpt lat="47.275939676954664" lon="-1.6562322992846892"><ele>59.66666666666667</ele><time>2026-04-12T09:50:19.999Z</time></trkpt><trkpt lat="47.27586838886819" lon="-1.6560605540887043"><ele>59.333333333333336</ele><time>2026-04-12T09:50:21.999Z</time></trkpt><trkpt lat="47.27583674718372" lon="-1.655953684823267"><ele>59.0</ele><time>2026-04-12T09:50:22.999Z</time></trkpt><trkpt lat="47.27580879353664" lon="-1.6558428760633392"><ele>58.57142857142857</ele><time>2026-04-12T09:50:23.999Z</time></trkpt><trkpt lat="47.27576659065417" lon="-1.6557505074903887"><ele>58.142857142857146</ele><time>2026-04-12T09:50:24.999Z</time></trkpt><trkpt lat="47.27575376634232" lon="-1.6556572169080894"><ele>57.714285714285715</ele><time>2026-04-12T09:50:25.999Z</time></trkpt><trkpt lat="47.27573897228322" lon="-1.6555189155057588"><ele>57.285714285714285</ele><time>2026-04-12T09:50:26.999Z</time></trkpt><trkpt lat="47.275716969787396" lon="-1.6554247029141107"><ele>56.85714285714286</ele><time>2026-04-12T09:50:27.999Z</time></trkpt><trkpt lat="47.275710515721954" lon="-1.655320683495752"><ele>56.42857142857143</ele><time>2026-04-12T09:50:28.999Z</time></trkpt><trkpt lat="47.27570259482346" lon="-1.6552107967451728"><ele>56.0</ele><time>2026-04-12T09:50:29.999Z</time></trkpt><trkpt lat="47.275687339759685" lon="-1.6549623571351681"><ele>55.8</ele><time>2026-04-12T09:50:31.999Z</time></trkpt><trkpt lat="47.27567506027154" lon="-1.654785918073407"><ele>55.599999999999994</ele><time>2026-04-12T09:50:32.999Z</time></trkpt><trkpt lat="47.27562564895234" lon="-1.654605958612314"><ele>55.4</ele><time>2026-04-12T09:50:34.999Z</time></trkpt><trkpt lat="47.27558411662213" lon="-1.654483666645041"><ele>55.2</ele><time>2026-04-12T09:50:35.999Z</time></trkpt><trkpt lat="47.27553483103148" lon="-1.6543881967679173"><ele>55.0</ele><time>2026-04-12T09:50:36.999Z</time></trkpt><trkpt lat="47.27549296342514" lon="-1.6542886197582392"><ele>54.83333333333333</ele><time>2026-04-12T09:50:37.999Z</time></trkpt><trkpt lat="47.27545679551295" lon="-1.6541918087766079"><ele>54.666666666666664</ele><time>2026-04-12T09:50:38.999Z</time></trkpt><trkpt lat="47.275407593741335" lon="-1.6540937405095006"><ele>54.5</ele><time>2026-04-12T09:50:39.999Z</time></trkpt><trkpt lat="47.275341711982406" lon="-1.6539536789075042"><ele>54.33333333333333</ele><time>2026-04-12T09:50:41.999Z</time></trkpt><trkpt lat="47.275294060862876" lon="-1.6538890544340517"><ele>54.166666666666664</ele><time>2026-04-12T09:50:42.999Z</time></trkpt><trkpt lat="47.275275453037835" lon="-1.6537846997395658"><ele>54.0</ele><time>2026-04-12T09:50:43.999Z</time></trkpt><trkpt lat="47.275215857706286" lon="-1.653621168808689"><ele>53.833333333333336</ele><time>2026-04-12T09:50:45.999Z</time></trkpt><trkpt lat="47.27516535673968" lon="-1.6535057500020167"><ele>53.66666666666667</ele><time>2026-04-12T09:50:47.999Z</time></trkpt><trkpt lat="47.275127847722985" lon="-1.6534212604180476"><ele>53.5</ele><time>2026-04-12T09:50:48.999Z</time></trkpt><trkpt lat="47.275124411142684" lon="-1.6533208452180523"><ele>53.333333333333336</ele><time>2026-04-12T09:50:49.999Z</time></trkpt><trkpt lat="47.27509838533334" lon="-1.653212299571981"><ele>53.16666666666667</ele><time>2026-04-12T09:50:51.999Z</time></trkpt><trkpt lat="47.275087866044856" lon="-1.6530501097456114"><ele>53.0</ele><time>2026-04-12T09:50:53.999Z</time></trkpt><trkpt lat="47.275094864934005" lon="-1.6529187653229134"><ele>53.0</ele><time>2026-04-12T09:50:55.999Z</time></trkpt><trkpt lat="47.275113891854204" lon="-1.6527928691372766"><ele>53.0</ele><time>2026-04-12T09:50:57.999Z</time></trkpt><trkpt lat="47.275137361183084" lon="-1.6526331938818586"><ele>53.0</ele><time>2026-04-12T09:50:59.999Z</time></trkpt><trkpt lat="47.27517725904218" lon="-1.6524709202364576"><ele>53.0</ele><time>2026-04-12T09:51:01.999Z</time></trkpt><trkpt lat="47.275220383934" lon="-1.6523374803379665"><ele>53.0</ele><time>2026-04-12T09:51:03.999Z</time></trkpt><trkpt lat="47.27527096871964" lon="-1.6522042918965707"><ele>53.2</ele><time>2026-04-12T09:51:05.999Z</time></trkpt><trkpt lat="47.27532788184217" lon="-1.652073953302253"><ele>53.4</ele><time>2026-04-12T09:51:07.999Z</time></trkpt><trkpt lat="47.27538395677439" lon="-1.6519551817343123"><ele>53.60000000000001</ele><time>2026-04-12T09:51:09.999Z</time></trkpt><trkpt lat="47.27542867422781" lon="-1.651808246971715"><ele>53.800000000000004</ele><time>2026-04-12T09:51:11.999Z</time></trkpt><trkpt lat="47.27547464896671" lon="-1.6516637429610375"><ele>54.0</ele><time>2026-04-12T09:51:13.999Z</time></trkpt><trkpt lat="47.27552862842313" lon="-1.651521334426153"><ele>54.400000000000006</ele><time>2026-04-12T09:51:15.999Z</time></trkpt><trkpt lat="47.275569238744" lon="-1.6514164768174768"><ele>54.800000000000004</ele><time>2026-04-12T09:51:17.999Z</time></trkpt><trkpt lat="47.27557481270961" lon="-1.6512966994211555"><ele>55.199999999999996</ele><time>2026-04-12T09:51:19.999Z</time></trkpt><trkpt lat="47.27556186266921" lon="-1.6511306539193271"><ele>55.599999999999994</ele><time>2026-04-12T09:51:21.999Z</time></trkpt><trkpt lat="47.275551050014116" lon="-1.6509817913190004"><ele>56.0</ele><time>2026-04-12T09:51:23.999Z</time></trkpt><trkpt lat="47.27551358290694" lon="-1.6508559789523956"><ele>56.4</ele><time>2026-04-12T09:51:25.999Z</time></trkpt><trkpt lat="47.2754812287607" lon="-1.650733267889964"><ele>56.8</ele><time>2026-04-12T09:51:27.999Z</time></trkpt><trkpt lat="47.27544828788123" lon="-1.6505946312115067"><ele>57.199999999999996</ele><time>2026-04-12T09:51:29.999Z</time></trkpt><trkpt lat="47.27541677192531" lon="-1.6504764463767878"><ele>57.599999999999994</ele><time>2026-04-12T09:51:31.999Z</time></trkpt><trkpt lat="47.27538131647489" lon="-1.6503531485811345"><ele>58.0</ele><time>2026-04-12T09:51:33.999Z</time></trkpt><trkpt lat="47.27535969116471" lon="-1.6502099856749644"><ele>58.33333333333333</ele><time>2026-04-12T09:51:35.999Z</time></trkpt><trkpt lat="47.275335467464544" lon="-1.650078725071298"><ele>58.666666666666664</ele><time>2026-04-12T09:51:37.999Z</time></trkpt><trkpt lat="47.27530881301246" lon="-1.6499403398499357"><ele>59.0</ele><time>2026-04-12T09:51:39.999Z</time></trkpt><trkpt lat="47.27530411914668" lon="-1.6498470492676365"><ele>59.33333333333333</ele><time>2026-04-12T09:51:40.999Z</time></trkpt><trkpt lat="47.275302358947016" lon="-1.6497089155033693"><ele>59.666666666666664</ele><time>2026-04-12T09:51:42.999Z</time></trkpt><trkpt lat="47.27530202367089" lon="-1.6495722066626415"><ele>60.0</ele><time>2026-04-12T09:51:44.999Z</time></trkpt><trkpt lat="47.275304077237166" lon="-1.649430049584852"><ele>60.4</ele><time>2026-04-12T09:51:46.999Z</time></trkpt><trkpt lat="47.2753041610562" lon="-1.6492842882886987"><ele>60.8</ele><time>2026-04-12T09:51:48.999Z</time></trkpt><trkpt lat="47.27529393513433" lon="-1.6491274628803592"><ele>61.2</ele><time>2026-04-12T09:51:50.999Z</time></trkpt><trkpt lat="47.27528823544017" lon="-1.6489945258960583"><ele>61.6</ele><time>2026-04-12T09:51:52.999Z</time></trkpt><trkpt lat="47.27527260319076" lon="-1.648832252250657"><ele>62.0</ele><time>2026-04-12T09:51:54.999Z</time></trkpt><trkpt lat="47.27524209306321" lon="-1.6486707329765415"><ele>61.8</ele><time>2026-04-12T09:51:56.999Z</time></trkpt><trkpt lat="47.275227089456536" lon="-1.648578029127464"><ele>61.6</ele><time>2026-04-12T09:51:57.999Z</time></trkpt><trkpt lat="47.275232160507954" lon="-1.648481469602928"><ele>61.39999999999999</ele><time>2026-04-12T09:51:58.999Z</time></trkpt><trkpt lat="47.275246912657536" lon="-1.64830176159893"><ele>61.199999999999996</ele><time>2026-04-12T09:52:00.999Z</time></trkpt><trkpt lat="47.27528211665086" lon="-1.6481368895635458"><ele>61.0</ele><time>2026-04-12T09:52:02.999Z</time></trkpt><trkpt lat="47.275315225168384" lon="-1.6479655634627193"><ele>60.83333333333333</ele><time>2026-04-12T09:52:04.999Z</time></trkpt><trkpt lat="47.2753496328809" lon="-1.6477834247068015"><ele>60.666666666666664</ele><time>2026-04-12T09:52:06.999Z</time></trkpt><trkpt lat="47.27538408250294" lon="-1.6476888768390265"><ele>60.5</ele><time>2026-04-12T09:52:07.999Z</time></trkpt><trkpt lat="47.27540876720778" lon="-1.6476002801225031"><ele>60.33333333333333</ele><time>2026-04-12T09:52:08.999Z</time></trkpt><trkpt lat="47.27543047633699" lon="-1.6475120186821068"><ele>60.166666666666664</ele><time>2026-04-12T09:52:09.999Z</time></trkpt><trkpt lat="47.27546660233966" lon="-1.6473474819228493"><ele>60.0</ele><time>2026-04-12T09:52:11.999Z</time></trkpt><trkpt lat="47.27545419712297" lon="-1.6472260281458937"><ele>60.0</ele><time>2026-04-12T09:52:12.999Z</time></trkpt><trkpt lat="47.27545679551295" lon="-1.6471196617946466"><ele>60.0</ele><time>2026-04-12T09:52:13.999Z</time></trkpt><trkpt lat="47.27546098646454" lon="-1.6470122896150192"><ele>60.0</ele><time>2026-04-12T09:52:14.999Z</time></trkpt><trkpt lat="47.27546102837405" lon="-1.6469134669766265"><ele>60.0</ele><time>2026-04-12T09:52:15.999Z</time></trkpt><trkpt lat="47.27548139639876" lon="-1.6467885766193706"><ele>60.0</ele><time>2026-04-12T09:52:16.999Z</time></trkpt><trkpt lat="47.275510984516956" lon="-1.6466812882587747"><ele>60.0</ele><time>2026-04-12T09:52:17.999Z</time></trkpt><trkpt lat="47.275529592342" lon="-1.6465651150808172"><ele>59.833333333333336</ele><time>2026-04-12T09:52:18.999Z</time></trkpt><trkpt lat="47.27555674970827" lon="-1.6464405599996879"><ele>59.66666666666667</ele><time>2026-04-12T09:52:19.999Z</time></trkpt><trkpt lat="47.27558776275001" lon="-1.6463273204878404"><ele>59.5</ele><time>2026-04-12T09:52:20.999Z</time></trkpt><trkpt lat="47.275613495192744" lon="-1.64621248841439"><ele>59.333333333333336</ele><time>2026-04-12T09:52:21.999Z</time></trkpt><trkpt lat="47.27564035919241" lon="-1.6460874304190707"><ele>59.16666666666667</ele><time>2026-04-12T09:52:22.999Z</time></trkpt><trkpt lat="47.27566504389725" lon="-1.6459761187449524"><ele>59.0</ele><time>2026-04-12T09:52:23.999Z</time></trkpt><trkpt lat="47.2756728390672" lon="-1.6458604484811852"><ele>58.833333333333336</ele><time>2026-04-12T09:52:24.999Z</time></trkpt><trkpt lat="47.275678329213775" lon="-1.6457212250695057"><ele>58.66666666666667</ele><time>2026-04-12T09:52:25.999Z</time></trkpt><trkpt lat="47.27568201725117" lon="-1.6455937363222666"><ele>58.5</ele><time>2026-04-12T09:52:26.999Z</time></trkpt><trkpt lat="47.27568654347888" lon="-1.6454737912878816"><ele>58.33333333333333</ele><time>2026-04-12T09:52:27.999Z</time></trkpt><trkpt lat="47.27569153071127" lon="-1.6453644912705248"><ele>58.166666666666664</ele><time>2026-04-12T09:52:28.999Z</time></trkpt><trkpt lat="47.2756641218879" lon="-1.6452332306668582"><ele>58.0</ele><time>2026-04-12T09:52:29.999Z</time></trkpt><trkpt lat="47.27563273166052" lon="-1.6450985334828916"><ele>58.0</ele><time>2026-04-12T09:52:31.999Z</time></trkpt><trkpt lat="47.27560339499942" lon="-1.6449414566174567"><ele>58.0</ele><time>2026-04-12T09:52:33.999Z</time></trkpt><trkpt lat="47.275590612597085" lon="-1.6447925101980982"><ele>58.0</ele><time>2026-04-12T09:52:35.999Z</time></trkpt><trkpt lat="47.27559945550493" lon="-1.6446036659196435"><ele>58.0</ele><time>2026-04-12T09:52:37.999Z</time></trkpt><trkpt lat="47.275594552091576" lon="-1.644485061989766"><ele>58.0</ele><time>2026-04-12T09:52:38.999Z</time></trkpt><trkpt lat="47.27558277551762" lon="-1.6443241294488724"><ele>58.0</ele><time>2026-04-12T09:52:40.999Z</time></trkpt><trkpt lat="47.2755647544258" lon="-1.644151629881602"><ele>58.0</ele><time>2026-04-12T09:52:42.999Z</time></trkpt><trkpt lat="47.27553583685986" lon="-1.6440158430502227"><ele>58.0</ele><time>2026-04-12T09:52:44.999Z</time></trkpt><trkpt lat="47.275505117184736" lon="-1.6438618674889616"><ele>58.0</ele><time>2026-04-12T09:52:46.999Z</time></trkpt><trkpt lat="47.275449167981066" lon="-1.6437361389413883"><ele>58.0</ele><time>2026-04-12T09:52:48.999Z</time></trkpt><trkpt lat="47.275389279282905" lon="-1.6435866896078395"><ele>58.0</ele><time>2026-04-12T09:52:50.999Z</time></trkpt><trkpt lat="47.27531757210127" lon="-1.643463727088313"><ele>58.0</ele><time>2026-04-12T09:52:52.999Z</time></trkpt><trkpt lat="47.27524305698208" lon="-1.643301118166785"><ele>58.0</ele><time>2026-04-12T09:52:54.999Z</time></trkpt><trkpt lat="47.275172146081246" lon="-1.6431675106302306"><ele>58.0</ele><time>2026-04-12T09:52:56.999Z</time></trkpt><trkpt lat="47.27510312110863" lon="-1.6430392675117058"><ele>58.0</ele><time>2026-04-12T09:52:58.999Z</time></trkpt><trkpt lat="47.27504360959611" lon="-1.642898116262297"><ele>58.0</ele><time>2026-04-12T09:53:00.999Z</time></trkpt><trkpt lat="47.27501066871665" lon="-1.64281178265963"><ele>58.0</ele><time>2026-04-12T09:53:01.999Z</time></trkpt><trkpt lat="47.27499604229561" lon="-1.6427117027357618"><ele>58.0</ele><time>2026-04-12T09:53:02.999Z</time></trkpt><trkpt lat="47.27497726683251" lon="-1.642518080772499"><ele>58.0</ele><time>2026-04-12T09:53:04.999Z</time></trkpt><trkpt lat="47.27496230513535" lon="-1.6424107085928714"><ele>58.00000000000001</ele><time>2026-04-12T09:53:05.999Z</time></trkpt><trkpt lat="47.27495702453635" lon="-1.6423106286690032"><ele>58.0</ele><time>2026-04-12T09:53:06.999Z</time></trkpt><trkpt lat="47.274963939606465" lon="-1.6422039270416295"><ele>58.00000000000001</ele><time>2026-04-12T09:53:07.999Z</time></trkpt><trkpt lat="47.27497965567491" lon="-1.6420872509494815"><ele>58.00000000000001</ele><time>2026-04-12T09:53:08.999Z</time></trkpt><trkpt lat="47.2749896720492" lon="-1.6419760230943952"><ele>58.0</ele><time>2026-04-12T09:53:09.999Z</time></trkpt><trkpt lat="47.27498724129728" lon="-1.6418818943217786"><ele>58.00000000000001</ele><time>2026-04-12T09:53:10.999Z</time></trkpt><trkpt lat="47.27499164179645" lon="-1.6417802218363078"><ele>58.00000000000001</ele><time>2026-04-12T09:53:11.999Z</time></trkpt><trkpt lat="47.2749915160679" lon="-1.641581570731142"><ele>58.0</ele><time>2026-04-12T09:53:13.999Z</time></trkpt><trkpt lat="47.274997928223826" lon="-1.6414804849788933"><ele>58.0</ele><time>2026-04-12T09:53:14.999Z</time></trkpt><trkpt lat="47.27499947887591" lon="-1.6413106676206377"><ele>58.0</ele><time>2026-04-12T09:53:16.999Z</time></trkpt><trkpt lat="47.27500237063251" lon="-1.6411397606149698"><ele>58.0</ele><time>2026-04-12T09:53:18.999Z</time></trkpt><trkpt lat="47.27501557213" lon="-1.6409594658777498"><ele>58.0</ele><time>2026-04-12T09:53:20.999Z</time></trkpt><trkpt lat="47.27501234509728" lon="-1.6408008802697442"><ele>58.2</ele><time>2026-04-12T09:53:22.999Z</time></trkpt><trkpt lat="47.27501527876339" lon="-1.6406496707365295"><ele>58.4</ele><time>2026-04-12T09:53:24.999Z</time></trkpt><trkpt lat="47.27501649413935" lon="-1.640468621628024"><ele>58.60000000000001</ele><time>2026-04-12T09:53:26.999Z</time></trkpt><trkpt lat="47.27502730679444" lon="-1.6403715591892976"><ele>58.800000000000004</ele><time>2026-04-12T09:53:27.999Z</time></trkpt><trkpt lat="47.275026971518315" lon="-1.640168130399324"><ele>59.0</ele><time>2026-04-12T09:53:29.999Z</time></trkpt><trkpt lat="47.275039628192104" lon="-1.6400257218644394"><ele>59.0</ele><time>2026-04-12T09:53:31.999Z</time></trkpt><trkpt lat="47.27506833621047" lon="-1.6398981492981686"><ele>59.00000000000001</ele><time>2026-04-12T09:53:32.999Z</time></trkpt><trkpt lat="47.27507743057541" lon="-1.6397239733502638"><ele>59.00000000000001</ele><time>2026-04-12T09:53:34.999Z</time></trkpt><trkpt lat="47.27507852022282" lon="-1.6395519766971836"><ele>59.0</ele><time>2026-04-12T09:53:36.999Z</time></trkpt><trkpt lat="47.275073910176076" lon="-1.6393912956133851"><ele>59.0</ele><time>2026-04-12T09:53:38.999Z</time></trkpt><trkpt lat="47.27508895569227" lon="-1.63921661675129"><ele>59.6</ele><time>2026-04-12T09:53:40.999Z</time></trkpt><trkpt lat="47.275089710063554" lon="-1.6390332207098965"><ele>60.2</ele><time>2026-04-12T09:53:42.999Z</time></trkpt><trkpt lat="47.27509402674369" lon="-1.6388921532795195"><ele>60.800000000000004</ele><time>2026-04-12T09:53:44.999Z</time></trkpt><trkpt lat="47.275096080309964" lon="-1.6387498285636666"><ele>61.400000000000006</ele><time>2026-04-12T09:53:46.999Z</time></trkpt><trkpt lat="47.27507860404185" lon="-1.6386005468681815"><ele>62.0</ele><time>2026-04-12T09:53:48.999Z</time></trkpt><trkpt lat="47.27506347470663" lon="-1.6384575516000748"><ele>62.0</ele><time>2026-04-12T09:53:50.999Z</time></trkpt><trkpt lat="47.27505756546489" lon="-1.6383457370117662"><ele>62.0</ele><time>2026-04-12T09:53:52.999Z</time></trkpt><trkpt lat="47.27504243612967" lon="-1.638248339296913"><ele>62.0</ele><time>2026-04-12T09:53:53.999Z</time></trkpt><trkpt lat="47.2750311624699" lon="-1.638079779224133"><ele>62.0</ele><time>2026-04-12T09:53:55.999Z</time></trkpt><trkpt lat="47.27501360238276" lon="-1.6379112191513534"><ele>62.0</ele><time>2026-04-12T09:53:57.999Z</time></trkpt><trkpt lat="47.27498652883551" lon="-1.6377660445884221"><ele>62.0</ele><time>2026-04-12T09:53:59.999Z</time></trkpt><trkpt lat="47.27495811418376" lon="-1.6376099735513678"><ele>62.0</ele><time>2026-04-12T09:54:01.999Z</time></trkpt><trkpt lat="47.27492085662416" lon="-1.63745323196206"><ele>62.0</ele><time>2026-04-12T09:54:03.999Z</time></trkpt><trkpt lat="47.27490057241849" lon="-1.6372989211246718"><ele>62.0</ele><time>2026-04-12T09:54:05.999Z</time></trkpt><trkpt lat="47.274899608499624" lon="-1.637147711591457"><ele>62.0</ele><time>2026-04-12T09:54:07.999Z</time></trkpt><trkpt lat="47.274931962645866" lon="-1.6370182111874567"><ele>61.8</ele><time>2026-04-12T09:54:09.999Z</time></trkpt><trkpt lat="47.274933890483595" lon="-1.6369121801123365"><ele>61.6</ele><time>2026-04-12T09:54:11.999Z</time></trkpt><trkpt lat="47.27489893794737" lon="-1.6368118487313732"><ele>61.39999999999999</ele><time>2026-04-12T09:54:13.999Z</time></trkpt><trkpt lat="47.27483519357375" lon="-1.6366700269297105"><ele>61.199999999999996</ele><time>2026-04-12T09:54:15.999Z</time></trkpt><trkpt lat="47.274760888002135" lon="-1.6365247685477478"><ele>61.0</ele><time>2026-04-12T09:54:17.999Z</time></trkpt><trkpt lat="47.27468947418711" lon="-1.6363801807180385"><ele>61.166666666666664</ele><time>2026-04-12T09:54:19.999Z</time></trkpt><trkpt lat="47.27464945059947" lon="-1.6363074257985095"><ele>61.33333333333333</ele><time>2026-04-12T09:54:20.999Z</time></trkpt><trkpt lat="47.27460519415072" lon="-1.6362291388228873"><ele>61.5</ele><time>2026-04-12T09:54:21.999Z</time></trkpt><trkpt lat="47.2745691938766" lon="-1.6361512709424235"><ele>61.66666666666667</ele><time>2026-04-12T09:54:22.999Z</time></trkpt><trkpt lat="47.27449111644856" lon="-1.6360067669317462"><ele>61.833333333333336</ele><time>2026-04-12T09:54:24.999Z</time></trkpt><trkpt lat="47.27445612200282" lon="-1.6359264682993626"><ele>62.0</ele><time>2026-04-12T09:54:25.999Z</time></trkpt><trkpt lat="47.274383995726026" lon="-1.6357789468035435"><ele>62.00000000000001</ele><time>2026-04-12T09:54:27.999Z</time></trkpt><trkpt lat="47.27430633739314" lon="-1.6356325987741682"><ele>62.0</ele><time>2026-04-12T09:54:29.999Z</time></trkpt><trkpt lat="47.27427750364623" lon="-1.6355470195427868"><ele>62.0</ele><time>2026-04-12T09:54:30.999Z</time></trkpt><trkpt lat="47.27424334739081" lon="-1.635464457796547"><ele>62.0</ele><time>2026-04-12T09:54:31.999Z</time></trkpt><trkpt lat="47.27421283726326" lon="-1.6353731788710089"><ele>62.00000000000001</ele><time>2026-04-12T09:54:32.999Z</time></trkpt><trkpt lat="47.27418542843989" lon="-1.6352740209564895"><ele>62.0</ele><time>2026-04-12T09:54:33.999Z</time></trkpt><trkpt lat="47.27415680424056" lon="-1.6351876035347908"><ele>61.42857142857143</ele><time>2026-04-12T09:54:34.999Z</time></trkpt><trkpt lat="47.27414004043422" lon="-1.6350959055140941"><ele>60.85714285714286</ele><time>2026-04-12T09:54:35.999Z</time></trkpt><trkpt lat="47.27411694829098" lon="-1.635000770913097"><ele>60.28571428571429</ele><time>2026-04-12T09:54:36.999Z</time></trkpt><trkpt lat="47.274093017957426" lon="-1.634895578028294"><ele>59.71428571428572</ele><time>2026-04-12T09:54:37.999Z</time></trkpt><trkpt lat="47.27407449395142" lon="-1.6347992699608531"><ele>59.142857142857146</ele><time>2026-04-12T09:54:38.999Z</time></trkpt><trkpt lat="47.274060244716026" lon="-1.6346924006954158"><ele>58.571428571428584</ele><time>2026-04-12T09:54:39.999Z</time></trkpt><trkpt lat="47.27404201407663" lon="-1.6345925722286427"><ele>58.00000000000001</ele><time>2026-04-12T09:54:40.999Z</time></trkpt><trkpt lat="47.27402734574608" lon="-1.6344792488977633"><ele>57.83333333333333</ele><time>2026-04-12T09:54:41.999Z</time></trkpt><trkpt lat="47.274012509777464" lon="-1.6343576274827443"><ele>57.666666666666664</ele><time>2026-04-12T09:54:42.999Z</time></trkpt><trkpt lat="47.27399159692905" lon="-1.6342502553031166"><ele>57.5</ele><time>2026-04-12T09:54:43.999Z</time></trkpt><trkpt lat="47.27398007181219" lon="-1.634144727142187"><ele>57.33333333333333</ele><time>2026-04-12T09:54:44.999Z</time></trkpt><trkpt lat="47.27395140570334" lon="-1.6340281348690706"><ele>57.166666666666664</ele><time>2026-04-12T09:54:45.999Z</time></trkpt><trkpt lat="47.27392722391269" lon="-1.6339174937472063"><ele>57.0</ele><time>2026-04-12T09:54:46.999Z</time></trkpt><trkpt lat="47.27387140043757" lon="-1.6337216086700872"><ele>56.666666666666664</ele><time>2026-04-12T09:54:48.999Z</time></trkpt><trkpt lat="47.273846254728056" lon="-1.6336061060443834"><ele>56.33333333333333</ele><time>2026-04-12T09:54:49.999Z</time></trkpt><trkpt lat="47.27382316258482" lon="-1.633493620903821"><ele>56.0</ele><time>2026-04-12T09:54:50.999Z</time></trkpt><trkpt lat="47.273790724619545" lon="-1.6334087122246934"><ele>55.666666666666664</ele><time>2026-04-12T09:54:51.999Z</time></trkpt><trkpt lat="47.273766752376474" lon="-1.633300669492812"><ele>55.33333333333333</ele><time>2026-04-12T09:54:52.999Z</time></trkpt><trkpt lat="47.27372488477013" lon="-1.6331898607328843"><ele>55.0</ele><time>2026-04-12T09:54:53.999Z</time></trkpt><trkpt lat="47.27370631885461" lon="-1.6330777946874806"><ele>54.99999999999999</ele><time>2026-04-12T09:54:54.999Z</time></trkpt><trkpt lat="47.27369341072372" lon="-1.6329665668323943"><ele>55.0</ele><time>2026-04-12T09:54:55.999Z</time></trkpt><trkpt lat="47.27366088893942" lon="-1.6328392457232184"><ele>55.0</ele><time>2026-04-12T09:54:56.998Z</time></trkpt><trkpt lat="47.27364165247164" lon="-1.6327054705486006"><ele>55.0</ele><time>2026-04-12T09:54:57.998Z</time></trkpt><trkpt lat="47.27362170354209" lon="-1.6325980145499412"><ele>54.99999999999999</ele><time>2026-04-12T09:54:58.998Z</time></trkpt><trkpt lat="47.273587170101024" lon="-1.6324793268010322"><ele>55.0</ele><time>2026-04-12T09:54:59.998Z</time></trkpt><trkpt lat="47.273561060472645" lon="-1.6323614772424402"><ele>54.99999999999999</ele><time>2026-04-12T09:55:00.998Z</time></trkpt><trkpt lat="47.27355611514977" lon="-1.6322617325946989"><ele>55.0</ele><time>2026-04-12T09:55:01.998Z</time></trkpt><trkpt lat="47.2735331906446" lon="-1.6321510076538026"><ele>55.0</ele><time>2026-04-12T09:55:02.998Z</time></trkpt><trkpt lat="47.273494675799526" lon="-1.6320203337833583"><ele>55.0</ele><time>2026-04-12T09:55:03.998Z</time></trkpt><trkpt lat="47.273467266976155" lon="-1.6319029871389565"><ele>54.99999999999999</ele><time>2026-04-12T09:55:04.998Z</time></trkpt><trkpt lat="47.27343948096714" lon="-1.6317895799890456"><ele>55.0</ele><time>2026-04-12T09:55:05.998Z</time></trkpt><trkpt lat="47.27340469606898" lon="-1.6316862311229405"><ele>54.83333333333333</ele><time>2026-04-12T09:55:06.998Z</time></trkpt><trkpt lat="47.27337657478384" lon="-1.6315842233613427"><ele>54.666666666666664</ele><time>2026-04-12T09:55:07.998Z</time></trkpt><trkpt lat="47.27334518455646" lon="-1.6314690560117657"><ele>54.5</ele><time>2026-04-12T09:55:08.998Z</time></trkpt><trkpt lat="47.273344346366144" lon="-1.631341064350336"><ele>54.33333333333333</ele><time>2026-04-12T09:55:09.998Z</time></trkpt><trkpt lat="47.27331513543359" lon="-1.6312338598087721"><ele>54.166666666666664</ele><time>2026-04-12T09:55:10.998Z</time></trkpt><trkpt lat="47.273301347202874" lon="-1.631119530649512"><ele>54.0</ele><time>2026-04-12T09:55:11.998Z</time></trkpt><trkpt lat="47.27327377074144" lon="-1.6310093086228064"><ele>53.666666666666664</ele><time>2026-04-12T09:55:12.998Z</time></trkpt><trkpt lat="47.273248122117735" lon="-1.6308969911203075"><ele>53.33333333333333</ele><time>2026-04-12T09:55:13.998Z</time></trkpt><trkpt lat="47.273210780739106" lon="-1.6307857632652212"><ele>53.0</ele><time>2026-04-12T09:55:14.998Z</time></trkpt><trkpt lat="47.27318990980021" lon="-1.6306747868672298"><ele>52.666666666666664</ele><time>2026-04-12T09:55:15.998Z</time></trkpt><trkpt lat="47.2731565917351" lon="-1.630571354182093"><ele>52.33333333333333</ele><time>2026-04-12T09:55:16.998Z</time></trkpt><trkpt lat="47.273121848746456" lon="-1.6304597072318479"><ele>52.0</ele><time>2026-04-12T09:55:17.998Z</time></trkpt><trkpt lat="47.273079478225924" lon="-1.6303628124311849"><ele>51.83333333333333</ele><time>2026-04-12T09:55:18.998Z</time></trkpt><trkpt lat="47.27303857453845" lon="-1.6302674263730927"><ele>51.666666666666664</ele><time>2026-04-12T09:55:19.998Z</time></trkpt><trkpt lat="47.273010369434274" lon="-1.6301737166956347"><ele>51.5</ele><time>2026-04-12T09:55:20.998Z</time></trkpt><trkpt lat="47.27299297698519" lon="-1.6300562862322014"><ele>51.33333333333333</ele><time>2026-04-12T09:55:21.998Z</time></trkpt><trkpt lat="47.27298916321925" lon="-1.6299324017033259"><ele>51.166666666666664</ele><time>2026-04-12T09:55:22.998Z</time></trkpt><trkpt lat="47.2730046278306" lon="-1.62982754409465"><ele>51.0</ele><time>2026-04-12T09:55:23.998Z</time></trkpt><trkpt lat="47.27298543327234" lon="-1.6297194175437368"><ele>51.0</ele><time>2026-04-12T09:55:24.998Z</time></trkpt><trkpt lat="47.27295840163461" lon="-1.6296141408399023"><ele>51.0</ele><time>2026-04-12T09:55:25.998Z</time></trkpt><trkpt lat="47.27295119319788" lon="-1.6295088641360675"><ele>51.0</ele><time>2026-04-12T09:55:26.998Z</time></trkpt><trkpt lat="47.27292403583161" lon="-1.6294038388893282"><ele>51.0</ele><time>2026-04-12T09:55:27.998Z</time></trkpt><trkpt lat="47.272889670028604" lon="-1.629289258272973"><ele>51.0</ele><time>2026-04-12T09:55:28.998Z</time></trkpt><trkpt lat="47.27286071055315" lon="-1.6291796229794893"><ele>51.0</ele><time>2026-04-12T09:55:29.998Z</time></trkpt><trkpt lat="47.27284092926166" lon="-1.6290648747250709"><ele>50.666666666666664</ele><time>2026-04-12T09:55:30.998Z</time></trkpt><trkpt lat="47.27282496173612" lon="-1.6289650462582976"><ele>50.33333333333333</ele><time>2026-04-12T09:55:31.998Z</time></trkpt><trkpt lat="47.2727879137241" lon="-1.628859182821241"><ele>50.0</ele><time>2026-04-12T09:55:32.998Z</time></trkpt><trkpt lat="47.27276209746233" lon="-1.628747200594869"><ele>49.666666666666664</ele><time>2026-04-12T09:55:33.998Z</time></trkpt><trkpt lat="47.27273489818654" lon="-1.628619125114408"><ele>49.33333333333333</ele><time>2026-04-12T09:55:34.998Z</time></trkpt><trkpt lat="47.272708369463004" lon="-1.628503287212577"><ele>49.0</ele><time>2026-04-12T09:55:35.998Z</time></trkpt><trkpt lat="47.27267827843062" lon="-1.6283941548332836"><ele>48.666666666666664</ele><time>2026-04-12T09:55:36.998Z</time></trkpt><trkpt lat="47.272647852122105" lon="-1.6282863635584974"><ele>48.33333333333333</ele><time>2026-04-12T09:55:37.998Z</time></trkpt><trkpt lat="47.27260724180124" lon="-1.6281958390042448"><ele>48.0</ele><time>2026-04-12T09:55:38.998Z</time></trkpt><trkpt lat="47.27258427538655" lon="-1.6280803363785408"><ele>47.666666666666664</ele><time>2026-04-12T09:55:39.998Z</time></trkpt><trkpt lat="47.27256734394214" lon="-1.6279702819898985"><ele>47.33333333333333</ele><time>2026-04-12T09:55:40.998Z</time></trkpt><trkpt lat="47.27253926456652" lon="-1.6278696153328083"><ele>47.0</ele><time>2026-04-12T09:55:41.998Z</time></trkpt><trkpt lat="47.27251164619557" lon="-1.627710862086739"><ele>47.0</ele><time>2026-04-12T09:55:43.998Z</time></trkpt><trkpt lat="47.27246449799023" lon="-1.627526460216965"><ele>47.0</ele><time>2026-04-12T09:55:45.998Z</time></trkpt><trkpt lat="47.27244312413714" lon="-1.6274320799872535"><ele>47.0</ele><time>2026-04-12T09:55:46.998Z</time></trkpt><trkpt lat="47.27240993180058" lon="-1.6272431518897668"><ele>47.0</ele><time>2026-04-12T09:55:48.998Z</time></trkpt><trkpt lat="47.27238411553881" lon="-1.627134019510473"><ele>47.0</ele><time>2026-04-12T09:55:49.998Z</time></trkpt><trkpt lat="47.27233453658155" lon="-1.6269656270757569"><ele>46.6</ele><time>2026-04-12T09:55:51.998Z</time></trkpt><trkpt lat="47.27228185632012" lon="-1.626815926285113"><ele>46.2</ele><time>2026-04-12T09:55:53.998Z</time></trkpt><trkpt lat="47.27225847081027" lon="-1.6266538202777752"><ele>45.8</ele><time>2026-04-12T09:55:55.998Z</time></trkpt><trkpt lat="47.272245856046" lon="-1.6265521477923044"><ele>45.4</ele><time>2026-04-12T09:55:56.998Z</time></trkpt><trkpt lat="47.27220478472046" lon="-1.626373445616687"><ele>45.0</ele><time>2026-04-12T09:55:58.998Z</time></trkpt><trkpt lat="47.27215114054016" lon="-1.6262309532627708"><ele>46.2</ele><time>2026-04-12T09:56:00.998Z</time></trkpt><trkpt lat="47.272109398662366" lon="-1.6260580346003417"><ele>47.4</ele><time>2026-04-12T09:56:02.998Z</time></trkpt><trkpt lat="47.27206665095619" lon="-1.6258818469956757"><ele>48.599999999999994</ele><time>2026-04-12T09:56:04.998Z</time></trkpt><trkpt lat="47.27202591490678" lon="-1.62569736130687"><ele>49.8</ele><time>2026-04-12T09:56:06.998Z</time></trkpt><trkpt lat="47.272001146382905" lon="-1.6256080102190613"><ele>51.0</ele><time>2026-04-12T09:56:07.998Z</time></trkpt><trkpt lat="47.27196183525703" lon="-1.6254384443179009"><ele>51.0</ele><time>2026-04-12T09:56:09.998Z</time></trkpt><trkpt lat="47.271941341503776" lon="-1.6253433935359356"><ele>51.0</ele><time>2026-04-12T09:56:10.998Z</time></trkpt><trkpt lat="47.27191351358525" lon="-1.6252440679833526"><ele>51.0</ele><time>2026-04-12T09:56:11.998Z</time></trkpt><trkpt lat="47.27188962516121" lon="-1.625150023029768"><ele>51.0</ele><time>2026-04-12T09:56:12.998Z</time></trkpt><trkpt lat="47.27186711975119" lon="-1.6250577382758493"><ele>51.0</ele><time>2026-04-12T09:56:13.998Z</time></trkpt><trkpt lat="47.27185006257824" lon="-1.6249568201616638"><ele>51.0</ele><time>2026-04-12T09:56:14.998Z</time></trkpt><trkpt lat="47.271822569935836" lon="-1.6248675528928869"><ele>51.0</ele><time>2026-04-12T09:56:15.998Z</time></trkpt><trkpt lat="47.271757735914804" lon="-1.6247216239586701"><ele>50.57142857142857</ele><time>2026-04-12T09:56:17.998Z</time></trkpt><trkpt lat="47.271712389818646" lon="-1.6246476955726972"><ele>50.142857142857146</ele><time>2026-04-12T09:56:18.999Z</time></trkpt><trkpt lat="47.27167856883935" lon="-1.6245565004661908"><ele>49.71428571428571</ele><time>2026-04-12T09:56:19.999Z</time></trkpt><trkpt lat="47.271645208864726" lon="-1.62447536364349"><ele>49.285714285714285</ele><time>2026-04-12T09:56:20.999Z</time></trkpt><trkpt lat="47.27160103623501" lon="-1.6243835818037617"><ele>48.857142857142854</ele><time>2026-04-12T09:56:21.999Z</time></trkpt><trkpt lat="47.27156658661298" lon="-1.62429749965819"><ele>48.42857142857142</ele><time>2026-04-12T09:56:22.999Z</time></trkpt><trkpt lat="47.2715256829255" lon="-1.6242184583112822"><ele>48.0</ele><time>2026-04-12T09:56:23.999Z</time></trkpt><trkpt lat="47.27149441842667" lon="-1.62412013858708"><ele>47.833333333333336</ele><time>2026-04-12T09:56:24.999Z</time></trkpt><trkpt lat="47.27144618057392" lon="-1.6240374930218084"><ele>47.666666666666664</ele><time>2026-04-12T09:56:25.999Z</time></trkpt><trkpt lat="47.27140636653385" lon="-1.623941604049526"><ele>47.5</ele><time>2026-04-12T09:56:27Z</time></trkpt><trkpt lat="47.27134601683102" lon="-1.6238543484375103"><ele>47.33333333333333</ele><time>2026-04-12T09:56:28Z</time></trkpt><trkpt lat="47.27128327828578" lon="-1.6237847786411863"><ele>47.166666666666664</ele><time>2026-04-12T09:56:29Z</time></trkpt><trkpt lat="47.2712278319963" lon="-1.6237311344608885"><ele>47.0</ele><time>2026-04-12T09:56:30Z</time></trkpt><trkpt lat="47.27117355917326" lon="-1.6236583795413595"><ele>46.400000000000006</ele><time>2026-04-12T09:56:31Z</time></trkpt><trkpt lat="47.271138941913165" lon="-1.6235622391119817"><ele>45.800000000000004</ele><time>2026-04-12T09:56:32Z</time></trkpt><trkpt lat="47.27109355390749" lon="-1.6234185732916215"><ele>45.2</ele><time>2026-04-12T09:56:34Z</time></trkpt><trkpt lat="47.271042717664756" lon="-1.6232630051687575"><ele>44.6</ele><time>2026-04-12T09:56:36Z</time></trkpt><trkpt lat="47.271090368784286" lon="-1.6231466643527366"><ele>44.0</ele><time>2026-04-12T09:56:38Z</time></trkpt><trkpt lat="47.271198327697135" lon="-1.623061671854577"><ele>44.0</ele><time>2026-04-12T09:56:40Z</time></trkpt><trkpt lat="47.271266304931856" lon="-1.6230294015273665"><ele>44.0</ele><time>2026-04-12T09:56:41Z</time></trkpt><trkpt lat="47.27137191691182" lon="-1.622867546977124"><ele>44.0</ele><time>2026-04-12T09:56:43Z</time></trkpt><trkpt lat="47.271407665728844" lon="-1.6227871645257088"><ele>44.0</ele><time>2026-04-12T09:56:44Z</time></trkpt><trkpt lat="47.27143888831816" lon="-1.6226841509357306"><ele>44.0</ele><time>2026-04-12T09:56:45Z</time></trkpt><trkpt lat="47.27147015281699" lon="-1.6225955542192072"><ele>44.0</ele><time>2026-04-12T09:56:46Z</time></trkpt><trkpt lat="47.27152295880697" lon="-1.6224290896222204"><ele>42.83333333333333</ele><time>2026-04-12T09:56:48Z</time></trkpt><trkpt lat="47.271556193053044" lon="-1.6223383974299042"><ele>41.666666666666664</ele><time>2026-04-12T09:56:49Z</time></trkpt><trkpt lat="47.271584523885764" lon="-1.622244520114383"><ele>40.5</ele><time>2026-04-12T09:56:50Z</time></trkpt><trkpt lat="47.27163251028142" lon="-1.6221644729390947"><ele>39.333333333333336</ele><time>2026-04-12T09:56:51Z</time></trkpt><trkpt lat="47.27166142784736" lon="-1.6220560949310865"><ele>38.16666666666667</ele><time>2026-04-12T09:56:52Z</time></trkpt><trkpt lat="47.271708156957544" lon="-1.6219559311881866"><ele>37.0</ele><time>2026-04-12T09:56:53Z</time></trkpt><trkpt lat="47.271738708994604" lon="-1.6218507383033836"><ele>36.85714285714286</ele><time>2026-04-12T09:56:54Z</time></trkpt><trkpt lat="47.27176867429844" lon="-1.6217438690379464"><ele>36.714285714285715</ele><time>2026-04-12T09:56:55Z</time></trkpt><trkpt lat="47.27180157326839" lon="-1.6216371674105725"><ele>36.57142857142857</ele><time>2026-04-12T09:56:56Z</time></trkpt><trkpt lat="47.271821773655034" lon="-1.621519820766171"><ele>36.42857142857143</ele><time>2026-04-12T09:56:57Z</time></trkpt><trkpt lat="47.27185148750178" lon="-1.6214215848610003"><ele>36.285714285714285</ele><time>2026-04-12T09:56:58Z</time></trkpt><trkpt lat="47.27188572757623" lon="-1.6213376820102532"><ele>36.142857142857146</ele><time>2026-04-12T09:56:59Z</time></trkpt><trkpt lat="47.27191669870845" lon="-1.621247911827286"><ele>36.0</ele><time>2026-04-12T09:57:00Z</time></trkpt><trkpt lat="47.27194289215586" lon="-1.6210604086533384"><ele>35.8</ele><time>2026-04-12T09:57:02Z</time></trkpt><trkpt lat="47.271938617385246" lon="-1.620888160543163"><ele>35.6</ele><time>2026-04-12T09:57:04Z</time></trkpt><trkpt lat="47.27192239840261" lon="-1.6207321733251407"><ele>35.4</ele><time>2026-04-12T09:57:06Z</time></trkpt><trkpt lat="47.27192998402498" lon="-1.6205849032864166"><ele>35.2</ele><time>2026-04-12T09:57:08Z</time></trkpt><trkpt lat="47.27191376504234" lon="-1.6204618569478582"><ele>35.0</ele><time>2026-04-12T09:57:10Z</time></trkpt><trkpt lat="47.27185986940495" lon="-1.6203449293986152"><ele>35.4</ele><time>2026-04-12T09:57:12Z</time></trkpt><trkpt lat="47.27178405509076" lon="-1.620240742342193"><ele>35.8</ele><time>2026-04-12T09:57:14Z</time></trkpt><trkpt lat="47.27171498820863" lon="-1.6201364714667388"><ele>36.2</ele><time>2026-04-12T09:57:16Z</time></trkpt><trkpt lat="47.27164043117992" lon="-1.6200170293465443"><ele>36.6</ele><time>2026-04-12T09:57:18Z</time></trkpt><trkpt lat="47.27158142258159" lon="-1.6198972519502228"><ele>37.0</ele><time>2026-04-12T09:57:20Z</time></trkpt><trkpt lat="47.271504183343865" lon="-1.6197972558453864"><ele>36.6</ele><time>2026-04-12T09:57:22Z</time></trkpt><trkpt lat="47.27143796630881" lon="-1.6196681745365444"><ele>36.2</ele><time>2026-04-12T09:57:24Z</time></trkpt><trkpt lat="47.271374766758896" lon="-1.6195971798166815"><ele>35.8</ele><time>2026-04-12T09:57:25Z</time></trkpt><trkpt lat="47.2712960187786" lon="-1.619479162620026"><ele>35.4</ele><time>2026-04-12T09:57:27Z</time></trkpt><trkpt lat="47.27120608095757" lon="-1.6193705331549229"><ele>35.0</ele><time>2026-04-12T09:57:29Z</time></trkpt><trkpt lat="47.27115813647143" lon="-1.6192839480951606"><ele>36.33333333333333</ele><time>2026-04-12T09:57:31Z</time></trkpt><trkpt lat="47.271112622737206" lon="-1.6191637516036808"><ele>37.666666666666664</ele><time>2026-04-12T09:57:33Z</time></trkpt><trkpt lat="47.27109828968278" lon="-1.619072388859111"><ele>39.0</ele><time>2026-04-12T09:57:34Z</time></trkpt><trkpt lat="47.271070838949896" lon="-1.618965687231737"><ele>40.333333333333336</ele><time>2026-04-12T09:57:36Z</time></trkpt><trkpt lat="47.271038778170265" lon="-1.618876755239087"><ele>41.66666666666667</ele><time>2026-04-12T09:57:38Z</time></trkpt><trkpt lat="47.27102297828279" lon="-1.6187811177238995"><ele>43.0</ele><time>2026-04-12T09:57:40Z</time></trkpt><trkpt lat="47.27101304572753" lon="-1.618649940939265"><ele>43.16666666666667</ele><time>2026-04-12T09:57:42Z</time></trkpt><trkpt lat="47.27094343402169" lon="-1.6185771022007043"><ele>43.333333333333336</ele><time>2026-04-12T09:57:45Z</time></trkpt><trkpt lat="47.270865985236384" lon="-1.6185969673112208"><ele>43.5</ele><time>2026-04-12T09:57:47Z</time></trkpt><trkpt lat="47.2707806574621" lon="-1.6186084505185658"><ele>43.666666666666664</ele><time>2026-04-12T09:57:49Z</time></trkpt><trkpt lat="47.27070081983439" lon="-1.618583640085178"><ele>43.83333333333333</ele><time>2026-04-12T09:57:51Z</time></trkpt><trkpt lat="47.27063233968548" lon="-1.618511723355966"><ele>44.0</ele><time>2026-04-12T09:57:53Z</time></trkpt><trkpt lat="47.27056398526511" lon="-1.6184288263335995"><ele>44.0</ele><time>2026-04-12T09:57:55Z</time></trkpt><trkpt lat="47.2705026297339" lon="-1.6183511260911994"><ele>44.0</ele><time>2026-04-12T09:57:57Z</time></trkpt><trkpt lat="47.270447602539576" lon="-1.6182699892684986"><ele>44.0</ele><time>2026-04-12T09:57:59Z</time></trkpt><trkpt lat="47.27039332971654" lon="-1.618182985113578"><ele>44.0</ele><time>2026-04-12T09:58:01Z</time></trkpt><trkpt lat="47.27033549458466" lon="-1.618099668996053"><ele>44.0</ele><time>2026-04-12T09:58:03Z</time></trkpt><trkpt lat="47.27026856508783" lon="-1.6180062945947218"><ele>44.0</ele><time>2026-04-12T09:58:05Z</time></trkpt><trkpt lat="47.27021487899802" lon="-1.617921721191721"><ele>44.0</ele><time>2026-04-12T09:58:07Z</time></trkpt><trkpt lat="47.27016496476463" lon="-1.617841254921274"><ele>44.0</ele><time>2026-04-12T09:58:09Z</time></trkpt><trkpt lat="47.2701181099259" lon="-1.6177493892625139"><ele>44.0</ele><time>2026-04-12T09:58:11Z</time></trkpt><trkpt lat="47.270086929246105" lon="-1.6176534164711998"><ele>44.0</ele><time>2026-04-12T09:58:13Z</time></trkpt><trkpt lat="47.2700594366037" lon="-1.6175612993553443"><ele>44.0</ele><time>2026-04-12T09:58:15Z</time></trkpt><trkpt lat="47.270021466582335" lon="-1.6174623090788884"><ele>44.0</ele><time>2026-04-12T09:58:17Z</time></trkpt><trkpt lat="47.26998663977466" lon="-1.6173628997072738"><ele>44.0</ele><time>2026-04-12T09:58:19Z</time></trkpt><trkpt lat="47.26995709356598" lon="-1.6172535158708852"><ele>44.666666666666664</ele><time>2026-04-12T09:58:21Z</time></trkpt><trkpt lat="47.2699420899593" lon="-1.6171301342562"><ele>45.33333333333333</ele><time>2026-04-12T09:58:23Z</time></trkpt><trkpt lat="47.26991820153526" lon="-1.6170251090094605"><ele>46.0</ele><time>2026-04-12T09:58:25Z</time></trkpt><trkpt lat="47.26989800114862" lon="-1.6169099416598836"><ele>46.666666666666664</ele><time>2026-04-12T09:58:27Z</time></trkpt><trkpt lat="47.26988048297099" lon="-1.6168001387283362"><ele>47.333333333333336</ele><time>2026-04-12T09:58:29Z</time></trkpt><trkpt lat="47.26985986348919" lon="-1.6167007293567217"><ele>48.0</ele><time>2026-04-12T09:58:31Z</time></trkpt><trkpt lat="47.26984791927717" lon="-1.6165678761914526"><ele>48.333333333333336</ele><time>2026-04-12T09:58:33Z</time></trkpt><trkpt lat="47.269834131046444" lon="-1.61643728614004"><ele>48.66666666666667</ele><time>2026-04-12T09:58:35Z</time></trkpt><trkpt lat="47.269820468544275" lon="-1.6163266450181755"><ele>49.0</ele><time>2026-04-12T09:58:37Z</time></trkpt><trkpt lat="47.269794861830086" lon="-1.616190439091638"><ele>49.333333333333336</ele><time>2026-04-12T09:58:40Z</time></trkpt><trkpt lat="47.269780612594694" lon="-1.6160974837854654"><ele>49.66666666666667</ele><time>2026-04-12T09:58:41Z</time></trkpt><trkpt lat="47.26976405833593" lon="-1.615977706389144"><ele>50.0</ele><time>2026-04-12T09:58:43Z</time></trkpt><trkpt lat="47.269738200164646" lon="-1.615863712506011"><ele>50.00000000000001</ele><time>2026-04-12T09:58:45Z</time></trkpt><trkpt lat="47.269729315347284" lon="-1.6157602798208741"><ele>50.0</ele><time>2026-04-12T09:58:47Z</time></trkpt><trkpt lat="47.26970588792792" lon="-1.6156413406148697"><ele>50.0</ele><time>2026-04-12T09:58:49Z</time></trkpt><trkpt lat="47.26968564563176" lon="-1.6155165340766455"><ele>50.0</ele><time>2026-04-12T09:58:51Z</time></trkpt><trkpt lat="47.269668001725584" lon="-1.6154067311450981"><ele>50.00000000000001</ele><time>2026-04-12T09:58:53Z</time></trkpt><trkpt lat="47.26964750797233" lon="-1.6152887977674746"><ele>50.0</ele><time>2026-04-12T09:58:55Z</time></trkpt><trkpt lat="47.269621063067824" lon="-1.6151696909234068"><ele>50.6</ele><time>2026-04-12T09:58:57Z</time></trkpt><trkpt lat="47.269612136340946" lon="-1.6150148771718285"><ele>51.2</ele><time>2026-04-12T09:58:59Z</time></trkpt><trkpt lat="47.26961586628786" lon="-1.6148615721628208"><ele>51.8</ele><time>2026-04-12T09:59:01Z</time></trkpt><trkpt lat="47.26958414078435" lon="-1.6147448960706727"><ele>52.4</ele><time>2026-04-12T09:59:03Z</time></trkpt><trkpt lat="47.269579279280514" lon="-1.6146189160660045"><ele>53.0</ele><time>2026-04-12T09:59:05Z</time></trkpt><trkpt lat="47.269600820771664" lon="-1.6144954506322875"><ele>53.16666666666667</ele><time>2026-04-12T09:59:07Z</time></trkpt><trkpt lat="47.26963506084612" lon="-1.6143884975478187"><ele>53.333333333333336</ele><time>2026-04-12T09:59:09Z</time></trkpt><trkpt lat="47.26969515909186" lon="-1.6143437381848826"><ele>53.5</ele><time>2026-04-12T09:59:11Z</time></trkpt><trkpt lat="47.26977885239503" lon="-1.6142804548159375"><ele>53.66666666666667</ele><time>2026-04-12T09:59:13Z</time></trkpt><trkpt lat="47.26983517878434" lon="-1.6141463443651927"><ele>53.833333333333336</ele><time>2026-04-12T09:59:16Z</time></trkpt><trkpt lat="47.26984909274361" lon="-1.6140326019391547"><ele>54.0</ele><time>2026-04-12T09:59:18Z</time></trkpt><trkpt lat="47.26981103890321" lon="-1.6139336954817305"><ele>54.0</ele><time>2026-04-12T09:59:20Z</time></trkpt><trkpt lat="47.26974410940638" lon="-1.6138217970743904"><ele>54.00000000000001</ele><time>2026-04-12T09:59:22Z</time></trkpt><trkpt lat="47.269657985351294" lon="-1.6137626208379992"><ele>54.00000000000001</ele><time>2026-04-12T09:59:24Z</time></trkpt><trkpt lat="47.26957760289988" lon="-1.6137540712967642"><ele>54.0</ele><time>2026-04-12T09:59:26Z</time></trkpt><trkpt lat="47.269493364773005" lon="-1.613647788764549"><ele>54.0</ele><time>2026-04-12T09:59:28Z</time></trkpt><trkpt lat="47.26942454934797" lon="-1.6134985070690637"><ele>54.2</ele><time>2026-04-12T09:59:30Z</time></trkpt><trkpt lat="47.2693781136044" lon="-1.613328186796618"><ele>54.400000000000006</ele><time>2026-04-12T09:59:32Z</time></trkpt><trkpt lat="47.26934253242543" lon="-1.6131199803218368"><ele>54.6</ele><time>2026-04-12T09:59:34Z</time></trkpt><trkpt lat="47.26932878610423" lon="-1.6130262706443788"><ele>54.8</ele><time>2026-04-12T09:59:35Z</time></trkpt><trkpt lat="47.269308627627105" lon="-1.6129253525301934"><ele>55.0</ele><time>2026-04-12T09:59:36Z</time></trkpt><trkpt lat="47.26929027125916" lon="-1.6127483267352103"><ele>54.6</ele><time>2026-04-12T09:59:38Z</time></trkpt><trkpt lat="47.269269358410746" lon="-1.6125728935018298"><ele>54.2</ele><time>2026-04-12T09:59:40Z</time></trkpt><trkpt lat="47.26923704617402" lon="-1.6124121285989996"><ele>53.8</ele><time>2026-04-12T09:59:42Z</time></trkpt><trkpt lat="47.26922983773729" lon="-1.6122402157649511"><ele>53.4</ele><time>2026-04-12T09:59:43Z</time></trkpt><trkpt lat="47.26920544639906" lon="-1.612153379248094"><ele>53.0</ele><time>2026-04-12T09:59:44Z</time></trkpt><trkpt lat="47.2691870481216" lon="-1.611985154451441"><ele>52.85714285714286</ele><time>2026-04-12T09:59:46Z</time></trkpt><trkpt lat="47.269212403378695" lon="-1.6118748486057033"><ele>52.71428571428571</ele><time>2026-04-12T09:59:47Z</time></trkpt><trkpt lat="47.26918574892661" lon="-1.6117826476708164"><ele>52.57142857142857</ele><time>2026-04-12T09:59:48Z</time></trkpt><trkpt lat="47.26917196069589" lon="-1.6116850823178996"><ele>52.42857142857143</ele><time>2026-04-12T09:59:49Z</time></trkpt><trkpt lat="47.26916831456801" lon="-1.6115772072240817"><ele>52.28571428571429</ele><time>2026-04-12T09:59:50Z</time></trkpt><trkpt lat="47.269160812764675" lon="-1.611475786195706"><ele>52.14285714285714</ele><time>2026-04-12T09:59:51Z</time></trkpt><trkpt lat="47.26915603507987" lon="-1.6113710962250933"><ele>52.0</ele><time>2026-04-12T09:59:52Z</time></trkpt><trkpt lat="47.26913696625015" lon="-1.6111973393723473"><ele>51.99999999999999</ele><time>2026-04-12T09:59:54Z</time></trkpt><trkpt lat="47.26911404174498" lon="-1.6111038811519844"><ele>52.0</ele><time>2026-04-12T09:59:55Z</time></trkpt><trkpt lat="47.26909589492461" lon="-1.6110105905696852"><ele>52.0</ele><time>2026-04-12T09:59:56Z</time></trkpt><trkpt lat="47.26909354799172" lon="-1.610819734634469"><ele>52.0</ele><time>2026-04-12T09:59:58Z</time></trkpt><trkpt lat="47.26909597874364" lon="-1.6107179783299665"><ele>51.99999999999999</ele><time>2026-04-12T10:00:00Z</time></trkpt><trkpt lat="47.26902083498171" lon="-1.6106794215753772"><ele>52.0</ele><time>2026-04-12T10:00:02Z</time></trkpt><trkpt lat="47.268955539956" lon="-1.610584370793412"><ele>52.0</ele><time>2026-04-12T10:00:04Z</time></trkpt><trkpt lat="47.268898375376374" lon="-1.6104510147139526"><ele>52.0</ele><time>2026-04-12T10:00:06Z</time></trkpt><trkpt lat="47.268851310990065" lon="-1.610283879564712"><ele>52.0</ele><time>2026-04-12T10:00:08Z</time></trkpt><trkpt lat="47.26883915723047" lon="-1.6100808698698972"><ele>52.0</ele><time>2026-04-12T10:00:10Z</time></trkpt><trkpt lat="47.2688495507904" lon="-1.609982466326663"><ele>52.0</ele><time>2026-04-12T10:00:11Z</time></trkpt><trkpt lat="47.26886271037838" lon="-1.6098801232889386"><ele>51.83333333333333</ele><time>2026-04-12T10:00:12Z</time></trkpt><trkpt lat="47.26886262655935" lon="-1.6097818873837682"><ele>51.666666666666664</ele><time>2026-04-12T10:00:13Z</time></trkpt><trkpt lat="47.268845443657845" lon="-1.6096648760154932"><ele>51.5</ele><time>2026-04-12T10:00:14Z</time></trkpt><trkpt lat="47.26882017221978" lon="-1.6094829887166706"><ele>51.33333333333333</ele><time>2026-04-12T10:00:16Z</time></trkpt><trkpt lat="47.26880261213264" lon="-1.609379472212502"><ele>51.166666666666664</ele><time>2026-04-12T10:00:17Z</time></trkpt><trkpt lat="47.268802234946996" lon="-1.6092831641450611"><ele>51.0</ele><time>2026-04-12T10:00:18Z</time></trkpt><trkpt lat="47.26878911726853" lon="-1.6091916337624277"><ele>51.599999999999994</ele><time>2026-04-12T10:00:19Z</time></trkpt><trkpt lat="47.26875688885084" lon="-1.6090199723854743"><ele>52.2</ele><time>2026-04-12T10:00:21Z</time></trkpt><trkpt lat="47.26874121469191" lon="-1.6088753845557653"><ele>52.800000000000004</ele><time>2026-04-12T10:00:22.999Z</time></trkpt><trkpt lat="47.268703789494246" lon="-1.6086903121337375"><ele>53.400000000000006</ele><time>2026-04-12T10:00:24.999Z</time></trkpt><trkpt lat="47.26869222246787" lon="-1.608557626606532"><ele>54.0</ele><time>2026-04-12T10:00:25.999Z</time></trkpt><trkpt lat="47.26865400098941" lon="-1.6083438880756575"><ele>54.0</ele><time>2026-04-12T10:00:27.999Z</time></trkpt><trkpt lat="47.26863426160744" lon="-1.608221177013226"><ele>54.00000000000001</ele><time>2026-04-12T10:00:28.999Z</time></trkpt><trkpt lat="47.2685818328031" lon="-1.6080756671741678"><ele>54.00000000000001</ele><time>2026-04-12T10:00:30.999Z</time></trkpt><trkpt lat="47.26855136458507" lon="-1.6078661195948794"><ele>54.0</ele><time>2026-04-12T10:00:32.999Z</time></trkpt><trkpt lat="47.26855584890327" lon="-1.6077346913531494"><ele>54.0</ele><time>2026-04-12T10:00:33.999Z</time></trkpt><trkpt lat="47.26853573233566" lon="-1.6076286602780294"><ele>53.75</ele><time>2026-04-12T10:00:34.999Z</time></trkpt><trkpt lat="47.26851792079142" lon="-1.607391620056338"><ele>53.5</ele><time>2026-04-12T10:00:36.999Z</time></trkpt><trkpt lat="47.26849746894768" lon="-1.6072598565384812"><ele>53.25</ele><time>2026-04-12T10:00:37.999Z</time></trkpt><trkpt lat="47.26847617891362" lon="-1.6070819087341492"><ele>53.0</ele><time>2026-04-12T10:00:39.999Z</time></trkpt><trkpt lat="47.268472323238164" lon="-1.6069544199869101"><ele>53.16666666666667</ele><time>2026-04-12T10:00:40.999Z</time></trkpt><trkpt lat="47.26846599490127" lon="-1.6068151965752306"><ele>53.333333333333336</ele><time>2026-04-12T10:00:41.999Z</time></trkpt><trkpt lat="47.268432844474226" lon="-1.606707572938508"><ele>53.5</ele><time>2026-04-12T10:00:42.999Z</time></trkpt><trkpt lat="47.26841968488625" lon="-1.6066038049772442"><ele>53.66666666666667</ele><time>2026-04-12T10:00:43.999Z</time></trkpt><trkpt lat="47.2684023762562" lon="-1.6064967680737436"><ele>53.833333333333336</ele><time>2026-04-12T10:00:44.999Z</time></trkpt><trkpt lat="47.26838980340144" lon="-1.6063520964250027"><ele>54.0</ele><time>2026-04-12T10:00:46.999Z</time></trkpt><trkpt lat="47.268362143120974" lon="-1.6061168164029773"><ele>54.0</ele><time>2026-04-12T10:00:48.999Z</time></trkpt><trkpt lat="47.26833791942081" lon="-1.6059854719802793"><ele>54.00000000000001</ele><time>2026-04-12T10:00:49.999Z</time></trkpt><trkpt lat="47.26831683893433" lon="-1.605808194728201"><ele>54.00000000000001</ele><time>2026-04-12T10:00:51.999Z</time></trkpt><trkpt lat="47.2682908550345" lon="-1.6056804545238665"><ele>54.0</ele><time>2026-04-12T10:00:53.999Z</time></trkpt><trkpt lat="47.268290603577405" lon="-1.6055851522848061"><ele>54.0</ele><time>2026-04-12T10:00:54.999Z</time></trkpt><trkpt lat="47.26829047784886" lon="-1.60541432909817"><ele>53.166666666666664</ele><time>2026-04-12T10:00:56.999Z</time></trkpt><trkpt lat="47.26827061273834" lon="-1.6052742674961735"><ele>52.33333333333333</ele><time>2026-04-12T10:00:57.999Z</time></trkpt><trkpt lat="47.268252046822816" lon="-1.6051738522961783"><ele>51.5</ele><time>2026-04-12T10:00:58.999Z</time></trkpt><trkpt lat="47.26821772292933" lon="-1.605017529802029"><ele>50.666666666666664</ele><time>2026-04-12T10:01:00.999Z</time></trkpt><trkpt lat="47.26820401851764" lon="-1.6049166116878435"><ele>49.83333333333333</ele><time>2026-04-12T10:01:01.999Z</time></trkpt><trkpt lat="47.268192158124656" lon="-1.6048088204130575"><ele>49.0</ele><time>2026-04-12T10:01:02.999Z</time></trkpt><trkpt lat="47.26816051644018" lon="-1.6047118417933626"><ele>49.0</ele><time>2026-04-12T10:01:03.999Z</time></trkpt><trkpt lat="47.26812430661848" lon="-1.6045058984324378"><ele>49.0</ele><time>2026-04-12T10:01:05.999Z</time></trkpt><trkpt lat="47.268097274980754" lon="-1.6043559461846988"><ele>49.0</ele><time>2026-04-12T10:01:07.999Z</time></trkpt><trkpt lat="47.268081391274244" lon="-1.604220326991383"><ele>49.0</ele><time>2026-04-12T10:01:09.999Z</time></trkpt><trkpt lat="47.268038266382426" lon="-1.6041103564217725"><ele>49.0</ele><time>2026-04-12T10:01:11.999Z</time></trkpt><trkpt lat="47.268010145097286" lon="-1.604014718906585"><ele>49.5</ele><time>2026-04-12T10:01:12.999Z</time></trkpt><trkpt lat="47.26797389336607" lon="-1.60370567813665"><ele>50.0</ele><time>2026-04-12T10:01:14.999Z</time></trkpt><trkpt lat="47.26793726444921" lon="-1.603610292078558"><ele>50.5</ele><time>2026-04-12T10:01:15.999Z</time></trkpt><trkpt lat="47.26791216064921" lon="-1.6035002376899155"><ele>51.0</ele><time>2026-04-12T10:01:16.999Z</time></trkpt><trkpt lat="47.26788559001616" lon="-1.6033775266274841"><ele>51.0</ele><time>2026-04-12T10:01:17.999Z</time></trkpt><trkpt lat="47.26784720089963" lon="-1.6032661311343341"><ele>51.0</ele><time>2026-04-12T10:01:18.999Z</time></trkpt><trkpt lat="47.267820420719" lon="-1.603160435335341"><ele>51.0</ele><time>2026-04-12T10:01:19.999Z</time></trkpt><trkpt lat="47.267783917530686" lon="-1.603069659323993"><ele>51.0</ele><time>2026-04-12T10:01:20.999Z</time></trkpt><trkpt lat="47.26775512569329" lon="-1.6029817331597236"><ele>51.0</ele><time>2026-04-12T10:01:21.999Z</time></trkpt><trkpt lat="47.26771870632401" lon="-1.6028508916512159"><ele>51.0</ele><time>2026-04-12T10:01:22.999Z</time></trkpt><trkpt lat="47.267690040215165" lon="-1.6027142666295195"><ele>50.5</ele><time>2026-04-12T10:01:23.999Z</time></trkpt><trkpt lat="47.267650184265584" lon="-1.6026271786555673"><ele>50.0</ele><time>2026-04-12T10:01:24.999Z</time></trkpt><trkpt lat="47.26762503855607" lon="-1.6025148611530684"><ele>49.5</ele><time>2026-04-12T10:01:25.999Z</time></trkpt><trkpt lat="47.267603832341045" lon="-1.602413356305661"><ele>49.0</ele><time>2026-04-12T10:01:26.999Z</time></trkpt><trkpt lat="47.2675664490529" lon="-1.6022929921761175"><ele>48.5</ele><time>2026-04-12T10:01:27.999Z</time></trkpt><trkpt lat="47.26752466526559" lon="-1.6022011265173575"><ele>48.0</ele><time>2026-04-12T10:01:28.999Z</time></trkpt><trkpt lat="47.26748288147828" lon="-1.6021017171457428"><ele>48.0</ele><time>2026-04-12T10:01:29.999Z</time></trkpt><trkpt lat="47.267456310845226" lon="-1.602005911992492"><ele>48.0</ele><time>2026-04-12T10:01:30.999Z</time></trkpt><trkpt lat="47.267390345267266" lon="-1.601830059663953"><ele>48.0</ele><time>2026-04-12T10:01:32.999Z</time></trkpt><trkpt lat="47.26734223314306" lon="-1.6017566341921703"><ele>48.0</ele><time>2026-04-12T10:01:33.999Z</time></trkpt><trkpt lat="47.26729814433238" lon="-1.6016811970636264"><ele>48.0</ele><time>2026-04-12T10:01:34.999Z</time></trkpt><trkpt lat="47.26724726618013" lon="-1.6016107052579536"><ele>48.0</ele><time>2026-04-12T10:01:35.999Z</time></trkpt><trkpt lat="47.26718368944457" lon="-1.6015314962729825"><ele>46.666666666666664</ele><time>2026-04-12T10:01:37.999Z</time></trkpt><trkpt lat="47.26718595255843" lon="-1.6014254651978626"><ele>45.333333333333336</ele><time>2026-04-12T10:01:40.999Z</time></trkpt><trkpt lat="47.267250241755754" lon="-1.6013297438636434"><ele>44.0</ele><time>2026-04-12T10:01:43.999Z</time></trkpt><trkpt lat="47.267273082441896" lon="-1.601215582342447"><ele>42.66666666666667</ele><time>2026-04-12T10:01:45.999Z</time></trkpt><trkpt lat="47.26725946184924" lon="-1.6010701563224206"><ele>41.333333333333336</ele><time>2026-04-12T10:01:47.999Z</time></trkpt><trkpt lat="47.267252043864936" lon="-1.6009409911945471"><ele>40.0</ele><time>2026-04-12T10:01:49.999Z</time></trkpt><trkpt lat="47.2672297480025" lon="-1.6008266620352871"><ele>39.8</ele><time>2026-04-12T10:01:51.999Z</time></trkpt><trkpt lat="47.26716679990968" lon="-1.6007476206883795"><ele>39.6</ele><time>2026-04-12T10:01:53.999Z</time></trkpt><trkpt lat="47.26707426369867" lon="-1.6006657294943933"><ele>39.4</ele><time>2026-04-12T10:01:55.999Z</time></trkpt><trkpt lat="47.266997192099005" lon="-1.6005617938950663"><ele>39.2</ele><time>2026-04-12T10:01:57.999Z</time></trkpt><trkpt lat="47.26692196451804" lon="-1.6004731133595114"><ele>39.0</ele><time>2026-04-12T10:01:59.999Z</time></trkpt><trkpt lat="47.26684669502756" lon="-1.6003556828960779"><ele>39.166666666666664</ele><time>2026-04-12T10:02:01.999Z</time></trkpt><trkpt lat="47.26678953044793" lon="-1.6003012005254629"><ele>39.333333333333336</ele><time>2026-04-12T10:02:02.999Z</time></trkpt><trkpt lat="47.2667469084703" lon="-1.6002314630910757"><ele>39.5</ele><time>2026-04-12T10:02:03.999Z</time></trkpt><trkpt lat="47.26664951075545" lon="-1.6001042258009315"><ele>39.66666666666667</ele><time>2026-04-12T10:02:05.999Z</time></trkpt><trkpt lat="47.26659670476547" lon="-1.6000142879799009"><ele>39.833333333333336</ele><time>2026-04-12T10:02:06.999Z</time></trkpt><trkpt lat="47.2665433958613" lon="-1.5999481547638772"><ele>40.0</ele><time>2026-04-12T10:02:07.999Z</time></trkpt><trkpt lat="47.266476843550116" lon="-1.599856624381244"><ele>39.833333333333336</ele><time>2026-04-12T10:02:08.999Z</time></trkpt><trkpt lat="47.266431329815894" lon="-1.5997765772059558"><ele>39.66666666666667</ele><time>2026-04-12T10:02:09.999Z</time></trkpt><trkpt lat="47.266377308449954" lon="-1.5996782574817534"><ele>39.5</ele><time>2026-04-12T10:02:10.999Z</time></trkpt><trkpt lat="47.26632127542725" lon="-1.5996083524093028"><ele>39.333333333333336</ele><time>2026-04-12T10:02:11.999Z</time></trkpt><trkpt lat="47.266277857168824" lon="-1.5995293948814269"><ele>39.166666666666664</ele><time>2026-04-12T10:02:12.999Z</time></trkpt><trkpt lat="47.26619910918853" lon="-1.599446246401965"><ele>39.0</ele><time>2026-04-12T10:02:13.999Z</time></trkpt><trkpt lat="47.266151080883354" lon="-1.5993589069709175"><ele>39.0</ele><time>2026-04-12T10:02:14.999Z</time></trkpt><trkpt lat="47.26609467067501" lon="-1.599283050747215"><ele>39.0</ele><time>2026-04-12T10:02:15.999Z</time></trkpt><trkpt lat="47.266045049808234" lon="-1.5991960465922943"><ele>39.0</ele><time>2026-04-12T10:02:16.999Z</time></trkpt><trkpt lat="47.265999619893044" lon="-1.5991141553983084"><ele>39.0</ele><time>2026-04-12T10:02:17.999Z</time></trkpt><trkpt lat="47.2659448022463" lon="-1.5990411490216843"><ele>39.0</ele><time>2026-04-12T10:02:18.999Z</time></trkpt><trkpt lat="47.265861108943135" lon="-1.5989317651852955"><ele>39.0</ele><time>2026-04-12T10:02:19.999Z</time></trkpt><trkpt lat="47.26579698738387" lon="-1.5988447610303749"><ele>39.0</ele><time>2026-04-12T10:02:20.999Z</time></trkpt><trkpt lat="47.265732823915094" lon="-1.5987708326444017"><ele>39.0</ele><time>2026-04-12T10:02:21.999Z</time></trkpt><trkpt lat="47.26567259994081" lon="-1.5986665617689477"><ele>39.0</ele><time>2026-04-12T10:02:22.999Z</time></trkpt><trkpt lat="47.26563027132979" lon="-1.5985644701883184"><ele>39.0</ele><time>2026-04-12T10:02:23.999Z</time></trkpt><trkpt lat="47.26556816142729" lon="-1.5984792262330636"><ele>39.0</ele><time>2026-04-12T10:02:24.999Z</time></trkpt><trkpt lat="47.26547357165" lon="-1.5983915515258893"><ele>37.6</ele><time>2026-04-12T10:02:25.999Z</time></trkpt><trkpt lat="47.265412006571204" lon="-1.598309157417713"><ele>36.2</ele><time>2026-04-12T10:02:26.999Z</time></trkpt><trkpt lat="47.265343610241324" lon="-1.5981850214317423"><ele>34.800000000000004</ele><time>2026-04-12T10:02:27.999Z</time></trkpt><trkpt lat="47.26527898576787" lon="-1.5980825945749861"><ele>33.4</ele><time>2026-04-12T10:02:28.999Z</time></trkpt><trkpt lat="47.26520421919158" lon="-1.5979707799866776"><ele>32.0</ele><time>2026-04-12T10:02:29.999Z</time></trkpt><trkpt lat="47.26514051672748" lon="-1.5978764835759978"><ele>31.400000000000002</ele><time>2026-04-12T10:02:30.999Z</time></trkpt><trkpt lat="47.26508607626638" lon="-1.5977686923012115"><ele>30.800000000000004</ele><time>2026-04-12T10:02:31.999Z</time></trkpt><trkpt lat="47.26502522364935" lon="-1.5976707078531363"><ele>30.2</ele><time>2026-04-12T10:02:32.999Z</time></trkpt><trkpt lat="47.264970783188254" lon="-1.5975592285409546"><ele>29.6</ele><time>2026-04-12T10:02:33.999Z</time></trkpt><trkpt lat="47.26489475932649" lon="-1.597467781977353"><ele>29.0</ele><time>2026-04-12T10:02:34.999Z</time></trkpt><trkpt lat="47.26484375544569" lon="-1.5973717253670072"><ele>28.999999999999996</ele><time>2026-04-12T10:02:35.999Z</time></trkpt><trkpt lat="47.26478847679427" lon="-1.5972899179920528"><ele>29.0</ele><time>2026-04-12T10:02:36.999Z</time></trkpt><trkpt lat="47.264752937524825" lon="-1.5971974656000707"><ele>29.0</ele><time>2026-04-12T10:02:37.999Z</time></trkpt><trkpt lat="47.26471542850813" lon="-1.5971006546184392"><ele>29.0</ele><time>2026-04-12T10:02:38.999Z</time></trkpt><trkpt lat="47.26467368663034" lon="-1.5970201045289607"><ele>28.999999999999996</ele><time>2026-04-12T10:02:39.999Z</time></trkpt><trkpt lat="47.26461530667475" lon="-1.5969543065890641"><ele>29.0</ele><time>2026-04-12T10:02:40.999Z</time></trkpt><trkpt lat="47.26451430474153" lon="-1.596851795913276"><ele>28.2</ele><time>2026-04-12T10:02:42.999Z</time></trkpt><trkpt lat="47.26446007382801" lon="-1.5967885125443309"><ele>27.4</ele><time>2026-04-12T10:02:43.999Z</time></trkpt><trkpt lat="47.26441619456491" lon="-1.59668097272664"><ele>26.6</ele><time>2026-04-12T10:02:45.999Z</time></trkpt><trkpt lat="47.26435454566708" lon="-1.596636213363704"><ele>25.8</ele><time>2026-04-12T10:02:46.999Z</time></trkpt><trkpt lat="47.26426171608946" lon="-1.596478885041174"><ele>25.0</ele><time>2026-04-12T10:02:48.999Z</time></trkpt><trkpt lat="47.264198390810996" lon="-1.5963591076448524"><ele>25.000000000000004</ele><time>2026-04-12T10:02:49.999Z</time></trkpt><trkpt lat="47.26413925648412" lon="-1.5962915495052898"><ele>25.0</ele><time>2026-04-12T10:02:50.999Z</time></trkpt><trkpt lat="47.26408108607611" lon="-1.5961939841523731"><ele>25.0</ele><time>2026-04-12T10:02:51.999Z</time></trkpt><trkpt lat="47.26404630117795" lon="-1.5961025375887714"><ele>25.0</ele><time>2026-04-12T10:02:52.999Z</time></trkpt><trkpt lat="47.26401361175558" lon="-1.596008408816155"><ele>25.0</ele><time>2026-04-12T10:02:53.999Z</time></trkpt><trkpt lat="47.263975809372276" lon="-1.595929199831184"><ele>25.000000000000004</ele><time>2026-04-12T10:02:54.999Z</time></trkpt><trkpt lat="47.26393125955692" lon="-1.5958539303407033"><ele>25.0</ele><time>2026-04-12T10:02:55.999Z</time></trkpt><trkpt lat="47.263893876268774" lon="-1.595779247583445"><ele>25.4</ele><time>2026-04-12T10:02:56.999Z</time></trkpt><trkpt lat="47.263818606778294" lon="-1.5956395212575751"><ele>25.8</ele><time>2026-04-12T10:02:58.999Z</time></trkpt><trkpt lat="47.26378767755559" lon="-1.595558552072938"><ele>26.200000000000003</ele><time>2026-04-12T10:02:59.999Z</time></trkpt><trkpt lat="47.26371856876394" lon="-1.5954254474505738"><ele>26.6</ele><time>2026-04-12T10:03:01.999Z</time></trkpt><trkpt lat="47.26365386047146" lon="-1.595314973966773"><ele>27.0</ele><time>2026-04-12T10:03:03.999Z</time></trkpt><trkpt lat="47.26361920130184" lon="-1.5951815340682818"><ele>27.6</ele><time>2026-04-12T10:03:05.999Z</time></trkpt><trkpt lat="47.263560905165285" lon="-1.5950727369651152"><ele>28.200000000000003</ele><time>2026-04-12T10:03:07.999Z</time></trkpt><trkpt lat="47.26346208252689" lon="-1.5949677955374075"><ele>28.8</ele><time>2026-04-12T10:03:09.999Z</time></trkpt><trkpt lat="47.26339351855895" lon="-1.5948517061784815"><ele>29.4</ele><time>2026-04-12T10:03:11.999Z</time></trkpt><trkpt lat="47.2633392038264" lon="-1.5947502013310741"><ele>30.0</ele><time>2026-04-12T10:03:13.999Z</time></trkpt><trkpt lat="47.26330022797665" lon="-1.5946498699501106"><ele>30.0</ele><time>2026-04-12T10:03:15.999Z</time></trkpt><trkpt lat="47.26321112834594" lon="-1.59453696571439"><ele>30.0</ele><time>2026-04-12T10:03:17.999Z</time></trkpt><trkpt lat="47.263147006786674" lon="-1.594442082570488"><ele>30.0</ele><time>2026-04-12T10:03:19.999Z</time></trkpt><trkpt lat="47.26306067318401" lon="-1.5943514741972036"><ele>30.0</ele><time>2026-04-12T10:03:21.999Z</time></trkpt><trkpt lat="47.26298821163109" lon="-1.5942528191968746"><ele>30.0</ele><time>2026-04-12T10:03:23.999Z</time></trkpt><trkpt lat="47.26294165015897" lon="-1.5941211394980495"><ele>29.833333333333332</ele><time>2026-04-12T10:03:25.999Z</time></trkpt><trkpt lat="47.262891945473164" lon="-1.593999266625935"><ele>29.666666666666664</ele><time>2026-04-12T10:03:27.999Z</time></trkpt><trkpt lat="47.262848527214736" lon="-1.593895331026608"><ele>29.5</ele><time>2026-04-12T10:03:30Z</time></trkpt><trkpt lat="47.26283561908385" lon="-1.5938038006439748"><ele>29.333333333333332</ele><time>2026-04-12T10:03:32Z</time></trkpt><trkpt lat="47.26279911589554" lon="-1.593725597487384"><ele>29.166666666666664</ele><time>2026-04-12T10:03:34Z</time></trkpt><trkpt lat="47.262727241075844" lon="-1.5936592966332972"><ele>29.0</ele><time>2026-04-12T10:03:36Z</time></trkpt><trkpt lat="47.26262468849054" lon="-1.59361839294582"><ele>29.333333333333332</ele><time>2026-04-12T10:03:38Z</time></trkpt><trkpt lat="47.262538941621095" lon="-1.593556283043319"><ele>29.666666666666664</ele><time>2026-04-12T10:03:40Z</time></trkpt><trkpt lat="47.26250105541876" lon="-1.5934526827201185"><ele>30.0</ele><time>2026-04-12T10:03:42Z</time></trkpt><trkpt lat="47.26245126691392" lon="-1.59334623254984"><ele>30.333333333333336</ele><time>2026-04-12T10:03:44Z</time></trkpt><trkpt lat="47.2624031128802" lon="-1.5932582225665386"><ele>30.666666666666668</ele><time>2026-04-12T10:03:46Z</time></trkpt><trkpt lat="47.26235822778872" lon="-1.5931567177191313"><ele>31.0</ele><time>2026-04-12T10:03:48Z</time></trkpt><trkpt lat="47.262318288020104" lon="-1.5930345933899217"><ele>31.000000000000004</ele><time>2026-04-12T10:03:50Z</time></trkpt><trkpt lat="47.26228178483179" lon="-1.592955887319141"><ele>31.0</ele><time>2026-04-12T10:03:52Z</time></trkpt><trkpt lat="47.26223627109757" lon="-1.5928502753391796"><ele>31.0</ele><time>2026-04-12T10:03:54Z</time></trkpt><trkpt lat="47.262186566411756" lon="-1.5927321743234923"><ele>31.0</ele><time>2026-04-12T10:03:56Z</time></trkpt><trkpt lat="47.262146920009755" lon="-1.5926412306740811"><ele>31.000000000000004</ele><time>2026-04-12T10:03:58Z</time></trkpt><trkpt lat="47.26211117119273" lon="-1.5925023425385285"><ele>31.0</ele><time>2026-04-12T10:04:00Z</time></trkpt><trkpt lat="47.26208858196368" lon="-1.5923755243435431"><ele>31.000000000000004</ele><time>2026-04-12T10:04:02Z</time></trkpt><trkpt lat="47.26206515454432" lon="-1.5922531485572384"><ele>31.0</ele><time>2026-04-12T10:04:04Z</time></trkpt><trkpt lat="47.26202848371794" lon="-1.592144016177945"><ele>31.0</ele><time>2026-04-12T10:04:06Z</time></trkpt><trkpt lat="47.26199520756235" lon="-1.592062963174276"><ele>31.0</ele><time>2026-04-12T10:04:08Z</time></trkpt><trkpt lat="47.26195283704182" lon="-1.5919708460584208"><ele>31.000000000000004</ele><time>2026-04-12T10:04:10Z</time></trkpt><trkpt lat="47.261920273348" lon="-1.591887697578959"><ele>31.0</ele><time>2026-04-12T10:04:11Z</time></trkpt><trkpt lat="47.26185489450326" lon="-1.5917597897365612"><ele>31.000000000000004</ele><time>2026-04-12T10:04:13Z</time></trkpt><trkpt lat="47.26180862639775" lon="-1.5916952490821403"><ele>31.0</ele><time>2026-04-12T10:04:14Z</time></trkpt><trkpt lat="47.2617310518839" lon="-1.591578656809024"><ele>31.0</ele><time>2026-04-12T10:04:16Z</time></trkpt><trkpt lat="47.261699033013784" lon="-1.5914930775776426"><ele>31.0</ele><time>2026-04-12T10:04:17Z</time></trkpt><trkpt lat="47.261641952253186" lon="-1.5913683548584499"><ele>31.000000000000004</ele><time>2026-04-12T10:04:19Z</time></trkpt><trkpt lat="47.261616974181734" lon="-1.5912382677212276"><ele>31.0</ele><time>2026-04-12T10:04:21Z</time></trkpt><trkpt lat="47.26158202164551" lon="-1.5910804364845073"><ele>31.0</ele><time>2026-04-12T10:04:23Z</time></trkpt><trkpt lat="47.2615653416582" lon="-1.590979518370322"><ele>31.0</ele><time>2026-04-12T10:04:24Z</time></trkpt><trkpt lat="47.26152535998007" lon="-1.590837445111564"><ele>31.0</ele><time>2026-04-12T10:04:26Z</time></trkpt><trkpt lat="47.26148906633934" lon="-1.5906752552851948"><ele>31.0</ele><time>2026-04-12T10:04:28Z</time></trkpt><trkpt lat="47.261430309198104" lon="-1.5905521251276047"><ele>31.0</ele><time>2026-04-12T10:04:30Z</time></trkpt><trkpt lat="47.261411575644516" lon="-1.590440729634455"><ele>31.200000000000003</ele><time>2026-04-12T10:04:31Z</time></trkpt><trkpt lat="47.261383873454534" lon="-1.5903342794641762"><ele>31.400000000000002</ele><time>2026-04-12T10:04:32Z</time></trkpt><trkpt lat="47.261349256194435" lon="-1.5901836566641834"><ele>31.6</ele><time>2026-04-12T10:04:34Z</time></trkpt><trkpt lat="47.26134108383884" lon="-1.5900808107122686"><ele>31.8</ele><time>2026-04-12T10:04:35Z</time></trkpt><trkpt lat="47.26132981017908" lon="-1.5899125859156156"><ele>32.0</ele><time>2026-04-12T10:04:37Z</time></trkpt><trkpt lat="47.26127193313768" lon="-1.5897702611997628"><ele>32.0</ele><time>2026-04-12T10:04:39Z</time></trkpt><trkpt lat="47.2612526966699" lon="-1.589597593994429"><ele>32.0</ele><time>2026-04-12T10:04:41Z</time></trkpt><trkpt lat="47.26121841468593" lon="-1.5894547663643857"><ele>32.0</ele><time>2026-04-12T10:04:43Z</time></trkpt><trkpt lat="47.2611871501871" lon="-1.5893325582161446"><ele>32.0</ele><time>2026-04-12T10:04:45Z</time></trkpt><trkpt lat="47.26116762035271" lon="-1.5891796723022955"><ele>32.0</ele><time>2026-04-12T10:04:48Z</time></trkpt><trkpt lat="47.261151149912976" lon="-1.589035838843872"><ele>32.5</ele><time>2026-04-12T10:04:50Z</time></trkpt><trkpt lat="47.26113602057775" lon="-1.5888877306148306"><ele>33.0</ele><time>2026-04-12T10:04:52Z</time></trkpt><trkpt lat="47.261121813251876" lon="-1.5887445677086605"><ele>33.5</ele><time>2026-04-12T10:04:54Z</time></trkpt><trkpt lat="47.261124160184764" lon="-1.588644571603824"><ele>34.0</ele><time>2026-04-12T10:04:55Z</time></trkpt><trkpt lat="47.261115736372076" lon="-1.588501073421527"><ele>34.5</ele><time>2026-04-12T10:04:57Z</time></trkpt><trkpt lat="47.261095200709306" lon="-1.588386492805172"><ele>35.0</ele><time>2026-04-12T10:04:59Z</time></trkpt><trkpt lat="47.26107462313702" lon="-1.5882548969253787"><ele>35.6</ele><time>2026-04-12T10:05:01Z</time></trkpt><trkpt lat="47.261052830188774" lon="-1.588133191691328"><ele>36.2</ele><time>2026-04-12T10:05:03Z</time></trkpt><trkpt lat="47.26103321653535" lon="-1.5879832394435889"><ele>36.8</ele><time>2026-04-12T10:05:05Z</time></trkpt><trkpt lat="47.2610090347447" lon="-1.5878654737040288"><ele>37.4</ele><time>2026-04-12T10:05:07Z</time></trkpt><trkpt lat="47.26098699033936" lon="-1.5877219755217318"><ele>38.0</ele><time>2026-04-12T10:05:09Z</time></trkpt><trkpt lat="47.260965616486274" lon="-1.5875876974329237"><ele>38.0</ele><time>2026-04-12T10:05:11Z</time></trkpt><trkpt lat="47.26095207971265" lon="-1.5874711051598074"><ele>38.0</ele><time>2026-04-12T10:05:13Z</time></trkpt><trkpt lat="47.260934938720666" lon="-1.587350489573169"><ele>38.0</ele><time>2026-04-12T10:05:15Z</time></trkpt><trkpt lat="47.26091586989095" lon="-1.587224341930437"><ele>38.0</ele><time>2026-04-12T10:05:17Z</time></trkpt><trkpt lat="47.26089575332334" lon="-1.5870924107745168"><ele>38.0</ele><time>2026-04-12T10:05:19Z</time></trkpt><trkpt lat="47.2608768940412" lon="-1.586959222333121"><ele>38.0</ele><time>2026-04-12T10:05:21Z</time></trkpt><trkpt lat="47.26086272862484" lon="-1.5868376009181018"><ele>38.166666666666664</ele><time>2026-04-12T10:05:23Z</time></trkpt><trkpt lat="47.26086142942985" lon="-1.5867018979057546"><ele>38.33333333333333</ele><time>2026-04-12T10:05:25Z</time></trkpt><trkpt lat="47.2608607588776" lon="-1.5865874849274628"><ele>38.5</ele><time>2026-04-12T10:05:27Z</time></trkpt><trkpt lat="47.26087915715506" lon="-1.5864379517748826"><ele>38.666666666666664</ele><time>2026-04-12T10:05:29Z</time></trkpt><trkpt lat="47.26088753905823" lon="-1.5863433200880757"><ele>38.833333333333336</ele><time>2026-04-12T10:05:30Z</time></trkpt><trkpt lat="47.260910882658564" lon="-1.5862108860179653"><ele>39.0</ele><time>2026-04-12T10:05:32Z</time></trkpt><trkpt lat="47.26095455237409" lon="-1.5860847383752334"><ele>39.0</ele><time>2026-04-12T10:05:34Z</time></trkpt><trkpt lat="47.2610029578649" lon="-1.5859733428820837"><ele>39.0</ele><time>2026-04-12T10:05:36Z</time></trkpt><trkpt lat="47.2610513214462" lon="-1.5858522243812547"><ele>39.0</ele><time>2026-04-12T10:05:38Z</time></trkpt><trkpt lat="47.26108707026323" lon="-1.5857736021295057"><ele>39.0</ele><time>2026-04-12T10:05:39Z</time></trkpt><trkpt lat="47.261161375834845" lon="-1.5856462810203298"><ele>39.0</ele><time>2026-04-12T10:05:41Z</time></trkpt><trkpt lat="47.2612257488512" lon="-1.5855415910497173"><ele>39.0</ele><time>2026-04-12T10:05:43Z</time></trkpt><trkpt lat="47.26133031309327" lon="-1.5855470392867788"><ele>39.0</ele><time>2026-04-12T10:05:45Z</time></trkpt><trkpt lat="47.26140193645587" lon="-1.5855315327659114"><ele>39.0</ele><time>2026-04-12T10:05:47Z</time></trkpt><trkpt lat="47.261408641978406" lon="-1.5854004398003083"><ele>39.0</ele><time>2026-04-12T10:05:50Z</time></trkpt><trkpt lat="47.26136459507724" lon="-1.5853002760574084"><ele>39.0</ele><time>2026-04-12T10:05:52Z</time></trkpt><trkpt lat="47.26131723732432" lon="-1.5851931553348761"><ele>39.0</ele><time>2026-04-12T10:05:54Z</time></trkpt><trkpt lat="47.261250810741686" lon="-1.5850577037796238"><ele>39.4</ele><time>2026-04-12T10:05:56Z</time></trkpt><trkpt lat="47.261159867092275" lon="-1.5849644970163563"><ele>39.8</ele><time>2026-04-12T10:05:58Z</time></trkpt><trkpt lat="47.26108099338343" lon="-1.584928622470782"><ele>40.199999999999996</ele><time>2026-04-12T10:06:00Z</time></trkpt><trkpt lat="47.261016410819494" lon="-1.5849501639619328"><ele>40.599999999999994</ele><time>2026-04-12T10:06:01Z</time></trkpt><trkpt lat="47.260872828818165" lon="-1.5849521756186942"><ele>41.0</ele><time>2026-04-12T10:06:03Z</time></trkpt><trkpt lat="47.260759631215834" lon="-1.5848766546711184"><ele>41.0</ele><time>2026-04-12T10:06:05Z</time></trkpt><trkpt lat="47.260694252371096" lon="-1.584811359645412"><ele>41.0</ele><time>2026-04-12T10:06:07Z</time></trkpt><trkpt lat="47.26059538782319" lon="-1.5848151315018393"><ele>41.0</ele><time>2026-04-12T10:06:11Z</time></trkpt><trkpt lat="47.26051039532503" lon="-1.584800211714194"><ele>41.0</ele><time>2026-04-12T10:06:13Z</time></trkpt><trkpt lat="47.260433030358755" lon="-1.5847251936808087"><ele>41.0</ele><time>2026-04-12T10:06:15Z</time></trkpt><trkpt lat="47.26039770063689" lon="-1.584571888671801"><ele>41.166666666666664</ele><time>2026-04-12T10:06:17Z</time></trkpt><trkpt lat="47.26038332567295" lon="-1.5844081062838289"><ele>41.33333333333333</ele><time>2026-04-12T10:06:19Z</time></trkpt><trkpt lat="47.26037339311769" lon="-1.584316492082164"><ele>41.5</ele><time>2026-04-12T10:06:20Z</time></trkpt><trkpt lat="47.26034921132704" lon="-1.5841545537128896"><ele>41.666666666666664</ele><time>2026-04-12T10:06:22Z</time></trkpt><trkpt lat="47.26033311807295" lon="-1.584061933682844"><ele>41.833333333333336</ele><time>2026-04-12T10:06:23Z</time></trkpt><trkpt lat="47.26032540672203" lon="-1.5839643683299272"><ele>42.0</ele><time>2026-04-12T10:06:24Z</time></trkpt><trkpt lat="47.26030520633539" lon="-1.5837722551092355"><ele>41.833333333333336</ele><time>2026-04-12T10:06:26Z</time></trkpt><trkpt lat="47.26030943919649" lon="-1.5836716722711768"><ele>41.666666666666664</ele><time>2026-04-12T10:06:27Z</time></trkpt><trkpt lat="47.26029586051335" lon="-1.5835762862130847"><ele>41.5</ele><time>2026-04-12T10:06:28Z</time></trkpt><trkpt lat="47.260287017605506" lon="-1.5834005177035773"><ele>41.33333333333333</ele><time>2026-04-12T10:06:30Z</time></trkpt><trkpt lat="47.26026870314708" lon="-1.5832935646191084"><ele>41.166666666666664</ele><time>2026-04-12T10:06:31Z</time></trkpt><trkpt lat="47.26026208144357" lon="-1.583196166904255"><ele>41.0</ele><time>2026-04-12T10:06:32Z</time></trkpt><trkpt lat="47.26025399290701" lon="-1.5830947458758793"><ele>41.0</ele><time>2026-04-12T10:06:33Z</time></trkpt><trkpt lat="47.26024896376511" lon="-1.582999611274882"><ele>41.0</ele><time>2026-04-12T10:06:34Z</time></trkpt><trkpt lat="47.26027612113138" lon="-1.582893328742667"><ele>41.0</ele><time>2026-04-12T10:06:35Z</time></trkpt><trkpt lat="47.26028366484424" lon="-1.5827832743540244"><ele>41.0</ele><time>2026-04-12T10:06:36Z</time></trkpt><trkpt lat="47.26029120855709" lon="-1.5825903229430156"><ele>41.0</ele><time>2026-04-12T10:06:38Z</time></trkpt><trkpt lat="47.26029925518414" lon="-1.5824965294465259"><ele>41.0</ele><time>2026-04-12T10:06:39Z</time></trkpt><trkpt lat="47.260283790572785" lon="-1.5823133848622275"><ele>40.8</ele><time>2026-04-12T10:06:41Z</time></trkpt><trkpt lat="47.260260614610516" lon="-1.582175083459897"><ele>40.599999999999994</ele><time>2026-04-12T10:06:43Z</time></trkpt><trkpt lat="47.26021648389032" lon="-1.58204868436007"><ele>40.4</ele><time>2026-04-12T10:06:45Z</time></trkpt><trkpt lat="47.26016715639015" lon="-1.581906443463249"><ele>40.2</ele><time>2026-04-12T10:06:47Z</time></trkpt><trkpt lat="47.26015726574441" lon="-1.5818027593210169"><ele>40.0</ele><time>2026-04-12T10:06:48Z</time></trkpt><trkpt lat="47.26007839203557" lon="-1.5816481970265337"><ele>39.8</ele><time>2026-04-12T10:06:50Z</time></trkpt><trkpt lat="47.26000127852639" lon="-1.5815260726973241"><ele>39.6</ele><time>2026-04-12T10:06:52Z</time></trkpt><trkpt lat="47.25989633709868" lon="-1.5814322792008346"><ele>39.4</ele><time>2026-04-12T10:06:54Z</time></trkpt><trkpt lat="47.259841058447265" lon="-1.5813731029644433"><ele>39.2</ele><time>2026-04-12T10:06:55Z</time></trkpt><trkpt lat="47.25977836181154" lon="-1.5813262481257144"><ele>39.0</ele><time>2026-04-12T10:06:56Z</time></trkpt><trkpt lat="47.25968247283926" lon="-1.5812379028662864"><ele>39.0</ele><time>2026-04-12T10:06:57.999Z</time></trkpt><trkpt lat="47.25961357359519" lon="-1.5811858512475911"><ele>39.0</ele><time>2026-04-12T10:06:58.999Z</time></trkpt><trkpt lat="47.259548865302705" lon="-1.5811175387367429"><ele>39.0</ele><time>2026-04-12T10:07:00.999Z</time></trkpt><trkpt lat="47.25948558193376" lon="-1.5810440294459285"><ele>39.0</ele><time>2026-04-12T10:07:02.999Z</time></trkpt><trkpt lat="47.2593857953765" lon="-1.5809603780522765"><ele>39.0</ele><time>2026-04-12T10:07:04.999Z</time></trkpt><trkpt lat="47.259266269437276" lon="-1.5808892995133816"><ele>39.0</ele><time>2026-04-12T10:07:06.999Z</time></trkpt><trkpt lat="47.259175535335444" lon="-1.5808363258853375"><ele>39.0</ele><time>2026-04-12T10:07:07.999Z</time></trkpt><trkpt lat="47.25908924364229" lon="-1.5807462204262435"><ele>39.0</ele><time>2026-04-12T10:07:09.999Z</time></trkpt><trkpt lat="47.258988367437624" lon="-1.580657036976498"><ele>39.0</ele><time>2026-04-12T10:07:11.999Z</time></trkpt><trkpt lat="47.2588593280383" lon="-1.5805708710118946"><ele>39.0</ele><time>2026-04-12T10:07:13.999Z</time></trkpt><trkpt lat="47.258799774616264" lon="-1.5804730542018828"><ele>39.0</ele><time>2026-04-12T10:07:15.999Z</time></trkpt><trkpt lat="47.25869952705433" lon="-1.5803686156883652"><ele>39.0</ele><time>2026-04-12T10:07:17.999Z</time></trkpt><trkpt lat="47.25863691423764" lon="-1.5802790131434614"><ele>39.0</ele><time>2026-04-12T10:07:18.999Z</time></trkpt><trkpt lat="47.25858867638489" lon="-1.5802163165077383"><ele>39.0</ele><time>2026-04-12T10:07:19.999Z</time></trkpt><trkpt lat="47.258515670008265" lon="-1.580168623478692"><ele>39.0</ele><time>2026-04-12T10:07:20.999Z</time></trkpt><trkpt lat="47.25840989039024" lon="-1.5800825413331203"><ele>38.833333333333336</ele><time>2026-04-12T10:07:22.999Z</time></trkpt><trkpt lat="47.25833399225702" lon="-1.580036692322772"><ele>38.666666666666664</ele><time>2026-04-12T10:07:23.999Z</time></trkpt><trkpt lat="47.258272636725806" lon="-1.5800041705384664"><ele>38.5</ele><time>2026-04-12T10:07:24.999Z</time></trkpt><trkpt lat="47.25821249657055" lon="-1.5799662005170994"><ele>38.33333333333333</ele><time>2026-04-12T10:07:25.999Z</time></trkpt><trkpt lat="47.258156589276396" lon="-1.5799109637751987"><ele>38.166666666666664</ele><time>2026-04-12T10:07:26.999Z</time></trkpt><trkpt lat="47.25804573860695" lon="-1.5798126440509965"><ele>38.0</ele><time>2026-04-12T10:07:28.999Z</time></trkpt><trkpt lat="47.257985807999276" lon="-1.5797543898239543"><ele>38.0</ele><time>2026-04-12T10:07:29.999Z</time></trkpt><trkpt lat="47.25788790737023" lon="-1.5796670503929067"><ele>38.0</ele><time>2026-04-12T10:07:31.999Z</time></trkpt><trkpt lat="47.25783438891848" lon="-1.5796158369645286"><ele>38.0</ele><time>2026-04-12T10:07:32.999Z</time></trkpt><trkpt lat="47.2577281902053" lon="-1.579522378744166"><ele>38.0</ele><time>2026-04-12T10:07:34.999Z</time></trkpt><trkpt lat="47.25765120242467" lon="-1.5794301778092787"><ele>38.0</ele><time>2026-04-12T10:07:36.999Z</time></trkpt><trkpt lat="47.2575606359609" lon="-1.5793212968870805"><ele>38.0</ele><time>2026-04-12T10:07:38.999Z</time></trkpt><trkpt lat="47.257499867162906" lon="-1.579281399027984"><ele>38.0</ele><time>2026-04-12T10:07:39.999Z</time></trkpt><trkpt lat="47.25739832040598" lon="-1.5792090632036133"><ele>38.0</ele><time>2026-04-12T10:07:41.999Z</time></trkpt><trkpt lat="47.25731466901233" lon="-1.5791244059815808"><ele>38.0</ele><time>2026-04-12T10:07:43.999Z</time></trkpt><trkpt lat="47.25721852858295" lon="-1.5790463704630537"><ele>38.0</ele><time>2026-04-12T10:07:45.999Z</time></trkpt><trkpt lat="47.25712683056226" lon="-1.578966993840019"><ele>38.199999999999996</ele><time>2026-04-12T10:07:47.999Z</time></trkpt><trkpt lat="47.257064008197986" lon="-1.578881917522828"><ele>38.4</ele><time>2026-04-12T10:07:49.999Z</time></trkpt><trkpt lat="47.256958186670445" lon="-1.578786782921831"><ele>38.599999999999994</ele><time>2026-04-12T10:07:51.999Z</time></trkpt><trkpt lat="47.2568853898414" lon="-1.5787141956403652"><ele>38.8</ele><time>2026-04-12T10:07:53.999Z</time></trkpt><trkpt lat="47.25678828549316" lon="-1.5786363277599016"><ele>39.0</ele><time>2026-04-12T10:07:55.999Z</time></trkpt><trkpt lat="47.25666071292689" lon="-1.5785727091148296"><ele>39.0</ele><time>2026-04-12T10:07:57.999Z</time></trkpt><trkpt lat="47.25658175539901" lon="-1.578474473209659"><ele>39.0</ele><time>2026-04-12T10:07:59.999Z</time></trkpt><trkpt lat="47.2564968886294" lon="-1.5783769078567422"><ele>39.0</ele><time>2026-04-12T10:08:01.999Z</time></trkpt><trkpt lat="47.25642627109518" lon="-1.5782940108343757"><ele>39.0</ele><time>2026-04-12T10:08:03.999Z</time></trkpt><trkpt lat="47.25635158833792" lon="-1.5782477427288686"><ele>39.0</ele><time>2026-04-12T10:08:04.999Z</time></trkpt><trkpt lat="47.256249873942934" lon="-1.578163672240058"><ele>39.2</ele><time>2026-04-12T10:08:06.999Z</time></trkpt><trkpt lat="47.25615230859002" lon="-1.5780858043595944"><ele>39.4</ele><time>2026-04-12T10:08:08.999Z</time></trkpt><trkpt lat="47.25609765858134" lon="-1.5780358482166918"><ele>39.6</ele><time>2026-04-12T10:08:09.999Z</time></trkpt><trkpt lat="47.256007050208055" lon="-1.5779441501959952"><ele>39.8</ele><time>2026-04-12T10:08:11.999Z</time></trkpt><trkpt lat="47.25591698665848" lon="-1.577859995888153"><ele>40.0</ele><time>2026-04-12T10:08:13.999Z</time></trkpt><trkpt lat="47.25582072050055" lon="-1.5777858160450846"><ele>40.16666666666667</ele><time>2026-04-12T10:08:15.999Z</time></trkpt><trkpt lat="47.25574637301942" lon="-1.577726807446757"><ele>40.333333333333336</ele><time>2026-04-12T10:08:17.999Z</time></trkpt><trkpt lat="47.25564541299572" lon="-1.5776630211636216"><ele>40.5</ele><time>2026-04-12T10:08:19.999Z</time></trkpt><trkpt lat="47.25558715876868" lon="-1.5776251349612862"><ele>40.666666666666664</ele><time>2026-04-12T10:08:20.999Z</time></trkpt><trkpt lat="47.25549675994297" lon="-1.5775424893960146"><ele>40.83333333333333</ele><time>2026-04-12T10:08:22.999Z</time></trkpt><trkpt lat="47.25542999808421" lon="-1.577496137471476"><ele>41.0</ele><time>2026-04-12T10:08:23.999Z</time></trkpt><trkpt lat="47.25532115907153" lon="-1.5774316806360869"><ele>40.599999999999994</ele><time>2026-04-12T10:08:25.999Z</time></trkpt><trkpt lat="47.25522904195567" lon="-1.5773110650494482"><ele>40.199999999999996</ele><time>2026-04-12T10:08:27.999Z</time></trkpt><trkpt lat="47.25517615214666" lon="-1.5772552415743257"><ele>39.8</ele><time>2026-04-12T10:08:28.999Z</time></trkpt><trkpt lat="47.255083615935646" lon="-1.57717091962842"><ele>39.4</ele><time>2026-04-12T10:08:30.999Z</time></trkpt><trkpt lat="47.2549754055657" lon="-1.577083077283182"><ele>39.0</ele><time>2026-04-12T10:08:32.999Z</time></trkpt><trkpt lat="47.25488404282113" lon="-1.5770006831750059"><ele>39.0</ele><time>2026-04-12T10:08:34.999Z</time></trkpt><trkpt lat="47.25482658487489" lon="-1.5769478771850252"><ele>39.0</ele><time>2026-04-12T10:08:35.999Z</time></trkpt><trkpt lat="47.25471887741914" lon="-1.5768618788584852"><ele>39.0</ele><time>2026-04-12T10:08:37.999Z</time></trkpt><trkpt lat="47.254615193276905" lon="-1.5767300315215966"><ele>39.0</ele><time>2026-04-12T10:08:39.999Z</time></trkpt><trkpt lat="47.254523453346685" lon="-1.5766850207015655"><ele>39.0</ele><time>2026-04-12T10:08:41.999Z</time></trkpt><trkpt lat="47.25441402760078" lon="-1.5766063146307845"><ele>38.8</ele><time>2026-04-12T10:08:43.999Z</time></trkpt><trkpt lat="47.254315037324325" lon="-1.5765250939890523"><ele>38.599999999999994</ele><time>2026-04-12T10:08:45.999Z</time></trkpt><trkpt lat="47.25421826825221" lon="-1.5765023790314574"><ele>38.4</ele><time>2026-04-12T10:08:46.999Z</time></trkpt><trkpt lat="47.25411374591966" lon="-1.5764171350762028"><ele>38.199999999999996</ele><time>2026-04-12T10:08:48.999Z</time></trkpt><trkpt lat="47.25405247420748" lon="-1.5763892233386416"><ele>38.0</ele><time>2026-04-12T10:08:49.999Z</time></trkpt><trkpt lat="47.25392142315139" lon="-1.5763358306154387"><ele>37.83333333333333</ele><time>2026-04-12T10:08:51.999Z</time></trkpt><trkpt lat="47.253859355158404" lon="-1.5763126965626852"><ele>37.666666666666664</ele><time>2026-04-12T10:08:52.999Z</time></trkpt><trkpt lat="47.25379716143687" lon="-1.5762960165753739"><ele>37.5</ele><time>2026-04-12T10:08:53.999Z</time></trkpt><trkpt lat="47.25366870877077" lon="-1.5762428753092663"><ele>37.333333333333336</ele><time>2026-04-12T10:08:55.999Z</time></trkpt><trkpt lat="47.253606095954076" lon="-1.5762288775309699"><ele>37.16666666666667</ele><time>2026-04-12T10:08:56.999Z</time></trkpt><trkpt lat="47.253541471480624" lon="-1.5762142092004197"><ele>37.0</ele><time>2026-04-12T10:08:57.999Z</time></trkpt><trkpt lat="47.253480157858924" lon="-1.5761925000712054"><ele>37.0</ele><time>2026-04-12T10:08:58.999Z</time></trkpt><trkpt lat="47.253419430970446" lon="-1.5761615708485024"><ele>37.0</ele><time>2026-04-12T10:08:59.999Z</time></trkpt><trkpt lat="47.25332982842554" lon="-1.5761399455383198"><ele>37.0</ele><time>2026-04-12T10:09:01.999Z</time></trkpt><trkpt lat="47.253203848420874" lon="-1.5761217568084374"><ele>37.0</ele><time>2026-04-12T10:09:03.999Z</time></trkpt><trkpt lat="47.25311772436579" lon="-1.5761143807336464"><ele>37.0</ele><time>2026-04-12T10:09:05.999Z</time></trkpt><trkpt lat="47.25306466691871" lon="-1.576024107636489"><ele>37.0</ele><time>2026-04-12T10:09:07.999Z</time></trkpt><trkpt lat="47.253047819293336" lon="-1.5758969541653767"><ele>37.0</ele><time>2026-04-12T10:09:09.999Z</time></trkpt><trkpt lat="47.25303570744325" lon="-1.5757423918708933"><ele>37.0</ele><time>2026-04-12T10:09:11.999Z</time></trkpt><trkpt lat="47.2529874695905" lon="-1.575581040234841"><ele>37.0</ele><time>2026-04-12T10:09:13.999Z</time></trkpt><trkpt lat="47.252941494851605" lon="-1.5754304174348484"><ele>37.0</ele><time>2026-04-12T10:09:15.999Z</time></trkpt><trkpt lat="47.2528796364062" lon="-1.5752595104291804"><ele>37.25</ele><time>2026-04-12T10:09:17.999Z</time></trkpt><trkpt lat="47.25282054398884" lon="-1.5751007571831113"><ele>37.5</ele><time>2026-04-12T10:09:19.999Z</time></trkpt><trkpt lat="47.252759272276656" lon="-1.5749436803176766"><ele>37.75</ele><time>2026-04-12T10:09:21.999Z</time></trkpt><trkpt lat="47.25271794949402" lon="-1.5748129226282004"><ele>38.0</ele><time>2026-04-12T10:09:23.999Z</time></trkpt><trkpt lat="47.25265814461489" lon="-1.5746667422368885"><ele>37.83333333333333</ele><time>2026-04-12T10:09:25.999Z</time></trkpt><trkpt lat="47.2525928914987" lon="-1.5744968410596014"><ele>37.666666666666664</ele><time>2026-04-12T10:09:27.999Z</time></trkpt><trkpt lat="47.25256263282825" lon="-1.5744049754008411"><ele>37.5</ele><time>2026-04-12T10:09:28.999Z</time></trkpt><trkpt lat="47.25252382461657" lon="-1.5743266046061872"><ele>37.333333333333336</ele><time>2026-04-12T10:09:29.999Z</time></trkpt><trkpt lat="47.25248375911941" lon="-1.574250664563453"><ele>37.16666666666667</ele><time>2026-04-12T10:09:30.999Z</time></trkpt><trkpt lat="47.25244298116048" lon="-1.5741718746736404"><ele>37.0</ele><time>2026-04-12T10:09:31.999Z</time></trkpt><trkpt lat="47.25241339304228" lon="-1.5740872174516078"><ele>37.0</ele><time>2026-04-12T10:09:32.999Z</time></trkpt><trkpt lat="47.25234633781691" lon="-1.5739374328419322"><ele>37.0</ele><time>2026-04-12T10:09:34.999Z</time></trkpt><trkpt lat="47.252282635352806" lon="-1.5737851336613053"><ele>37.0</ele><time>2026-04-12T10:09:36.999Z</time></trkpt><trkpt lat="47.25224730563094" lon="-1.5736982133254163"><ele>37.0</ele><time>2026-04-12T10:09:37.999Z</time></trkpt><trkpt lat="47.252183896533445" lon="-1.573518672959482"><ele>37.0</ele><time>2026-04-12T10:09:39.999Z</time></trkpt><trkpt lat="47.252117847136454" lon="-1.5733703132733454"><ele>37.0</ele><time>2026-04-12T10:09:41.999Z</time></trkpt><trkpt lat="47.25205649160524" lon="-1.5731989033534872"><ele>37.0</ele><time>2026-04-12T10:09:43.999Z</time></trkpt><trkpt lat="47.25202438891609" lon="-1.5731167607024061"><ele>37.0</ele><time>2026-04-12T10:09:44.999Z</time></trkpt><trkpt lat="47.25202107806434" lon="-1.5730241406723604"><ele>37.0</ele><time>2026-04-12T10:09:45.999Z</time></trkpt><trkpt lat="47.25198805336584" lon="-1.5729442611351356"><ele>37.0</ele><time>2026-04-12T10:09:46.999Z</time></trkpt><trkpt lat="47.25192791321059" lon="-1.572808390484725"><ele>37.0</ele><time>2026-04-12T10:09:48.999Z</time></trkpt><trkpt lat="47.2518814355575" lon="-1.5727132558837278"><ele>37.0</ele><time>2026-04-12T10:09:49.999Z</time></trkpt><trkpt lat="47.25183437117119" lon="-1.5726326219752176"><ele>37.0</ele><time>2026-04-12T10:09:50.999Z</time></trkpt><trkpt lat="47.25176597484131" lon="-1.5724855195745568"><ele>37.0</ele><time>2026-04-12T10:09:52.999Z</time></trkpt><trkpt lat="47.25172389768739" lon="-1.5724103339031081"><ele>37.0</ele><time>2026-04-12T10:09:53.999Z</time></trkpt><trkpt lat="47.25166807421227" lon="-1.5722438693061211"><ele>37.0</ele><time>2026-04-12T10:09:55.999Z</time></trkpt><trkpt lat="47.251631990119115" lon="-1.5721579547986129"><ele>37.0</ele><time>2026-04-12T10:09:56.999Z</time></trkpt><trkpt lat="47.25156518635084" lon="-1.5720142889782525"><ele>37.0</ele><time>2026-04-12T10:09:58.999Z</time></trkpt><trkpt lat="47.25153157491912" lon="-1.5719357505455351"><ele>37.0</ele><time>2026-04-12T10:09:59.999Z</time></trkpt><trkpt lat="47.25150072951545" lon="-1.5718534402563906"><ele>37.0</ele><time>2026-04-12T10:10:00.999Z</time></trkpt><trkpt lat="47.25146246612747" lon="-1.5717704594149922"><ele>37.0</ele><time>2026-04-12T10:10:01.999Z</time></trkpt><trkpt lat="47.251409408680395" lon="-1.5716187469675873"><ele>37.0</ele><time>2026-04-12T10:10:03.999Z</time></trkpt><trkpt lat="47.251373282677726" lon="-1.5715358499452206"><ele>37.0</ele><time>2026-04-12T10:10:04.999Z</time></trkpt><trkpt lat="47.25133233708073" lon="-1.5714563895031544"><ele>37.0</ele><time>2026-04-12T10:10:05.999Z</time></trkpt><trkpt lat="47.25129759409209" lon="-1.571378437803659"><ele>37.0</ele><time>2026-04-12T10:10:06.999Z</time></trkpt><trkpt lat="47.251260168894426" lon="-1.5712965466096729"><ele>37.0</ele><time>2026-04-12T10:10:07.999Z</time></trkpt><trkpt lat="47.2512233723395" lon="-1.5712053515031665"><ele>37.0</ele><time>2026-04-12T10:10:08.999Z</time></trkpt><trkpt lat="47.25115539510478" lon="-1.5710610151305524"><ele>37.0</ele><time>2026-04-12T10:10:10.999Z</time></trkpt><trkpt lat="47.25108976480295" lon="-1.5709120687111942"><ele>37.0</ele><time>2026-04-12T10:10:12.999Z</time></trkpt><trkpt lat="47.251026271886424" lon="-1.5707511361703004"><ele>37.0</ele><time>2026-04-12T10:10:14.999Z</time></trkpt><trkpt lat="47.25096558690746" lon="-1.570595987142595"><ele>37.0</ele><time>2026-04-12T10:10:16.999Z</time></trkpt><trkpt lat="47.2508980287679" lon="-1.5704425983145558"><ele>37.0</ele><time>2026-04-12T10:10:18.999Z</time></trkpt><trkpt lat="47.250853646590606" lon="-1.5703719388708195"><ele>37.0</ele><time>2026-04-12T10:10:19.999Z</time></trkpt><trkpt lat="47.25079094995488" lon="-1.5702225733563027"><ele>36.800000000000004</ele><time>2026-04-12T10:10:21.999Z</time></trkpt><trkpt lat="47.25070981313218" lon="-1.5700988564654905"><ele>36.6</ele><time>2026-04-12T10:10:23.999Z</time></trkpt><trkpt lat="47.2507114476033" lon="-1.5700043924167473"><ele>36.400000000000006</ele><time>2026-04-12T10:10:24.999Z</time></trkpt><trkpt lat="47.25065968935122" lon="-1.5698531828835325"><ele>36.2</ele><time>2026-04-12T10:10:26.999Z</time></trkpt><trkpt lat="47.25058714397927" lon="-1.569696357475193"><ele>36.0</ele><time>2026-04-12T10:10:28.999Z</time></trkpt><trkpt lat="47.2505396604978" lon="-1.5696205012514903"><ele>35.85714285714286</ele><time>2026-04-12T10:10:29.999Z</time></trkpt><trkpt lat="47.25050701298495" lon="-1.5695389453336313"><ele>35.714285714285715</ele><time>2026-04-12T10:10:30.999Z</time></trkpt><trkpt lat="47.250463720455066" lon="-1.5694433916374755"><ele>35.57142857142857</ele><time>2026-04-12T10:10:31.999Z</time></trkpt><trkpt lat="47.25041686561634" lon="-1.5693506877883983"><ele>35.42857142857143</ele><time>2026-04-12T10:10:32.999Z</time></trkpt><trkpt lat="47.25037667439063" lon="-1.5692588221296382"><ele>35.285714285714285</ele><time>2026-04-12T10:10:33.999Z</time></trkpt><trkpt lat="47.250328855633036" lon="-1.5691883303239653"><ele>35.142857142857146</ele><time>2026-04-12T10:10:34.999Z</time></trkpt><trkpt lat="47.25029034078796" lon="-1.569105098025472"><ele>35.0</ele><time>2026-04-12T10:10:35.999Z</time></trkpt><trkpt lat="47.25025010765274" lon="-1.5690284036114523"><ele>35.0</ele><time>2026-04-12T10:10:36.999Z</time></trkpt><trkpt lat="47.2502048034661" lon="-1.5689493622645445"><ele>35.0</ele><time>2026-04-12T10:10:37.999Z</time></trkpt><trkpt lat="47.25009609018196" lon="-1.5688323508962698"><ele>35.0</ele><time>2026-04-12T10:10:39.999Z</time></trkpt><trkpt lat="47.250035656660096" lon="-1.568787507714302"><ele>35.0</ele><time>2026-04-12T10:10:41Z</time></trkpt><trkpt lat="47.24990255203773" lon="-1.5686909481897657"><ele>35.0</ele><time>2026-04-12T10:10:43Z</time></trkpt><trkpt lat="47.2498403583162" lon="-1.5686465241029566"><ele>35.142857142857146</ele><time>2026-04-12T10:10:44Z</time></trkpt><trkpt lat="47.2497798409753" lon="-1.5686189476415222"><ele>35.285714285714285</ele><time>2026-04-12T10:10:45Z</time></trkpt><trkpt lat="47.2497106064551" lon="-1.5685791336014574"><ele>35.42857142857143</ele><time>2026-04-12T10:10:46Z</time></trkpt><trkpt lat="47.249647867909864" lon="-1.5685463603600567"><ele>35.57142857142857</ele><time>2026-04-12T10:10:47Z</time></trkpt><trkpt lat="47.249570167667464" lon="-1.5685161016896074"><ele>35.714285714285715</ele><time>2026-04-12T10:10:48Z</time></trkpt><trkpt lat="47.24950332198967" lon="-1.5684886928662363"><ele>35.85714285714286</ele><time>2026-04-12T10:10:49Z</time></trkpt><trkpt lat="47.24942687903275" lon="-1.5684671513750854"><ele>36.0</ele><time>2026-04-12T10:10:50Z</time></trkpt><trkpt lat="47.24936485294928" lon="-1.5684446878745857"><ele>36.0</ele><time>2026-04-12T10:10:51Z</time></trkpt><trkpt lat="47.249241848520235" lon="-1.5684070531293455"><ele>36.0</ele><time>2026-04-12T10:10:53Z</time></trkpt><trkpt lat="47.24916984797199" lon="-1.5683791413917842"><ele>36.0</ele><time>2026-04-12T10:10:54Z</time></trkpt><trkpt lat="47.24902823571791" lon="-1.5683410037323537"><ele>36.0</ele><time>2026-04-12T10:10:56Z</time></trkpt><trkpt lat="47.24894877527584" lon="-1.5683305263533893"><ele>36.0</ele><time>2026-04-12T10:10:57Z</time></trkpt><trkpt lat="47.24887078166683" lon="-1.5683170314892831"><ele>35.333333333333336</ele><time>2026-04-12T10:10:58Z</time></trkpt><trkpt lat="47.24878214304079" lon="-1.568303536625177"><ele>34.666666666666664</ele><time>2026-04-12T10:10:59Z</time></trkpt><trkpt lat="47.248706328726605" lon="-1.5682892035707536"><ele>34.0</ele><time>2026-04-12T10:11:00Z</time></trkpt><trkpt lat="47.2485865932398" lon="-1.568243941293627"><ele>33.33333333333333</ele><time>2026-04-12T10:11:02Z</time></trkpt><trkpt lat="47.24852175921877" lon="-1.5682253334685863"><ele>32.666666666666664</ele><time>2026-04-12T10:11:03Z</time></trkpt><trkpt lat="47.24843890410592" lon="-1.5682040434345306"><ele>32.0</ele><time>2026-04-12T10:11:04Z</time></trkpt><trkpt lat="47.24831707314332" lon="-1.5681560151293576"><ele>31.999999999999996</ele><time>2026-04-12T10:11:06Z</time></trkpt><trkpt lat="47.24824151028623" lon="-1.568141765893966"><ele>32.0</ele><time>2026-04-12T10:11:07Z</time></trkpt><trkpt lat="47.24817504179408" lon="-1.5681079868241847"><ele>32.0</ele><time>2026-04-12T10:11:08Z</time></trkpt><trkpt lat="47.2481108783253" lon="-1.568079320715338"><ele>32.0</ele><time>2026-04-12T10:11:09Z</time></trkpt><trkpt lat="47.24804977425118" lon="-1.5680427756175102"><ele>31.999999999999996</ele><time>2026-04-12T10:11:10Z</time></trkpt><trkpt lat="47.24792651836504" lon="-1.5679597947761117"><ele>32.0</ele><time>2026-04-12T10:11:12Z</time></trkpt><trkpt lat="47.247868515595094" lon="-1.5679203998312055"><ele>31.200000000000003</ele><time>2026-04-12T10:11:13Z</time></trkpt><trkpt lat="47.24777857777406" lon="-1.5678401011988221"><ele>30.400000000000002</ele><time>2026-04-12T10:11:15Z</time></trkpt><trkpt lat="47.24769132216205" lon="-1.567800957711011"><ele>29.599999999999998</ele><time>2026-04-12T10:11:16Z</time></trkpt><trkpt lat="47.247635917782084" lon="-1.5677499957397278"><ele>28.799999999999997</ele><time>2026-04-12T10:11:17Z</time></trkpt><trkpt lat="47.247536047405795" lon="-1.5677186474218663"><ele>28.0</ele><time>2026-04-12T10:11:18Z</time></trkpt><trkpt lat="47.247446193403796" lon="-1.5676427073791321"><ele>28.0</ele><time>2026-04-12T10:11:20Z</time></trkpt><trkpt lat="47.24737209737976" lon="-1.56763331964758"><ele>27.999999999999996</ele><time>2026-04-12T10:11:21Z</time></trkpt><trkpt lat="47.247276837050215" lon="-1.5676693618312176"><ele>27.999999999999996</ele><time>2026-04-12T10:11:23Z</time></trkpt><trkpt lat="47.24722901829262" lon="-1.5678041428342162"><ele>28.0</ele><time>2026-04-12T10:11:25Z</time></trkpt><trkpt lat="47.247193269475595" lon="-1.5679447911694346"><ele>28.0</ele><time>2026-04-12T10:11:27Z</time></trkpt><trkpt lat="47.24717855923553" lon="-1.5680918935700954"><ele>28.000000000000004</ele><time>2026-04-12T10:11:29Z</time></trkpt><trkpt lat="47.24718723450531" lon="-1.5681845974191726"><ele>28.0</ele><time>2026-04-12T10:11:30Z</time></trkpt><trkpt lat="47.24717264999379" lon="-1.5683375671520534"><ele>28.0</ele><time>2026-04-12T10:11:32Z</time></trkpt><trkpt lat="47.247142181775764" lon="-1.5684665646418634"><ele>28.0</ele><time>2026-04-12T10:11:34Z</time></trkpt><trkpt lat="47.247116868428186" lon="-1.568586342038185"><ele>28.000000000000004</ele><time>2026-04-12T10:11:36Z</time></trkpt><trkpt lat="47.247097548141376" lon="-1.5686785429730719"><ele>28.0</ele><time>2026-04-12T10:11:38Z</time></trkpt><trkpt lat="47.24703975491901" lon="-1.5687406528755732"><ele>29.0</ele><time>2026-04-12T10:11:40Z</time></trkpt><trkpt lat="47.24696737718512" lon="-1.5688074566438504"><ele>29.0</ele><time>2026-04-12T10:11:43Z</time></trkpt><trkpt lat="47.2468869947337" lon="-1.5687808860107966"><ele>29.0</ele><time>2026-04-12T10:11:46Z</time></trkpt><trkpt lat="47.246817131570765" lon="-1.56876102090028"><ele>29.0</ele><time>2026-04-12T10:11:48Z</time></trkpt><trkpt lat="47.24675376438279" lon="-1.5687591768815823"><ele>29.0</ele><time>2026-04-12T10:11:51Z</time></trkpt><trkpt lat="47.246688134080955" lon="-1.5687637869283266"><ele>29.0</ele><time>2026-04-12T10:12:00Z</time></trkpt><trkpt lat="47.246620240665266" lon="-1.568743083627493"><ele>29.0</ele><time>2026-04-12T10:12:08Z</time></trkpt></trkseg></trk></gpx>